
Distance (Route):
Temperature : 0°C
Humidity : 0%
Pressure : 0hPa| Receiver | Frames | First received | Last received |
|---|---|---|---|
| SQ6EMJ | 724 | 2026-09-02 11:29:53 | 2026-09-02 13:08:01 |
| KRY50SP | 478 | 2026-09-02 11:41:21 | 2026-09-02 13:02:08 |
| POL1PZ | 230 | 2026-09-02 11:29:51 | 2026-09-02 13:20:21 |
| PETON7-10 | 151 | 2026-09-02 12:10:28 | 2026-09-02 12:51:23 |
| SP3BTT-10 | 58 | 2026-09-02 11:44:15 | 2026-09-02 13:04:34 |
| OM5KV | 33 | 2026-09-02 12:10:12 | 2026-09-02 12:13:08 |
| OE5DRO-10 | 29 | 2026-09-02 12:18:02 | 2026-09-02 12:47:13 |
| SP4MAZ | 11 | 2026-09-02 12:25:42 | 2026-09-02 12:44:47 |
| OK1SLM-15 | 4 | 2026-09-02 12:32:19 | 2026-09-02 12:33:47 |
| SP6BVK | 2 | 2026-09-02 13:23:10 | 2026-09-02 13:23:31 |
| Receiver | Date | Latitude | Longitude | Direction | Speed | Altitude | Climb | Temperature | Humidity | Pressure | Voltage | Killtimer | Uptime | BKT | XDATA |
|---|---|---|---|---|---|---|---|---|---|---|---|---|---|---|---|
| SP6BVK | 2026-09-02 13:23:31 | 51.12268 | 17.94121 | 91° | 42km/h | 1867m | -9.6m/s | 0°C | 0% | 0hPa | 0V | 00:00:00 | 00:00:00 | 00:00:00 | |
| SP6BVK | 2026-09-02 13:23:10 | 51.12276 | 17.93758 | 95° | 44km/h | 2099m | -11.2m/s | 0°C | 0% | 0hPa | 0V | 00:00:00 | 00:00:00 | 00:00:00 | |
| POL1PZ | 2026-09-02 13:20:21 | 51.12675 | 17.91440 | 109° | 47km/h | 3914m | -10.7m/s | 0°C | 0% | 0hPa | 0V | 00:00:00 | 00:00:00 | 00:00:00 | |
| POL1PZ | 2026-09-02 13:19:56 | 51.12790 | 17.90975 | 114° | 51km/h | 4183m | -11.1m/s | 0°C | 0% | 0hPa | 0V | 00:00:00 | 00:00:00 | 00:00:00 | |
| POL1PZ | 2026-09-02 13:19:26 | 51.12909 | 17.90426 | 107° | 49km/h | 4499m | -11.1m/s | 0°C | 0% | 0hPa | 0V | 00:00:00 | 00:00:00 | 00:00:00 | |
| POL1PZ | 2026-09-02 13:19:03 | 51.12992 | 17.90029 | 112° | 44km/h | 4741m | -11.1m/s | 0°C | 0% | 0hPa | 0V | 00:00:00 | 00:00:00 | 00:00:00 | |
| POL1PZ | 2026-09-02 13:18:20 | 51.13158 | 17.89302 | 103° | 47km/h | 5210m | -11.3m/s | 0°C | 0% | 0hPa | 0V | 00:00:00 | 00:00:00 | 00:00:00 | |
| POL1PZ | 2026-09-02 13:17:59 | 51.13173 | 17.88953 | 86° | 40km/h | 5457m | -11.5m/s | 0°C | 0% | 0hPa | 0V | 00:00:00 | 00:00:00 | 00:00:00 | |
| POL1PZ | 2026-09-02 13:16:59 | 51.13007 | 17.87974 | 78° | 51km/h | 6033m | -7.9m/s | 0°C | 0% | 0hPa | 0V | 00:00:00 | 00:00:00 | 00:00:00 | |
| POL1PZ | 2026-09-02 13:16:30 | 51.12914 | 17.87442 | 73° | 40km/h | 6261m | -6.4m/s | 0°C | 0% | 0hPa | 0V | 00:00:00 | 00:00:00 | 00:00:00 | |
| POL1PZ | 2026-09-02 13:15:04 | 51.12733 | 17.86023 | 84° | 49km/h | 7022m | -7.4m/s | 0°C | 0% | 0hPa | 0V | 00:00:00 | 00:00:00 | 00:00:00 | |
| POL1PZ | 2026-09-02 13:14:42 | 51.12703 | 17.85589 | 85° | 49km/h | 7194m | -7.0m/s | 0°C | 0% | 0hPa | 0V | 00:00:00 | 00:00:00 | 00:00:00 | |
| POL1PZ | 2026-09-02 13:14:20 | 51.12682 | 17.85143 | 89° | 49km/h | 7372m | -6.5m/s | 0°C | 0% | 0hPa | 0V | 00:00:00 | 00:00:00 | 00:00:00 | |
| POL1PZ | 2026-09-02 13:14:00 | 51.12662 | 17.84730 | 85° | 51km/h | 7526m | -7.5m/s | 0°C | 0% | 0hPa | 0V | 00:00:00 | 00:00:00 | 00:00:00 | |
| POL1PZ | 2026-09-02 13:12:08 | 51.12348 | 17.82393 | 71° | 49km/h | 8446m | -7.4m/s | 0°C | 0% | 0hPa | 0V | 00:00:00 | 00:00:00 | 00:00:00 | |
| POL1PZ | 2026-09-02 13:11:41 | 51.12234 | 17.81887 | 73° | 47km/h | 8683m | -8.5m/s | 0°C | 0% | 0hPa | 0V | 00:00:00 | 00:00:00 | 00:00:00 | |
| POL1PZ | 2026-09-02 13:10:36 | 51.12001 | 17.80520 | 80° | 60km/h | 9304m | -8.5m/s | 0°C | 0% | 0hPa | 0V | 00:00:00 | 00:00:00 | 00:00:00 | |
| POL1PZ | 2026-09-02 13:09:58 | 51.11902 | 17.79651 | 87° | 57km/h | 9650m | -10.2m/s | 0°C | 0% | 0hPa | 0V | 00:00:00 | 00:00:00 | 00:00:00 | |
| POL1PZ | 2026-09-02 13:09:11 | 51.11818 | 17.78553 | 87° | 60km/h | 10116m | -9.6m/s | 0°C | 0% | 0hPa | 0V | 00:00:00 | 00:00:00 | 00:00:00 | |
| POL1PZ | 2026-09-02 13:08:51 | 51.11763 | 17.78080 | 84° | 58km/h | 10323m | -9.8m/s | 0°C | 0% | 0hPa | 0V | 00:00:00 | 00:00:00 | 00:00:00 | |
| POL1PZ | 2026-09-02 13:08:27 | 51.11725 | 17.77472 | 85° | 71km/h | 10580m | -10.9m/s | 0°C | 0% | 0hPa | 0V | 00:00:00 | 00:00:00 | 00:00:00 | |
| POL1PZ | 2026-09-02 13:08:07 | 51.11664 | 17.76903 | 81° | 75km/h | 10798m | -11.1m/s | 0°C | 0% | 0hPa | 0V | 00:00:00 | 00:00:00 | 00:00:00 | |
| SQ6EMJ | 2026-09-02 13:08:01 | 51.11642 | 17.76724 | 81° | 75km/h | 10863m | -10.5m/s | 0°C | 0% | 0hPa | 0V | 00:00:00 | 00:00:00 | 00:00:00 | |
| POL1PZ | 2026-09-02 13:07:43 | 51.11563 | 17.76150 | 81° | 86km/h | 11062m | -11.0m/s | 0°C | 0% | 0hPa | 0V | 00:00:00 | 00:00:00 | 00:00:00 | |
| POL1PZ | 2026-09-02 13:07:19 | 51.11510 | 17.75444 | 88° | 64km/h | 11315m | -9.7m/s | 0°C | 0% | 0hPa | 0V | 00:00:00 | 00:00:00 | 00:00:00 | |
| POL1PZ | 2026-09-02 13:06:49 | 51.11438 | 17.74750 | 79° | 64km/h | 11631m | -10.9m/s | 0°C | 0% | 0hPa | 0V | 00:00:00 | 00:00:00 | 00:00:00 | |
| SQ6EMJ | 2026-09-02 13:06:47 | 51.11431 | 17.74699 | 82° | 64km/h | 11656m | -11.2m/s | 0°C | 0% | 0hPa | 0V | 00:00:00 | 00:00:00 | 00:00:00 | |
| SQ6EMJ | 2026-09-02 13:06:39 | 51.11416 | 17.74492 | 89° | 66km/h | 11746m | -10.3m/s | 0°C | 0% | 0hPa | 0V | 00:00:00 | 00:00:00 | 00:00:00 | |
| POL1PZ | 2026-09-02 13:06:15 | 51.11405 | 17.73957 | 95° | 55km/h | 12000m | -11.7m/s | 0°C | 0% | 0hPa | 0V | 00:00:00 | 00:00:00 | 00:00:00 | |
| SQ6EMJ | 2026-09-02 13:05:30 | 51.11357 | 17.72858 | 94° | 69km/h | 12500m | -10.2m/s | 0°C | 0% | 0hPa | 0V | 00:00:00 | 00:00:00 | 00:00:00 | |
| POL1PZ | 2026-09-02 13:05:25 | 51.11360 | 17.72722 | 96° | 68km/h | 12556m | -10.9m/s | 0°C | 0% | 0hPa | 0V | 00:00:00 | 00:00:00 | 00:00:00 | |
| SQ6EMJ | 2026-09-02 13:05:16 | 51.11360 | 17.72467 | 88° | 60km/h | 12672m | -10.7m/s | 0°C | 0% | 0hPa | 0V | 00:00:00 | 00:00:00 | 00:00:00 | |
| SQ6EMJ | 2026-09-02 13:05:09 | 51.11355 | 17.72317 | 87° | 68km/h | 12742m | -11.6m/s | 0°C | 0% | 0hPa | 0V | 00:00:00 | 00:00:00 | 00:00:00 | |
| POL1PZ | 2026-09-02 13:05:04 | 51.11344 | 17.72183 | 84° | 71km/h | 12799m | -11.3m/s | 0°C | 0% | 0hPa | 0V | 00:00:00 | 00:00:00 | 00:00:00 | |
| SQ6EMJ | 2026-09-02 13:05:02 | 51.11341 | 17.72130 | 86° | 66km/h | 12822m | -10.8m/s | 0°C | 0% | 0hPa | 0V | 00:00:00 | 00:00:00 | 00:00:00 | |
| SQ6EMJ | 2026-09-02 13:04:53 | 51.11338 | 17.71885 | 92° | 71km/h | 12926m | -10.9m/s | 0°C | 0% | 0hPa | 0V | 00:00:00 | 00:00:00 | 00:00:00 | |
| POL1PZ | 2026-09-02 13:04:43 | 51.11344 | 17.71627 | 87° | 57km/h | 13041m | -10.9m/s | 0°C | 0% | 0hPa | 0V | 00:00:00 | 00:00:00 | 00:00:00 | |
| SQ6EMJ | 2026-09-02 13:04:35 | 51.11350 | 17.71458 | 89° | 51km/h | 13134m | -11.3m/s | 0°C | 0% | 0hPa | 0V | 00:00:00 | 00:00:00 | 00:00:00 | |
| SP3BTT-10 | 2026-09-02 13:04:34 | 51.11349 | 17.71438 | 85° | 53km/h | 13146m | -10.8m/s | 0°C | 0% | 0hPa | 0V | 00:00:00 | 00:00:00 | 00:00:00 | |
| SQ6EMJ | 2026-09-02 13:04:27 | 51.11342 | 17.71281 | 85° | 57km/h | 13228m | -10.7m/s | 0°C | 0% | 0hPa | 0V | 00:00:00 | 00:00:00 | 00:00:00 | |
| POL1PZ | 2026-09-02 13:04:22 | 51.11334 | 17.71161 | 87° | 62km/h | 13289m | -11.7m/s | 0°C | 0% | 0hPa | 0V | 00:00:00 | 00:00:00 | 00:00:00 | |
| SQ6EMJ | 2026-09-02 13:04:21 | 51.11333 | 17.71136 | 85° | 62km/h | 13302m | -10.7m/s | 0°C | 0% | 0hPa | 0V | 00:00:00 | 00:00:00 | 00:00:00 | |
| SQ6EMJ | 2026-09-02 13:04:14 | 51.11325 | 17.70956 | 86° | 66km/h | 13386m | -11.8m/s | 0°C | 0% | 0hPa | 0V | 00:00:00 | 00:00:00 | 00:00:00 | |
| SQ6EMJ | 2026-09-02 13:04:08 | 51.11327 | 17.70801 | 92° | 58km/h | 13459m | -11.1m/s | 0°C | 0% | 0hPa | 0V | 00:00:00 | 00:00:00 | 00:00:00 | |
| POL1PZ | 2026-09-02 13:03:57 | 51.11340 | 17.70553 | 96° | 58km/h | 13586m | -11.1m/s | 0°C | 0% | 0hPa | 0V | 00:00:00 | 00:00:00 | 00:00:00 | |
| SQ6EMJ | 2026-09-02 13:03:55 | 51.11341 | 17.70505 | 98° | 60km/h | 13609m | -11.6m/s | 0°C | 0% | 0hPa | 0V | 00:00:00 | 00:00:00 | 00:00:00 | |
| SQ6EMJ | 2026-09-02 13:03:46 | 51.11358 | 17.70282 | 98° | 58km/h | 13717m | -11.1m/s | 0°C | 0% | 0hPa | 0V | 00:00:00 | 00:00:00 | 00:00:00 | |
| SQ6EMJ | 2026-09-02 13:03:40 | 51.11375 | 17.70142 | 104° | 58km/h | 13787m | -11.8m/s | 0°C | 0% | 0hPa | 0V | 00:00:00 | 00:00:00 | 00:00:00 | |
| POL1PZ | 2026-09-02 13:03:36 | 51.11390 | 17.70054 | 107° | 55km/h | 13836m | -12.3m/s | 0°C | 0% | 0hPa | 0V | 00:00:00 | 00:00:00 | 00:00:00 | |
| SQ6EMJ | 2026-09-02 13:03:28 | 51.11405 | 17.69898 | 94° | 44km/h | 13933m | -11.0m/s | 0°C | 0% | 0hPa | 0V | 00:00:00 | 00:00:00 | 00:00:00 | |
| SQ6EMJ | 2026-09-02 13:03:22 | 51.11414 | 17.69798 | 94° | 42km/h | 14004m | -11.0m/s | 0°C | 0% | 0hPa | 0V | 00:00:00 | 00:00:00 | 00:00:00 | |
| SQ6EMJ | 2026-09-02 13:03:17 | 51.11414 | 17.69707 | 87° | 47km/h | 14066m | -11.7m/s | 0°C | 0% | 0hPa | 0V | 00:00:00 | 00:00:00 | 00:00:00 | |
| POL1PZ | 2026-09-02 13:03:15 | 51.11411 | 17.69670 | 83° | 46km/h | 14091m | -10.4m/s | 0°C | 0% | 0hPa | 0V | 00:00:00 | 00:00:00 | 00:00:00 | |
| SQ6EMJ | 2026-09-02 13:03:11 | 51.11405 | 17.69597 | 77° | 44km/h | 14140m | -11.9m/s | 0°C | 0% | 0hPa | 0V | 00:00:00 | 00:00:00 | 00:00:00 | |
| SP3BTT-10 | 2026-09-02 13:03:04 | 51.11386 | 17.69474 | 74° | 53km/h | 14225m | -12.3m/s | 0°C | 0% | 0hPa | 0V | 00:00:00 | 00:00:00 | 00:00:00 | |
| SQ6EMJ | 2026-09-02 13:02:57 | 51.11364 | 17.69331 | 77° | 57km/h | 14315m | -12.1m/s | 0°C | 0% | 0hPa | 0V | 00:00:00 | 00:00:00 | 00:00:00 | |
| POL1PZ | 2026-09-02 13:02:53 | 51.11353 | 17.69233 | 78° | 64km/h | 14369m | -11.7m/s | 0°C | 0% | 0hPa | 0V | 00:00:00 | 00:00:00 | 00:00:00 | |
| SQ6EMJ | 2026-09-02 13:02:47 | 51.11335 | 17.69079 | 78° | 62km/h | 14444m | -11.6m/s | 0°C | 0% | 0hPa | 0V | 00:00:00 | 00:00:00 | 00:00:00 | |
| SQ6EMJ | 2026-09-02 13:02:43 | 51.11324 | 17.68957 | 86° | 64km/h | 14507m | -11.6m/s | 0°C | 0% | 0hPa | 0V | 00:00:00 | 00:00:00 | 00:00:00 | |
| SQ6EMJ | 2026-09-02 13:02:36 | 51.11314 | 17.68806 | 85° | 64km/h | 14584m | -11.4m/s | 0°C | 0% | 0hPa | 0V | 00:00:00 | 00:00:00 | 00:00:00 | |
| POL1PZ | 2026-09-02 13:02:32 | 51.11309 | 17.68701 | 89° | 66km/h | 14633m | -12.1m/s | 0°C | 0% | 0hPa | 0V | 00:00:00 | 00:00:00 | 00:00:00 | |
| SQ6EMJ | 2026-09-02 13:02:31 | 51.11308 | 17.68675 | 89° | 64km/h | 14646m | -11.9m/s | 0°C | 0% | 0hPa | 0V | 00:00:00 | 00:00:00 | 00:00:00 | |
| SQ6EMJ | 2026-09-02 13:02:26 | 51.11309 | 17.68538 | 93° | 71km/h | 14709m | -13.9m/s | 0°C | 0% | 0hPa | 0V | 00:00:00 | 00:00:00 | 00:00:00 | |
| SQ6EMJ | 2026-09-02 13:02:15 | 51.11337 | 17.68200 | 105° | 80km/h | 14859m | -12.5m/s | 0°C | 0% | 0hPa | 0V | 00:00:00 | 00:00:00 | 00:00:00 | |
| POL1PZ | 2026-09-02 13:02:09 | 51.11360 | 17.68028 | 103° | 71km/h | 14936m | -12.9m/s | 0°C | 0% | 0hPa | 0V | 00:00:00 | 00:00:00 | 00:00:00 | |
| KRY50SP | 2026-09-02 13:02:08 | 51.11364 | 17.68000 | 105° | 73km/h | 14950m | -12.2m/s | 0°C | 0% | 0hPa | 0V | 00:00:00 | 00:00:00 | 00:00:00 | |
| SQ6EMJ | 2026-09-02 13:02:02 | 51.11394 | 17.67823 | 107° | 75km/h | 15027m | -11.9m/s | 0°C | 0% | 0hPa | 0V | 00:00:00 | 00:00:00 | 00:00:00 | |
| KRY50SP | 2026-09-02 13:01:57 | 51.11419 | 17.67681 | 105° | 68km/h | 15093m | -11.9m/s | 0°C | 0% | 0hPa | 0V | 00:00:00 | 00:00:00 | 00:00:00 | |
| SQ6EMJ | 2026-09-02 13:01:55 | 51.11428 | 17.67628 | 107° | 68km/h | 15118m | -12.8m/s | 0°C | 0% | 0hPa | 0V | 00:00:00 | 00:00:00 | 00:00:00 | |
| SQ6EMJ | 2026-09-02 13:01:49 | 51.11453 | 17.67490 | 109° | 51km/h | 15194m | -12.6m/s | 0°C | 0% | 0hPa | 0V | 00:00:00 | 00:00:00 | 00:00:00 | |
| POL1PZ | 2026-09-02 13:01:48 | 51.11457 | 17.67471 | 106° | 51km/h | 15207m | -12.7m/s | 0°C | 0% | 0hPa | 0V | 00:00:00 | 00:00:00 | 00:00:00 | |
| SQ6EMJ | 2026-09-02 13:01:43 | 51.11478 | 17.67377 | 110° | 46km/h | 15272m | -13.5m/s | 0°C | 0% | 0hPa | 0V | 00:00:00 | 00:00:00 | 00:00:00 | |
| SQ6EMJ | 2026-09-02 13:01:38 | 51.11495 | 17.67282 | 103° | 40km/h | 15351m | -13.3m/s | 0°C | 0% | 0hPa | 0V | 00:00:00 | 00:00:00 | 00:00:00 | |
| SQ6EMJ | 2026-09-02 13:01:31 | 51.11502 | 17.67189 | 88° | 38km/h | 15432m | -12.3m/s | 0°C | 0% | 0hPa | 0V | 00:00:00 | 00:00:00 | 00:00:00 | |
| POL1PZ | 2026-09-02 13:01:28 | 51.11497 | 17.67144 | 80° | 38km/h | 15470m | -12.6m/s | 0°C | 0% | 0hPa | 0V | 00:00:00 | 00:00:00 | 00:00:00 | |
| SQ6EMJ | 2026-09-02 13:01:26 | 51.11493 | 17.67114 | 74° | 37km/h | 15496m | -13.4m/s | 0°C | 0% | 0hPa | 0V | 00:00:00 | 00:00:00 | 00:00:00 | |
| SQ6EMJ | 2026-09-02 13:01:21 | 51.11482 | 17.67032 | 79° | 44km/h | 15565m | -13.7m/s | 0°C | 0% | 0hPa | 0V | 00:00:00 | 00:00:00 | 00:00:00 | |
| SQ6EMJ | 2026-09-02 13:01:13 | 51.11476 | 17.66875 | 94° | 53km/h | 15677m | -12.4m/s | 0°C | 0% | 0hPa | 0V | 00:00:00 | 00:00:00 | 00:00:00 | |
| POL1PZ | 2026-09-02 13:01:09 | 51.11481 | 17.66774 | 92° | 46km/h | 15743m | -13.1m/s | 0°C | 0% | 0hPa | 0V | 00:00:00 | 00:00:00 | 00:00:00 | |
| SQ6EMJ | 2026-09-02 13:01:04 | 51.11478 | 17.66679 | 80° | 44km/h | 15813m | -13.4m/s | 0°C | 0% | 0hPa | 0V | 00:00:00 | 00:00:00 | 00:00:00 | |
| SQ6EMJ | 2026-09-02 13:00:57 | 51.11467 | 17.66561 | 82° | 51km/h | 15895m | -13.5m/s | 0°C | 0% | 0hPa | 0V | 00:00:00 | 00:00:00 | 00:00:00 | |
| SQ6EMJ | 2026-09-02 13:00:51 | 51.11457 | 17.66440 | 87° | 46km/h | 15981m | -13.2m/s | 0°C | 0% | 0hPa | 0V | 00:00:00 | 00:00:00 | 00:00:00 | |
| KRY50SP | 2026-09-02 13:00:50 | 51.11457 | 17.66422 | 92° | 46km/h | 15995m | -13.1m/s | 0°C | 0% | 0hPa | 0V | 00:00:00 | 00:00:00 | 00:00:00 | |
| POL1PZ | 2026-09-02 13:00:46 | 51.11461 | 17.66341 | 95° | 53km/h | 16051m | -14.6m/s | 0°C | 0% | 0hPa | 0V | 00:00:00 | 00:00:00 | 00:00:00 | |
| KRY50SP | 2026-09-02 13:00:45 | 51.11462 | 17.66230 | 87° | 53km/h | 16123m | -12.7m/s | 0°C | 0% | 0hPa | 0V | 00:00:00 | 00:00:00 | 00:00:00 | |
| SQ6EMJ | 2026-09-02 13:00:39 | 51.11461 | 17.66188 | 87° | 51km/h | 16153m | -13.6m/s | 0°C | 0% | 0hPa | 0V | 00:00:00 | 00:00:00 | 00:00:00 | |
| SQ6EMJ | 2026-09-02 13:00:34 | 51.11457 | 17.66085 | 96° | 51km/h | 16223m | -14.1m/s | 0°C | 0% | 0hPa | 0V | 00:00:00 | 00:00:00 | 00:00:00 | |
| SQ6EMJ | 2026-09-02 13:00:28 | 51.11465 | 17.65949 | 91° | 58km/h | 16312m | -13.3m/s | 0°C | 0% | 0hPa | 0V | 00:00:00 | 00:00:00 | 00:00:00 | |
| SQ6EMJ | 2026-09-02 13:00:22 | 51.11458 | 17.65813 | 90° | 51km/h | 16396m | -13.3m/s | 0°C | 0% | 0hPa | 0V | 00:00:00 | 00:00:00 | 00:00:00 | |
| POL1PZ | 2026-09-02 13:00:21 | 51.11458 | 17.65793 | 93° | 49km/h | 16411m | -14.1m/s | 0°C | 0% | 0hPa | 0V | 00:00:00 | 00:00:00 | 00:00:00 | |
| SQ6EMJ | 2026-09-02 13:00:14 | 51.11468 | 17.65646 | 96° | 55km/h | 16516m | -13.9m/s | 0°C | 0% | 0hPa | 0V | 00:00:00 | 00:00:00 | 00:00:00 | |
| SQ6EMJ | 2026-09-02 13:00:07 | 51.11464 | 17.65495 | 89° | 51km/h | 16624m | -14.7m/s | 0°C | 0% | 0hPa | 0V | 00:00:00 | 00:00:00 | 00:00:00 | |
| SQ6EMJ | 2026-09-02 13:00:01 | 51.11467 | 17.65377 | 96° | 47km/h | 16717m | -14.7m/s | 0°C | 0% | 0hPa | 0V | 00:00:00 | 00:00:00 | 00:00:00 | |
| POL1PZ | 2026-09-02 12:59:58 | 51.11469 | 17.65318 | 90° | 47km/h | 16766m | -15.6m/s | 0°C | 0% | 0hPa | 0V | 00:00:00 | 00:00:00 | 00:00:00 | |
| SQ6EMJ | 2026-09-02 12:59:55 | 51.11465 | 17.65260 | 84° | 49km/h | 16816m | -15.2m/s | 0°C | 0% | 0hPa | 0V | 00:00:00 | 00:00:00 | 00:00:00 | |
| SQ6EMJ | 2026-09-02 12:59:49 | 51.11466 | 17.65141 | 94° | 44km/h | 16912m | -14.2m/s | 0°C | 0% | 0hPa | 0V | 00:00:00 | 00:00:00 | 00:00:00 | |
| SQ6EMJ | 2026-09-02 12:59:43 | 51.11468 | 17.65036 | 89° | 44km/h | 17012m | -16.0m/s | 0°C | 0% | 0hPa | 0V | 00:00:00 | 00:00:00 | 00:00:00 | |
| SQ6EMJ | 2026-09-02 12:59:35 | 51.11469 | 17.64910 | 81° | 31km/h | 17145m | -16.2m/s | 0°C | 0% | 0hPa | 0V | 00:00:00 | 00:00:00 | 00:00:00 | |
| SQ6EMJ | 2026-09-02 12:59:27 | 51.11468 | 17.64833 | 89° | 15km/h | 17280m | -15.4m/s | 0°C | 0% | 0hPa | 0V | 00:00:00 | 00:00:00 | 00:00:00 | |
| KRY50SP | 2026-09-02 12:59:24 | 51.11468 | 17.64814 | 83° | 15km/h | 17329m | -15.7m/s | 0°C | 0% | 0hPa | 0V | 00:00:00 | 00:00:00 | 00:00:00 | |
| POL1PZ | 2026-09-02 12:59:22 | 51.11468 | 17.64800 | 95° | 18km/h | 17362m | -16.1m/s | 0°C | 0% | 0hPa | 0V | 00:00:00 | 00:00:00 | 00:00:00 | |
| SQ6EMJ | 2026-09-02 12:59:18 | 51.11468 | 17.64768 | 79° | 22km/h | 17429m | -15.1m/s | 0°C | 0% | 0hPa | 0V | 00:00:00 | 00:00:00 | 00:00:00 | |
| KRY50SP | 2026-09-02 12:59:17 | 51.11467 | 17.64759 | 84° | 22km/h | 17444m | -14.2m/s | 0°C | 0% | 0hPa | 0V | 00:00:00 | 00:00:00 | 00:00:00 | |
| SQ6EMJ | 2026-09-02 12:59:13 | 51.11460 | 17.64703 | 76° | 33km/h | 17526m | -15.4m/s | 0°C | 0% | 0hPa | 0V | 00:00:00 | 00:00:00 | 00:00:00 | |
| SQ6EMJ | 2026-09-02 12:59:03 | 51.11452 | 17.64564 | 91° | 35km/h | 17671m | -15.2m/s | 0°C | 0% | 0hPa | 0V | 00:00:00 | 00:00:00 | 00:00:00 | |
| POL1PZ | 2026-09-02 12:59:00 | 51.11452 | 17.64523 | 93° | 33km/h | 17717m | -15.5m/s | 0°C | 0% | 0hPa | 0V | 00:00:00 | 00:00:00 | 00:00:00 | |
| SQ6EMJ | 2026-09-02 12:58:58 | 51.11451 | 17.64498 | 82° | 29km/h | 17748m | -15.2m/s | 0°C | 0% | 0hPa | 0V | 00:00:00 | 00:00:00 | 00:00:00 | |
| SQ6EMJ | 2026-09-02 12:58:45 | 51.11422 | 17.64316 | 71° | 38km/h | 17958m | -14.9m/s | 0°C | 0% | 0hPa | 0V | 00:00:00 | 00:00:00 | 00:00:00 | |
| SQ6EMJ | 2026-09-02 12:58:37 | 51.11402 | 17.64175 | 81° | 33km/h | 18101m | -14.5m/s | 0°C | 0% | 0hPa | 0V | 00:00:00 | 00:00:00 | 00:00:00 | |
| SQ6EMJ | 2026-09-02 12:58:28 | 51.11399 | 17.64084 | 79° | 22km/h | 18226m | -15.0m/s | 0°C | 0% | 0hPa | 0V | 00:00:00 | 00:00:00 | 00:00:00 | |
| KRY50SP | 2026-09-02 12:58:27 | 51.11397 | 17.64075 | 75° | 24km/h | 18242m | -14.7m/s | 0°C | 0% | 0hPa | 0V | 00:00:00 | 00:00:00 | 00:00:00 | |
| SQ6EMJ | 2026-09-02 12:58:22 | 51.11383 | 17.64032 | 59° | 22km/h | 18324m | -15.2m/s | 0°C | 0% | 0hPa | 0V | 00:00:00 | 00:00:00 | 00:00:00 | |
| KRY50SP | 2026-09-02 12:58:21 | 51.11380 | 17.64023 | 57° | 26km/h | 18340m | -15.8m/s | 0°C | 0% | 0hPa | 0V | 00:00:00 | 00:00:00 | 00:00:00 | |
| POL1PZ | 2026-09-02 12:58:14 | 51.11356 | 17.63948 | 71° | 38km/h | 18454m | -15.2m/s | 0°C | 0% | 0hPa | 0V | 00:00:00 | 00:00:00 | 00:00:00 | |
| SQ6EMJ | 2026-09-02 12:58:13 | 51.11352 | 17.63934 | 65° | 38km/h | 18470m | -15.1m/s | 0°C | 0% | 0hPa | 0V | 00:00:00 | 00:00:00 | 00:00:00 | |
| KRY50SP | 2026-09-02 12:58:12 | 51.11347 | 17.63920 | 61° | 38km/h | 18486m | -16.1m/s | 0°C | 0% | 0hPa | 0V | 00:00:00 | 00:00:00 | 00:00:00 | |
| SQ6EMJ | 2026-09-02 12:58:08 | 51.11330 | 17.63866 | 59° | 37km/h | 18550m | -16.0m/s | 0°C | 0% | 0hPa | 0V | 00:00:00 | 00:00:00 | 00:00:00 | |
| KRY50SP | 2026-09-02 12:58:03 | 51.11315 | 17.63805 | 77° | 31km/h | 18635m | -15.1m/s | 0°C | 0% | 0hPa | 0V | 00:00:00 | 00:00:00 | 00:00:00 | |
| SQ6EMJ | 2026-09-02 12:58:00 | 51.11314 | 17.63766 | 103° | 35km/h | 18682m | -14.2m/s | 0°C | 0% | 0hPa | 0V | 00:00:00 | 00:00:00 | 00:00:00 | |
| SQ6EMJ | 2026-09-02 12:57:55 | 51.11321 | 17.63705 | 108° | 29km/h | 18763m | -15.0m/s | 0°C | 0% | 0hPa | 0V | 00:00:00 | 00:00:00 | 00:00:00 | |
| POL1PZ | 2026-09-02 12:57:48 | 51.11347 | 17.63627 | 126° | 35km/h | 18877m | -16.6m/s | 0°C | 0% | 0hPa | 0V | 00:00:00 | 00:00:00 | 00:00:00 | |
| SQ6EMJ | 2026-09-02 12:57:47 | 51.11352 | 17.63616 | 125° | 33km/h | 18893m | -14.4m/s | 0°C | 0% | 0hPa | 0V | 00:00:00 | 00:00:00 | 00:00:00 | |
| KRY50SP | 2026-09-02 12:57:43 | 51.11371 | 17.63577 | 125° | 26km/h | 18959m | -15.9m/s | 0°C | 0% | 0hPa | 0V | 00:00:00 | 00:00:00 | 00:00:00 | |
| SQ6EMJ | 2026-09-02 12:57:40 | 51.11383 | 17.63554 | 131° | 22km/h | 19009m | -16.0m/s | 0°C | 0% | 0hPa | 0V | 00:00:00 | 00:00:00 | 00:00:00 | |
| SQ6EMJ | 2026-09-02 12:57:32 | 51.11406 | 17.63513 | 127° | 11km/h | 19141m | -15.4m/s | 0°C | 0% | 0hPa | 0V | 00:00:00 | 00:00:00 | 00:00:00 | |
| KRY50SP | 2026-09-02 12:57:31 | 51.11407 | 17.63509 | 133° | 11km/h | 19155m | -14.5m/s | 0°C | 0% | 0hPa | 0V | 00:00:00 | 00:00:00 | 00:00:00 | |
| POL1PZ | 2026-09-02 12:57:27 | 51.11413 | 17.63492 | 109° | 5km/h | 19219m | -17.1m/s | 0°C | 0% | 0hPa | 0V | 00:00:00 | 00:00:00 | 00:00:00 | |
| KRY50SP | 2026-09-02 12:57:25 | 51.11412 | 17.63486 | 76° | 9km/h | 19251m | -15.0m/s | 0°C | 0% | 0hPa | 0V | 00:00:00 | 00:00:00 | 00:00:00 | |
| SQ6EMJ | 2026-09-02 12:57:19 | 51.11410 | 17.63462 | 71° | 11km/h | 19347m | -16.4m/s | 0°C | 0% | 0hPa | 0V | 00:00:00 | 00:00:00 | 00:00:00 | |
| KRY50SP | 2026-09-02 12:57:18 | 51.11409 | 17.63457 | 69° | 16km/h | 19364m | -15.5m/s | 0°C | 0% | 0hPa | 0V | 00:00:00 | 00:00:00 | 00:00:00 | |
| SQ6EMJ | 2026-09-02 12:57:12 | 51.11399 | 17.63406 | 78° | 24km/h | 19460m | -14.0m/s | 0°C | 0% | 0hPa | 0V | 00:00:00 | 00:00:00 | 00:00:00 | |
| SQ6EMJ | 2026-09-02 12:57:07 | 51.11393 | 17.63362 | 80° | 24km/h | 19543m | -16.9m/s | 0°C | 0% | 0hPa | 0V | 00:00:00 | 00:00:00 | 00:00:00 | |
| POL1PZ | 2026-09-02 12:57:05 | 51.11389 | 17.63342 | 70° | 29km/h | 19576m | -16.7m/s | 0°C | 0% | 0hPa | 0V | 00:00:00 | 00:00:00 | 00:00:00 | |
| SQ6EMJ | 2026-09-02 12:57:02 | 51.11375 | 17.63301 | 60° | 27km/h | 19644m | -15.6m/s | 0°C | 0% | 0hPa | 0V | 00:00:00 | 00:00:00 | 00:00:00 | |
| SQ6EMJ | 2026-09-02 12:56:55 | 51.11361 | 17.63260 | 85° | 22km/h | 19751m | -19.0m/s | 0°C | 0% | 0hPa | 0V | 00:00:00 | 00:00:00 | 00:00:00 | |
| KRY50SP | 2026-09-02 12:56:54 | 51.11361 | 17.63251 | 98° | 24km/h | 19771m | -17.6m/s | 0°C | 0% | 0hPa | 0V | 00:00:00 | 00:00:00 | 00:00:00 | |
| KRY50SP | 2026-09-02 12:56:48 | 51.11359 | 17.63176 | 66° | 33km/h | 19880m | -18.0m/s | 0°C | 0% | 0hPa | 0V | 00:00:00 | 00:00:00 | 00:00:00 | |
| SQ6EMJ | 2026-09-02 12:56:36 | 51.11383 | 17.63081 | 94° | 26km/h | 20102m | -16.4m/s | 0°C | 0% | 0hPa | 0V | 00:00:00 | 00:00:00 | 00:00:00 | |
| SP3BTT-10 | 2026-09-02 12:56:33 | 51.11381 | 17.63062 | 46° | 18km/h | 20155m | -16.1m/s | 0°C | 0% | 0hPa | 0V | 00:00:00 | 00:00:00 | 00:00:00 | |
| SQ6EMJ | 2026-09-02 12:56:29 | 51.11395 | 17.63057 | 135° | 22km/h | 20243m | -18.1m/s | 0°C | 0% | 0hPa | 0V | 00:00:00 | 00:00:00 | 00:00:00 | |
| SQ6EMJ | 2026-09-02 12:56:21 | 51.11380 | 17.63024 | 341° | 16km/h | 20364m | -17.1m/s | 0°C | 0% | 0hPa | 0V | 00:00:00 | 00:00:00 | 00:00:00 | |
| KRY50SP | 2026-09-02 12:56:19 | 51.11376 | 17.63025 | 91° | 4km/h | 20398m | -15.3m/s | 0°C | 0% | 0hPa | 0V | 00:00:00 | 00:00:00 | 00:00:00 | |
| KRY50SP | 2026-09-02 12:56:14 | 51.11374 | 17.62982 | 61° | 29km/h | 20488m | -17.7m/s | 0°C | 0% | 0hPa | 0V | 00:00:00 | 00:00:00 | 00:00:00 | |
| POL1PZ | 2026-09-02 12:56:11 | 51.11363 | 17.62963 | 14° | 9km/h | 20543m | -15.5m/s | 0°C | 0% | 0hPa | 0V | 00:00:00 | 00:00:00 | 00:00:00 | |
| SQ6EMJ | 2026-09-02 12:56:07 | 51.11372 | 17.62958 | 146° | 29km/h | 20609m | -17.0m/s | 0°C | 0% | 0hPa | 0V | 00:00:00 | 00:00:00 | 00:00:00 | |
| KRY50SP | 2026-09-02 12:56:05 | 51.11383 | 17.62939 | 119° | 33km/h | 20647m | -18.4m/s | 0°C | 0% | 0hPa | 0V | 00:00:00 | 00:00:00 | 00:00:00 | |
| SQ6EMJ | 2026-09-02 12:56:01 | 51.11387 | 17.62902 | 51° | 7km/h | 20719m | -14.9m/s | 0°C | 0% | 0hPa | 0V | 00:00:00 | 00:00:00 | 00:00:00 | |
| SQ6EMJ | 2026-09-02 12:55:52 | 51.11398 | 17.62917 | 65° | 20km/h | 20875m | -18.2m/s | 0°C | 0% | 0hPa | 0V | 00:00:00 | 00:00:00 | 00:00:00 | |
| SQ6EMJ | 2026-09-02 12:55:40 | 51.11394 | 17.62896 | 94° | 37km/h | 21095m | -19.5m/s | 0°C | 0% | 0hPa | 0V | 00:00:00 | 00:00:00 | 00:00:00 | |
| SQ6EMJ | 2026-09-02 12:55:34 | 51.11383 | 17.62858 | 229° | 11km/h | 21207m | -18.9m/s | 0°C | 0% | 0hPa | 0V | 00:00:00 | 00:00:00 | 00:00:00 | |
| SQ6EMJ | 2026-09-02 12:55:29 | 51.11418 | 17.62833 | 100° | 29km/h | 21340m | -16.8m/s | 0°C | 0% | 0hPa | 0V | 00:00:00 | 00:00:00 | 00:00:00 | |
| KRY50SP | 2026-09-02 12:55:24 | 51.11414 | 17.62806 | 53° | 20km/h | 21394m | -17.6m/s | 0°C | 0% | 0hPa | 0V | 00:00:00 | 00:00:00 | 00:00:00 | |
| SQ6EMJ | 2026-09-02 12:55:22 | 51.11407 | 17.62796 | 42° | 16km/h | 21431m | -17.6m/s | 0°C | 0% | 0hPa | 0V | 00:00:00 | 00:00:00 | 00:00:00 | |
| SQ6EMJ | 2026-09-02 12:55:14 | 51.11402 | 17.62776 | 328° | 18km/h | 21580m | -17.9m/s | 0°C | 0% | 0hPa | 0V | 00:00:00 | 00:00:00 | 00:00:00 | |
| KRY50SP | 2026-09-02 12:55:10 | 51.11380 | 17.62790 | 354° | 33km/h | 21661m | -20.5m/s | 0°C | 0% | 0hPa | 0V | 00:00:00 | 00:00:00 | 00:00:00 | |
| SQ6EMJ | 2026-09-02 12:55:08 | 51.11364 | 17.62788 | 12° | 31km/h | 21702m | -19.7m/s | 0°C | 0% | 0hPa | 0V | 00:00:00 | 00:00:00 | 00:00:00 | |
| SP3BTT-10 | 2026-09-02 12:55:07 | 51.11356 | 17.62786 | 13° | 24km/h | 21722m | -18.1m/s | 0°C | 0% | 0hPa | 0V | 00:00:00 | 00:00:00 | 00:00:00 | |
| KRY50SP | 2026-09-02 12:55:02 | 51.11336 | 17.62759 | 53° | 24km/h | 21817m | -18.5m/s | 0°C | 0% | 0hPa | 0V | 00:00:00 | 00:00:00 | 00:00:00 | |
| SQ6EMJ | 2026-09-02 12:55:00 | 51.11329 | 17.62745 | 50° | 20km/h | 21856m | -19.7m/s | 0°C | 0% | 0hPa | 0V | 00:00:00 | 00:00:00 | 00:00:00 | |
| SQ6EMJ | 2026-09-02 12:54:48 | 51.11298 | 17.62652 | 72° | 24km/h | 22107m | -20.9m/s | 0°C | 0% | 0hPa | 0V | 00:00:00 | 00:00:00 | 00:00:00 | |
| SQ6EMJ | 2026-09-02 12:54:40 | 51.11301 | 17.62589 | 117° | 22km/h | 22284m | -22.0m/s | 0°C | 0% | 0hPa | 0V | 00:00:00 | 00:00:00 | 00:00:00 | |
| SQ6EMJ | 2026-09-02 12:54:35 | 51.11311 | 17.62559 | 114° | 11km/h | 22399m | -21.7m/s | 0°C | 0% | 0hPa | 0V | 00:00:00 | 00:00:00 | 00:00:00 | |
| SQ6EMJ | 2026-09-02 12:54:30 | 51.11316 | 17.62545 | 124° | 4km/h | 22520m | -22.9m/s | 0°C | 0% | 0hPa | 0V | 00:00:00 | 00:00:00 | 00:00:00 | |
| SQ6EMJ | 2026-09-02 12:54:25 | 51.11317 | 17.62544 | 249° | 4km/h | 22636m | -23.1m/s | 0°C | 0% | 0hPa | 0V | 00:00:00 | 00:00:00 | 00:00:00 | |
| SQ6EMJ | 2026-09-02 12:54:18 | 51.11312 | 17.62542 | 8° | 13km/h | 22801m | -22.7m/s | 0°C | 0% | 0hPa | 0V | 00:00:00 | 00:00:00 | 00:00:00 | |
| SQ6EMJ | 2026-09-02 12:54:12 | 51.11291 | 17.62522 | 43° | 11km/h | 22938m | -20.2m/s | 0°C | 0% | 0hPa | 0V | 00:00:00 | 00:00:00 | 00:00:00 | |
| KRY50SP | 2026-09-02 12:54:04 | 51.11288 | 17.62497 | 79° | 4km/h | 23116m | -21.6m/s | 0°C | 0% | 0hPa | 0V | 00:00:00 | 00:00:00 | 00:00:00 | |
| SQ6EMJ | 2026-09-02 12:53:59 | 51.11286 | 17.62501 | 318° | 5km/h | 23231m | -23.2m/s | 0°C | 0% | 0hPa | 0V | 00:00:00 | 00:00:00 | 00:00:00 | |
| POL1PZ | 2026-09-02 12:53:56 | 51.11283 | 17.62501 | 69° | 5km/h | 23298m | -23.2m/s | 0°C | 0% | 0hPa | 0V | 00:00:00 | 00:00:00 | 00:00:00 | |
| SQ6EMJ | 2026-09-02 12:53:55 | 51.11280 | 17.62495 | 49° | 11km/h | 23342m | -20.6m/s | 0°C | 0% | 0hPa | 0V | 00:00:00 | 00:00:00 | 00:00:00 | |
| SQ6EMJ | 2026-09-02 12:53:49 | 51.11264 | 17.62465 | 44° | 13km/h | 23481m | -21.7m/s | 0°C | 0% | 0hPa | 0V | 00:00:00 | 00:00:00 | 00:00:00 | |
| SQ6EMJ | 2026-09-02 12:53:41 | 51.11266 | 17.62434 | 90° | 15km/h | 23646m | -22.1m/s | 0°C | 0% | 0hPa | 0V | 00:00:00 | 00:00:00 | 00:00:00 | |
| KRY50SP | 2026-09-02 12:53:36 | 51.11258 | 17.62411 | 37° | 11km/h | 23762m | -22.0m/s | 0°C | 0% | 0hPa | 0V | 00:00:00 | 00:00:00 | 00:00:00 | |
| POL1PZ | 2026-09-02 12:53:35 | 51.11256 | 17.62410 | 10° | 11km/h | 23785m | -21.8m/s | 0°C | 0% | 0hPa | 0V | 00:00:00 | 00:00:00 | 00:00:00 | |
| KRY50SP | 2026-09-02 12:53:30 | 51.11252 | 17.62406 | 102° | 9km/h | 23898m | -21.8m/s | 0°C | 0% | 0hPa | 0V | 00:00:00 | 00:00:00 | 00:00:00 | |
| SQ6EMJ | 2026-09-02 12:53:28 | 51.11252 | 17.62400 | 63° | 9km/h | 23944m | -20.9m/s | 0°C | 0% | 0hPa | 0V | 00:00:00 | 00:00:00 | 00:00:00 | |
| SQ6EMJ | 2026-09-02 12:53:22 | 51.11242 | 17.62388 | 36° | 9km/h | 24086m | -23.7m/s | 0°C | 0% | 0hPa | 0V | 00:00:00 | 00:00:00 | 00:00:00 | |
| SP3BTT-10 | 2026-09-02 12:53:14 | 51.11209 | 17.62329 | 42° | 18km/h | 24279m | -22.7m/s | 0°C | 0% | 0hPa | 0V | 00:00:00 | 00:00:00 | 00:00:00 | |
| POL1PZ | 2026-09-02 12:53:10 | 51.11197 | 17.62306 | 75° | 13km/h | 24374m | -23.0m/s | 0°C | 0% | 0hPa | 0V | 00:00:00 | 00:00:00 | 00:00:00 | |
| KRY50SP | 2026-09-02 12:53:07 | 51.11196 | 17.62286 | 84° | 20km/h | 24446m | -24.5m/s | 0°C | 0% | 0hPa | 0V | 00:00:00 | 00:00:00 | 00:00:00 | |
| SQ6EMJ | 2026-09-02 12:52:59 | 51.11190 | 17.62231 | 129° | 7km/h | 24640m | -22.6m/s | 0°C | 0% | 0hPa | 0V | 00:00:00 | 00:00:00 | 00:00:00 | |
| SQ6EMJ | 2026-09-02 12:52:53 | 51.11217 | 17.62214 | 148° | 16km/h | 24807m | -22.7m/s | 0°C | 0% | 0hPa | 0V | 00:00:00 | 00:00:00 | 00:00:00 | |
| SQ6EMJ | 2026-09-02 12:52:46 | 51.11234 | 17.62219 | 225° | 20km/h | 24946m | -24.4m/s | 0°C | 0% | 0hPa | 0V | 00:00:00 | 00:00:00 | 00:00:00 | |
| SP3BTT-10 | 2026-09-02 12:52:41 | 51.11247 | 17.62231 | 110° | 16km/h | 25070m | -24.2m/s | 0°C | 0% | 0hPa | 0V | 00:00:00 | 00:00:00 | 00:00:00 | |
| SQ6EMJ | 2026-09-02 12:52:40 | 51.11247 | 17.62230 | 61° | 9km/h | 25094m | -22.5m/s | 0°C | 0% | 0hPa | 0V | 00:00:00 | 00:00:00 | 00:00:00 | |
| SQ6EMJ | 2026-09-02 12:52:28 | 51.11242 | 17.62198 | 137° | 16km/h | 25375m | -21.9m/s | 0°C | 0% | 0hPa | 0V | 00:00:00 | 00:00:00 | 00:00:00 | |
| SQ6EMJ | 2026-09-02 12:52:22 | 51.11260 | 17.62195 | 250° | 13km/h | 25511m | -20.7m/s | 0°C | 0% | 0hPa | 0V | 00:00:00 | 00:00:00 | 00:00:00 | |
| POL1PZ | 2026-09-02 12:52:21 | 51.11263 | 17.62206 | 246° | 15km/h | 25554m | -21.1m/s | 0°C | 0% | 0hPa | 0V | 00:00:00 | 00:00:00 | 00:00:00 | |
| SQ6EMJ | 2026-09-02 12:52:14 | 51.11280 | 17.62232 | 199° | 11km/h | 25694m | -23.8m/s | 0°C | 0% | 0hPa | 0V | 00:00:00 | 00:00:00 | 00:00:00 | |
| SQ6EMJ | 2026-09-02 12:52:03 | 51.11290 | 17.62192 | 115° | 18km/h | 25963m | -22.1m/s | 0°C | 0% | 0hPa | 0V | 00:00:00 | 00:00:00 | 00:00:00 | |
| SQ6EMJ | 2026-09-02 12:51:58 | 51.11316 | 17.62157 | 146° | 24km/h | 26112m | -23.8m/s | 0°C | 0% | 0hPa | 0V | 00:00:00 | 00:00:00 | 00:00:00 | |
| SP3BTT-10 | 2026-09-02 12:51:57 | 51.11316 | 17.62157 | 145° | 18km/h | 26112m | -23.7m/s | 0°C | 0% | 0hPa | 0V | 00:00:00 | 00:00:00 | 00:00:00 | |
| POL1PZ | 2026-09-02 12:51:47 | 51.11364 | 17.62165 | 159° | 9km/h | 26374m | -27.3m/s | 0°C | 0% | 0hPa | 0V | 00:00:00 | 00:00:00 | 00:00:00 | |
| SQ6EMJ | 2026-09-02 12:51:45 | 51.11366 | 17.62161 | 71° | 5km/h | 26429m | -25.6m/s | 0°C | 0% | 0hPa | 0V | 00:00:00 | 00:00:00 | 00:00:00 | |
| SQ6EMJ | 2026-09-02 12:51:37 | 51.11365 | 17.62148 | 150° | 13km/h | 26628m | -24.4m/s | 0°C | 0% | 0hPa | 0V | 00:00:00 | 00:00:00 | 00:00:00 | |
| SQ6EMJ | 2026-09-02 12:51:31 | 51.11382 | 17.62131 | 171° | 11km/h | 26788m | -27.7m/s | 0°C | 0% | 0hPa | 0V | 00:00:00 | 00:00:00 | 00:00:00 | |
| KRY50SP | 2026-09-02 12:51:28 | 51.11391 | 17.62129 | 173° | 11km/h | 26871m | -26.2m/s | 0°C | 0% | 0hPa | 0V | 00:00:00 | 00:00:00 | 00:00:00 | |
| SQ6EMJ | 2026-09-02 12:51:24 | 51.11402 | 17.62129 | 212° | 7km/h | 26978m | -27.6m/s | 0°C | 0% | 0hPa | 0V | 00:00:00 | 00:00:00 | 00:00:00 | |
| PETON7-10 | 2026-09-02 12:51:23 | 51.11404 | 17.62131 | 205° | 13km/h | 27006m | -27.5m/s | 0°C | 0% | 0hPa | 0V | 00:00:00 | 00:00:00 | 00:00:00 | |
| SQ6EMJ | 2026-09-02 12:51:16 | 51.11403 | 17.62132 | 55° | 5km/h | 27206m | -29.0m/s | 0°C | 0% | 0hPa | 0V | 00:00:00 | 00:00:00 | 00:00:00 | |
| SQ6EMJ | 2026-09-02 12:51:10 | 51.11401 | 17.62109 | 96° | 11km/h | 27384m | -27.5m/s | 0°C | 0% | 0hPa | 0V | 00:00:00 | 00:00:00 | 00:00:00 | |
| POL1PZ | 2026-09-02 12:51:09 | 51.11401 | 17.62104 | 89° | 15km/h | 27412m | -26.9m/s | 0°C | 0% | 0hPa | 0V | 00:00:00 | 00:00:00 | 00:00:00 | |
| SQ6EMJ | 2026-09-02 12:51:02 | 51.11410 | 17.62067 | 147° | 11km/h | 27612m | -29.1m/s | 0°C | 0% | 0hPa | 0V | 00:00:00 | 00:00:00 | 00:00:00 | |
| PETON7-10 | 2026-09-02 12:51:01 | 51.11412 | 17.62066 | 147° | 5km/h | 27641m | -27.8m/s | 0°C | 0% | 0hPa | 0V | 00:00:00 | 00:00:00 | 00:00:00 | |
| SQ6EMJ | 2026-09-02 12:50:58 | 51.11415 | 17.62063 | 317° | 4km/h | 27757m | -30.1m/s | 0°C | 0% | 0hPa | 0V | 00:00:00 | 00:00:00 | 00:00:00 | |
| SQ6EMJ | 2026-09-02 12:50:52 | 51.11407 | 17.62063 | 36° | 7km/h | 27949m | -29.5m/s | 0°C | 0% | 0hPa | 0V | 00:00:00 | 00:00:00 | 00:00:00 | |
| POL1PZ | 2026-09-02 12:50:45 | 51.11411 | 17.62051 | 140° | 9km/h | 28132m | -28.8m/s | 0°C | 0% | 0hPa | 0V | 00:00:00 | 00:00:00 | 00:00:00 | |
| PETON7-10 | 2026-09-02 12:50:44 | 51.11412 | 17.62049 | 126° | 9km/h | 28163m | -29.2m/s | 0°C | 0% | 0hPa | 0V | 00:00:00 | 00:00:00 | 00:00:00 | |
| SQ6EMJ | 2026-09-02 12:50:37 | 51.11429 | 17.62041 | 211° | 20km/h | 28373m | -29.1m/s | 0°C | 0% | 0hPa | 0V | 00:00:00 | 00:00:00 | 00:00:00 | |
| PETON7-10 | 2026-09-02 12:50:29 | 51.11451 | 17.62070 | 298° | 29km/h | 28577m | -27.2m/s | 0°C | 0% | 0hPa | 0V | 00:00:00 | 00:00:00 | 00:00:00 | |
| SQ6EMJ | 2026-09-02 12:50:26 | 51.11444 | 17.62078 | 354° | 13km/h | 28657m | -28.6m/s | 0°C | 0% | 0hPa | 0V | 00:00:00 | 00:00:00 | 00:00:00 | |
| SQ6EMJ | 2026-09-02 12:50:20 | 51.11413 | 17.62071 | 17° | 35km/h | 28826m | -27.2m/s | 0°C | 0% | 0hPa | 0V | 00:00:00 | 00:00:00 | 00:00:00 | |
| POL1PZ | 2026-09-02 12:50:18 | 51.11395 | 17.62063 | 19° | 38km/h | 28881m | -25.4m/s | 0°C | 0% | 0hPa | 0V | 00:00:00 | 00:00:00 | 00:00:00 | |
| PETON7-10 | 2026-09-02 12:50:14 | 51.11357 | 17.62045 | 30° | 31km/h | 28976m | -21.3m/s | 0°C | 0% | 0hPa | 0V | 00:00:00 | 00:00:00 | 00:00:00 | |
| SQ6EMJ | 2026-09-02 12:50:09 | 51.11320 | 17.62003 | 27° | 29km/h | 29114m | -27.8m/s | 0°C | 0% | 0hPa | 0V | 00:00:00 | 00:00:00 | 00:00:00 | |
| SQ6EMJ | 2026-09-02 12:50:02 | 51.11283 | 17.61957 | 56° | 33km/h | 29273m | -23.4m/s | 0°C | 0% | 0hPa | 0V | 00:00:00 | 00:00:00 | 00:00:00 | |
| SQ6EMJ | 2026-09-02 12:49:56 | 51.11269 | 17.61908 | 47° | 18km/h | 29423m | -19.4m/s | 0°C | 0% | 0hPa | 0V | 00:00:00 | 00:00:00 | 00:00:00 | |
| PETON7-10 | 2026-09-02 12:49:54 | 51.11261 | 17.61898 | 48° | 22km/h | 29459m | -18.4m/s | 0°C | 0% | 0hPa | 0V | 00:00:00 | 00:00:00 | 00:00:00 | |
| SP3BTT-10 | 2026-09-02 12:49:52 | 51.11253 | 17.61887 | 47° | 20km/h | 29494m | -16.9m/s | 0°C | 0% | 0hPa | 0V | 00:00:00 | 00:00:00 | 00:00:00 | |
| SQ6EMJ | 2026-09-02 12:49:50 | 51.11246 | 17.61871 | 65° | 24km/h | 29524m | -13.4m/s | 0°C | 0% | 0hPa | 0V | 00:00:00 | 00:00:00 | 00:00:00 | |
| SQ6EMJ | 2026-09-02 12:49:45 | 51.11235 | 17.61826 | 60° | 20km/h | 29619m | -17.1m/s | 0°C | 0% | 0hPa | 0V | 00:00:00 | 00:00:00 | 00:00:00 | |
| PETON7-10 | 2026-09-02 12:49:38 | 51.11223 | 17.61759 | 101° | 26km/h | 29769m | -26.7m/s | 0°C | 0% | 0hPa | 0V | 00:00:00 | 00:00:00 | 00:00:00 | |
| POL1PZ | 2026-09-02 12:49:32 | 51.11240 | 17.61744 | 98° | 15km/h | 29951m | -26.5m/s | 0°C | 0% | 0hPa | 0V | 00:00:00 | 00:00:00 | 00:00:00 | |
| KRY50SP | 2026-09-02 12:49:31 | 51.11240 | 17.61736 | 84° | 22km/h | 29976m | -21.8m/s | 0°C | 0% | 0hPa | 0V | 00:00:00 | 00:00:00 | 00:00:00 | |
| SQ6EMJ | 2026-09-02 12:49:30 | 51.11238 | 17.61725 | 83° | 33km/h | 29997m | -19.3m/s | 0°C | 0% | 0hPa | 0V | 00:00:00 | 00:00:00 | 00:00:00 | |
| SQ6EMJ | 2026-09-02 12:49:26 | 51.11229 | 17.61666 | 187° | 15km/h | 30086m | -18.6m/s | 0°C | 0% | 0hPa | 0V | 00:00:00 | 00:00:00 | 00:00:00 | |
| PETON7-10 | 2026-09-02 12:49:23 | 51.11241 | 17.61670 | 201° | 18km/h | 30118m | -13.0m/s | 0°C | 0% | 0hPa | 0V | 00:00:00 | 00:00:00 | 00:00:00 | |
| SQ6EMJ | 2026-09-02 12:49:19 | 51.11262 | 17.61658 | 115° | 27km/h | 30190m | -15.8m/s | 0°C | 0% | 0hPa | 0V | 00:00:00 | 00:00:00 | 00:00:00 | |
| SQ6EMJ | 2026-09-02 12:49:13 | 51.11267 | 17.61618 | 330° | 9km/h | 30177m | 5.7m/s | 0°C | 0% | 0hPa | 0V | 00:00:00 | 00:00:00 | 00:00:00 | |
| KRY50SP | 2026-09-02 12:49:12 | 51.11266 | 17.61621 | 240° | 4km/h | 30173m | 4.0m/s | 0°C | 0% | 0hPa | 0V | 00:00:00 | 00:00:00 | 00:00:00 | |
| POL1PZ | 2026-09-02 12:49:11 | 51.11266 | 17.61622 | 202° | 4km/h | 30168m | 5.2m/s | 0°C | 0% | 0hPa | 0V | 00:00:00 | 00:00:00 | 00:00:00 | |
| PETON7-10 | 2026-09-02 12:49:08 | 51.11265 | 17.61611 | 93° | 20km/h | 30147m | 6.1m/s | 0°C | 0% | 0hPa | 0V | 00:00:00 | 00:00:00 | 00:00:00 | |
| SQ6EMJ | 2026-09-02 12:49:07 | 51.11265 | 17.61600 | 94° | 33km/h | 30140m | 5.7m/s | 0°C | 0% | 0hPa | 0V | 00:00:00 | 00:00:00 | 00:00:00 | |
| KRY50SP | 2026-09-02 12:49:06 | 51.11266 | 17.61587 | 107° | 33km/h | 30134m | 6.6m/s | 0°C | 0% | 0hPa | 0V | 00:00:00 | 00:00:00 | 00:00:00 | |
| KRY50SP | 2026-09-02 12:49:01 | 51.11273 | 17.61562 | 24° | 15km/h | 30100m | 4.9m/s | 0°C | 0% | 0hPa | 0V | 00:00:00 | 00:00:00 | 00:00:00 | |
| SQ6EMJ | 2026-09-02 12:49:00 | 51.11270 | 17.61559 | 35° | 18km/h | 30095m | 3.6m/s | 0°C | 0% | 0hPa | 0V | 00:00:00 | 00:00:00 | 00:00:00 | |
| SQ6EMJ | 2026-09-02 12:48:55 | 51.11277 | 17.61523 | 138° | 22km/h | 30068m | 5.8m/s | 0°C | 0% | 0hPa | 0V | 00:00:00 | 00:00:00 | 00:00:00 | |
| PETON7-10 | 2026-09-02 12:48:54 | 51.11280 | 17.61510 | 77° | 18km/h | 30054m | 7.9m/s | 0°C | 0% | 0hPa | 0V | 00:00:00 | 00:00:00 | 00:00:00 | |
| POL1PZ | 2026-09-02 12:48:51 | 51.11277 | 17.61502 | 63° | 11km/h | 30040m | 6.5m/s | 0°C | 0% | 0hPa | 0V | 00:00:00 | 00:00:00 | 00:00:00 | |
| SP3BTT-10 | 2026-09-02 12:48:50 | 51.11276 | 17.61497 | 96° | 24km/h | 30032m | 6.8m/s | 0°C | 0% | 0hPa | 0V | 00:00:00 | 00:00:00 | 00:00:00 | |
| SQ6EMJ | 2026-09-02 12:48:49 | 51.11277 | 17.61491 | 123° | 20km/h | 30026m | 5.9m/s | 0°C | 0% | 0hPa | 0V | 00:00:00 | 00:00:00 | 00:00:00 | |
| KRY50SP | 2026-09-02 12:48:48 | 51.11279 | 17.61482 | 114° | 26km/h | 30019m | 7.3m/s | 0°C | 0% | 0hPa | 0V | 00:00:00 | 00:00:00 | 00:00:00 | |
| KRY50SP | 2026-09-02 12:48:43 | 51.11295 | 17.61436 | 148° | 26km/h | 29983m | 6.0m/s | 0°C | 0% | 0hPa | 0V | 00:00:00 | 00:00:00 | 00:00:00 | |
| PETON7-10 | 2026-09-02 12:48:38 | 51.11303 | 17.61411 | 84° | 22km/h | 29957m | 5.0m/s | 0°C | 0% | 0hPa | 0V | 00:00:00 | 00:00:00 | 00:00:00 | |
| SQ6EMJ | 2026-09-02 12:48:37 | 51.11303 | 17.61403 | 112° | 24km/h | 29951m | 6.7m/s | 0°C | 0% | 0hPa | 0V | 00:00:00 | 00:00:00 | 00:00:00 | |
| SQ6EMJ | 2026-09-02 12:48:32 | 51.11328 | 17.61362 | 117° | 20km/h | 29915m | 5.4m/s | 0°C | 0% | 0hPa | 0V | 00:00:00 | 00:00:00 | 00:00:00 | |
| SQ6EMJ | 2026-09-02 12:48:26 | 51.11342 | 17.61331 | 129° | 24km/h | 29879m | 5.3m/s | 0°C | 0% | 0hPa | 0V | 00:00:00 | 00:00:00 | 00:00:00 | |
| PETON7-10 | 2026-09-02 12:48:23 | 51.11345 | 17.61307 | 84° | 24km/h | 29857m | 3.5m/s | 0°C | 0% | 0hPa | 0V | 00:00:00 | 00:00:00 | 00:00:00 | |
| KRY50SP | 2026-09-02 12:48:21 | 51.11345 | 17.61287 | 107° | 27km/h | 29847m | 4.7m/s | 0°C | 0% | 0hPa | 0V | 00:00:00 | 00:00:00 | 00:00:00 | |
| SQ6EMJ | 2026-09-02 12:48:20 | 51.11347 | 17.61277 | 114° | 26km/h | 29840m | 4.5m/s | 0°C | 0% | 0hPa | 0V | 00:00:00 | 00:00:00 | 00:00:00 | |
| KRY50SP | 2026-09-02 12:48:15 | 51.11343 | 17.61246 | 40° | 22km/h | 29809m | 4.6m/s | 0°C | 0% | 0hPa | 0V | 00:00:00 | 00:00:00 | 00:00:00 | |
| POL1PZ | 2026-09-02 12:48:09 | 51.11341 | 17.61193 | 65° | 26km/h | 29773m | 5.5m/s | 0°C | 0% | 0hPa | 0V | 00:00:00 | 00:00:00 | 00:00:00 | |
| PETON7-10 | 2026-09-02 12:48:08 | 51.11337 | 17.61183 | 58° | 20km/h | 29768m | 4.7m/s | 0°C | 0% | 0hPa | 0V | 00:00:00 | 00:00:00 | 00:00:00 | |
| SQ6EMJ | 2026-09-02 12:48:07 | 51.11334 | 17.61175 | 61° | 24km/h | 29763m | 4.4m/s | 0°C | 0% | 0hPa | 0V | 00:00:00 | 00:00:00 | 00:00:00 | |
| KRY50SP | 2026-09-02 12:48:02 | 51.11332 | 17.61142 | 52° | 11km/h | 29730m | 5.6m/s | 0°C | 0% | 0hPa | 0V | 00:00:00 | 00:00:00 | 00:00:00 | |
| SQ6EMJ | 2026-09-02 12:47:59 | 51.11320 | 17.61127 | 59° | 20km/h | 29716m | 6.1m/s | 0°C | 0% | 0hPa | 0V | 00:00:00 | 00:00:00 | 00:00:00 | |
| KRY50SP | 2026-09-02 12:47:56 | 51.11321 | 17.61098 | 98° | 26km/h | 29697m | 5.4m/s | 0°C | 0% | 0hPa | 0V | 00:00:00 | 00:00:00 | 00:00:00 | |
| SQ6EMJ | 2026-09-02 12:47:54 | 51.11320 | 17.61081 | 69° | 18km/h | 29683m | 6.3m/s | 0°C | 0% | 0hPa | 0V | 00:00:00 | 00:00:00 | 00:00:00 | |
| PETON7-10 | 2026-09-02 12:47:53 | 51.11316 | 17.61074 | 31° | 24km/h | 29675m | 5.7m/s | 0°C | 0% | 0hPa | 0V | 00:00:00 | 00:00:00 | 00:00:00 | |
| SP3BTT-10 | 2026-09-02 12:47:50 | 51.11300 | 17.61057 | 55° | 26km/h | 29656m | 6.7m/s | 0°C | 0% | 0hPa | 0V | 00:00:00 | 00:00:00 | 00:00:00 | |
| SQ6EMJ | 2026-09-02 12:47:49 | 51.11298 | 17.61049 | 87° | 20km/h | 29648m | 7.0m/s | 0°C | 0% | 0hPa | 0V | 00:00:00 | 00:00:00 | 00:00:00 | |
| POL1PZ | 2026-09-02 12:47:45 | 51.11300 | 17.61025 | 32° | 16km/h | 29619m | 6.9m/s | 0°C | 0% | 0hPa | 0V | 00:00:00 | 00:00:00 | 00:00:00 | |
| SQ6EMJ | 2026-09-02 12:47:43 | 51.11292 | 17.61020 | 39° | 22km/h | 29605m | 5.7m/s | 0°C | 0% | 0hPa | 0V | 00:00:00 | 00:00:00 | 00:00:00 | |
| KRY50SP | 2026-09-02 12:47:40 | 51.11273 | 17.60988 | 40° | 31km/h | 29581m | 7.8m/s | 0°C | 0% | 0hPa | 0V | 00:00:00 | 00:00:00 | 00:00:00 | |
| PETON7-10 | 2026-09-02 12:47:38 | 51.11267 | 17.60982 | 31° | 24km/h | 29574m | 6.2m/s | 0°C | 0% | 0hPa | 0V | 00:00:00 | 00:00:00 | 00:00:00 | |
| SQ6EMJ | 2026-09-02 12:47:37 | 51.11262 | 17.60976 | 41° | 24km/h | 29568m | 6.0m/s | 0°C | 0% | 0hPa | 0V | 00:00:00 | 00:00:00 | 00:00:00 | |
| KRY50SP | 2026-09-02 12:47:33 | 51.11262 | 17.60953 | 80° | 9km/h | 29541m | 6.1m/s | 0°C | 0% | 0hPa | 0V | 00:00:00 | 00:00:00 | 00:00:00 | |
| SQ6EMJ | 2026-09-02 12:47:31 | 51.11256 | 17.60948 | 14° | 27km/h | 29527m | 6.1m/s | 0°C | 0% | 0hPa | 0V | 00:00:00 | 00:00:00 | 00:00:00 | |
| POL1PZ | 2026-09-02 12:47:26 | 51.11232 | 17.60895 | 84° | 16km/h | 29485m | 7.8m/s | 0°C | 0% | 0hPa | 0V | 00:00:00 | 00:00:00 | 00:00:00 | |
| PETON7-10 | 2026-09-02 12:47:23 | 51.11228 | 17.60888 | 17° | 22km/h | 29468m | 6.5m/s | 0°C | 0% | 0hPa | 0V | 00:00:00 | 00:00:00 | 00:00:00 | |
| KRY50SP | 2026-09-02 12:47:20 | 51.11216 | 17.60877 | 48° | 26km/h | 29448m | 7.4m/s | 0°C | 0% | 0hPa | 0V | 00:00:00 | 00:00:00 | 00:00:00 | |
| SQ6EMJ | 2026-09-02 12:47:19 | 51.11212 | 17.60868 | 50° | 38km/h | 29440m | 6.1m/s | 0°C | 0% | 0hPa | 0V | 00:00:00 | 00:00:00 | 00:00:00 | |
| KRY50SP | 2026-09-02 12:47:14 | 51.11183 | 17.60816 | 69° | 15km/h | 29407m | 7.6m/s | 0°C | 0% | 0hPa | 0V | 00:00:00 | 00:00:00 | 00:00:00 | |
| OE5DRO-10 | 2026-09-02 12:47:13 | 51.11182 | 17.60812 | 127° | 26km/h | 29399m | 6.9m/s | 0°C | 0% | 0hPa | 0V | 00:00:00 | 00:00:00 | 00:00:00 | |
| PETON7-10 | 2026-09-02 12:47:08 | 51.11170 | 17.60812 | 24° | 29km/h | 29372m | 5.5m/s | 0°C | 0% | 0hPa | 0V | 00:00:00 | 00:00:00 | 00:00:00 | |
| POL1PZ | 2026-09-02 12:47:05 | 51.11151 | 17.60764 | 84° | 33km/h | 29348m | 4.6m/s | 0°C | 0% | 0hPa | 0V | 00:00:00 | 00:00:00 | 00:00:00 | |
| SQ6EMJ | 2026-09-02 12:47:02 | 51.11147 | 17.60746 | 43° | 20km/h | 29338m | 8.3m/s | 0°C | 0% | 0hPa | 0V | 00:00:00 | 00:00:00 | 00:00:00 | |
| SQ6EMJ | 2026-09-02 12:46:56 | 51.11121 | 17.60723 | 94° | 33km/h | 29297m | 6.5m/s | 0°C | 0% | 0hPa | 0V | 00:00:00 | 00:00:00 | 00:00:00 | |
| KRY50SP | 2026-09-02 12:46:54 | 51.11116 | 17.60683 | 51° | 29km/h | 29280m | 9.0m/s | 0°C | 0% | 0hPa | 0V | 00:00:00 | 00:00:00 | 00:00:00 | |
| PETON7-10 | 2026-09-02 12:46:53 | 51.11116 | 17.60683 | 50° | 33km/h | 29280m | 9.0m/s | 0°C | 0% | 0hPa | 0V | 00:00:00 | 00:00:00 | 00:00:00 | |
| SP3BTT-10 | 2026-09-02 12:46:50 | 51.11096 | 17.60666 | 28° | 37km/h | 29260m | 5.6m/s | 0°C | 0% | 0hPa | 0V | 00:00:00 | 00:00:00 | 00:00:00 | |
| SQ6EMJ | 2026-09-02 12:46:45 | 51.11072 | 17.60613 | 47° | 40km/h | 29227m | 7.5m/s | 0°C | 0% | 0hPa | 0V | 00:00:00 | 00:00:00 | 00:00:00 | |
| OE5DRO-10 | 2026-09-02 12:46:44 | 51.11064 | 17.60603 | 32° | 27km/h | 29220m | 5.5m/s | 0°C | 0% | 0hPa | 0V | 00:00:00 | 00:00:00 | 00:00:00 | |
| SQ6EMJ | 2026-09-02 12:46:40 | 51.11035 | 17.60556 | 38° | 22km/h | 29189m | 5.4m/s | 0°C | 0% | 0hPa | 0V | 00:00:00 | 00:00:00 | 00:00:00 | |
| PETON7-10 | 2026-09-02 12:46:38 | 51.11030 | 17.60552 | 14° | 29km/h | 29181m | 7.7m/s | 0°C | 0% | 0hPa | 0V | 00:00:00 | 00:00:00 | 00:00:00 | |
| KRY50SP | 2026-09-02 12:46:35 | 51.11009 | 17.60547 | 24° | 27km/h | 29163m | 6.4m/s | 0°C | 0% | 0hPa | 0V | 00:00:00 | 00:00:00 | 00:00:00 | |
| SQ6EMJ | 2026-09-02 12:46:34 | 51.11003 | 17.60540 | 49° | 29km/h | 29156m | 8.3m/s | 0°C | 0% | 0hPa | 0V | 00:00:00 | 00:00:00 | 00:00:00 | |
| SQ6EMJ | 2026-09-02 12:46:28 | 51.10967 | 17.60490 | 18° | 27km/h | 29119m | 4.9m/s | 0°C | 0% | 0hPa | 0V | 00:00:00 | 00:00:00 | 00:00:00 | |
| PETON7-10 | 2026-09-02 12:46:23 | 51.10938 | 17.60457 | 23° | 35km/h | 29086m | 8.3m/s | 0°C | 0% | 0hPa | 0V | 00:00:00 | 00:00:00 | 00:00:00 | |
| SQ6EMJ | 2026-09-02 12:46:22 | 51.10928 | 17.60451 | 20° | 44km/h | 29078m | 5.6m/s | 0°C | 0% | 0hPa | 0V | 00:00:00 | 00:00:00 | 00:00:00 | |
| KRY50SP | 2026-09-02 12:46:18 | 51.10897 | 17.60420 | 43° | 29km/h | 29055m | 4.6m/s | 0°C | 0% | 0hPa | 0V | 00:00:00 | 00:00:00 | 00:00:00 | |
| SQ6EMJ | 2026-09-02 12:46:17 | 51.10892 | 17.60413 | 34° | 26km/h | 29050m | 6.9m/s | 0°C | 0% | 0hPa | 0V | 00:00:00 | 00:00:00 | 00:00:00 | |
| KRY50SP | 2026-09-02 12:46:12 | 51.10851 | 17.60390 | 35° | 37km/h | 29014m | 7.1m/s | 0°C | 0% | 0hPa | 0V | 00:00:00 | 00:00:00 | 00:00:00 | |
| SQ6EMJ | 2026-09-02 12:46:11 | 51.10843 | 17.60380 | 44° | 37km/h | 29008m | 5.1m/s | 0°C | 0% | 0hPa | 0V | 00:00:00 | 00:00:00 | 00:00:00 | |
| PETON7-10 | 2026-09-02 12:46:08 | 51.10819 | 17.60358 | 13° | 38km/h | 28989m | 6.6m/s | 0°C | 0% | 0hPa | 0V | 00:00:00 | 00:00:00 | 00:00:00 | |
| KRY50SP | 2026-09-02 12:46:06 | 51.10800 | 17.60352 | 13° | 37km/h | 28976m | 7.5m/s | 0°C | 0% | 0hPa | 0V | 00:00:00 | 00:00:00 | 00:00:00 | |
| SQ6EMJ | 2026-09-02 12:46:05 | 51.10791 | 17.60348 | 23° | 33km/h | 28968m | 6.1m/s | 0°C | 0% | 0hPa | 0V | 00:00:00 | 00:00:00 | 00:00:00 | |
| SP3BTT-10 | 2026-09-02 12:46:04 | 51.10784 | 17.60343 | 26° | 20km/h | 28963m | 4.3m/s | 0°C | 0% | 0hPa | 0V | 00:00:00 | 00:00:00 | 00:00:00 | |
| SQ6EMJ | 2026-09-02 12:45:59 | 51.10737 | 17.60321 | 23° | 44km/h | 28932m | 6.9m/s | 0°C | 0% | 0hPa | 0V | 00:00:00 | 00:00:00 | 00:00:00 | |
| KRY50SP | 2026-09-02 12:45:58 | 51.10728 | 17.60314 | 34° | 42km/h | 28925m | 7.0m/s | 0°C | 0% | 0hPa | 0V | 00:00:00 | 00:00:00 | 00:00:00 | |
| PETON7-10 | 2026-09-02 12:45:53 | 51.10684 | 17.60297 | 342° | 29km/h | 28891m | 5.0m/s | 0°C | 0% | 0hPa | 0V | 00:00:00 | 00:00:00 | 00:00:00 | |
| KRY50SP | 2026-09-02 12:45:50 | 51.10661 | 17.60301 | 24° | 26km/h | 28873m | 6.5m/s | 0°C | 0% | 0hPa | 0V | 00:00:00 | 00:00:00 | 00:00:00 | |
| SQ6EMJ | 2026-09-02 12:45:48 | 51.10647 | 17.60289 | 26° | 38km/h | 28862m | 6.0m/s | 0°C | 0% | 0hPa | 0V | 00:00:00 | 00:00:00 | 00:00:00 | |
| SQ6EMJ | 2026-09-02 12:45:42 | 51.10612 | 17.60297 | 301° | 16km/h | 28823m | 5.5m/s | 0°C | 0% | 0hPa | 0V | 00:00:00 | 00:00:00 | 00:00:00 | |
| KRY50SP | 2026-09-02 12:45:41 | 51.10608 | 17.60302 | 326° | 22km/h | 28817m | 7.9m/s | 0°C | 0% | 0hPa | 0V | 00:00:00 | 00:00:00 | 00:00:00 | |
| PETON7-10 | 2026-09-02 12:45:36 | 51.10575 | 17.60290 | 39° | 24km/h | 28784m | 5.5m/s | 0°C | 0% | 0hPa | 0V | 00:00:00 | 00:00:00 | 00:00:00 | |
| KRY50SP | 2026-09-02 12:45:35 | 51.10571 | 17.60287 | 14° | 15km/h | 28779m | 4.4m/s | 0°C | 0% | 0hPa | 0V | 00:00:00 | 00:00:00 | 00:00:00 | |
| KRY50SP | 2026-09-02 12:45:30 | 51.10538 | 17.60309 | 349° | 29km/h | 28750m | 6.1m/s | 0°C | 0% | 0hPa | 0V | 00:00:00 | 00:00:00 | 00:00:00 | |
| KRY50SP | 2026-09-02 12:45:24 | 51.10517 | 17.60295 | 350° | 27km/h | 28713m | 6.7m/s | 0°C | 0% | 0hPa | 0V | 00:00:00 | 00:00:00 | 00:00:00 | |
| POL1PZ | 2026-09-02 12:45:22 | 51.10504 | 17.60303 | 332° | 26km/h | 28701m | 6.4m/s | 0°C | 0% | 0hPa | 0V | 00:00:00 | 00:00:00 | 00:00:00 | |
| PETON7-10 | 2026-09-02 12:45:21 | 51.10499 | 17.60308 | 329° | 16km/h | 28694m | 6.2m/s | 0°C | 0% | 0hPa | 0V | 00:00:00 | 00:00:00 | 00:00:00 | |
| SQ6EMJ | 2026-09-02 12:45:19 | 51.10493 | 17.60314 | 330° | 11km/h | 28682m | 5.3m/s | 0°C | 0% | 0hPa | 0V | 00:00:00 | 00:00:00 | 00:00:00 | |
| KRY50SP | 2026-09-02 12:45:16 | 51.10485 | 17.60328 | 306° | 20km/h | 28664m | 5.6m/s | 0°C | 0% | 0hPa | 0V | 00:00:00 | 00:00:00 | 00:00:00 | |
| SQ6EMJ | 2026-09-02 12:45:13 | 51.10477 | 17.60337 | 33° | 9km/h | 28648m | 7.5m/s | 0°C | 0% | 0hPa | 0V | 00:00:00 | 00:00:00 | 00:00:00 | |
| KRY50SP | 2026-09-02 12:45:10 | 51.10475 | 17.60330 | 333° | 4km/h | 28633m | 7.2m/s | 0°C | 0% | 0hPa | 0V | 00:00:00 | 00:00:00 | 00:00:00 | |
| SQ6EMJ | 2026-09-02 12:45:07 | 51.10472 | 17.60351 | 272° | 27km/h | 28612m | 4.0m/s | 0°C | 0% | 0hPa | 0V | 00:00:00 | 00:00:00 | 00:00:00 | |
| PETON7-10 | 2026-09-02 12:45:05 | 51.10476 | 17.60369 | 178° | 16km/h | 28593m | 6.5m/s | 0°C | 0% | 0hPa | 0V | 00:00:00 | 00:00:00 | 00:00:00 | |
| POL1PZ | 2026-09-02 12:45:01 | 51.10479 | 17.60367 | 317° | 9km/h | 28575m | 5.7m/s | 0°C | 0% | 0hPa | 0V | 00:00:00 | 00:00:00 | 00:00:00 | |
| SQ6EMJ | 2026-09-02 12:44:57 | 51.10484 | 17.60395 | 220° | 29km/h | 28547m | 7.2m/s | 0°C | 0% | 0hPa | 0V | 00:00:00 | 00:00:00 | 00:00:00 | |
| OE5DRO-10 | 2026-09-02 12:44:51 | 51.10498 | 17.60419 | 143° | 13km/h | 28511m | 4.6m/s | 0°C | 0% | 0hPa | 0V | 00:00:00 | 00:00:00 | 00:00:00 | |
| PETON7-10 | 2026-09-02 12:44:48 | 51.10511 | 17.60424 | 207° | 24km/h | 28493m | 5.5m/s | 0°C | 0% | 0hPa | 0V | 00:00:00 | 00:00:00 | 00:00:00 | |
| SP4MAZ | 2026-09-02 12:44:47 | 51.10517 | 17.60431 | 222° | 31km/h | 28486m | 8.0m/s | 0°C | 0% | 0hPa | 0V | 00:00:00 | 00:00:00 | 00:00:00 | |
| KRY50SP | 2026-09-02 12:44:46 | 51.10522 | 17.60440 | 235° | 33km/h | 28479m | 5.4m/s | 0°C | 0% | 0hPa | 0V | 00:00:00 | 00:00:00 | 00:00:00 | |
| SQ6EMJ | 2026-09-02 12:44:45 | 51.10527 | 17.60450 | 236° | 29km/h | 28474m | 4.8m/s | 0°C | 0% | 0hPa | 0V | 00:00:00 | 00:00:00 | 00:00:00 | |
| SQ6EMJ | 2026-09-02 12:44:40 | 51.10558 | 17.60460 | 196° | 9km/h | 28438m | 6.8m/s | 0°C | 0% | 0hPa | 0V | 00:00:00 | 00:00:00 | 00:00:00 | |
| POL1PZ | 2026-09-02 12:44:38 | 51.10560 | 17.60463 | 248° | 15km/h | 28431m | 6.7m/s | 0°C | 0% | 0hPa | 0V | 00:00:00 | 00:00:00 | 00:00:00 | |
| SQ6EMJ | 2026-09-02 12:44:34 | 51.10576 | 17.60491 | 206° | 24km/h | 28407m | 3.8m/s | 0°C | 0% | 0hPa | 0V | 00:00:00 | 00:00:00 | 00:00:00 | |
| PETON7-10 | 2026-09-02 12:44:33 | 51.10581 | 17.60494 | 196° | 18km/h | 28402m | 6.7m/s | 0°C | 0% | 0hPa | 0V | 00:00:00 | 00:00:00 | 00:00:00 | |
| SQ6EMJ | 2026-09-02 12:44:28 | 51.10593 | 17.60475 | 146° | 24km/h | 28369m | 4.7m/s | 0°C | 0% | 0hPa | 0V | 00:00:00 | 00:00:00 | 00:00:00 | |
| OE5DRO-10 | 2026-09-02 12:44:27 | 51.10598 | 17.60472 | 171° | 15km/h | 28365m | 5.4m/s | 0°C | 0% | 0hPa | 0V | 00:00:00 | 00:00:00 | 00:00:00 | |
| SQ6EMJ | 2026-09-02 12:44:22 | 51.10616 | 17.60489 | 167° | 16km/h | 28334m | 7.7m/s | 0°C | 0% | 0hPa | 0V | 00:00:00 | 00:00:00 | 00:00:00 | |
| SQ6EMJ | 2026-09-02 12:44:17 | 51.10625 | 17.60460 | 254° | 9km/h | 28299m | 5.0m/s | 0°C | 0% | 0hPa | 0V | 00:00:00 | 00:00:00 | 00:00:00 | |
| KRY50SP | 2026-09-02 12:44:13 | 51.10637 | 17.60466 | 173° | 24km/h | 28281m | 4.6m/s | 0°C | 0% | 0hPa | 0V | 00:00:00 | 00:00:00 | 00:00:00 | |
| SP4MAZ | 2026-09-02 12:44:10 | 51.10647 | 17.60462 | 0° | 0km/h | 28263m | 7.8m/s | 0°C | 0% | 0hPa | 0V | 00:00:00 | 00:00:00 | 00:00:00 | |
| KRY50SP | 2026-09-02 12:44:08 | 51.10644 | 17.60462 | 21° | 5km/h | 28251m | 4.8m/s | 0°C | 0% | 0hPa | 0V | 00:00:00 | 00:00:00 | 00:00:00 | |
| SQ6EMJ | 2026-09-02 12:44:05 | 51.10648 | 17.60452 | 145° | 24km/h | 28232m | 6.8m/s | 0°C | 0% | 0hPa | 0V | 00:00:00 | 00:00:00 | 00:00:00 | |
| PETON7-10 | 2026-09-02 12:44:02 | 51.10661 | 17.60443 | 183° | 9km/h | 28212m | 6.0m/s | 0°C | 0% | 0hPa | 0V | 00:00:00 | 00:00:00 | 00:00:00 | |
| SQ6EMJ | 2026-09-02 12:44:00 | 51.10661 | 17.60439 | 87° | 9km/h | 28195m | 7.2m/s | 0°C | 0% | 0hPa | 0V | 00:00:00 | 00:00:00 | 00:00:00 | |
| KRY50SP | 2026-09-02 12:43:53 | 51.10661 | 17.60420 | 151° | 13km/h | 28160m | 6.8m/s | 0°C | 0% | 0hPa | 0V | 00:00:00 | 00:00:00 | 00:00:00 | |
| POL1PZ | 2026-09-02 12:43:49 | 51.10671 | 17.60408 | 348° | 2km/h | 28137m | 7.8m/s | 0°C | 0% | 0hPa | 0V | 00:00:00 | 00:00:00 | 00:00:00 | |
| SQ6EMJ | 2026-09-02 12:43:48 | 51.10669 | 17.60410 | 336° | 11km/h | 28131m | 6.0m/s | 0°C | 0% | 0hPa | 0V | 00:00:00 | 00:00:00 | 00:00:00 | |
| PETON7-10 | 2026-09-02 12:43:47 | 51.10667 | 17.60411 | 358° | 11km/h | 28124m | 3.8m/s | 0°C | 0% | 0hPa | 0V | 00:00:00 | 00:00:00 | 00:00:00 | |
| KRY50SP | 2026-09-02 12:43:44 | 51.10663 | 17.60397 | 98° | 22km/h | 28107m | 4.7m/s | 0°C | 0% | 0hPa | 0V | 00:00:00 | 00:00:00 | 00:00:00 | |
| SQ6EMJ | 2026-09-02 12:43:43 | 51.10664 | 17.60389 | 100° | 18km/h | 28103m | 3.7m/s | 0°C | 0% | 0hPa | 0V | 00:00:00 | 00:00:00 | 00:00:00 | |
| KRY50SP | 2026-09-02 12:43:38 | 51.10656 | 17.60379 | 41° | 7km/h | 28075m | 7.3m/s | 0°C | 0% | 0hPa | 0V | 00:00:00 | 00:00:00 | 00:00:00 | |
| SQ6EMJ | 2026-09-02 12:43:37 | 51.10656 | 17.60377 | 131° | 5km/h | 28068m | 5.8m/s | 0°C | 0% | 0hPa | 0V | 00:00:00 | 00:00:00 | 00:00:00 | |
| PETON7-10 | 2026-09-02 12:43:31 | 51.10657 | 17.60375 | 44° | 9km/h | 28033m | 7.6m/s | 0°C | 0% | 0hPa | 0V | 00:00:00 | 00:00:00 | 00:00:00 | |
| POL1PZ | 2026-09-02 12:43:29 | 51.10651 | 17.60363 | 14° | 16km/h | 28017m | 6.4m/s | 0°C | 0% | 0hPa | 0V | 00:00:00 | 00:00:00 | 00:00:00 | |
| SQ6EMJ | 2026-09-02 12:43:26 | 51.10643 | 17.60366 | 334° | 18km/h | 28004m | 4.7m/s | 0°C | 0% | 0hPa | 0V | 00:00:00 | 00:00:00 | 00:00:00 | |
| KRY50SP | 2026-09-02 12:43:24 | 51.10638 | 17.60369 | 22° | 5km/h | 27992m | 8.3m/s | 0°C | 0% | 0hPa | 0V | 00:00:00 | 00:00:00 | 00:00:00 | |
| SQ6EMJ | 2026-09-02 12:43:20 | 51.10636 | 17.60364 | 334° | 5km/h | 27968m | 5.2m/s | 0°C | 0% | 0hPa | 0V | 00:00:00 | 00:00:00 | 00:00:00 | |
| PETON7-10 | 2026-09-02 12:43:16 | 51.10630 | 17.60358 | 35° | 9km/h | 27943m | 4.7m/s | 0°C | 0% | 0hPa | 0V | 00:00:00 | 00:00:00 | 00:00:00 | |
| SQ6EMJ | 2026-09-02 12:43:15 | 51.10629 | 17.60357 | 339° | 5km/h | 27937m | 8.4m/s | 0°C | 0% | 0hPa | 0V | 00:00:00 | 00:00:00 | 00:00:00 | |
| KRY50SP | 2026-09-02 12:43:14 | 51.10627 | 17.60359 | 309° | 11km/h | 27930m | 6.2m/s | 0°C | 0% | 0hPa | 0V | 00:00:00 | 00:00:00 | 00:00:00 | |
| SQ6EMJ | 2026-09-02 12:43:09 | 51.10629 | 17.60353 | 93° | 13km/h | 27899m | 4.4m/s | 0°C | 0% | 0hPa | 0V | 00:00:00 | 00:00:00 | 00:00:00 | |
| POL1PZ | 2026-09-02 12:43:07 | 51.10626 | 17.60349 | 332° | 11km/h | 27886m | 6.6m/s | 0°C | 0% | 0hPa | 0V | 00:00:00 | 00:00:00 | 00:00:00 | |
| KRY50SP | 2026-09-02 12:43:06 | 51.10623 | 17.60353 | 322° | 15km/h | 27880m | 4.7m/s | 0°C | 0% | 0hPa | 0V | 00:00:00 | 00:00:00 | 00:00:00 | |
| SQ6EMJ | 2026-09-02 12:43:03 | 51.10618 | 17.60356 | 102° | 4km/h | 27863m | 5.4m/s | 0°C | 0% | 0hPa | 0V | 00:00:00 | 00:00:00 | 00:00:00 | |
| SP3BTT-10 | 2026-09-02 12:43:02 | 51.10618 | 17.60355 | 94° | 13km/h | 27858m | 4.9m/s | 0°C | 0% | 0hPa | 0V | 00:00:00 | 00:00:00 | 00:00:00 | |
| PETON7-10 | 2026-09-02 12:43:01 | 51.10618 | 17.60355 | 216° | 9km/h | 27852m | 7.5m/s | 0°C | 0% | 0hPa | 0V | 00:00:00 | 00:00:00 | 00:00:00 | |
| KRY50SP | 2026-09-02 12:42:59 | 51.10619 | 17.60357 | 209° | 2km/h | 27840m | 3.7m/s | 0°C | 0% | 0hPa | 0V | 00:00:00 | 00:00:00 | 00:00:00 | |
| SQ6EMJ | 2026-09-02 12:42:58 | 51.10619 | 17.60357 | 135° | 4km/h | 27834m | 7.0m/s | 0°C | 0% | 0hPa | 0V | 00:00:00 | 00:00:00 | 00:00:00 | |
| SQ6EMJ | 2026-09-02 12:42:52 | 51.10618 | 17.60356 | 279° | 4km/h | 27796m | 4.3m/s | 0°C | 0% | 0hPa | 0V | 00:00:00 | 00:00:00 | 00:00:00 | |
| SQ6EMJ | 2026-09-02 12:42:46 | 51.10629 | 17.60337 | 252° | 2km/h | 27761m | 5.7m/s | 0°C | 0% | 0hPa | 0V | 00:00:00 | 00:00:00 | 00:00:00 | |
| PETON7-10 | 2026-09-02 12:42:45 | 51.10629 | 17.60338 | 220° | 11km/h | 27756m | 4.3m/s | 0°C | 0% | 0hPa | 0V | 00:00:00 | 00:00:00 | 00:00:00 | |
| POL1PZ | 2026-09-02 12:42:44 | 51.10630 | 17.60337 | 143° | 7km/h | 27751m | 5.4m/s | 0°C | 0% | 0hPa | 0V | 00:00:00 | 00:00:00 | 00:00:00 | |
| SQ6EMJ | 2026-09-02 12:42:41 | 51.10636 | 17.60321 | 119° | 20km/h | 27734m | 4.6m/s | 0°C | 0% | 0hPa | 0V | 00:00:00 | 00:00:00 | 00:00:00 | |
| KRY50SP | 2026-09-02 12:42:39 | 51.10639 | 17.60310 | 91° | 5km/h | 27721m | 6.6m/s | 0°C | 0% | 0hPa | 0V | 00:00:00 | 00:00:00 | 00:00:00 | |
| SQ6EMJ | 2026-09-02 12:42:35 | 51.10644 | 17.60295 | 121° | 13km/h | 27697m | 5.1m/s | 0°C | 0% | 0hPa | 0V | 00:00:00 | 00:00:00 | 00:00:00 | |
| PETON7-10 | 2026-09-02 12:42:30 | 51.10648 | 17.60274 | 103° | 16km/h | 27665m | 8.2m/s | 0°C | 0% | 0hPa | 0V | 00:00:00 | 00:00:00 | 00:00:00 | |
| KRY50SP | 2026-09-02 12:42:29 | 51.10649 | 17.60263 | 107° | 31km/h | 27658m | 5.2m/s | 0°C | 0% | 0hPa | 0V | 00:00:00 | 00:00:00 | 00:00:00 | |
| OE5DRO-10 | 2026-09-02 12:42:27 | 51.10653 | 17.60243 | 108° | 13km/h | 27647m | 7.0m/s | 0°C | 0% | 0hPa | 0V | 00:00:00 | 00:00:00 | 00:00:00 | |
| SQ6EMJ | 2026-09-02 12:42:25 | 51.10652 | 17.60236 | 34° | 4km/h | 27628m | 6.2m/s | 0°C | 0% | 0hPa | 0V | 00:00:00 | 00:00:00 | 00:00:00 | |
| KRY50SP | 2026-09-02 12:42:21 | 51.10654 | 17.60222 | 112° | 18km/h | 27608m | 5.8m/s | 0°C | 0% | 0hPa | 0V | 00:00:00 | 00:00:00 | 00:00:00 | |
| POL1PZ | 2026-09-02 12:42:20 | 51.10655 | 17.60215 | 106° | 16km/h | 27602m | 6.8m/s | 0°C | 0% | 0hPa | 0V | 00:00:00 | 00:00:00 | 00:00:00 | |
| SQ6EMJ | 2026-09-02 12:42:19 | 51.10656 | 17.60209 | 100° | 15km/h | 27596m | 5.8m/s | 0°C | 0% | 0hPa | 0V | 00:00:00 | 00:00:00 | 00:00:00 | |
| KRY50SP | 2026-09-02 12:42:15 | 51.10663 | 17.60179 | 106° | 18km/h | 27573m | 3.8m/s | 0°C | 0% | 0hPa | 0V | 00:00:00 | 00:00:00 | 00:00:00 | |
| PETON7-10 | 2026-09-02 12:42:14 | 51.10663 | 17.60174 | 71° | 15km/h | 27568m | 7.5m/s | 0°C | 0% | 0hPa | 0V | 00:00:00 | 00:00:00 | 00:00:00 | |
| SQ6EMJ | 2026-09-02 12:42:13 | 51.10661 | 17.60171 | 11° | 11km/h | 27560m | 8.1m/s | 0°C | 0% | 0hPa | 0V | 00:00:00 | 00:00:00 | 00:00:00 | |
| KRY50SP | 2026-09-02 12:42:10 | 51.10653 | 17.60165 | 81° | 15km/h | 27543m | 7.6m/s | 0°C | 0% | 0hPa | 0V | 00:00:00 | 00:00:00 | 00:00:00 | |
| SQ6EMJ | 2026-09-02 12:42:07 | 51.10658 | 17.60137 | 117° | 24km/h | 27524m | 6.6m/s | 0°C | 0% | 0hPa | 0V | 00:00:00 | 00:00:00 | 00:00:00 | |
| SP3BTT-10 | 2026-09-02 12:42:03 | 51.10664 | 17.60118 | 112° | 7km/h | 27498m | 6.6m/s | 0°C | 0% | 0hPa | 0V | 00:00:00 | 00:00:00 | 00:00:00 | |
| SQ6EMJ | 2026-09-02 12:42:01 | 51.10664 | 17.60110 | 60° | 9km/h | 27488m | 5.2m/s | 0°C | 0% | 0hPa | 0V | 00:00:00 | 00:00:00 | 00:00:00 | |
| POL1PZ | 2026-09-02 12:42:00 | 51.10662 | 17.60108 | 28° | 11km/h | 27481m | 7.8m/s | 0°C | 0% | 0hPa | 0V | 00:00:00 | 00:00:00 | 00:00:00 | |
| PETON7-10 | 2026-09-02 12:41:59 | 51.10660 | 17.60107 | 357° | 18km/h | 27474m | 5.9m/s | 0°C | 0% | 0hPa | 0V | 00:00:00 | 00:00:00 | 00:00:00 | |
| KRY50SP | 2026-09-02 12:41:58 | 51.10657 | 17.60106 | 46° | 7km/h | 27469m | 3.9m/s | 0°C | 0% | 0hPa | 0V | 00:00:00 | 00:00:00 | 00:00:00 | |
| SQ6EMJ | 2026-09-02 12:41:55 | 51.10662 | 17.60086 | 127° | 31km/h | 27451m | 4.3m/s | 0°C | 0% | 0hPa | 0V | 00:00:00 | 00:00:00 | 00:00:00 | |
| OE5DRO-10 | 2026-09-02 12:41:54 | 51.10666 | 17.60077 | 127° | 18km/h | 27448m | 2.2m/s | 0°C | 0% | 0hPa | 0V | 00:00:00 | 00:00:00 | 00:00:00 | |
| KRY50SP | 2026-09-02 12:41:52 | 51.10670 | 17.60065 | 32° | 7km/h | 27438m | 8.0m/s | 0°C | 0% | 0hPa | 0V | 00:00:00 | 00:00:00 | 00:00:00 | |
| SQ6EMJ | 2026-09-02 12:41:49 | 51.10654 | 17.60069 | 6° | 24km/h | 27421m | 4.5m/s | 0°C | 0% | 0hPa | 0V | 00:00:00 | 00:00:00 | 00:00:00 | |
| KRY50SP | 2026-09-02 12:41:46 | 51.10649 | 17.60053 | 123° | 24km/h | 27402m | 5.1m/s | 0°C | 0% | 0hPa | 0V | 00:00:00 | 00:00:00 | 00:00:00 | |
| PETON7-10 | 2026-09-02 12:41:44 | 51.10655 | 17.60042 | 163° | 11km/h | 27390m | 6.9m/s | 0°C | 0% | 0hPa | 0V | 00:00:00 | 00:00:00 | 00:00:00 | |
| SP4MAZ | 2026-09-02 12:41:41 | 51.10654 | 17.60048 | 330° | 13km/h | 27372m | 5.8m/s | 0°C | 0% | 0hPa | 0V | 00:00:00 | 00:00:00 | 00:00:00 | |
| KRY50SP | 2026-09-02 12:41:40 | 51.10651 | 17.60049 | 11° | 11km/h | 27366m | 5.9m/s | 0°C | 0% | 0hPa | 0V | 00:00:00 | 00:00:00 | 00:00:00 | |
| POL1PZ | 2026-09-02 12:41:38 | 51.10646 | 17.60040 | 58° | 18km/h | 27355m | 5.5m/s | 0°C | 0% | 0hPa | 0V | 00:00:00 | 00:00:00 | 00:00:00 | |
| OE5DRO-10 | 2026-09-02 12:41:35 | 51.10636 | 17.60029 | 15° | 13km/h | 27338m | 4.8m/s | 0°C | 0% | 0hPa | 0V | 00:00:00 | 00:00:00 | 00:00:00 | |
| SQ6EMJ | 2026-09-02 12:41:32 | 51.10633 | 17.60022 | 118° | 11km/h | 27321m | 6.6m/s | 0°C | 0% | 0hPa | 0V | 00:00:00 | 00:00:00 | 00:00:00 | |
| PETON7-10 | 2026-09-02 12:41:29 | 51.10633 | 17.60016 | 335° | 13km/h | 27306m | 8.5m/s | 0°C | 0% | 0hPa | 0V | 00:00:00 | 00:00:00 | 00:00:00 | |
| SQ6EMJ | 2026-09-02 12:41:26 | 51.10619 | 17.60026 | 353° | 22km/h | 27285m | 6.6m/s | 0°C | 0% | 0hPa | 0V | 00:00:00 | 00:00:00 | 00:00:00 | |
| SQ6EMJ | 2026-09-02 12:41:20 | 51.10606 | 17.60018 | 249° | 4km/h | 27249m | 5.3m/s | 0°C | 0% | 0hPa | 0V | 00:00:00 | 00:00:00 | 00:00:00 | |
| POL1PZ | 2026-09-02 12:41:16 | 51.10604 | 17.60019 | 323° | 9km/h | 27226m | 6.7m/s | 0°C | 0% | 0hPa | 0V | 00:00:00 | 00:00:00 | 00:00:00 | |
| SQ6EMJ | 2026-09-02 12:41:15 | 51.10602 | 17.60022 | 313° | 18km/h | 27219m | 6.2m/s | 0°C | 0% | 0hPa | 0V | 00:00:00 | 00:00:00 | 00:00:00 | |
| PETON7-10 | 2026-09-02 12:41:14 | 51.10599 | 17.60027 | 303° | 9km/h | 27213m | 6.4m/s | 0°C | 0% | 0hPa | 0V | 00:00:00 | 00:00:00 | 00:00:00 | |
| KRY50SP | 2026-09-02 12:41:09 | 51.10605 | 17.60029 | 194° | 11km/h | 27180m | 6.9m/s | 0°C | 0% | 0hPa | 0V | 00:00:00 | 00:00:00 | 00:00:00 | |
| SQ6EMJ | 2026-09-02 12:41:03 | 51.10618 | 17.60047 | 198° | 4km/h | 27146m | 5.2m/s | 0°C | 0% | 0hPa | 0V | 00:00:00 | 00:00:00 | 00:00:00 | |
| PETON7-10 | 2026-09-02 12:40:57 | 51.10617 | 17.60054 | 137° | 9km/h | 27108m | 5.3m/s | 0°C | 0% | 0hPa | 0V | 00:00:00 | 00:00:00 | 00:00:00 | |
| POL1PZ | 2026-09-02 12:40:56 | 51.10619 | 17.60052 | 168° | 9km/h | 27102m | 5.8m/s | 0°C | 0% | 0hPa | 0V | 00:00:00 | 00:00:00 | 00:00:00 | |
| SQ6EMJ | 2026-09-02 12:40:51 | 51.10624 | 17.60059 | 138° | 5km/h | 27070m | 5.1m/s | 0°C | 0% | 0hPa | 0V | 00:00:00 | 00:00:00 | 00:00:00 | |
| KRY50SP | 2026-09-02 12:40:49 | 51.10624 | 17.60058 | 298° | 4km/h | 27057m | 7.7m/s | 0°C | 0% | 0hPa | 0V | 00:00:00 | 00:00:00 | 00:00:00 | |
| SP3BTT-10 | 2026-09-02 12:40:47 | 51.10627 | 17.60062 | 191° | 15km/h | 27047m | 4.9m/s | 0°C | 0% | 0hPa | 0V | 00:00:00 | 00:00:00 | 00:00:00 | |
| SQ6EMJ | 2026-09-02 12:40:46 | 51.10635 | 17.60061 | 168° | 24km/h | 27032m | 6.7m/s | 0°C | 0% | 0hPa | 0V | 00:00:00 | 00:00:00 | 00:00:00 | |
| KRY50SP | 2026-09-02 12:40:44 | 51.10641 | 17.60059 | 172° | 24km/h | 27026m | 5.4m/s | 0°C | 0% | 0hPa | 0V | 00:00:00 | 00:00:00 | 00:00:00 | |
| PETON7-10 | 2026-09-02 12:40:42 | 51.10651 | 17.60061 | 221° | 15km/h | 27014m | 8.3m/s | 0°C | 0% | 0hPa | 0V | 00:00:00 | 00:00:00 | 00:00:00 | |
| OE5DRO-10 | 2026-09-02 12:40:41 | 51.10653 | 17.60065 | 234° | 13km/h | 27006m | 6.1m/s | 0°C | 0% | 0hPa | 0V | 00:00:00 | 00:00:00 | 00:00:00 | |
| SQ6EMJ | 2026-09-02 12:40:40 | 51.10654 | 17.60067 | 225° | 5km/h | 27001m | 6.1m/s | 0°C | 0% | 0hPa | 0V | 00:00:00 | 00:00:00 | 00:00:00 | |
| KRY50SP | 2026-09-02 12:40:36 | 51.10660 | 17.60057 | 161° | 13km/h | 26979m | 5.7m/s | 0°C | 0% | 0hPa | 0V | 00:00:00 | 00:00:00 | 00:00:00 | |
| POL1PZ | 2026-09-02 12:40:35 | 51.10664 | 17.60057 | 200° | 15km/h | 26972m | 8.2m/s | 0°C | 0% | 0hPa | 0V | 00:00:00 | 00:00:00 | 00:00:00 | |
| SQ6EMJ | 2026-09-02 12:40:34 | 51.10667 | 17.60061 | 223° | 20km/h | 26966m | 6.3m/s | 0°C | 0% | 0hPa | 0V | 00:00:00 | 00:00:00 | 00:00:00 | |
| KRY50SP | 2026-09-02 12:40:30 | 51.10685 | 17.60064 | 135° | 15km/h | 26941m | 5.0m/s | 0°C | 0% | 0hPa | 0V | 00:00:00 | 00:00:00 | 00:00:00 | |
| SQ6EMJ | 2026-09-02 12:40:29 | 51.10687 | 17.60060 | 118° | 11km/h | 26935m | 7.3m/s | 0°C | 0% | 0hPa | 0V | 00:00:00 | 00:00:00 | 00:00:00 | |
| PETON7-10 | 2026-09-02 12:40:27 | 51.10689 | 17.60058 | 213° | 16km/h | 26923m | 5.3m/s | 0°C | 0% | 0hPa | 0V | 00:00:00 | 00:00:00 | 00:00:00 | |
| SQ6EMJ | 2026-09-02 12:40:24 | 51.10695 | 17.60056 | 157° | 16km/h | 26905m | 6.7m/s | 0°C | 0% | 0hPa | 0V | 00:00:00 | 00:00:00 | 00:00:00 | |
| OE5DRO-10 | 2026-09-02 12:40:20 | 51.10711 | 17.60057 | 221° | 16km/h | 26880m | 5.1m/s | 0°C | 0% | 0hPa | 0V | 00:00:00 | 00:00:00 | 00:00:00 | |
| KRY50SP | 2026-09-02 12:40:19 | 51.10714 | 17.60060 | 202° | 11km/h | 26876m | 4.7m/s | 0°C | 0% | 0hPa | 0V | 00:00:00 | 00:00:00 | 00:00:00 | |
| SQ6EMJ | 2026-09-02 12:40:18 | 51.10717 | 17.60059 | 154° | 15km/h | 26870m | 7.7m/s | 0°C | 0% | 0hPa | 0V | 00:00:00 | 00:00:00 | 00:00:00 | |
| POL1PZ | 2026-09-02 12:40:14 | 51.10732 | 17.60034 | 153° | 16km/h | 26845m | 6.6m/s | 0°C | 0% | 0hPa | 0V | 00:00:00 | 00:00:00 | 00:00:00 | |
| SQ6EMJ | 2026-09-02 12:40:13 | 51.10738 | 17.60036 | 234° | 13km/h | 26832m | 5.2m/s | 0°C | 0% | 0hPa | 0V | 00:00:00 | 00:00:00 | 00:00:00 | |
| PETON7-10 | 2026-09-02 12:40:12 | 51.10738 | 17.60036 | 234° | 11km/h | 26832m | 5.1m/s | 0°C | 0% | 0hPa | 0V | 00:00:00 | 00:00:00 | 00:00:00 | |
| KRY50SP | 2026-09-02 12:40:08 | 51.10747 | 17.60034 | 138° | 20km/h | 26810m | 5.4m/s | 0°C | 0% | 0hPa | 0V | 00:00:00 | 00:00:00 | 00:00:00 | |
| SQ6EMJ | 2026-09-02 12:40:06 | 51.10754 | 17.60026 | 156° | 15km/h | 26798m | 6.0m/s | 0°C | 0% | 0hPa | 0V | 00:00:00 | 00:00:00 | 00:00:00 | |
| OE5DRO-10 | 2026-09-02 12:40:01 | 51.10760 | 17.60006 | 67° | 9km/h | 26767m | 6.9m/s | 0°C | 0% | 0hPa | 0V | 00:00:00 | 00:00:00 | 00:00:00 | |
| SQ6EMJ | 2026-09-02 12:40:00 | 51.10760 | 17.60004 | 0° | 0km/h | 26760m | 6.9m/s | 0°C | 0% | 0hPa | 0V | 00:00:00 | 00:00:00 | 00:00:00 | |
| PETON7-10 | 2026-09-02 12:39:57 | 51.10763 | 17.60004 | 136° | 13km/h | 26744m | 6.8m/s | 0°C | 0% | 0hPa | 0V | 00:00:00 | 00:00:00 | 00:00:00 | |
| POL1PZ | 2026-09-02 12:39:54 | 51.10768 | 17.59986 | 108° | 13km/h | 26725m | 7.4m/s | 0°C | 0% | 0hPa | 0V | 00:00:00 | 00:00:00 | 00:00:00 | |
| KRY50SP | 2026-09-02 12:39:52 | 51.10772 | 17.59980 | 160° | 9km/h | 26707m | 7.4m/s | 0°C | 0% | 0hPa | 0V | 00:00:00 | 00:00:00 | 00:00:00 | |
| SP3BTT-10 | 2026-09-02 12:39:48 | 51.10780 | 17.59973 | 175° | 18km/h | 26690m | 5.8m/s | 0°C | 0% | 0hPa | 0V | 00:00:00 | 00:00:00 | 00:00:00 | |
| KRY50SP | 2026-09-02 12:39:44 | 51.10780 | 17.59959 | 78° | 26km/h | 26667m | 6.7m/s | 0°C | 0% | 0hPa | 0V | 00:00:00 | 00:00:00 | 00:00:00 | |
| PETON7-10 | 2026-09-02 12:39:42 | 51.10779 | 17.59941 | 80° | 11km/h | 26656m | 6.2m/s | 0°C | 0% | 0hPa | 0V | 00:00:00 | 00:00:00 | 00:00:00 | |
| SQ6EMJ | 2026-09-02 12:39:37 | 51.10780 | 17.59936 | 129° | 11km/h | 26623m | 4.9m/s | 0°C | 0% | 0hPa | 0V | 00:00:00 | 00:00:00 | 00:00:00 | |
| POL1PZ | 2026-09-02 12:39:33 | 51.10780 | 17.59915 | 42° | 13km/h | 26599m | 5.7m/s | 0°C | 0% | 0hPa | 0V | 00:00:00 | 00:00:00 | 00:00:00 | |
| SQ6EMJ | 2026-09-02 12:39:32 | 51.10777 | 17.59912 | 51° | 9km/h | 26594m | 5.5m/s | 0°C | 0% | 0hPa | 0V | 00:00:00 | 00:00:00 | 00:00:00 | |
| KRY50SP | 2026-09-02 12:39:30 | 51.10777 | 17.59904 | 121° | 13km/h | 26583m | 5.7m/s | 0°C | 0% | 0hPa | 0V | 00:00:00 | 00:00:00 | 00:00:00 | |
| PETON7-10 | 2026-09-02 12:39:27 | 51.10783 | 17.59902 | 238° | 9km/h | 26568m | 6.5m/s | 0°C | 0% | 0hPa | 0V | 00:00:00 | 00:00:00 | 00:00:00 | |
| KRY50SP | 2026-09-02 12:39:24 | 51.10781 | 17.59912 | 8° | 5km/h | 26552m | 7.1m/s | 0°C | 0% | 0hPa | 0V | 00:00:00 | 00:00:00 | 00:00:00 | |
| OE5DRO-10 | 2026-09-02 12:39:22 | 51.10780 | 17.59903 | 87° | 11km/h | 26536m | 4.1m/s | 0°C | 0% | 0hPa | 0V | 00:00:00 | 00:00:00 | 00:00:00 | |
| SQ6EMJ | 2026-09-02 12:39:21 | 51.10780 | 17.59895 | 89° | 18km/h | 26532m | 5.5m/s | 0°C | 0% | 0hPa | 0V | 00:00:00 | 00:00:00 | 00:00:00 | |
| KRY50SP | 2026-09-02 12:39:20 | 51.10781 | 17.59888 | 208° | 5km/h | 26519m | 6.7m/s | 0°C | 0% | 0hPa | 0V | 00:00:00 | 00:00:00 | 00:00:00 | |
| SQ6EMJ | 2026-09-02 12:39:15 | 51.10789 | 17.59900 | 184° | 5km/h | 26498m | 5.3m/s | 0°C | 0% | 0hPa | 0V | 00:00:00 | 00:00:00 | 00:00:00 | |
| PETON7-10 | 2026-09-02 12:39:12 | 51.10792 | 17.59902 | 263° | 11km/h | 26480m | 4.8m/s | 0°C | 0% | 0hPa | 0V | 00:00:00 | 00:00:00 | 00:00:00 | |
| SQ6EMJ | 2026-09-02 12:39:09 | 51.10795 | 17.59904 | 159° | 9km/h | 26464m | 7.0m/s | 0°C | 0% | 0hPa | 0V | 00:00:00 | 00:00:00 | 00:00:00 | |
| KRY50SP | 2026-09-02 12:39:07 | 51.10801 | 17.59903 | 206° | 9km/h | 26452m | 7.0m/s | 0°C | 0% | 0hPa | 0V | 00:00:00 | 00:00:00 | 00:00:00 | |
| SQ6EMJ | 2026-09-02 12:39:04 | 51.10806 | 17.59915 | 225° | 11km/h | 26433m | 7.9m/s | 0°C | 0% | 0hPa | 0V | 00:00:00 | 00:00:00 | 00:00:00 | |
| OE5DRO-10 | 2026-09-02 12:39:03 | 51.10809 | 17.59917 | 193° | 18km/h | 26425m | 6.7m/s | 0°C | 0% | 0hPa | 0V | 00:00:00 | 00:00:00 | 00:00:00 | |
| KRY50SP | 2026-09-02 12:39:00 | 51.10819 | 17.59925 | 230° | 18km/h | 26407m | 6.3m/s | 0°C | 0% | 0hPa | 0V | 00:00:00 | 00:00:00 | 00:00:00 | |
| SQ6EMJ | 2026-09-02 12:38:58 | 51.10825 | 17.59931 | 195° | 11km/h | 26396m | 7.5m/s | 0°C | 0% | 0hPa | 0V | 00:00:00 | 00:00:00 | 00:00:00 | |
| PETON7-10 | 2026-09-02 12:38:57 | 51.10828 | 17.59931 | 162° | 18km/h | 26389m | 6.0m/s | 0°C | 0% | 0hPa | 0V | 00:00:00 | 00:00:00 | 00:00:00 | |
| KRY50SP | 2026-09-02 12:38:54 | 51.10840 | 17.59930 | 199° | 22km/h | 26371m | 6.3m/s | 0°C | 0% | 0hPa | 0V | 00:00:00 | 00:00:00 | 00:00:00 | |
| SQ6EMJ | 2026-09-02 12:38:53 | 51.10852 | 17.59934 | 184° | 26km/h | 26360m | 6.0m/s | 0°C | 0% | 0hPa | 0V | 00:00:00 | 00:00:00 | 00:00:00 | |
| POL1PZ | 2026-09-02 12:38:51 | 51.10858 | 17.59934 | 171° | 24km/h | 26355m | 6.4m/s | 0°C | 0% | 0hPa | 0V | 00:00:00 | 00:00:00 | 00:00:00 | |
| KRY50SP | 2026-09-02 12:38:47 | 51.10876 | 17.59934 | 197° | 13km/h | 26330m | 4.1m/s | 0°C | 0% | 0hPa | 0V | 00:00:00 | 00:00:00 | 00:00:00 | |
| SP3BTT-10 | 2026-09-02 12:38:46 | 51.10879 | 17.59935 | 173° | 20km/h | 26326m | 5.4m/s | 0°C | 0% | 0hPa | 0V | 00:00:00 | 00:00:00 | 00:00:00 | |
| OE5DRO-10 | 2026-09-02 12:38:44 | 51.10888 | 17.59927 | 143° | 24km/h | 26313m | 5.5m/s | 0°C | 0% | 0hPa | 0V | 00:00:00 | 00:00:00 | 00:00:00 | |
| PETON7-10 | 2026-09-02 12:38:42 | 51.10899 | 17.59919 | 169° | 26km/h | 26301m | 7.4m/s | 0°C | 0% | 0hPa | 0V | 00:00:00 | 00:00:00 | 00:00:00 | |
| KRY50SP | 2026-09-02 12:38:41 | 51.10904 | 17.59918 | 182° | 18km/h | 26295m | 4.3m/s | 0°C | 0% | 0hPa | 0V | 00:00:00 | 00:00:00 | 00:00:00 | |
| SQ6EMJ | 2026-09-02 12:38:36 | 51.10929 | 17.59905 | 159° | 18km/h | 26268m | 6.9m/s | 0°C | 0% | 0hPa | 0V | 00:00:00 | 00:00:00 | 00:00:00 | |
| KRY50SP | 2026-09-02 12:38:34 | 51.10939 | 17.59901 | 171° | 24km/h | 26258m | 4.0m/s | 0°C | 0% | 0hPa | 0V | 00:00:00 | 00:00:00 | 00:00:00 | |
| SQ6EMJ | 2026-09-02 12:38:31 | 51.10963 | 17.59891 | 168° | 38km/h | 26240m | 4.9m/s | 0°C | 0% | 0hPa | 0V | 00:00:00 | 00:00:00 | 00:00:00 | |
| POL1PZ | 2026-09-02 12:38:30 | 51.10972 | 17.59888 | 174° | 35km/h | 26234m | 6.2m/s | 0°C | 0% | 0hPa | 0V | 00:00:00 | 00:00:00 | 00:00:00 | |
| KRY50SP | 2026-09-02 12:38:28 | 51.10986 | 17.59887 | 181° | 18km/h | 26221m | 4.8m/s | 0°C | 0% | 0hPa | 0V | 00:00:00 | 00:00:00 | 00:00:00 | |
| PETON7-10 | 2026-09-02 12:38:27 | 51.10990 | 17.59886 | 164° | 27km/h | 26216m | 5.1m/s | 0°C | 0% | 0hPa | 0V | 00:00:00 | 00:00:00 | 00:00:00 | |
| SQ6EMJ | 2026-09-02 12:38:25 | 51.10998 | 17.59877 | 136° | 26km/h | 26204m | 5.1m/s | 0°C | 0% | 0hPa | 0V | 00:00:00 | 00:00:00 | 00:00:00 | |
| KRY50SP | 2026-09-02 12:38:22 | 51.11018 | 17.59859 | 170° | 35km/h | 26186m | 5.6m/s | 0°C | 0% | 0hPa | 0V | 00:00:00 | 00:00:00 | 00:00:00 | |
| SQ6EMJ | 2026-09-02 12:38:20 | 51.11035 | 17.59853 | 164° | 35km/h | 26177m | 4.6m/s | 0°C | 0% | 0hPa | 0V | 00:00:00 | 00:00:00 | 00:00:00 | |
| KRY50SP | 2026-09-02 12:38:16 | 51.11054 | 17.59823 | 112° | 16km/h | 26153m | 7.3m/s | 0°C | 0% | 0hPa | 0V | 00:00:00 | 00:00:00 | 00:00:00 | |
| SQ6EMJ | 2026-09-02 12:38:15 | 51.11055 | 17.59817 | 100° | 13km/h | 26147m | 4.4m/s | 0°C | 0% | 0hPa | 0V | 00:00:00 | 00:00:00 | 00:00:00 | |
| PETON7-10 | 2026-09-02 12:38:12 | 51.11064 | 17.59795 | 139° | 31km/h | 26130m | 6.0m/s | 0°C | 0% | 0hPa | 0V | 00:00:00 | 00:00:00 | 00:00:00 | |
| POL1PZ | 2026-09-02 12:38:10 | 51.11080 | 17.59778 | 156° | 38km/h | 26116m | 6.3m/s | 0°C | 0% | 0hPa | 0V | 00:00:00 | 00:00:00 | 00:00:00 | |
| OE5DRO-10 | 2026-09-02 12:38:06 | 51.11100 | 17.59743 | 84° | 27km/h | 26097m | 6.2m/s | 0°C | 0% | 0hPa | 0V | 00:00:00 | 00:00:00 | 00:00:00 | |
| SQ6EMJ | 2026-09-02 12:38:03 | 51.11094 | 17.59712 | 75° | 15km/h | 26081m | 5.3m/s | 0°C | 0% | 0hPa | 0V | 00:00:00 | 00:00:00 | 00:00:00 | |
| KRY50SP | 2026-09-02 12:38:02 | 51.11095 | 17.59706 | 117° | 13km/h | 26077m | 4.8m/s | 0°C | 0% | 0hPa | 0V | 00:00:00 | 00:00:00 | 00:00:00 | |
| PETON7-10 | 2026-09-02 12:37:57 | 51.11116 | 17.59656 | 109° | 20km/h | 26048m | 6.0m/s | 0°C | 0% | 0hPa | 0V | 00:00:00 | 00:00:00 | 00:00:00 | |
| KRY50SP | 2026-09-02 12:37:56 | 51.11118 | 17.59647 | 106° | 20km/h | 26042m | 5.4m/s | 0°C | 0% | 0hPa | 0V | 00:00:00 | 00:00:00 | 00:00:00 | |
| SQ6EMJ | 2026-09-02 12:37:50 | 51.11121 | 17.59605 | 114° | 27km/h | 26008m | 5.8m/s | 0°C | 0% | 0hPa | 0V | 00:00:00 | 00:00:00 | 00:00:00 | |
| POL1PZ | 2026-09-02 12:37:49 | 51.11123 | 17.59595 | 115° | 24km/h | 26002m | 6.6m/s | 0°C | 0% | 0hPa | 0V | 00:00:00 | 00:00:00 | 00:00:00 | |
| OE5DRO-10 | 2026-09-02 12:37:48 | 51.11128 | 17.59581 | 113° | 15km/h | 25990m | 5.5m/s | 0°C | 0% | 0hPa | 0V | 00:00:00 | 00:00:00 | 00:00:00 | |
| SP3BTT-10 | 2026-09-02 12:37:45 | 51.11131 | 17.59567 | 103° | 13km/h | 25978m | 6.3m/s | 0°C | 0% | 0hPa | 0V | 00:00:00 | 00:00:00 | 00:00:00 | |
| KRY50SP | 2026-09-02 12:37:43 | 51.11134 | 17.59551 | 113° | 15km/h | 25968m | 5.3m/s | 0°C | 0% | 0hPa | 0V | 00:00:00 | 00:00:00 | 00:00:00 | |
| PETON7-10 | 2026-09-02 12:37:42 | 51.11134 | 17.59547 | 88° | 11km/h | 25963m | 7.2m/s | 0°C | 0% | 0hPa | 0V | 00:00:00 | 00:00:00 | 00:00:00 | |
| SQ6EMJ | 2026-09-02 12:37:39 | 51.11129 | 17.59537 | 70° | 18km/h | 25946m | 6.3m/s | 0°C | 0% | 0hPa | 0V | 00:00:00 | 00:00:00 | 00:00:00 | |
| KRY50SP | 2026-09-02 12:37:36 | 51.11130 | 17.59511 | 114° | 18km/h | 25930m | 6.3m/s | 0°C | 0% | 0hPa | 0V | 00:00:00 | 00:00:00 | 00:00:00 | |
| SQ6EMJ | 2026-09-02 12:37:33 | 51.11135 | 17.59503 | 154° | 5km/h | 25913m | 4.5m/s | 0°C | 0% | 0hPa | 0V | 00:00:00 | 00:00:00 | 00:00:00 | |
| KRY50SP | 2026-09-02 12:37:29 | 51.11133 | 17.59482 | 79° | 11km/h | 25892m | 6.8m/s | 0°C | 0% | 0hPa | 0V | 00:00:00 | 00:00:00 | 00:00:00 | |
| POL1PZ | 2026-09-02 12:37:28 | 51.11133 | 17.59479 | 109° | 5km/h | 25885m | 6.7m/s | 0°C | 0% | 0hPa | 0V | 00:00:00 | 00:00:00 | 00:00:00 | |
| PETON7-10 | 2026-09-02 12:37:27 | 51.11134 | 17.59477 | 141° | 11km/h | 25879m | 5.8m/s | 0°C | 0% | 0hPa | 0V | 00:00:00 | 00:00:00 | 00:00:00 | |
| KRY50SP | 2026-09-02 12:37:24 | 51.11140 | 17.59465 | 113° | 11km/h | 25861m | 3.9m/s | 0°C | 0% | 0hPa | 0V | 00:00:00 | 00:00:00 | 00:00:00 | |
| SQ6EMJ | 2026-09-02 12:37:22 | 51.11142 | 17.59461 | 201° | 4km/h | 25849m | 6.4m/s | 0°C | 0% | 0hPa | 0V | 00:00:00 | 00:00:00 | 00:00:00 | |
| SP4MAZ | 2026-09-02 12:37:20 | 51.11143 | 17.59460 | 116° | 7km/h | 25837m | 6.8m/s | 0°C | 0% | 0hPa | 0V | 00:00:00 | 00:00:00 | 00:00:00 | |
| KRY50SP | 2026-09-02 12:37:19 | 51.11145 | 17.59449 | 112° | 16km/h | 25825m | 4.7m/s | 0°C | 0% | 0hPa | 0V | 00:00:00 | 00:00:00 | 00:00:00 | |
| SQ6EMJ | 2026-09-02 12:37:17 | 51.11149 | 17.59441 | 178° | 9km/h | 25814m | 6.8m/s | 0°C | 0% | 0hPa | 0V | 00:00:00 | 00:00:00 | 00:00:00 | |
| PETON7-10 | 2026-09-02 12:37:12 | 51.11159 | 17.59442 | 144° | 13km/h | 25790m | 6.4m/s | 0°C | 0% | 0hPa | 0V | 00:00:00 | 00:00:00 | 00:00:00 | |
| SQ6EMJ | 2026-09-02 12:37:10 | 51.11164 | 17.59434 | 140° | 13km/h | 25779m | 5.6m/s | 0°C | 0% | 0hPa | 0V | 00:00:00 | 00:00:00 | 00:00:00 | |
| POL1PZ | 2026-09-02 12:37:08 | 51.11168 | 17.59433 | 213° | 5km/h | 25766m | 5.0m/s | 0°C | 0% | 0hPa | 0V | 00:00:00 | 00:00:00 | 00:00:00 | |
| SQ6EMJ | 2026-09-02 12:37:05 | 51.11175 | 17.59431 | 166° | 16km/h | 25748m | 4.3m/s | 0°C | 0% | 0hPa | 0V | 00:00:00 | 00:00:00 | 00:00:00 | |
| KRY50SP | 2026-09-02 12:37:02 | 51.11188 | 17.59436 | 207° | 20km/h | 25733m | 4.8m/s | 0°C | 0% | 0hPa | 0V | 00:00:00 | 00:00:00 | 00:00:00 | |
| SQ6EMJ | 2026-09-02 12:37:00 | 51.11196 | 17.59439 | 170° | 13km/h | 25721m | 7.0m/s | 0°C | 0% | 0hPa | 0V | 00:00:00 | 00:00:00 | 00:00:00 | |
| PETON7-10 | 2026-09-02 12:36:57 | 51.11204 | 17.59434 | 198° | 16km/h | 25703m | 6.6m/s | 0°C | 0% | 0hPa | 0V | 00:00:00 | 00:00:00 | 00:00:00 | |
| KRY50SP | 2026-09-02 12:36:56 | 51.11206 | 17.59436 | 210° | 13km/h | 25696m | 5.7m/s | 0°C | 0% | 0hPa | 0V | 00:00:00 | 00:00:00 | 00:00:00 | |
| SQ6EMJ | 2026-09-02 12:36:54 | 51.11214 | 17.59441 | 194° | 22km/h | 25686m | 6.5m/s | 0°C | 0% | 0hPa | 0V | 00:00:00 | 00:00:00 | 00:00:00 | |
| KRY50SP | 2026-09-02 12:36:51 | 51.11228 | 17.59443 | 199° | 16km/h | 25668m | 6.6m/s | 0°C | 0% | 0hPa | 0V | 00:00:00 | 00:00:00 | 00:00:00 | |
| OE5DRO-10 | 2026-09-02 12:36:49 | 51.11233 | 17.59449 | 237° | 13km/h | 25657m | 4.2m/s | 0°C | 0% | 0hPa | 0V | 00:00:00 | 00:00:00 | 00:00:00 | |
| POL1PZ | 2026-09-02 12:36:48 | 51.11234 | 17.59451 | 222° | 4km/h | 25653m | 6.6m/s | 0°C | 0% | 0hPa | 0V | 00:00:00 | 00:00:00 | 00:00:00 | |
| KRY50SP | 2026-09-02 12:36:44 | 51.11254 | 17.59459 | 211° | 31km/h | 25624m | 3.9m/s | 0°C | 0% | 0hPa | 0V | 00:00:00 | 00:00:00 | 00:00:00 | |
| SQ6EMJ | 2026-09-02 12:36:42 | 51.11261 | 17.59464 | 203° | 26km/h | 25620m | 4.6m/s | 0°C | 0% | 0hPa | 0V | 00:00:00 | 00:00:00 | 00:00:00 | |
| PETON7-10 | 2026-09-02 12:36:41 | 51.11266 | 17.59467 | 191° | 11km/h | 25614m | 7.1m/s | 0°C | 0% | 0hPa | 0V | 00:00:00 | 00:00:00 | 00:00:00 | |
| KRY50SP | 2026-09-02 12:36:38 | 51.11273 | 17.59464 | 160° | 4km/h | 25595m | 6.4m/s | 0°C | 0% | 0hPa | 0V | 00:00:00 | 00:00:00 | 00:00:00 | |
| SQ6EMJ | 2026-09-02 12:36:36 | 51.11277 | 17.59466 | 206° | 11km/h | 25584m | 4.3m/s | 0°C | 0% | 0hPa | 0V | 00:00:00 | 00:00:00 | 00:00:00 | |
| KRY50SP | 2026-09-02 12:36:32 | 51.11292 | 17.59464 | 168° | 13km/h | 25561m | 5.4m/s | 0°C | 0% | 0hPa | 0V | 00:00:00 | 00:00:00 | 00:00:00 | |
| SP3BTT-10 | 2026-09-02 12:36:30 | 51.11297 | 17.59465 | 201° | 11km/h | 25550m | 4.3m/s | 0°C | 0% | 0hPa | 0V | 00:00:00 | 00:00:00 | 00:00:00 | |
| OE5DRO-10 | 2026-09-02 12:36:29 | 51.11299 | 17.59463 | 106° | 15km/h | 25539m | 7.3m/s | 0°C | 0% | 0hPa | 0V | 00:00:00 | 00:00:00 | 00:00:00 | |
| POL1PZ | 2026-09-02 12:36:27 | 51.11301 | 17.59459 | 126° | 15km/h | 25534m | 4.3m/s | 0°C | 0% | 0hPa | 0V | 00:00:00 | 00:00:00 | 00:00:00 | |
| KRY50SP | 2026-09-02 12:36:26 | 51.11303 | 17.59454 | 139° | 18km/h | 25529m | 6.3m/s | 0°C | 0% | 0hPa | 0V | 00:00:00 | 00:00:00 | 00:00:00 | |
| PETON7-10 | 2026-09-02 12:36:25 | 51.11308 | 17.59450 | 155° | 16km/h | 25522m | 6.8m/s | 0°C | 0% | 0hPa | 0V | 00:00:00 | 00:00:00 | 00:00:00 | |
| SQ6EMJ | 2026-09-02 12:36:24 | 51.11313 | 17.59447 | 168° | 20km/h | 25516m | 5.5m/s | 0°C | 0% | 0hPa | 0V | 00:00:00 | 00:00:00 | 00:00:00 | |
| KRY50SP | 2026-09-02 12:36:21 | 51.11325 | 17.59436 | 129° | 15km/h | 25498m | 5.8m/s | 0°C | 0% | 0hPa | 0V | 00:00:00 | 00:00:00 | 00:00:00 | |
| SQ6EMJ | 2026-09-02 12:36:18 | 51.11330 | 17.59429 | 179° | 7km/h | 25480m | 5.1m/s | 0°C | 0% | 0hPa | 0V | 00:00:00 | 00:00:00 | 00:00:00 | |
| KRY50SP | 2026-09-02 12:36:15 | 51.11334 | 17.59418 | 109° | 18km/h | 25461m | 5.8m/s | 0°C | 0% | 0hPa | 0V | 00:00:00 | 00:00:00 | 00:00:00 | |
| SQ6EMJ | 2026-09-02 12:36:13 | 51.11344 | 17.59399 | 145° | 18km/h | 25442m | 5.0m/s | 0°C | 0% | 0hPa | 0V | 00:00:00 | 00:00:00 | 00:00:00 | |
| PETON7-10 | 2026-09-02 12:36:10 | 51.11352 | 17.59389 | 134° | 16km/h | 25432m | 5.1m/s | 0°C | 0% | 0hPa | 0V | 00:00:00 | 00:00:00 | 00:00:00 | |
| SQ6EMJ | 2026-09-02 12:36:08 | 51.11360 | 17.59379 | 170° | 13km/h | 25414m | 6.9m/s | 0°C | 0% | 0hPa | 0V | 00:00:00 | 00:00:00 | 00:00:00 | |
| POL1PZ | 2026-09-02 12:36:07 | 51.11360 | 17.59379 | 170° | 13km/h | 25414m | 6.9m/s | 0°C | 0% | 0hPa | 0V | 00:00:00 | 00:00:00 | 00:00:00 | |
| KRY50SP | 2026-09-02 12:36:05 | 51.11366 | 17.59374 | 139° | 15km/h | 25404m | 5.6m/s | 0°C | 0% | 0hPa | 0V | 00:00:00 | 00:00:00 | 00:00:00 | |
| SQ6EMJ | 2026-09-02 12:36:02 | 51.11373 | 17.59351 | 121° | 24km/h | 25387m | 5.0m/s | 0°C | 0% | 0hPa | 0V | 00:00:00 | 00:00:00 | 00:00:00 | |
| KRY50SP | 2026-09-02 12:35:58 | 51.11381 | 17.59332 | 84° | 11km/h | 25363m | 7.5m/s | 0°C | 0% | 0hPa | 0V | 00:00:00 | 00:00:00 | 00:00:00 | |
| SQ6EMJ | 2026-09-02 12:35:56 | 51.11382 | 17.59323 | 119° | 13km/h | 25352m | 6.4m/s | 0°C | 0% | 0hPa | 0V | 00:00:00 | 00:00:00 | 00:00:00 | |
| PETON7-10 | 2026-09-02 12:35:55 | 51.11384 | 17.59318 | 144° | 20km/h | 25345m | 6.5m/s | 0°C | 0% | 0hPa | 0V | 00:00:00 | 00:00:00 | 00:00:00 | |
| KRY50SP | 2026-09-02 12:35:52 | 51.11401 | 17.59296 | 128° | 31km/h | 25327m | 5.2m/s | 0°C | 0% | 0hPa | 0V | 00:00:00 | 00:00:00 | 00:00:00 | |
| OE5DRO-10 | 2026-09-02 12:35:51 | 51.11405 | 17.59286 | 121° | 20km/h | 25323m | 4.4m/s | 0°C | 0% | 0hPa | 0V | 00:00:00 | 00:00:00 | 00:00:00 | |
| SQ6EMJ | 2026-09-02 12:35:50 | 51.11408 | 17.59278 | 126° | 20km/h | 25317m | 5.9m/s | 0°C | 0% | 0hPa | 0V | 00:00:00 | 00:00:00 | 00:00:00 | |
| KRY50SP | 2026-09-02 12:35:48 | 51.11414 | 17.59270 | 146° | 5km/h | 25300m | 4.9m/s | 0°C | 0% | 0hPa | 0V | 00:00:00 | 00:00:00 | 00:00:00 | |
| POL1PZ | 2026-09-02 12:35:47 | 51.11414 | 17.59270 | 146° | 5km/h | 25300m | 4.9m/s | 0°C | 0% | 0hPa | 0V | 00:00:00 | 00:00:00 | 00:00:00 | |
| SQ6EMJ | 2026-09-02 12:35:45 | 51.11415 | 17.59260 | 99° | 22km/h | 25287m | 5.9m/s | 0°C | 0% | 0hPa | 0V | 00:00:00 | 00:00:00 | 00:00:00 | |
| KRY50SP | 2026-09-02 12:35:42 | 51.11427 | 17.59227 | 142° | 20km/h | 25264m | 4.2m/s | 0°C | 0% | 0hPa | 0V | 00:00:00 | 00:00:00 | 00:00:00 | |
| PETON7-10 | 2026-09-02 12:35:39 | 51.11432 | 17.59215 | 119° | 16km/h | 25252m | 7.3m/s | 0°C | 0% | 0hPa | 0V | 00:00:00 | 00:00:00 | 00:00:00 | |
| KRY50SP | 2026-09-02 12:35:35 | 51.11434 | 17.59195 | 118° | 9km/h | 25228m | 4.1m/s | 0°C | 0% | 0hPa | 0V | 00:00:00 | 00:00:00 | 00:00:00 | |
| SQ6EMJ | 2026-09-02 12:35:33 | 51.11436 | 17.59184 | 90° | 22km/h | 25218m | 7.1m/s | 0°C | 0% | 0hPa | 0V | 00:00:00 | 00:00:00 | 00:00:00 | |
| OE5DRO-10 | 2026-09-02 12:35:32 | 51.11436 | 17.59174 | 96° | 15km/h | 25211m | 6.0m/s | 0°C | 0% | 0hPa | 0V | 00:00:00 | 00:00:00 | 00:00:00 | |
| KRY50SP | 2026-09-02 12:35:27 | 51.11444 | 17.59138 | 98° | 13km/h | 25182m | 6.5m/s | 0°C | 0% | 0hPa | 0V | 00:00:00 | 00:00:00 | 00:00:00 | |
| POL1PZ | 2026-09-02 12:35:26 | 51.11444 | 17.59132 | 70° | 18km/h | 25175m | 7.2m/s | 0°C | 0% | 0hPa | 0V | 00:00:00 | 00:00:00 | 00:00:00 | |
| PETON7-10 | 2026-09-02 12:35:24 | 51.11443 | 17.59116 | 83° | 13km/h | 25163m | 5.6m/s | 0°C | 0% | 0hPa | 0V | 00:00:00 | 00:00:00 | 00:00:00 | |
| KRY50SP | 2026-09-02 12:35:22 | 51.11444 | 17.59106 | 110° | 15km/h | 25152m | 4.5m/s | 0°C | 0% | 0hPa | 0V | 00:00:00 | 00:00:00 | 00:00:00 | |
| SQ6EMJ | 2026-09-02 12:35:21 | 51.11445 | 17.59100 | 104° | 16km/h | 25146m | 7.0m/s | 0°C | 0% | 0hPa | 0V | 00:00:00 | 00:00:00 | 00:00:00 | |
| KRY50SP | 2026-09-02 12:35:16 | 51.11441 | 17.59078 | 53° | 7km/h | 25115m | 4.6m/s | 0°C | 0% | 0hPa | 0V | 00:00:00 | 00:00:00 | 00:00:00 | |
| SQ6EMJ | 2026-09-02 12:35:15 | 51.11440 | 17.59075 | 49° | 13km/h | 25109m | 6.2m/s | 0°C | 0% | 0hPa | 0V | 00:00:00 | 00:00:00 | 00:00:00 | |
| SP3BTT-10 | 2026-09-02 12:35:14 | 51.11438 | 17.59070 | 73° | 15km/h | 25103m | 6.1m/s | 0°C | 0% | 0hPa | 0V | 00:00:00 | 00:00:00 | 00:00:00 | |
| SP4MAZ | 2026-09-02 12:35:13 | 51.11437 | 17.59065 | 81° | 13km/h | 25098m | 5.1m/s | 0°C | 0% | 0hPa | 0V | 00:00:00 | 00:00:00 | 00:00:00 | |
| KRY50SP | 2026-09-02 12:35:11 | 51.11435 | 17.59056 | 95° | 5km/h | 25080m | 5.1m/s | 0°C | 0% | 0hPa | 0V | 00:00:00 | 00:00:00 | 00:00:00 | |
| PETON7-10 | 2026-09-02 12:35:10 | 51.11435 | 17.59052 | 76° | 5km/h | 25075m | 6.0m/s | 0°C | 0% | 0hPa | 0V | 00:00:00 | 00:00:00 | 00:00:00 | |
| POL1PZ | 2026-09-02 12:35:06 | 51.11433 | 17.59043 | 345° | 4km/h | 25056m | 7.3m/s | 0°C | 0% | 0hPa | 0V | 00:00:00 | 00:00:00 | 00:00:00 | |
| KRY50SP | 2026-09-02 12:35:05 | 51.11432 | 17.59044 | 324° | 5km/h | 25049m | 4.6m/s | 0°C | 0% | 0hPa | 0V | 00:00:00 | 00:00:00 | 00:00:00 | |
| SQ6EMJ | 2026-09-02 12:35:03 | 51.11430 | 17.59042 | 64° | 9km/h | 25039m | 7.0m/s | 0°C | 0% | 0hPa | 0V | 00:00:00 | 00:00:00 | 00:00:00 | |
| KRY50SP | 2026-09-02 12:34:59 | 51.11431 | 17.59029 | 284° | 2km/h | 25017m | 6.4m/s | 0°C | 0% | 0hPa | 0V | 00:00:00 | 00:00:00 | 00:00:00 | |
| SQ6EMJ | 2026-09-02 12:34:58 | 51.11432 | 17.59030 | 276° | 7km/h | 25011m | 4.8m/s | 0°C | 0% | 0hPa | 0V | 00:00:00 | 00:00:00 | 00:00:00 | |
| PETON7-10 | 2026-09-02 12:34:54 | 51.11432 | 17.59033 | 348° | 7km/h | 24987m | 6.1m/s | 0°C | 0% | 0hPa | 0V | 00:00:00 | 00:00:00 | 00:00:00 | |
| KRY50SP | 2026-09-02 12:34:53 | 51.11432 | 17.59034 | 287° | 5km/h | 24981m | 6.3m/s | 0°C | 0% | 0hPa | 0V | 00:00:00 | 00:00:00 | 00:00:00 | |
| SQ6EMJ | 2026-09-02 12:34:52 | 51.11432 | 17.59036 | 264° | 5km/h | 24974m | 6.2m/s | 0°C | 0% | 0hPa | 0V | 00:00:00 | 00:00:00 | 00:00:00 | |
| KRY50SP | 2026-09-02 12:34:48 | 51.11434 | 17.59034 | 228° | 4km/h | 24952m | 8.0m/s | 0°C | 0% | 0hPa | 0V | 00:00:00 | 00:00:00 | 00:00:00 | |
| SQ6EMJ | 2026-09-02 12:34:46 | 51.11436 | 17.59042 | 265° | 11km/h | 24938m | 6.0m/s | 0°C | 0% | 0hPa | 0V | 00:00:00 | 00:00:00 | 00:00:00 | |
| POL1PZ | 2026-09-02 12:34:45 | 51.11436 | 17.59046 | 266° | 9km/h | 24931m | 6.2m/s | 0°C | 0% | 0hPa | 0V | 00:00:00 | 00:00:00 | 00:00:00 | |
| KRY50SP | 2026-09-02 12:34:42 | 51.11440 | 17.59045 | 161° | 9km/h | 24913m | 5.9m/s | 0°C | 0% | 0hPa | 0V | 00:00:00 | 00:00:00 | 00:00:00 | |
| SQ6EMJ | 2026-09-02 12:34:41 | 51.11443 | 17.59044 | 180° | 15km/h | 24907m | 5.3m/s | 0°C | 0% | 0hPa | 0V | 00:00:00 | 00:00:00 | 00:00:00 | |
| SP4MAZ | 2026-09-02 12:34:40 | 51.11447 | 17.59045 | 190° | 15km/h | 24902m | 4.5m/s | 0°C | 0% | 0hPa | 0V | 00:00:00 | 00:00:00 | 00:00:00 | |
| PETON7-10 | 2026-09-02 12:34:39 | 51.11451 | 17.59045 | 180° | 13km/h | 24898m | 4.0m/s | 0°C | 0% | 0hPa | 0V | 00:00:00 | 00:00:00 | 00:00:00 | |
| KRY50SP | 2026-09-02 12:34:36 | 51.11459 | 17.59042 | 163° | 4km/h | 24879m | 5.1m/s | 0°C | 0% | 0hPa | 0V | 00:00:00 | 00:00:00 | 00:00:00 | |
| SQ6EMJ | 2026-09-02 12:34:35 | 51.11460 | 17.59043 | 255° | 9km/h | 24874m | 5.8m/s | 0°C | 0% | 0hPa | 0V | 00:00:00 | 00:00:00 | 00:00:00 | |
| KRY50SP | 2026-09-02 12:34:30 | 51.11481 | 17.59040 | 145° | 31km/h | 24848m | 5.4m/s | 0°C | 0% | 0hPa | 0V | 00:00:00 | 00:00:00 | 00:00:00 | |
| SQ6EMJ | 2026-09-02 12:34:29 | 51.11487 | 17.59034 | 149° | 24km/h | 24842m | 5.8m/s | 0°C | 0% | 0hPa | 0V | 00:00:00 | 00:00:00 | 00:00:00 | |
| KRY50SP | 2026-09-02 12:34:25 | 51.11495 | 17.59023 | 136° | 11km/h | 24818m | 6.7m/s | 0°C | 0% | 0hPa | 0V | 00:00:00 | 00:00:00 | 00:00:00 | |
| SQ6EMJ | 2026-09-02 12:34:24 | 51.11501 | 17.59019 | 181° | 16km/h | 24806m | 6.6m/s | 0°C | 0% | 0hPa | 0V | 00:00:00 | 00:00:00 | 00:00:00 | |
| KRY50SP | 2026-09-02 12:34:19 | 51.11526 | 17.59010 | 134° | 29km/h | 24784m | 6.5m/s | 0°C | 0% | 0hPa | 0V | 00:00:00 | 00:00:00 | 00:00:00 | |
| SQ6EMJ | 2026-09-02 12:34:18 | 51.11530 | 17.59000 | 106° | 24km/h | 24778m | 6.1m/s | 0°C | 0% | 0hPa | 0V | 00:00:00 | 00:00:00 | 00:00:00 | |
| KRY50SP | 2026-09-02 12:34:14 | 51.11528 | 17.58982 | 163° | 7km/h | 24752m | 5.6m/s | 0°C | 0% | 0hPa | 0V | 00:00:00 | 00:00:00 | 00:00:00 | |
| SQ6EMJ | 2026-09-02 12:34:12 | 51.11533 | 17.58976 | 134° | 18km/h | 24740m | 5.6m/s | 0°C | 0% | 0hPa | 0V | 00:00:00 | 00:00:00 | 00:00:00 | |
| PETON7-10 | 2026-09-02 12:34:09 | 51.11543 | 17.58958 | 131° | 16km/h | 24722m | 6.2m/s | 0°C | 0% | 0hPa | 0V | 00:00:00 | 00:00:00 | 00:00:00 | |
| SQ6EMJ | 2026-09-02 12:34:08 | 51.11546 | 17.58952 | 112° | 7km/h | 24710m | 5.2m/s | 0°C | 0% | 0hPa | 0V | 00:00:00 | 00:00:00 | 00:00:00 | |
| POL1PZ | 2026-09-02 12:34:04 | 51.11549 | 17.58938 | 99° | 20km/h | 24694m | 5.7m/s | 0°C | 0% | 0hPa | 0V | 00:00:00 | 00:00:00 | 00:00:00 | |
| KRY50SP | 2026-09-02 12:34:03 | 51.11549 | 17.58930 | 87° | 22km/h | 24687m | 8.4m/s | 0°C | 0% | 0hPa | 0V | 00:00:00 | 00:00:00 | 00:00:00 | |
| SQ6EMJ | 2026-09-02 12:34:01 | 51.11547 | 17.58913 | 87° | 20km/h | 24675m | 4.1m/s | 0°C | 0% | 0hPa | 0V | 00:00:00 | 00:00:00 | 00:00:00 | |
| SP3BTT-10 | 2026-09-02 12:33:59 | 51.11549 | 17.58896 | 117° | 18km/h | 24664m | 5.0m/s | 0°C | 0% | 0hPa | 0V | 00:00:00 | 00:00:00 | 00:00:00 | |
| KRY50SP | 2026-09-02 12:33:57 | 51.11555 | 17.58882 | 125° | 18km/h | 24652m | 7.6m/s | 0°C | 0% | 0hPa | 0V | 00:00:00 | 00:00:00 | 00:00:00 | |
| SQ6EMJ | 2026-09-02 12:33:55 | 51.11557 | 17.58871 | 79° | 13km/h | 24638m | 4.3m/s | 0°C | 0% | 0hPa | 0V | 00:00:00 | 00:00:00 | 00:00:00 | |
| PETON7-10 | 2026-09-02 12:33:54 | 51.11557 | 17.58866 | 84° | 20km/h | 24633m | 5.3m/s | 0°C | 0% | 0hPa | 0V | 00:00:00 | 00:00:00 | 00:00:00 | |
| KRY50SP | 2026-09-02 12:33:52 | 51.11558 | 17.58852 | 102° | 22km/h | 24621m | 5.1m/s | 0°C | 0% | 0hPa | 0V | 00:00:00 | 00:00:00 | 00:00:00 | |
| SQ6EMJ | 2026-09-02 12:33:49 | 51.11558 | 17.58825 | 72° | 24km/h | 24603m | 5.5m/s | 0°C | 0% | 0hPa | 0V | 00:00:00 | 00:00:00 | 00:00:00 | |
| OK1SLM-15 | 2026-09-02 12:33:47 | 51.11556 | 17.58806 | 89° | 22km/h | 24592m | 7.0m/s | 0°C | 0% | 0hPa | 0V | 00:00:00 | 00:00:00 | 00:00:00 | |
| KRY50SP | 2026-09-02 12:33:46 | 51.11556 | 17.58798 | 92° | 20km/h | 24587m | 4.5m/s | 0°C | 0% | 0hPa | 0V | 00:00:00 | 00:00:00 | 00:00:00 | |
| POL1PZ | 2026-09-02 12:33:44 | 51.11554 | 17.58784 | 60° | 18km/h | 24576m | 7.7m/s | 0°C | 0% | 0hPa | 0V | 00:00:00 | 00:00:00 | 00:00:00 | |
| OK1SLM-15 | 2026-09-02 12:33:41 | 51.11546 | 17.58763 | 68° | 20km/h | 24557m | 5.6m/s | 0°C | 0% | 0hPa | 0V | 00:00:00 | 00:00:00 | 00:00:00 | |
| KRY50SP | 2026-09-02 12:33:40 | 51.11545 | 17.58755 | 89° | 22km/h | 24552m | 4.1m/s | 0°C | 0% | 0hPa | 0V | 00:00:00 | 00:00:00 | 00:00:00 | |
| SQ6EMJ | 2026-09-02 12:33:39 | 51.11544 | 17.58738 | 73° | 20km/h | 24541m | 6.6m/s | 0°C | 0% | 0hPa | 0V | 00:00:00 | 00:00:00 | 00:00:00 | |
| KRY50SP | 2026-09-02 12:33:36 | 51.11536 | 17.58719 | 64° | 15km/h | 24524m | 4.9m/s | 0°C | 0% | 0hPa | 0V | 00:00:00 | 00:00:00 | 00:00:00 | |
| SQ6EMJ | 2026-09-02 12:33:33 | 51.11534 | 17.58706 | 91° | 18km/h | 24512m | 4.4m/s | 0°C | 0% | 0hPa | 0V | 00:00:00 | 00:00:00 | 00:00:00 | |
| SP3BTT-10 | 2026-09-02 12:33:29 | 51.11528 | 17.58681 | 48° | 13km/h | 24489m | 4.3m/s | 0°C | 0% | 0hPa | 0V | 00:00:00 | 00:00:00 | 00:00:00 | |
| SQ6EMJ | 2026-09-02 12:33:27 | 51.11523 | 17.58667 | 74° | 20km/h | 24477m | 4.8m/s | 0°C | 0% | 0hPa | 0V | 00:00:00 | 00:00:00 | 00:00:00 | |
| PETON7-10 | 2026-09-02 12:33:24 | 51.11516 | 17.58648 | 33° | 22km/h | 24459m | 6.0m/s | 0°C | 0% | 0hPa | 0V | 00:00:00 | 00:00:00 | 00:00:00 | |
| POL1PZ | 2026-09-02 12:33:23 | 51.11511 | 17.58644 | 24° | 22km/h | 24453m | 4.5m/s | 0°C | 0% | 0hPa | 0V | 00:00:00 | 00:00:00 | 00:00:00 | |
| SQ6EMJ | 2026-09-02 12:33:21 | 51.11504 | 17.58634 | 65° | 18km/h | 24442m | 5.3m/s | 0°C | 0% | 0hPa | 0V | 00:00:00 | 00:00:00 | 00:00:00 | |
| KRY50SP | 2026-09-02 12:33:17 | 51.11495 | 17.58612 | 39° | 22km/h | 24419m | 4.6m/s | 0°C | 0% | 0hPa | 0V | 00:00:00 | 00:00:00 | 00:00:00 | |
| SQ6EMJ | 2026-09-02 12:33:16 | 51.11490 | 17.58606 | 42° | 27km/h | 24413m | 7.1m/s | 0°C | 0% | 0hPa | 0V | 00:00:00 | 00:00:00 | 00:00:00 | |
| SP4MAZ | 2026-09-02 12:33:15 | 51.11486 | 17.58599 | 46° | 27km/h | 24406m | 4.7m/s | 0°C | 0% | 0hPa | 0V | 00:00:00 | 00:00:00 | 00:00:00 | |
| KRY50SP | 2026-09-02 12:33:12 | 51.11469 | 17.58584 | 13° | 26km/h | 24389m | 3.8m/s | 0°C | 0% | 0hPa | 0V | 00:00:00 | 00:00:00 | 00:00:00 | |
| SQ6EMJ | 2026-09-02 12:33:10 | 51.11460 | 17.58577 | 55° | 16km/h | 24382m | 6.1m/s | 0°C | 0% | 0hPa | 0V | 00:00:00 | 00:00:00 | 00:00:00 | |
| PETON7-10 | 2026-09-02 12:33:09 | 51.11459 | 17.58571 | 75° | 22km/h | 24375m | 5.6m/s | 0°C | 0% | 0hPa | 0V | 00:00:00 | 00:00:00 | 00:00:00 | |
| KRY50SP | 2026-09-02 12:33:06 | 51.11449 | 17.58553 | 32° | 24km/h | 24356m | 5.8m/s | 0°C | 0% | 0hPa | 0V | 00:00:00 | 00:00:00 | 00:00:00 | |
| SQ6EMJ | 2026-09-02 12:33:05 | 51.11444 | 17.58549 | 30° | 26km/h | 24351m | 4.9m/s | 0°C | 0% | 0hPa | 0V | 00:00:00 | 00:00:00 | 00:00:00 | |
| POL1PZ | 2026-09-02 12:33:03 | 51.11434 | 17.58539 | 30° | 22km/h | 24339m | 5.0m/s | 0°C | 0% | 0hPa | 0V | 00:00:00 | 00:00:00 | 00:00:00 | |
| KRY50SP | 2026-09-02 12:33:01 | 51.11423 | 17.58535 | 6° | 22km/h | 24327m | 6.5m/s | 0°C | 0% | 0hPa | 0V | 00:00:00 | 00:00:00 | 00:00:00 | |
| SQ6EMJ | 2026-09-02 12:33:00 | 51.11417 | 17.58534 | 9° | 20km/h | 24322m | 4.5m/s | 0°C | 0% | 0hPa | 0V | 00:00:00 | 00:00:00 | 00:00:00 | |
| SQ6EMJ | 2026-09-02 12:32:55 | 51.11390 | 17.58503 | 13° | 31km/h | 24285m | 4.4m/s | 0°C | 0% | 0hPa | 0V | 00:00:00 | 00:00:00 | 00:00:00 | |
| PETON7-10 | 2026-09-02 12:32:54 | 51.11390 | 17.58503 | 13° | 24km/h | 24285m | 4.4m/s | 0°C | 0% | 0hPa | 0V | 00:00:00 | 00:00:00 | 00:00:00 | |
| KRY50SP | 2026-09-02 12:32:50 | 51.11367 | 17.58494 | 17° | 24km/h | 24264m | 5.7m/s | 0°C | 0% | 0hPa | 0V | 00:00:00 | 00:00:00 | 00:00:00 | |
| KRY50SP | 2026-09-02 12:32:45 | 51.11339 | 17.58473 | 52° | 22km/h | 24233m | 4.6m/s | 0°C | 0% | 0hPa | 0V | 00:00:00 | 00:00:00 | 00:00:00 | |
| POL1PZ | 2026-09-02 12:32:43 | 51.11330 | 17.58462 | 24° | 26km/h | 24221m | 6.3m/s | 0°C | 0% | 0hPa | 0V | 00:00:00 | 00:00:00 | 00:00:00 | |
| SQ6EMJ | 2026-09-02 12:32:42 | 51.11325 | 17.58459 | 17° | 24km/h | 24215m | 3.8m/s | 0°C | 0% | 0hPa | 0V | 00:00:00 | 00:00:00 | 00:00:00 | |
| KRY50SP | 2026-09-02 12:32:40 | 51.11316 | 17.58452 | 35° | 18km/h | 24203m | 6.2m/s | 0°C | 0% | 0hPa | 0V | 00:00:00 | 00:00:00 | 00:00:00 | |
| PETON7-10 | 2026-09-02 12:32:39 | 51.11312 | 17.58448 | 29° | 16km/h | 24197m | 5.7m/s | 0°C | 0% | 0hPa | 0V | 00:00:00 | 00:00:00 | 00:00:00 | |
| SQ6EMJ | 2026-09-02 12:32:36 | 51.11295 | 17.58443 | 8° | 26km/h | 24181m | 5.1m/s | 0°C | 0% | 0hPa | 0V | 00:00:00 | 00:00:00 | 00:00:00 | |
| KRY50SP | 2026-09-02 12:32:34 | 51.11287 | 17.58440 | 29° | 13km/h | 24168m | 5.0m/s | 0°C | 0% | 0hPa | 0V | 00:00:00 | 00:00:00 | 00:00:00 | |
| SQ6EMJ | 2026-09-02 12:32:31 | 51.11274 | 17.58428 | 38° | 24km/h | 24150m | 3.7m/s | 0°C | 0% | 0hPa | 0V | 00:00:00 | 00:00:00 | 00:00:00 | |
| KRY50SP | 2026-09-02 12:32:27 | 51.11264 | 17.58409 | 50° | 9km/h | 24129m | 6.4m/s | 0°C | 0% | 0hPa | 0V | 00:00:00 | 00:00:00 | 00:00:00 | |
| SQ6EMJ | 2026-09-02 12:32:25 | 51.11258 | 17.58407 | 359° | 15km/h | 24116m | 4.9m/s | 0°C | 0% | 0hPa | 0V | 00:00:00 | 00:00:00 | 00:00:00 | |
| OK1SLM-15 | 2026-09-02 12:32:24 | 51.11255 | 17.58408 | 325° | 9km/h | 24111m | 5.8m/s | 0°C | 0% | 0hPa | 0V | 00:00:00 | 00:00:00 | 00:00:00 | |
| PETON7-10 | 2026-09-02 12:32:23 | 51.11254 | 17.58410 | 322° | 7km/h | 24105m | 5.3m/s | 0°C | 0% | 0hPa | 0V | 00:00:00 | 00:00:00 | 00:00:00 | |
| KRY50SP | 2026-09-02 12:32:20 | 51.11247 | 17.58407 | 33° | 16km/h | 24087m | 6.6m/s | 0°C | 0% | 0hPa | 0V | 00:00:00 | 00:00:00 | 00:00:00 | |
| OK1SLM-15 | 2026-09-02 12:32:19 | 51.11243 | 17.58402 | 48° | 20km/h | 24081m | 4.6m/s | 0°C | 0% | 0hPa | 0V | 00:00:00 | 00:00:00 | 00:00:00 | |
| SP4MAZ | 2026-09-02 12:32:18 | 51.11241 | 17.58397 | 66° | 13km/h | 24077m | 5.6m/s | 0°C | 0% | 0hPa | 0V | 00:00:00 | 00:00:00 | 00:00:00 | |
| KRY50SP | 2026-09-02 12:32:15 | 51.11239 | 17.58389 | 356° | 4km/h | 24058m | 5.7m/s | 0°C | 0% | 0hPa | 0V | 00:00:00 | 00:00:00 | 00:00:00 | |
| SP3BTT-10 | 2026-09-02 12:32:13 | 51.11236 | 17.58391 | 333° | 11km/h | 24046m | 4.8m/s | 0°C | 0% | 0hPa | 0V | 00:00:00 | 00:00:00 | 00:00:00 | |
| KRY50SP | 2026-09-02 12:32:09 | 51.11234 | 17.58393 | 37° | 4km/h | 24024m | 5.9m/s | 0°C | 0% | 0hPa | 0V | 00:00:00 | 00:00:00 | 00:00:00 | |
| PETON7-10 | 2026-09-02 12:32:08 | 51.11233 | 17.58391 | 37° | 7km/h | 24017m | 6.0m/s | 0°C | 0% | 0hPa | 0V | 00:00:00 | 00:00:00 | 00:00:00 | |
| SQ6EMJ | 2026-09-02 12:32:04 | 51.11227 | 17.58380 | 0° | 0km/h | 23991m | 5.3m/s | 0°C | 0% | 0hPa | 0V | 00:00:00 | 00:00:00 | 00:00:00 | |
| SQ6EMJ | 2026-09-02 12:31:58 | 51.11223 | 17.58387 | 145° | 4km/h | 23966m | 5.1m/s | 0°C | 0% | 0hPa | 0V | 00:00:00 | 00:00:00 | 00:00:00 | |
| KRY50SP | 2026-09-02 12:31:57 | 51.11223 | 17.58385 | 103° | 5km/h | 23961m | 5.4m/s | 0°C | 0% | 0hPa | 0V | 00:00:00 | 00:00:00 | 00:00:00 | |
| PETON7-10 | 2026-09-02 12:31:53 | 51.11216 | 17.58375 | 62° | 7km/h | 23935m | 5.5m/s | 0°C | 0% | 0hPa | 0V | 00:00:00 | 00:00:00 | 00:00:00 | |
| SQ6EMJ | 2026-09-02 12:31:52 | 51.11215 | 17.58373 | 69° | 2km/h | 23930m | 3.9m/s | 0°C | 0% | 0hPa | 0V | 00:00:00 | 00:00:00 | 00:00:00 | |
| KRY50SP | 2026-09-02 12:31:51 | 51.11214 | 17.58373 | 346° | 4km/h | 23926m | 4.6m/s | 0°C | 0% | 0hPa | 0V | 00:00:00 | 00:00:00 | 00:00:00 | |
| SQ6EMJ | 2026-09-02 12:31:47 | 51.11207 | 17.58378 | 323° | 4km/h | 23905m | 7.0m/s | 0°C | 0% | 0hPa | 0V | 00:00:00 | 00:00:00 | 00:00:00 | |
| KRY50SP | 2026-09-02 12:31:46 | 51.11207 | 17.58378 | 96° | 2km/h | 23898m | 5.1m/s | 0°C | 0% | 0hPa | 0V | 00:00:00 | 00:00:00 | 00:00:00 | |
| SQ6EMJ | 2026-09-02 12:31:42 | 51.11199 | 17.58371 | 357° | 11km/h | 23877m | 3.1m/s | 0°C | 0% | 0hPa | 0V | 00:00:00 | 00:00:00 | 00:00:00 | |
| KRY50SP | 2026-09-02 12:31:40 | 51.11196 | 17.58373 | 298° | 7km/h | 23865m | 6.2m/s | 0°C | 0% | 0hPa | 0V | 00:00:00 | 00:00:00 | 00:00:00 | |
| PETON7-10 | 2026-09-02 12:31:38 | 51.11193 | 17.58378 | 330° | 11km/h | 23854m | 6.1m/s | 0°C | 0% | 0hPa | 0V | 00:00:00 | 00:00:00 | 00:00:00 | |
| SQ6EMJ | 2026-09-02 12:31:36 | 51.11187 | 17.58377 | 31° | 11km/h | 23842m | 4.9m/s | 0°C | 0% | 0hPa | 0V | 00:00:00 | 00:00:00 | 00:00:00 | |
| KRY50SP | 2026-09-02 12:31:30 | 51.11172 | 17.58352 | 11° | 9km/h | 23804m | 4.1m/s | 0°C | 0% | 0hPa | 0V | 00:00:00 | 00:00:00 | 00:00:00 | |
| KRY50SP | 2026-09-02 12:31:24 | 51.11165 | 17.58348 | 33° | 18km/h | 23777m | 2.4m/s | 0°C | 0% | 0hPa | 0V | 00:00:00 | 00:00:00 | 00:00:00 | |
| PETON7-10 | 2026-09-02 12:31:23 | 51.11162 | 17.58343 | 73° | 13km/h | 23774m | 5.4m/s | 0°C | 0% | 0hPa | 0V | 00:00:00 | 00:00:00 | 00:00:00 | |
| POL1PZ | 2026-09-02 12:31:18 | 51.11157 | 17.58314 | 6° | 9km/h | 23745m | 4.0m/s | 0°C | 0% | 0hPa | 0V | 00:00:00 | 00:00:00 | 00:00:00 | |
| SP3BTT-10 | 2026-09-02 12:31:14 | 51.11155 | 17.58303 | 85° | 13km/h | 23721m | 5.7m/s | 0°C | 0% | 0hPa | 0V | 00:00:00 | 00:00:00 | 00:00:00 | |
| SQ6EMJ | 2026-09-02 12:31:12 | 51.11154 | 17.58297 | 79° | 16km/h | 23716m | 5.7m/s | 0°C | 0% | 0hPa | 0V | 00:00:00 | 00:00:00 | 00:00:00 | |
| SQ6EMJ | 2026-09-02 12:31:08 | 51.11153 | 17.58280 | 94° | 7km/h | 23689m | 4.8m/s | 0°C | 0% | 0hPa | 0V | 00:00:00 | 00:00:00 | 00:00:00 | |
| PETON7-10 | 2026-09-02 12:31:07 | 51.11153 | 17.58280 | 93° | 13km/h | 23689m | 4.8m/s | 0°C | 0% | 0hPa | 0V | 00:00:00 | 00:00:00 | 00:00:00 | |
| KRY50SP | 2026-09-02 12:31:03 | 51.11147 | 17.58267 | 98° | 5km/h | 23662m | 3.5m/s | 0°C | 0% | 0hPa | 0V | 00:00:00 | 00:00:00 | 00:00:00 | |
| SQ6EMJ | 2026-09-02 12:31:01 | 51.11147 | 17.58264 | 90° | 11km/h | 23657m | 6.1m/s | 0°C | 0% | 0hPa | 0V | 00:00:00 | 00:00:00 | 00:00:00 | |
| KRY50SP | 2026-09-02 12:30:57 | 51.11153 | 17.58235 | 124° | 15km/h | 23634m | 4.7m/s | 0°C | 0% | 0hPa | 0V | 00:00:00 | 00:00:00 | 00:00:00 | |
| POL1PZ | 2026-09-02 12:30:55 | 51.11153 | 17.58227 | 59° | 11km/h | 23624m | 5.7m/s | 0°C | 0% | 0hPa | 0V | 00:00:00 | 00:00:00 | 00:00:00 | |
| PETON7-10 | 2026-09-02 12:30:52 | 51.11148 | 17.58215 | 83° | 15km/h | 23608m | 5.6m/s | 0°C | 0% | 0hPa | 0V | 00:00:00 | 00:00:00 | 00:00:00 | |
| KRY50SP | 2026-09-02 12:30:50 | 51.11149 | 17.58207 | 105° | 15km/h | 23598m | 4.9m/s | 0°C | 0% | 0hPa | 0V | 00:00:00 | 00:00:00 | 00:00:00 | |
| SQ6EMJ | 2026-09-02 12:30:49 | 51.11150 | 17.58200 | 106° | 20km/h | 23592m | 7.1m/s | 0°C | 0% | 0hPa | 0V | 00:00:00 | 00:00:00 | 00:00:00 | |
| KRY50SP | 2026-09-02 12:30:47 | 51.11153 | 17.58174 | 119° | 7km/h | 23570m | 5.2m/s | 0°C | 0% | 0hPa | 0V | 00:00:00 | 00:00:00 | 00:00:00 | |
| SQ6EMJ | 2026-09-02 12:30:44 | 51.11154 | 17.58171 | 103° | 7km/h | 23566m | 2.8m/s | 0°C | 0% | 0hPa | 0V | 00:00:00 | 00:00:00 | 00:00:00 | |
| KRY50SP | 2026-09-02 12:30:40 | 51.11147 | 17.58153 | 62° | 13km/h | 23543m | 6.6m/s | 0°C | 0% | 0hPa | 0V | 00:00:00 | 00:00:00 | 00:00:00 | |
| SQ6EMJ | 2026-09-02 12:30:39 | 51.11145 | 17.58149 | 54° | 15km/h | 23538m | 4.5m/s | 0°C | 0% | 0hPa | 0V | 00:00:00 | 00:00:00 | 00:00:00 | |
| PETON7-10 | 2026-09-02 12:30:37 | 51.11142 | 17.58136 | 84° | 15km/h | 23528m | 5.0m/s | 0°C | 0% | 0hPa | 0V | 00:00:00 | 00:00:00 | 00:00:00 | |
| POL1PZ | 2026-09-02 12:30:34 | 51.11137 | 17.58124 | 23° | 5km/h | 23511m | 6.7m/s | 0°C | 0% | 0hPa | 0V | 00:00:00 | 00:00:00 | 00:00:00 | |
| SQ6EMJ | 2026-09-02 12:30:33 | 51.11136 | 17.58124 | 4° | 5km/h | 23506m | 4.2m/s | 0°C | 0% | 0hPa | 0V | 00:00:00 | 00:00:00 | 00:00:00 | |
| KRY50SP | 2026-09-02 12:30:30 | 51.11126 | 17.58102 | 78° | 24km/h | 23481m | 6.2m/s | 0°C | 0% | 0hPa | 0V | 00:00:00 | 00:00:00 | 00:00:00 | |
| SQ6EMJ | 2026-09-02 12:30:28 | 51.11125 | 17.58094 | 87° | 18km/h | 23476m | 4.3m/s | 0°C | 0% | 0hPa | 0V | 00:00:00 | 00:00:00 | 00:00:00 | |
| KRY50SP | 2026-09-02 12:30:24 | 51.11121 | 17.58072 | 59° | 18km/h | 23458m | 5.1m/s | 0°C | 0% | 0hPa | 0V | 00:00:00 | 00:00:00 | 00:00:00 | |
| SQ6EMJ | 2026-09-02 12:30:22 | 51.11116 | 17.58064 | 35° | 9km/h | 23447m | 5.8m/s | 0°C | 0% | 0hPa | 0V | 00:00:00 | 00:00:00 | 00:00:00 | |
| PETON7-10 | 2026-09-02 12:30:20 | 51.11113 | 17.58063 | 342° | 9km/h | 23436m | 3.8m/s | 0°C | 0% | 0hPa | 0V | 00:00:00 | 00:00:00 | 00:00:00 | |
| KRY50SP | 2026-09-02 12:30:19 | 51.11108 | 17.58061 | 27° | 15km/h | 23426m | 6.6m/s | 0°C | 0% | 0hPa | 0V | 00:00:00 | 00:00:00 | 00:00:00 | |
| SQ6EMJ | 2026-09-02 12:30:17 | 51.11101 | 17.58051 | 58° | 18km/h | 23416m | 4.0m/s | 0°C | 0% | 0hPa | 0V | 00:00:00 | 00:00:00 | 00:00:00 | |
| SP3BTT-10 | 2026-09-02 12:30:13 | 51.11098 | 17.58040 | 116° | 7km/h | 23399m | 4.3m/s | 0°C | 0% | 0hPa | 0V | 00:00:00 | 00:00:00 | 00:00:00 | |
| SQ6EMJ | 2026-09-02 12:30:10 | 51.11095 | 17.58034 | 33° | 11km/h | 23382m | 5.2m/s | 0°C | 0% | 0hPa | 0V | 00:00:00 | 00:00:00 | 00:00:00 | |
| KRY50SP | 2026-09-02 12:30:06 | 51.11090 | 17.58026 | 65° | 9km/h | 23360m | 7.1m/s | 0°C | 0% | 0hPa | 0V | 00:00:00 | 00:00:00 | 00:00:00 | |
| SQ6EMJ | 2026-09-02 12:30:04 | 51.11087 | 17.58018 | 65° | 11km/h | 23348m | 3.6m/s | 0°C | 0% | 0hPa | 0V | 00:00:00 | 00:00:00 | 00:00:00 | |
| KRY50SP | 2026-09-02 12:30:01 | 51.11086 | 17.58015 | 295° | 7km/h | 23332m | 4.1m/s | 0°C | 0% | 0hPa | 0V | 00:00:00 | 00:00:00 | 00:00:00 | |
| SQ6EMJ | 2026-09-02 12:29:59 | 51.11082 | 17.58019 | 343° | 16km/h | 23321m | 5.3m/s | 0°C | 0% | 0hPa | 0V | 00:00:00 | 00:00:00 | 00:00:00 | |
| KRY50SP | 2026-09-02 12:29:54 | 51.11073 | 17.58023 | 142° | 5km/h | 23294m | 5.7m/s | 0°C | 0% | 0hPa | 0V | 00:00:00 | 00:00:00 | 00:00:00 | |
| SQ6EMJ | 2026-09-02 12:29:53 | 51.11073 | 17.58021 | 99° | 7km/h | 23288m | 5.5m/s | 0°C | 0% | 0hPa | 0V | 00:00:00 | 00:00:00 | 00:00:00 | |
| POL1PZ | 2026-09-02 12:29:52 | 51.11072 | 17.58019 | 61° | 7km/h | 23282m | 5.3m/s | 0°C | 0% | 0hPa | 0V | 00:00:00 | 00:00:00 | 00:00:00 | |
| KRY50SP | 2026-09-02 12:29:49 | 51.11071 | 17.58018 | 219° | 5km/h | 23264m | 4.6m/s | 0°C | 0% | 0hPa | 0V | 00:00:00 | 00:00:00 | 00:00:00 | |
| PETON7-10 | 2026-09-02 12:29:48 | 51.11072 | 17.58019 | 214° | 5km/h | 23259m | 6.4m/s | 0°C | 0% | 0hPa | 0V | 00:00:00 | 00:00:00 | 00:00:00 | |
| KRY50SP | 2026-09-02 12:29:43 | 51.11078 | 17.58018 | 186° | 11km/h | 23230m | 4.6m/s | 0°C | 0% | 0hPa | 0V | 00:00:00 | 00:00:00 | 00:00:00 | |
| SQ6EMJ | 2026-09-02 12:29:42 | 51.11080 | 17.58019 | 194° | 2km/h | 23225m | 5.1m/s | 0°C | 0% | 0hPa | 0V | 00:00:00 | 00:00:00 | 00:00:00 | |
| KRY50SP | 2026-09-02 12:29:38 | 51.11081 | 17.58018 | 218° | 9km/h | 23204m | 5.4m/s | 0°C | 0% | 0hPa | 0V | 00:00:00 | 00:00:00 | 00:00:00 | |
| SQ6EMJ | 2026-09-02 12:29:36 | 51.11084 | 17.58022 | 260° | 5km/h | 23193m | 6.3m/s | 0°C | 0% | 0hPa | 0V | 00:00:00 | 00:00:00 | 00:00:00 | |
| POL1PZ | 2026-09-02 12:29:33 | 51.11085 | 17.58023 | 305° | 5km/h | 23171m | 3.6m/s | 0°C | 0% | 0hPa | 0V | 00:00:00 | 00:00:00 | 00:00:00 | |
| OE5DRO-10 | 2026-09-02 12:29:31 | 51.11085 | 17.58025 | 200° | 7km/h | 23167m | 3.9m/s | 0°C | 0% | 0hPa | 0V | 00:00:00 | 00:00:00 | 00:00:00 | |
| SQ6EMJ | 2026-09-02 12:29:30 | 51.11086 | 17.58025 | 212° | 4km/h | 23163m | 5.1m/s | 0°C | 0% | 0hPa | 0V | 00:00:00 | 00:00:00 | 00:00:00 | |
| KRY50SP | 2026-09-02 12:29:27 | 51.11088 | 17.58028 | 204° | 7km/h | 23147m | 6.9m/s | 0°C | 0% | 0hPa | 0V | 00:00:00 | 00:00:00 | 00:00:00 | |
| SQ6EMJ | 2026-09-02 12:29:24 | 51.11093 | 17.58031 | 197° | 4km/h | 23130m | 5.5m/s | 0°C | 0% | 0hPa | 0V | 00:00:00 | 00:00:00 | 00:00:00 | |
| KRY50SP | 2026-09-02 12:29:21 | 51.11098 | 17.58032 | 193° | 7km/h | 23113m | 5.1m/s | 0°C | 0% | 0hPa | 0V | 00:00:00 | 00:00:00 | 00:00:00 | |
| PETON7-10 | 2026-09-02 12:29:18 | 51.11098 | 17.58034 | 357° | 7km/h | 23098m | 4.5m/s | 0°C | 0% | 0hPa | 0V | 00:00:00 | 00:00:00 | 00:00:00 | |
| KRY50SP | 2026-09-02 12:29:15 | 51.11098 | 17.58030 | 151° | 11km/h | 23082m | 5.3m/s | 0°C | 0% | 0hPa | 0V | 00:00:00 | 00:00:00 | 00:00:00 | |
| SP3BTT-10 | 2026-09-02 12:29:12 | 51.11102 | 17.58021 | 106° | 9km/h | 23064m | 4.8m/s | 0°C | 0% | 0hPa | 0V | 00:00:00 | 00:00:00 | 00:00:00 | |
| SQ6EMJ | 2026-09-02 12:29:10 | 51.11103 | 17.58016 | 132° | 5km/h | 23053m | 6.9m/s | 0°C | 0% | 0hPa | 0V | 00:00:00 | 00:00:00 | 00:00:00 | |
| KRY50SP | 2026-09-02 12:29:09 | 51.11105 | 17.58015 | 168° | 7km/h | 23047m | 5.1m/s | 0°C | 0% | 0hPa | 0V | 00:00:00 | 00:00:00 | 00:00:00 | |
| SQ6EMJ | 2026-09-02 12:29:04 | 51.11107 | 17.58010 | 127° | 9km/h | 23020m | 4.8m/s | 0°C | 0% | 0hPa | 0V | 00:00:00 | 00:00:00 | 00:00:00 | |
| KRY50SP | 2026-09-02 12:29:03 | 51.11109 | 17.58006 | 115° | 13km/h | 23015m | 5.5m/s | 0°C | 0% | 0hPa | 0V | 00:00:00 | 00:00:00 | 00:00:00 | |
| PETON7-10 | 2026-09-02 12:29:02 | 51.11109 | 17.58001 | 84° | 11km/h | 23009m | 6.7m/s | 0°C | 0% | 0hPa | 0V | 00:00:00 | 00:00:00 | 00:00:00 | |
| KRY50SP | 2026-09-02 12:28:57 | 51.11104 | 17.57986 | 331° | 4km/h | 22983m | 3.8m/s | 0°C | 0% | 0hPa | 0V | 00:00:00 | 00:00:00 | 00:00:00 | |
| POL1PZ | 2026-09-02 12:28:51 | 51.11095 | 17.57960 | 65° | 7km/h | 22949m | 4.7m/s | 0°C | 0% | 0hPa | 0V | 00:00:00 | 00:00:00 | 00:00:00 | |
| OE5DRO-10 | 2026-09-02 12:28:49 | 51.11086 | 17.57956 | 10° | 16km/h | 22931m | 5.6m/s | 0°C | 0% | 0hPa | 0V | 00:00:00 | 00:00:00 | 00:00:00 | |
| KRY50SP | 2026-09-02 12:28:46 | 51.11075 | 17.57948 | 78° | 13km/h | 22916m | 4.5m/s | 0°C | 0% | 0hPa | 0V | 00:00:00 | 00:00:00 | 00:00:00 | |
| SQ6EMJ | 2026-09-02 12:28:41 | 51.11064 | 17.57924 | 18° | 26km/h | 22893m | 4.9m/s | 0°C | 0% | 0hPa | 0V | 00:00:00 | 00:00:00 | 00:00:00 | |
| KRY50SP | 2026-09-02 12:28:35 | 51.11029 | 17.57927 | 13° | 16km/h | 22858m | 4.6m/s | 0°C | 0% | 0hPa | 0V | 00:00:00 | 00:00:00 | 00:00:00 | |
| PETON7-10 | 2026-09-02 12:28:32 | 51.11024 | 17.57924 | 72° | 11km/h | 22845m | 5.6m/s | 0°C | 0% | 0hPa | 0V | 00:00:00 | 00:00:00 | 00:00:00 | |
| POL1PZ | 2026-09-02 12:28:31 | 51.11023 | 17.57922 | 38° | 5km/h | 22840m | 4.5m/s | 0°C | 0% | 0hPa | 0V | 00:00:00 | 00:00:00 | 00:00:00 | |
| KRY50SP | 2026-09-02 12:28:29 | 51.11018 | 17.57917 | 23° | 18km/h | 22830m | 4.8m/s | 0°C | 0% | 0hPa | 0V | 00:00:00 | 00:00:00 | 00:00:00 | |
| SQ6EMJ | 2026-09-02 12:28:28 | 51.11013 | 17.57916 | 4° | 20km/h | 22826m | 6.2m/s | 0°C | 0% | 0hPa | 0V | 00:00:00 | 00:00:00 | 00:00:00 | |
| OE5DRO-10 | 2026-09-02 12:28:26 | 51.11005 | 17.57916 | 359° | 13km/h | 22814m | 4.9m/s | 0°C | 0% | 0hPa | 0V | 00:00:00 | 00:00:00 | 00:00:00 | |
| KRY50SP | 2026-09-02 12:28:23 | 51.10993 | 17.57912 | 31° | 7km/h | 22797m | 5.2m/s | 0°C | 0% | 0hPa | 0V | 00:00:00 | 00:00:00 | 00:00:00 | |
| SQ6EMJ | 2026-09-02 12:28:20 | 51.10993 | 17.57910 | 134° | 4km/h | 22780m | 3.9m/s | 0°C | 0% | 0hPa | 0V | 00:00:00 | 00:00:00 | 00:00:00 | |
| PETON7-10 | 2026-09-02 12:28:17 | 51.10990 | 17.57903 | 27° | 9km/h | 22763m | 4.7m/s | 0°C | 0% | 0hPa | 0V | 00:00:00 | 00:00:00 | 00:00:00 | |
| SQ6EMJ | 2026-09-02 12:28:14 | 51.10979 | 17.57907 | 313° | 15km/h | 22746m | 5.5m/s | 0°C | 0% | 0hPa | 0V | 00:00:00 | 00:00:00 | 00:00:00 | |
| KRY50SP | 2026-09-02 12:28:12 | 51.10975 | 17.57914 | 299° | 5km/h | 22735m | 6.0m/s | 0°C | 0% | 0hPa | 0V | 00:00:00 | 00:00:00 | 00:00:00 | |
| POL1PZ | 2026-09-02 12:28:10 | 51.10974 | 17.57915 | 128° | 2km/h | 22725m | 4.9m/s | 0°C | 0% | 0hPa | 0V | 00:00:00 | 00:00:00 | 00:00:00 | |
| SQ6EMJ | 2026-09-02 12:28:08 | 51.10974 | 17.57917 | 303° | 7km/h | 22712m | 3.6m/s | 0°C | 0% | 0hPa | 0V | 00:00:00 | 00:00:00 | 00:00:00 | |
| KRY50SP | 2026-09-02 12:28:06 | 51.10969 | 17.57919 | 6° | 16km/h | 22703m | 6.7m/s | 0°C | 0% | 0hPa | 0V | 00:00:00 | 00:00:00 | 00:00:00 | |
| SQ6EMJ | 2026-09-02 12:28:02 | 51.10959 | 17.57919 | 249° | 9km/h | 22680m | 5.6m/s | 0°C | 0% | 0hPa | 0V | 00:00:00 | 00:00:00 | 00:00:00 | |
| PETON7-10 | 2026-09-02 12:28:00 | 51.10962 | 17.57921 | 193° | 7km/h | 22670m | 5.7m/s | 0°C | 0% | 0hPa | 0V | 00:00:00 | 00:00:00 | 00:00:00 | |
| SP3BTT-10 | 2026-09-02 12:27:56 | 51.10968 | 17.57924 | 250° | 15km/h | 22649m | 4.7m/s | 0°C | 0% | 0hPa | 0V | 00:00:00 | 00:00:00 | 00:00:00 | |
| KRY50SP | 2026-09-02 12:27:53 | 51.10969 | 17.57925 | 107° | 7km/h | 22632m | 5.9m/s | 0°C | 0% | 0hPa | 0V | 00:00:00 | 00:00:00 | 00:00:00 | |
| SQ6EMJ | 2026-09-02 12:27:51 | 51.10971 | 17.57924 | 212° | 7km/h | 22622m | 6.2m/s | 0°C | 0% | 0hPa | 0V | 00:00:00 | 00:00:00 | 00:00:00 | |
| POL1PZ | 2026-09-02 12:27:50 | 51.10972 | 17.57927 | 234° | 13km/h | 22616m | 5.9m/s | 0°C | 0% | 0hPa | 0V | 00:00:00 | 00:00:00 | 00:00:00 | |
| KRY50SP | 2026-09-02 12:27:48 | 51.10979 | 17.57932 | 147° | 9km/h | 22599m | 4.8m/s | 0°C | 0% | 0hPa | 0V | 00:00:00 | 00:00:00 | 00:00:00 | |
| SQ6EMJ | 2026-09-02 12:27:45 | 51.10980 | 17.57929 | 0° | 0km/h | 22588m | 5.7m/s | 0°C | 0% | 0hPa | 0V | 00:00:00 | 00:00:00 | 00:00:00 | |
| PETON7-10 | 2026-09-02 12:27:44 | 51.10980 | 17.57929 | 344° | 5km/h | 22583m | 6.1m/s | 0°C | 0% | 0hPa | 0V | 00:00:00 | 00:00:00 | 00:00:00 | |
| KRY50SP | 2026-09-02 12:27:41 | 51.10980 | 17.57928 | 93° | 7km/h | 22566m | 6.2m/s | 0°C | 0% | 0hPa | 0V | 00:00:00 | 00:00:00 | 00:00:00 | |
| SP4MAZ | 2026-09-02 12:27:36 | 51.10987 | 17.57922 | 138° | 9km/h | 22537m | 5.8m/s | 0°C | 0% | 0hPa | 0V | 00:00:00 | 00:00:00 | 00:00:00 | |
| KRY50SP | 2026-09-02 12:27:35 | 51.10989 | 17.57920 | 179° | 7km/h | 22532m | 4.0m/s | 0°C | 0% | 0hPa | 0V | 00:00:00 | 00:00:00 | 00:00:00 | |
| SQ6EMJ | 2026-09-02 12:27:34 | 51.10990 | 17.57921 | 210° | 2km/h | 22527m | 5.2m/s | 0°C | 0% | 0hPa | 0V | 00:00:00 | 00:00:00 | 00:00:00 | |
| PETON7-10 | 2026-09-02 12:27:29 | 51.10990 | 17.57911 | 104° | 9km/h | 22500m | 5.0m/s | 0°C | 0% | 0hPa | 0V | 00:00:00 | 00:00:00 | 00:00:00 | |
| SQ6EMJ | 2026-09-02 12:27:23 | 51.10999 | 17.57897 | 96° | 11km/h | 22469m | 4.9m/s | 0°C | 0% | 0hPa | 0V | 00:00:00 | 00:00:00 | 00:00:00 | |
| SQ6EMJ | 2026-09-02 12:27:17 | 51.11000 | 17.57872 | 111° | 13km/h | 22438m | 3.0m/s | 0°C | 0% | 0hPa | 0V | 00:00:00 | 00:00:00 | 00:00:00 | |
| PETON7-10 | 2026-09-02 12:27:14 | 51.11008 | 17.57860 | 146° | 15km/h | 22424m | 5.0m/s | 0°C | 0% | 0hPa | 0V | 00:00:00 | 00:00:00 | 00:00:00 | |
| KRY50SP | 2026-09-02 12:27:12 | 51.11012 | 17.57849 | 111° | 22km/h | 22412m | 6.0m/s | 0°C | 0% | 0hPa | 0V | 00:00:00 | 00:00:00 | 00:00:00 | |
| SQ6EMJ | 2026-09-02 12:27:11 | 51.11012 | 17.57842 | 89° | 20km/h | 22407m | 4.2m/s | 0°C | 0% | 0hPa | 0V | 00:00:00 | 00:00:00 | 00:00:00 | |
| POL1PZ | 2026-09-02 12:27:08 | 51.11011 | 17.57823 | 78° | 15km/h | 22390m | 3.8m/s | 0°C | 0% | 0hPa | 0V | 00:00:00 | 00:00:00 | 00:00:00 | |
| KRY50SP | 2026-09-02 12:27:07 | 51.11011 | 17.57817 | 92° | 18km/h | 22385m | 4.5m/s | 0°C | 0% | 0hPa | 0V | 00:00:00 | 00:00:00 | 00:00:00 | |
| SQ6EMJ | 2026-09-02 12:27:05 | 51.11013 | 17.57800 | 111° | 26km/h | 22374m | 5.6m/s | 0°C | 0% | 0hPa | 0V | 00:00:00 | 00:00:00 | 00:00:00 | |
| KRY50SP | 2026-09-02 12:27:02 | 51.11022 | 17.57780 | 140° | 16km/h | 22358m | 3.5m/s | 0°C | 0% | 0hPa | 0V | 00:00:00 | 00:00:00 | 00:00:00 | |
| SQ6EMJ | 2026-09-02 12:27:00 | 51.11025 | 17.57768 | 100° | 18km/h | 22346m | 6.3m/s | 0°C | 0% | 0hPa | 0V | 00:00:00 | 00:00:00 | 00:00:00 | |
| PETON7-10 | 2026-09-02 12:26:59 | 51.11026 | 17.57760 | 93° | 22km/h | 22340m | 4.2m/s | 0°C | 0% | 0hPa | 0V | 00:00:00 | 00:00:00 | 00:00:00 | |
| KRY50SP | 2026-09-02 12:26:55 | 51.11029 | 17.57724 | 112° | 18km/h | 22320m | 3.7m/s | 0°C | 0% | 0hPa | 0V | 00:00:00 | 00:00:00 | 00:00:00 | |
| SQ6EMJ | 2026-09-02 12:26:54 | 51.11031 | 17.57717 | 119° | 22km/h | 22315m | 5.4m/s | 0°C | 0% | 0hPa | 0V | 00:00:00 | 00:00:00 | 00:00:00 | |
| KRY50SP | 2026-09-02 12:26:49 | 51.11040 | 17.57691 | 57° | 11km/h | 22290m | 3.1m/s | 0°C | 0% | 0hPa | 0V | 00:00:00 | 00:00:00 | 00:00:00 | |
| SQ6EMJ | 2026-09-02 12:26:48 | 51.11039 | 17.57686 | 75° | 18km/h | 22285m | 5.3m/s | 0°C | 0% | 0hPa | 0V | 00:00:00 | 00:00:00 | 00:00:00 | |
| POL1PZ | 2026-09-02 12:26:47 | 51.11038 | 17.57678 | 91° | 26km/h | 22280m | 5.4m/s | 0°C | 0% | 0hPa | 0V | 00:00:00 | 00:00:00 | 00:00:00 | |
| PETON7-10 | 2026-09-02 12:26:44 | 51.11043 | 17.57644 | 116° | 24km/h | 22264m | 5.4m/s | 0°C | 0% | 0hPa | 0V | 00:00:00 | 00:00:00 | 00:00:00 | |
| SQ6EMJ | 2026-09-02 12:26:43 | 51.11046 | 17.57630 | 94° | 15km/h | 22254m | 4.9m/s | 0°C | 0% | 0hPa | 0V | 00:00:00 | 00:00:00 | 00:00:00 | |
| SP3BTT-10 | 2026-09-02 12:26:41 | 51.11046 | 17.57624 | 75° | 18km/h | 22249m | 5.5m/s | 0°C | 0% | 0hPa | 0V | 00:00:00 | 00:00:00 | 00:00:00 | |
| SQ6EMJ | 2026-09-02 12:26:36 | 51.11036 | 17.57590 | 69° | 22km/h | 22225m | 5.1m/s | 0°C | 0% | 0hPa | 0V | 00:00:00 | 00:00:00 | 00:00:00 | |
| KRY50SP | 2026-09-02 12:26:31 | 51.11037 | 17.57533 | 121° | 22km/h | 22199m | 4.7m/s | 0°C | 0% | 0hPa | 0V | 00:00:00 | 00:00:00 | 00:00:00 | |
| SQ6EMJ | 2026-09-02 12:26:30 | 51.11038 | 17.57527 | 100° | 9km/h | 22195m | 5.0m/s | 0°C | 0% | 0hPa | 0V | 00:00:00 | 00:00:00 | 00:00:00 | |
| PETON7-10 | 2026-09-02 12:26:29 | 51.11037 | 17.57523 | 43° | 24km/h | 22190m | 4.5m/s | 0°C | 0% | 0hPa | 0V | 00:00:00 | 00:00:00 | 00:00:00 | |
| POL1PZ | 2026-09-02 12:26:27 | 51.11027 | 17.57509 | 49° | 40km/h | 22180m | 4.7m/s | 0°C | 0% | 0hPa | 0V | 00:00:00 | 00:00:00 | 00:00:00 | |
| KRY50SP | 2026-09-02 12:26:26 | 51.11021 | 17.57495 | 63° | 42km/h | 22175m | 4.2m/s | 0°C | 0% | 0hPa | 0V | 00:00:00 | 00:00:00 | 00:00:00 | |
| SQ6EMJ | 2026-09-02 12:26:25 | 51.11017 | 17.57480 | 75° | 40km/h | 22171m | 5.2m/s | 0°C | 0% | 0hPa | 0V | 00:00:00 | 00:00:00 | 00:00:00 | |
| SQ6EMJ | 2026-09-02 12:26:19 | 51.11013 | 17.57428 | 41° | 18km/h | 22139m | 5.0m/s | 0°C | 0% | 0hPa | 0V | 00:00:00 | 00:00:00 | 00:00:00 | |
| SP4MAZ | 2026-09-02 12:26:14 | 51.10991 | 17.57375 | 67° | 46km/h | 22114m | 4.2m/s | 0°C | 0% | 0hPa | 0V | 00:00:00 | 00:00:00 | 00:00:00 | |
| PETON7-10 | 2026-09-02 12:26:13 | 51.10987 | 17.57360 | 76° | 24km/h | 22110m | 4.5m/s | 0°C | 0% | 0hPa | 0V | 00:00:00 | 00:00:00 | 00:00:00 | |
| KRY50SP | 2026-09-02 12:26:11 | 51.10985 | 17.57339 | 108° | 16km/h | 22099m | 7.4m/s | 0°C | 0% | 0hPa | 0V | 00:00:00 | 00:00:00 | 00:00:00 | |
| SQ6EMJ | 2026-09-02 12:26:08 | 51.10982 | 17.57330 | 37° | 15km/h | 22083m | 4.9m/s | 0°C | 0% | 0hPa | 0V | 00:00:00 | 00:00:00 | 00:00:00 | |
| KRY50SP | 2026-09-02 12:26:06 | 51.10975 | 17.57318 | 62° | 26km/h | 22074m | 6.3m/s | 0°C | 0% | 0hPa | 0V | 00:00:00 | 00:00:00 | 00:00:00 | |
| SQ6EMJ | 2026-09-02 12:26:02 | 51.10963 | 17.57275 | 55° | 27km/h | 22053m | 6.6m/s | 0°C | 0% | 0hPa | 0V | 00:00:00 | 00:00:00 | 00:00:00 | |
| KRY50SP | 2026-09-02 12:25:59 | 51.10951 | 17.57255 | 58° | 18km/h | 22036m | 6.3m/s | 0°C | 0% | 0hPa | 0V | 00:00:00 | 00:00:00 | 00:00:00 | |
| PETON7-10 | 2026-09-02 12:25:58 | 51.10949 | 17.57248 | 78° | 16km/h | 22031m | 4.1m/s | 0°C | 0% | 0hPa | 0V | 00:00:00 | 00:00:00 | 00:00:00 | |
| SQ6EMJ | 2026-09-02 12:25:56 | 51.10946 | 17.57236 | 52° | 18km/h | 22021m | 6.3m/s | 0°C | 0% | 0hPa | 0V | 00:00:00 | 00:00:00 | 00:00:00 | |
| KRY50SP | 2026-09-02 12:25:54 | 51.10940 | 17.57223 | 60° | 18km/h | 22010m | 5.3m/s | 0°C | 0% | 0hPa | 0V | 00:00:00 | 00:00:00 | 00:00:00 | |
| SQ6EMJ | 2026-09-02 12:25:50 | 51.10932 | 17.57199 | 33° | 18km/h | 21989m | 6.9m/s | 0°C | 0% | 0hPa | 0V | 00:00:00 | 00:00:00 | 00:00:00 | |
| KRY50SP | 2026-09-02 12:25:48 | 51.10923 | 17.57194 | 21° | 16km/h | 21979m | 5.5m/s | 0°C | 0% | 0hPa | 0V | 00:00:00 | 00:00:00 | 00:00:00 | |
| POL1PZ | 2026-09-02 12:25:46 | 51.10918 | 17.57187 | 47° | 15km/h | 21968m | 4.3m/s | 0°C | 0% | 0hPa | 0V | 00:00:00 | 00:00:00 | 00:00:00 | |
| SQ6EMJ | 2026-09-02 12:25:44 | 51.10912 | 17.57175 | 53° | 24km/h | 21957m | 5.5m/s | 0°C | 0% | 0hPa | 0V | 00:00:00 | 00:00:00 | 00:00:00 | |
| PETON7-10 | 2026-09-02 12:25:43 | 51.10909 | 17.57168 | 60° | 18km/h | 21952m | 4.7m/s | 0°C | 0% | 0hPa | 0V | 00:00:00 | 00:00:00 | 00:00:00 | |
| SP4MAZ | 2026-09-02 12:25:42 | 51.10907 | 17.57160 | 70° | 22km/h | 21946m | 7.0m/s | 0°C | 0% | 0hPa | 0V | 00:00:00 | 00:00:00 | 00:00:00 | |
| SP3BTT-10 | 2026-09-02 12:25:40 | 51.10903 | 17.57148 | 44° | 11km/h | 21937m | 4.8m/s | 0°C | 0% | 0hPa | 0V | 00:00:00 | 00:00:00 | 00:00:00 | |
| SQ6EMJ | 2026-09-02 12:25:39 | 51.10900 | 17.57145 | 25° | 18km/h | 21931m | 6.1m/s | 0°C | 0% | 0hPa | 0V | 00:00:00 | 00:00:00 | 00:00:00 | |
| KRY50SP | 2026-09-02 12:25:36 | 51.10888 | 17.57140 | 25° | 13km/h | 21919m | 4.8m/s | 0°C | 0% | 0hPa | 0V | 00:00:00 | 00:00:00 | 00:00:00 | |
| SQ6EMJ | 2026-09-02 12:25:34 | 51.10883 | 17.57131 | 62° | 18km/h | 21910m | 4.7m/s | 0°C | 0% | 0hPa | 0V | 00:00:00 | 00:00:00 | 00:00:00 | |
| PETON7-10 | 2026-09-02 12:25:28 | 51.10857 | 17.57096 | 29° | 20km/h | 21879m | 4.8m/s | 0°C | 0% | 0hPa | 0V | 00:00:00 | 00:00:00 | 00:00:00 | |
| POL1PZ | 2026-09-02 12:25:25 | 51.10844 | 17.57081 | 59° | 24km/h | 21863m | 5.9m/s | 0°C | 0% | 0hPa | 0V | 00:00:00 | 00:00:00 | 00:00:00 | |
| KRY50SP | 2026-09-02 12:25:24 | 51.10841 | 17.57073 | 68° | 26km/h | 21857m | 5.8m/s | 0°C | 0% | 0hPa | 0V | 00:00:00 | 00:00:00 | 00:00:00 | |
| SQ6EMJ | 2026-09-02 12:25:22 | 51.10837 | 17.57054 | 58° | 27km/h | 21849m | 5.9m/s | 0°C | 0% | 0hPa | 0V | 00:00:00 | 00:00:00 | 00:00:00 | |
| KRY50SP | 2026-09-02 12:25:18 | 51.10815 | 17.57029 | 20° | 16km/h | 21828m | 5.8m/s | 0°C | 0% | 0hPa | 0V | 00:00:00 | 00:00:00 | 00:00:00 | |
| SQ6EMJ | 2026-09-02 12:25:16 | 51.10809 | 17.57025 | 41° | 11km/h | 21818m | 4.5m/s | 0°C | 0% | 0hPa | 0V | 00:00:00 | 00:00:00 | 00:00:00 | |
| PETON7-10 | 2026-09-02 12:25:12 | 51.10796 | 17.57006 | 49° | 16km/h | 21796m | 6.0m/s | 0°C | 0% | 0hPa | 0V | 00:00:00 | 00:00:00 | 00:00:00 | |
| SQ6EMJ | 2026-09-02 12:25:10 | 51.10789 | 17.56997 | 33° | 18km/h | 21786m | 5.0m/s | 0°C | 0% | 0hPa | 0V | 00:00:00 | 00:00:00 | 00:00:00 | |
| KRY50SP | 2026-09-02 12:25:06 | 51.10774 | 17.56991 | 322° | 9km/h | 21766m | 6.0m/s | 0°C | 0% | 0hPa | 0V | 00:00:00 | 00:00:00 | 00:00:00 | |
| POL1PZ | 2026-09-02 12:25:05 | 51.10772 | 17.56993 | 325° | 5km/h | 21762m | 3.5m/s | 0°C | 0% | 0hPa | 0V | 00:00:00 | 00:00:00 | 00:00:00 | |
| KRY50SP | 2026-09-02 12:25:00 | 51.10757 | 17.56982 | 6° | 18km/h | 21737m | 5.0m/s | 0°C | 0% | 0hPa | 0V | 00:00:00 | 00:00:00 | 00:00:00 | |
| SQ6EMJ | 2026-09-02 12:24:59 | 51.10753 | 17.56982 | 13° | 16km/h | 21732m | 5.0m/s | 0°C | 0% | 0hPa | 0V | 00:00:00 | 00:00:00 | 00:00:00 | |
| PETON7-10 | 2026-09-02 12:24:58 | 51.10745 | 17.56979 | 20° | 9km/h | 21722m | 5.4m/s | 0°C | 0% | 0hPa | 0V | 00:00:00 | 00:00:00 | 00:00:00 | |
| KRY50SP | 2026-09-02 12:24:54 | 51.10740 | 17.56978 | 262° | 4km/h | 21708m | 4.9m/s | 0°C | 0% | 0hPa | 0V | 00:00:00 | 00:00:00 | 00:00:00 | |
| SQ6EMJ | 2026-09-02 12:24:53 | 51.10740 | 17.56979 | 328° | 5km/h | 21703m | 4.5m/s | 0°C | 0% | 0hPa | 0V | 00:00:00 | 00:00:00 | 00:00:00 | |
| KRY50SP | 2026-09-02 12:24:49 | 51.10727 | 17.56977 | 351° | 15km/h | 21683m | 5.5m/s | 0°C | 0% | 0hPa | 0V | 00:00:00 | 00:00:00 | 00:00:00 | |
| SQ6EMJ | 2026-09-02 12:24:48 | 51.10723 | 17.56979 | 328° | 11km/h | 21678m | 2.9m/s | 0°C | 0% | 0hPa | 0V | 00:00:00 | 00:00:00 | 00:00:00 | |
| POL1PZ | 2026-09-02 12:24:45 | 51.10721 | 17.56977 | 90° | 11km/h | 21664m | 5.6m/s | 0°C | 0% | 0hPa | 0V | 00:00:00 | 00:00:00 | 00:00:00 | |
| SQ6EMJ | 2026-09-02 12:24:43 | 51.10723 | 17.56968 | 116° | 5km/h | 21649m | 3.9m/s | 0°C | 0% | 0hPa | 0V | 00:00:00 | 00:00:00 | 00:00:00 | |
| PETON7-10 | 2026-09-02 12:24:40 | 51.10723 | 17.56963 | 69° | 9km/h | 21639m | 5.3m/s | 0°C | 0% | 0hPa | 0V | 00:00:00 | 00:00:00 | 00:00:00 | |
| KRY50SP | 2026-09-02 12:24:38 | 51.10718 | 17.56952 | 0° | 0km/h | 21624m | 4.4m/s | 0°C | 0% | 0hPa | 0V | 00:00:00 | 00:00:00 | 00:00:00 | |
| SQ6EMJ | 2026-09-02 12:24:36 | 51.10718 | 17.56952 | 193° | 4km/h | 21620m | 4.1m/s | 0°C | 0% | 0hPa | 0V | 00:00:00 | 00:00:00 | 00:00:00 | |
| KRY50SP | 2026-09-02 12:24:31 | 51.10721 | 17.56938 | 104° | 5km/h | 21594m | 6.5m/s | 0°C | 0% | 0hPa | 0V | 00:00:00 | 00:00:00 | 00:00:00 | |
| SQ6EMJ | 2026-09-02 12:24:30 | 51.10721 | 17.56936 | 72° | 5km/h | 21588m | 3.7m/s | 0°C | 0% | 0hPa | 0V | 00:00:00 | 00:00:00 | 00:00:00 | |
| POL1PZ | 2026-09-02 12:24:25 | 51.10722 | 17.56914 | 151° | 11km/h | 21563m | 7.5m/s | 0°C | 0% | 0hPa | 0V | 00:00:00 | 00:00:00 | 00:00:00 | |
| SQ6EMJ | 2026-09-02 12:24:24 | 51.10725 | 17.56912 | 172° | 15km/h | 21557m | 4.8m/s | 0°C | 0% | 0hPa | 0V | 00:00:00 | 00:00:00 | 00:00:00 | |
| PETON7-10 | 2026-09-02 12:24:23 | 51.10728 | 17.56910 | 163° | 11km/h | 21552m | 4.3m/s | 0°C | 0% | 0hPa | 0V | 00:00:00 | 00:00:00 | 00:00:00 | |
| SQ6EMJ | 2026-09-02 12:24:18 | 51.10737 | 17.56893 | 109° | 9km/h | 21528m | 3.5m/s | 0°C | 0% | 0hPa | 0V | 00:00:00 | 00:00:00 | 00:00:00 | |
| KRY50SP | 2026-09-02 12:24:17 | 51.10737 | 17.56890 | 63° | 9km/h | 21524m | 4.9m/s | 0°C | 0% | 0hPa | 0V | 00:00:00 | 00:00:00 | 00:00:00 | |
| SQ6EMJ | 2026-09-02 12:24:13 | 51.10733 | 17.56873 | 187° | 5km/h | 21503m | 4.8m/s | 0°C | 0% | 0hPa | 0V | 00:00:00 | 00:00:00 | 00:00:00 | |
| KRY50SP | 2026-09-02 12:24:12 | 51.10734 | 17.56873 | 196° | 7km/h | 21498m | 5.0m/s | 0°C | 0% | 0hPa | 0V | 00:00:00 | 00:00:00 | 00:00:00 | |
| PETON7-10 | 2026-09-02 12:24:08 | 51.10742 | 17.56859 | 107° | 13km/h | 21478m | 6.5m/s | 0°C | 0% | 0hPa | 0V | 00:00:00 | 00:00:00 | 00:00:00 | |
| KRY50SP | 2026-09-02 12:24:07 | 51.10743 | 17.56852 | 105° | 18km/h | 21473m | 5.8m/s | 0°C | 0% | 0hPa | 0V | 00:00:00 | 00:00:00 | 00:00:00 | |
| POL1PZ | 2026-09-02 12:24:04 | 51.10741 | 17.56828 | 73° | 22km/h | 21458m | 5.0m/s | 0°C | 0% | 0hPa | 0V | 00:00:00 | 00:00:00 | 00:00:00 | |
| SQ6EMJ | 2026-09-02 12:24:02 | 51.10740 | 17.56816 | 106° | 7km/h | 21448m | 6.0m/s | 0°C | 0% | 0hPa | 0V | 00:00:00 | 00:00:00 | 00:00:00 | |
| KRY50SP | 2026-09-02 12:24:01 | 51.10741 | 17.56814 | 157° | 9km/h | 21442m | 5.1m/s | 0°C | 0% | 0hPa | 0V | 00:00:00 | 00:00:00 | 00:00:00 | |
| SQ6EMJ | 2026-09-02 12:23:57 | 51.10747 | 17.56801 | 87° | 11km/h | 21423m | 4.2m/s | 0°C | 0% | 0hPa | 0V | 00:00:00 | 00:00:00 | 00:00:00 | |
| OE5DRO-10 | 2026-09-02 12:23:56 | 51.10746 | 17.56797 | 71° | 15km/h | 21418m | 6.8m/s | 0°C | 0% | 0hPa | 0V | 00:00:00 | 00:00:00 | 00:00:00 | |
| KRY50SP | 2026-09-02 12:23:53 | 51.10746 | 17.56786 | 84° | 13km/h | 21402m | 6.3m/s | 0°C | 0% | 0hPa | 0V | 00:00:00 | 00:00:00 | 00:00:00 | |
| PETON7-10 | 2026-09-02 12:23:52 | 51.10745 | 17.56781 | 83° | 13km/h | 21396m | 5.5m/s | 0°C | 0% | 0hPa | 0V | 00:00:00 | 00:00:00 | 00:00:00 | |
| SQ6EMJ | 2026-09-02 12:23:51 | 51.10745 | 17.56775 | 91° | 13km/h | 21391m | 3.8m/s | 0°C | 0% | 0hPa | 0V | 00:00:00 | 00:00:00 | 00:00:00 | |
| KRY50SP | 2026-09-02 12:23:47 | 51.10750 | 17.56764 | 131° | 9km/h | 21371m | 6.6m/s | 0°C | 0% | 0hPa | 0V | 00:00:00 | 00:00:00 | 00:00:00 | |
| SQ6EMJ | 2026-09-02 12:23:46 | 51.10752 | 17.56760 | 122° | 15km/h | 21365m | 5.2m/s | 0°C | 0% | 0hPa | 0V | 00:00:00 | 00:00:00 | 00:00:00 | |
| KRY50SP | 2026-09-02 12:23:44 | 51.10760 | 17.56739 | 114° | 13km/h | 21342m | 5.1m/s | 0°C | 0% | 0hPa | 0V | 00:00:00 | 00:00:00 | 00:00:00 | |
| SQ6EMJ | 2026-09-02 12:23:41 | 51.10760 | 17.56733 | 94° | 16km/h | 21338m | 5.2m/s | 0°C | 0% | 0hPa | 0V | 00:00:00 | 00:00:00 | 00:00:00 | |
| PETON7-10 | 2026-09-02 12:23:37 | 51.10773 | 17.56713 | 146° | 20km/h | 21316m | 4.1m/s | 0°C | 0% | 0hPa | 0V | 00:00:00 | 00:00:00 | 00:00:00 | |
| KRY50SP | 2026-09-02 12:23:31 | 51.10778 | 17.56675 | 117° | 15km/h | 21289m | 4.6m/s | 0°C | 0% | 0hPa | 0V | 00:00:00 | 00:00:00 | 00:00:00 | |
| SQ6EMJ | 2026-09-02 12:23:30 | 51.10781 | 17.56669 | 137° | 22km/h | 21285m | 5.7m/s | 0°C | 0% | 0hPa | 0V | 00:00:00 | 00:00:00 | 00:00:00 | |
| OE5DRO-10 | 2026-09-02 12:23:29 | 51.10785 | 17.56663 | 139° | 16km/h | 21280m | 4.0m/s | 0°C | 0% | 0hPa | 0V | 00:00:00 | 00:00:00 | 00:00:00 | |
| KRY50SP | 2026-09-02 12:23:25 | 51.10799 | 17.56632 | 123° | 18km/h | 21260m | 4.8m/s | 0°C | 0% | 0hPa | 0V | 00:00:00 | 00:00:00 | 00:00:00 | |
| POL1PZ | 2026-09-02 12:23:23 | 51.10804 | 17.56625 | 164° | 15km/h | 21250m | 4.1m/s | 0°C | 0% | 0hPa | 0V | 00:00:00 | 00:00:00 | 00:00:00 | |
| KRY50SP | 2026-09-02 12:23:21 | 51.10808 | 17.56611 | 95° | 22km/h | 21236m | 5.9m/s | 0°C | 0% | 0hPa | 0V | 00:00:00 | 00:00:00 | 00:00:00 | |
| SQ6EMJ | 2026-09-02 12:23:20 | 51.10808 | 17.56611 | 95° | 22km/h | 21236m | 5.9m/s | 0°C | 0% | 0hPa | 0V | 00:00:00 | 00:00:00 | 00:00:00 | |
| PETON7-10 | 2026-09-02 12:23:19 | 51.10809 | 17.56601 | 96° | 24km/h | 21231m | 4.3m/s | 0°C | 0% | 0hPa | 0V | 00:00:00 | 00:00:00 | 00:00:00 | |
| KRY50SP | 2026-09-02 12:23:15 | 51.10821 | 17.56559 | 126° | 26km/h | 21211m | 6.6m/s | 0°C | 0% | 0hPa | 0V | 00:00:00 | 00:00:00 | 00:00:00 | |
| SQ6EMJ | 2026-09-02 12:23:14 | 51.10825 | 17.56551 | 116° | 22km/h | 21205m | 5.8m/s | 0°C | 0% | 0hPa | 0V | 00:00:00 | 00:00:00 | 00:00:00 | |
| SP3BTT-10 | 2026-09-02 12:23:09 | 51.10830 | 17.56519 | 84° | 15km/h | 21179m | 4.5m/s | 0°C | 0% | 0hPa | 0V | 00:00:00 | 00:00:00 | 00:00:00 | |
| SQ6EMJ | 2026-09-02 12:23:08 | 51.10829 | 17.56508 | 87° | 29km/h | 21175m | 3.7m/s | 0°C | 0% | 0hPa | 0V | 00:00:00 | 00:00:00 | 00:00:00 | |
| PETON7-10 | 2026-09-02 12:23:03 | 51.10840 | 17.56461 | 117° | 15km/h | 21148m | 6.7m/s | 0°C | 0% | 0hPa | 0V | 00:00:00 | 00:00:00 | 00:00:00 | |
| SQ6EMJ | 2026-09-02 12:23:02 | 51.10840 | 17.56454 | 82° | 18km/h | 21142m | 5.6m/s | 0°C | 0% | 0hPa | 0V | 00:00:00 | 00:00:00 | 00:00:00 | |
| KRY50SP | 2026-09-02 12:22:56 | 51.10838 | 17.56416 | 82° | 18km/h | 21112m | 3.9m/s | 0°C | 0% | 0hPa | 0V | 00:00:00 | 00:00:00 | 00:00:00 | |
| SQ6EMJ | 2026-09-02 12:22:50 | 51.10838 | 17.56382 | 86° | 16km/h | 21081m | 4.1m/s | 0°C | 0% | 0hPa | 0V | 00:00:00 | 00:00:00 | 00:00:00 | |
| KRY50SP | 2026-09-02 12:22:49 | 51.10838 | 17.56376 | 101° | 16km/h | 21076m | 6.3m/s | 0°C | 0% | 0hPa | 0V | 00:00:00 | 00:00:00 | 00:00:00 | |
| PETON7-10 | 2026-09-02 12:22:48 | 51.10839 | 17.56370 | 123° | 13km/h | 21071m | 4.0m/s | 0°C | 0% | 0hPa | 0V | 00:00:00 | 00:00:00 | 00:00:00 | |
| SQ6EMJ | 2026-09-02 12:22:44 | 51.10841 | 17.56346 | 74° | 16km/h | 21050m | 4.0m/s | 0°C | 0% | 0hPa | 0V | 00:00:00 | 00:00:00 | 00:00:00 | |
| OE5DRO-10 | 2026-09-02 12:22:43 | 51.10840 | 17.56341 | 55° | 9km/h | 21045m | 5.7m/s | 0°C | 0% | 0hPa | 0V | 00:00:00 | 00:00:00 | 00:00:00 | |
| POL1PZ | 2026-09-02 12:22:42 | 51.10839 | 17.56338 | 78° | 5km/h | 21039m | 6.4m/s | 0°C | 0% | 0hPa | 0V | 00:00:00 | 00:00:00 | 00:00:00 | |
| KRY50SP | 2026-09-02 12:22:39 | 51.10841 | 17.56326 | 117° | 9km/h | 21017m | 5.2m/s | 0°C | 0% | 0hPa | 0V | 00:00:00 | 00:00:00 | 00:00:00 | |
| PETON7-10 | 2026-09-02 12:22:32 | 51.10836 | 17.56301 | 59° | 9km/h | 20987m | 5.8m/s | 0°C | 0% | 0hPa | 0V | 00:00:00 | 00:00:00 | 00:00:00 | |
| KRY50SP | 2026-09-02 12:22:26 | 51.10834 | 17.56288 | 115° | 5km/h | 20954m | 6.0m/s | 0°C | 0% | 0hPa | 0V | 00:00:00 | 00:00:00 | 00:00:00 | |
| OE5DRO-10 | 2026-09-02 12:22:24 | 51.10834 | 17.56283 | 77° | 13km/h | 20945m | 4.0m/s | 0°C | 0% | 0hPa | 0V | 00:00:00 | 00:00:00 | 00:00:00 | |
| POL1PZ | 2026-09-02 12:22:21 | 51.10828 | 17.56268 | 46° | 18km/h | 20931m | 3.3m/s | 0°C | 0% | 0hPa | 0V | 00:00:00 | 00:00:00 | 00:00:00 | |
| KRY50SP | 2026-09-02 12:22:19 | 51.10825 | 17.56264 | 298° | 5km/h | 20921m | 7.4m/s | 0°C | 0% | 0hPa | 0V | 00:00:00 | 00:00:00 | 00:00:00 | |
| PETON7-10 | 2026-09-02 12:22:17 | 51.10825 | 17.56270 | 238° | 11km/h | 20910m | 5.8m/s | 0°C | 0% | 0hPa | 0V | 00:00:00 | 00:00:00 | 00:00:00 | |
| SQ6EMJ | 2026-09-02 12:22:15 | 51.10827 | 17.56269 | 85° | 7km/h | 20898m | 5.6m/s | 0°C | 0% | 0hPa | 0V | 00:00:00 | 00:00:00 | 00:00:00 | |
| KRY50SP | 2026-09-02 12:22:14 | 51.10826 | 17.56266 | 70° | 11km/h | 20893m | 6.3m/s | 0°C | 0% | 0hPa | 0V | 00:00:00 | 00:00:00 | 00:00:00 | |
| SQ6EMJ | 2026-09-02 12:22:10 | 51.10815 | 17.56249 | 60° | 13km/h | 20874m | 4.1m/s | 0°C | 0% | 0hPa | 0V | 00:00:00 | 00:00:00 | 00:00:00 | |
| SP3BTT-10 | 2026-09-02 12:22:09 | 51.10814 | 17.56246 | 60° | 18km/h | 20870m | 4.5m/s | 0°C | 0% | 0hPa | 0V | 00:00:00 | 00:00:00 | 00:00:00 | |
| SQ6EMJ | 2026-09-02 12:22:04 | 51.10819 | 17.56259 | 201° | 9km/h | 20841m | 6.9m/s | 0°C | 0% | 0hPa | 0V | 00:00:00 | 00:00:00 | 00:00:00 | |
| PETON7-10 | 2026-09-02 12:22:03 | 51.10823 | 17.56254 | 114° | 9km/h | 20830m | 5.0m/s | 0°C | 0% | 0hPa | 0V | 00:00:00 | 00:00:00 | 00:00:00 | |
| POL1PZ | 2026-09-02 12:22:02 | 51.10824 | 17.56250 | 83° | 9km/h | 20824m | 7.2m/s | 0°C | 0% | 0hPa | 0V | 00:00:00 | 00:00:00 | 00:00:00 | |
| SQ6EMJ | 2026-09-02 12:21:59 | 51.10822 | 17.56245 | 55° | 5km/h | 20813m | 4.1m/s | 0°C | 0% | 0hPa | 0V | 00:00:00 | 00:00:00 | 00:00:00 | |
| KRY50SP | 2026-09-02 12:21:57 | 51.10824 | 17.56238 | 132° | 9km/h | 20798m | 4.2m/s | 0°C | 0% | 0hPa | 0V | 00:00:00 | 00:00:00 | 00:00:00 | |
| SQ6EMJ | 2026-09-02 12:21:54 | 51.10827 | 17.56235 | 207° | 4km/h | 20788m | 5.1m/s | 0°C | 0% | 0hPa | 0V | 00:00:00 | 00:00:00 | 00:00:00 | |
| KRY50SP | 2026-09-02 12:21:49 | 51.10839 | 17.56232 | 181° | 7km/h | 20761m | 6.4m/s | 0°C | 0% | 0hPa | 0V | 00:00:00 | 00:00:00 | 00:00:00 | |
| SQ6EMJ | 2026-09-02 12:21:48 | 51.10840 | 17.56232 | 210° | 4km/h | 20756m | 3.1m/s | 0°C | 0% | 0hPa | 0V | 00:00:00 | 00:00:00 | 00:00:00 | |
| PETON7-10 | 2026-09-02 12:21:47 | 51.10841 | 17.56232 | 14° | 13km/h | 20752m | 4.1m/s | 0°C | 0% | 0hPa | 0V | 00:00:00 | 00:00:00 | 00:00:00 | |
| KRY50SP | 2026-09-02 12:21:44 | 51.10845 | 17.56223 | 136° | 18km/h | 20735m | 4.5m/s | 0°C | 0% | 0hPa | 0V | 00:00:00 | 00:00:00 | 00:00:00 | |
| SQ6EMJ | 2026-09-02 12:21:42 | 51.10851 | 17.56214 | 136° | 13km/h | 20725m | 4.5m/s | 0°C | 0% | 0hPa | 0V | 00:00:00 | 00:00:00 | 00:00:00 | |
| POL1PZ | 2026-09-02 12:21:41 | 51.10853 | 17.56211 | 163° | 11km/h | 20721m | 5.3m/s | 0°C | 0% | 0hPa | 0V | 00:00:00 | 00:00:00 | 00:00:00 | |
| KRY50SP | 2026-09-02 12:21:39 | 51.10860 | 17.56209 | 176° | 11km/h | 20708m | 3.8m/s | 0°C | 0% | 0hPa | 0V | 00:00:00 | 00:00:00 | 00:00:00 | |
| SQ6EMJ | 2026-09-02 12:21:36 | 51.10862 | 17.56200 | 79° | 15km/h | 20693m | 4.7m/s | 0°C | 0% | 0hPa | 0V | 00:00:00 | 00:00:00 | 00:00:00 | |
| KRY50SP | 2026-09-02 12:21:33 | 51.10864 | 17.56177 | 127° | 18km/h | 20677m | 5.9m/s | 0°C | 0% | 0hPa | 0V | 00:00:00 | 00:00:00 | 00:00:00 | |
| SQ6EMJ | 2026-09-02 12:21:31 | 51.10870 | 17.56167 | 147° | 15km/h | 20668m | 5.8m/s | 0°C | 0% | 0hPa | 0V | 00:00:00 | 00:00:00 | 00:00:00 | |
| KRY50SP | 2026-09-02 12:21:27 | 51.10873 | 17.56152 | 92° | 13km/h | 20647m | 6.0m/s | 0°C | 0% | 0hPa | 0V | 00:00:00 | 00:00:00 | 00:00:00 | |
| SQ6EMJ | 2026-09-02 12:21:25 | 51.10874 | 17.56140 | 106° | 15km/h | 20637m | 5.1m/s | 0°C | 0% | 0hPa | 0V | 00:00:00 | 00:00:00 | 00:00:00 | |
| KRY50SP | 2026-09-02 12:21:21 | 51.10876 | 17.56119 | 84° | 16km/h | 20616m | 4.2m/s | 0°C | 0% | 0hPa | 0V | 00:00:00 | 00:00:00 | 00:00:00 | |
| SQ6EMJ | 2026-09-02 12:21:20 | 51.10875 | 17.56112 | 85° | 18km/h | 20612m | 4.1m/s | 0°C | 0% | 0hPa | 0V | 00:00:00 | 00:00:00 | 00:00:00 | |
| PETON7-10 | 2026-09-02 12:21:16 | 51.10866 | 17.56082 | 75° | 20km/h | 20590m | 5.6m/s | 0°C | 0% | 0hPa | 0V | 00:00:00 | 00:00:00 | 00:00:00 | |
| SQ6EMJ | 2026-09-02 12:21:14 | 51.10867 | 17.56067 | 89° | 18km/h | 20580m | 4.5m/s | 0°C | 0% | 0hPa | 0V | 00:00:00 | 00:00:00 | 00:00:00 | |
| KRY50SP | 2026-09-02 12:21:10 | 51.10862 | 17.56040 | 72° | 15km/h | 20559m | 5.6m/s | 0°C | 0% | 0hPa | 0V | 00:00:00 | 00:00:00 | 00:00:00 | |
| SQ6EMJ | 2026-09-02 12:21:08 | 51.10862 | 17.56027 | 80° | 16km/h | 20550m | 4.1m/s | 0°C | 0% | 0hPa | 0V | 00:00:00 | 00:00:00 | 00:00:00 | |
| KRY50SP | 2026-09-02 12:21:04 | 51.10855 | 17.55990 | 81° | 26km/h | 20528m | 6.0m/s | 0°C | 0% | 0hPa | 0V | 00:00:00 | 00:00:00 | 00:00:00 | |
| SQ6EMJ | 2026-09-02 12:21:02 | 51.10852 | 17.55969 | 79° | 26km/h | 20518m | 6.9m/s | 0°C | 0% | 0hPa | 0V | 00:00:00 | 00:00:00 | 00:00:00 | |
| PETON7-10 | 2026-09-02 12:21:01 | 51.10851 | 17.55960 | 69° | 16km/h | 20512m | 3.9m/s | 0°C | 0% | 0hPa | 0V | 00:00:00 | 00:00:00 | 00:00:00 | |
| KRY50SP | 2026-09-02 12:20:59 | 51.10848 | 17.55944 | 86° | 18km/h | 20502m | 7.0m/s | 0°C | 0% | 0hPa | 0V | 00:00:00 | 00:00:00 | 00:00:00 | |
| POL1PZ | 2026-09-02 12:20:58 | 51.10848 | 17.55936 | 91° | 18km/h | 20497m | 3.6m/s | 0°C | 0% | 0hPa | 0V | 00:00:00 | 00:00:00 | 00:00:00 | |
| SQ6EMJ | 2026-09-02 12:20:56 | 51.10846 | 17.55923 | 70° | 20km/h | 20487m | 5.8m/s | 0°C | 0% | 0hPa | 0V | 00:00:00 | 00:00:00 | 00:00:00 | |
| SP3BTT-10 | 2026-09-02 12:20:54 | 51.10842 | 17.55909 | 64° | 16km/h | 20475m | 6.9m/s | 0°C | 0% | 0hPa | 0V | 00:00:00 | 00:00:00 | 00:00:00 | |
| SQ6EMJ | 2026-09-02 12:20:51 | 51.10838 | 17.55891 | 62° | 16km/h | 20458m | 6.7m/s | 0°C | 0% | 0hPa | 0V | 00:00:00 | 00:00:00 | 00:00:00 | |
| KRY50SP | 2026-09-02 12:20:48 | 51.10834 | 17.55875 | 92° | 13km/h | 20442m | 5.2m/s | 0°C | 0% | 0hPa | 0V | 00:00:00 | 00:00:00 | 00:00:00 | |
| PETON7-10 | 2026-09-02 12:20:46 | 51.10832 | 17.55864 | 61° | 13km/h | 20434m | 6.1m/s | 0°C | 0% | 0hPa | 0V | 00:00:00 | 00:00:00 | 00:00:00 | |
| KRY50SP | 2026-09-02 12:20:43 | 51.10824 | 17.55849 | 49° | 13km/h | 20417m | 6.8m/s | 0°C | 0% | 0hPa | 0V | 00:00:00 | 00:00:00 | 00:00:00 | |
| SQ6EMJ | 2026-09-02 12:20:41 | 51.10822 | 17.55841 | 76° | 7km/h | 20406m | 5.5m/s | 0°C | 0% | 0hPa | 0V | 00:00:00 | 00:00:00 | 00:00:00 | |
| POL1PZ | 2026-09-02 12:20:37 | 51.10817 | 17.55828 | 96° | 9km/h | 20384m | 5.6m/s | 0°C | 0% | 0hPa | 0V | 00:00:00 | 00:00:00 | 00:00:00 | |
| PETON7-10 | 2026-09-02 12:20:31 | 51.10808 | 17.55809 | 64° | 7km/h | 20350m | 4.8m/s | 0°C | 0% | 0hPa | 0V | 00:00:00 | 00:00:00 | 00:00:00 | |
| KRY50SP | 2026-09-02 12:20:25 | 51.10805 | 17.55792 | 103° | 7km/h | 20320m | 3.8m/s | 0°C | 0% | 0hPa | 0V | 00:00:00 | 00:00:00 | 00:00:00 | |
| SQ6EMJ | 2026-09-02 12:20:24 | 51.10804 | 17.55790 | 50° | 5km/h | 20315m | 6.5m/s | 0°C | 0% | 0hPa | 0V | 00:00:00 | 00:00:00 | 00:00:00 | |
| KRY50SP | 2026-09-02 12:20:20 | 51.10799 | 17.55792 | 241° | 9km/h | 20294m | 4.3m/s | 0°C | 0% | 0hPa | 0V | 00:00:00 | 00:00:00 | 00:00:00 | |
| SQ6EMJ | 2026-09-02 12:20:18 | 51.10801 | 17.55795 | 199° | 2km/h | 20285m | 5.4m/s | 0°C | 0% | 0hPa | 0V | 00:00:00 | 00:00:00 | 00:00:00 | |
| PETON7-10 | 2026-09-02 12:20:16 | 51.10801 | 17.55792 | 65° | 7km/h | 20274m | 5.4m/s | 0°C | 0% | 0hPa | 0V | 00:00:00 | 00:00:00 | 00:00:00 | |
| KRY50SP | 2026-09-02 12:20:14 | 51.10801 | 17.55789 | 178° | 5km/h | 20262m | 6.7m/s | 0°C | 0% | 0hPa | 0V | 00:00:00 | 00:00:00 | 00:00:00 | |
| SQ6EMJ | 2026-09-02 12:20:13 | 51.10805 | 17.55788 | 164° | 5km/h | 20252m | 5.4m/s | 0°C | 0% | 0hPa | 0V | 00:00:00 | 00:00:00 | 00:00:00 | |
| KRY50SP | 2026-09-02 12:20:08 | 51.10807 | 17.55781 | 184° | 7km/h | 20230m | 6.1m/s | 0°C | 0% | 0hPa | 0V | 00:00:00 | 00:00:00 | 00:00:00 | |
| SQ6EMJ | 2026-09-02 12:20:06 | 51.10810 | 17.55782 | 180° | 4km/h | 20220m | 5.1m/s | 0°C | 0% | 0hPa | 0V | 00:00:00 | 00:00:00 | 00:00:00 | |
| KRY50SP | 2026-09-02 12:20:02 | 51.10814 | 17.55767 | 132° | 15km/h | 20198m | 7.2m/s | 0°C | 0% | 0hPa | 0V | 00:00:00 | 00:00:00 | 00:00:00 | |
| PETON7-10 | 2026-09-02 12:20:01 | 51.10817 | 17.55763 | 148° | 16km/h | 20192m | 4.8m/s | 0°C | 0% | 0hPa | 0V | 00:00:00 | 00:00:00 | 00:00:00 | |
| SQ6EMJ | 2026-09-02 12:20:00 | 51.10819 | 17.55760 | 133° | 11km/h | 20187m | 6.5m/s | 0°C | 0% | 0hPa | 0V | 00:00:00 | 00:00:00 | 00:00:00 | |
| POL1PZ | 2026-09-02 12:19:56 | 51.10826 | 17.55740 | 129° | 22km/h | 20164m | 6.8m/s | 0°C | 0% | 0hPa | 0V | 00:00:00 | 00:00:00 | 00:00:00 | |
| SQ6EMJ | 2026-09-02 12:19:54 | 51.10832 | 17.55727 | 125° | 20km/h | 20152m | 6.7m/s | 0°C | 0% | 0hPa | 0V | 00:00:00 | 00:00:00 | 00:00:00 | |
| OE5DRO-10 | 2026-09-02 12:19:50 | 51.10842 | 17.55699 | 135° | 18km/h | 20129m | 4.3m/s | 0°C | 0% | 0hPa | 0V | 00:00:00 | 00:00:00 | 00:00:00 | |
| KRY50SP | 2026-09-02 12:19:49 | 51.10845 | 17.55693 | 124° | 16km/h | 20124m | 4.3m/s | 0°C | 0% | 0hPa | 0V | 00:00:00 | 00:00:00 | 00:00:00 | |
| PETON7-10 | 2026-09-02 12:19:46 | 51.10847 | 17.55676 | 89° | 18km/h | 20109m | 5.0m/s | 0°C | 0% | 0hPa | 0V | 00:00:00 | 00:00:00 | 00:00:00 | |
| SQ6EMJ | 2026-09-02 12:19:44 | 51.10853 | 17.55662 | 127° | 18km/h | 20095m | 3.2m/s | 0°C | 0% | 0hPa | 0V | 00:00:00 | 00:00:00 | 00:00:00 | |
| SP3BTT-10 | 2026-09-02 12:19:39 | 51.10864 | 17.55623 | 121° | 24km/h | 20070m | 4.6m/s | 0°C | 0% | 0hPa | 0V | 00:00:00 | 00:00:00 | 00:00:00 | |
| POL1PZ | 2026-09-02 12:19:35 | 51.10871 | 17.55599 | 100° | 18km/h | 20057m | 4.5m/s | 0°C | 0% | 0hPa | 0V | 00:00:00 | 00:00:00 | 00:00:00 | |
| KRY50SP | 2026-09-02 12:19:32 | 51.10875 | 17.55579 | 134° | 16km/h | 20042m | 4.4m/s | 0°C | 0% | 0hPa | 0V | 00:00:00 | 00:00:00 | 00:00:00 | |
| PETON7-10 | 2026-09-02 12:19:31 | 51.10877 | 17.55573 | 122° | 22km/h | 20038m | 5.9m/s | 0°C | 0% | 0hPa | 0V | 00:00:00 | 00:00:00 | 00:00:00 | |
| SQ6EMJ | 2026-09-02 12:19:27 | 51.10882 | 17.55547 | 121° | 22km/h | 20017m | 4.8m/s | 0°C | 0% | 0hPa | 0V | 00:00:00 | 00:00:00 | 00:00:00 | |
| KRY50SP | 2026-09-02 12:19:21 | 51.10895 | 17.55486 | 115° | 20km/h | 19986m | 5.8m/s | 0°C | 0% | 0hPa | 0V | 00:00:00 | 00:00:00 | 00:00:00 | |
| PETON7-10 | 2026-09-02 12:19:16 | 51.10899 | 17.55451 | 113° | 27km/h | 19962m | 5.8m/s | 0°C | 0% | 0hPa | 0V | 00:00:00 | 00:00:00 | 00:00:00 | |
| POL1PZ | 2026-09-02 12:19:15 | 51.10901 | 17.55442 | 109° | 24km/h | 19957m | 3.8m/s | 0°C | 0% | 0hPa | 0V | 00:00:00 | 00:00:00 | 00:00:00 | |
| SQ6EMJ | 2026-09-02 12:19:10 | 51.10899 | 17.55394 | 73° | 16km/h | 19933m | 5.7m/s | 0°C | 0% | 0hPa | 0V | 00:00:00 | 00:00:00 | 00:00:00 | |
| KRY50SP | 2026-09-02 12:19:05 | 51.10894 | 17.55347 | 98° | 29km/h | 19908m | 6.4m/s | 0°C | 0% | 0hPa | 0V | 00:00:00 | 00:00:00 | 00:00:00 | |
| SQ6EMJ | 2026-09-02 12:19:04 | 51.10895 | 17.55335 | 103° | 31km/h | 19902m | 5.3m/s | 0°C | 0% | 0hPa | 0V | 00:00:00 | 00:00:00 | 00:00:00 | |
| PETON7-10 | 2026-09-02 12:19:00 | 51.10894 | 17.55277 | 86° | 29km/h | 19882m | 5.6m/s | 0°C | 0% | 0hPa | 0V | 00:00:00 | 00:00:00 | 00:00:00 | |
| KRY50SP | 2026-09-02 12:18:59 | 51.10893 | 17.55263 | 92° | 31km/h | 19877m | 5.6m/s | 0°C | 0% | 0hPa | 0V | 00:00:00 | 00:00:00 | 00:00:00 | |
| POL1PZ | 2026-09-02 12:18:54 | 51.10890 | 17.55212 | 96° | 22km/h | 19853m | 6.1m/s | 0°C | 0% | 0hPa | 0V | 00:00:00 | 00:00:00 | 00:00:00 | |
| SQ6EMJ | 2026-09-02 12:18:53 | 51.10890 | 17.55203 | 92° | 26km/h | 19848m | 5.0m/s | 0°C | 0% | 0hPa | 0V | 00:00:00 | 00:00:00 | 00:00:00 | |
| SQ6EMJ | 2026-09-02 12:18:48 | 51.10889 | 17.55140 | 94° | 29km/h | 19824m | 4.7m/s | 0°C | 0% | 0hPa | 0V | 00:00:00 | 00:00:00 | 00:00:00 | |
| PETON7-10 | 2026-09-02 12:18:45 | 51.10888 | 17.55112 | 64° | 20km/h | 19810m | 4.2m/s | 0°C | 0% | 0hPa | 0V | 00:00:00 | 00:00:00 | 00:00:00 | |
| KRY50SP | 2026-09-02 12:18:43 | 51.10885 | 17.55098 | 84° | 18km/h | 19800m | 5.6m/s | 0°C | 0% | 0hPa | 0V | 00:00:00 | 00:00:00 | 00:00:00 | |
| SQ6EMJ | 2026-09-02 12:18:42 | 51.10884 | 17.55090 | 80° | 22km/h | 19794m | 4.8m/s | 0°C | 0% | 0hPa | 0V | 00:00:00 | 00:00:00 | 00:00:00 | |
| SP3BTT-10 | 2026-09-02 12:18:38 | 51.10879 | 17.55050 | 97° | 27km/h | 19776m | 5.6m/s | 0°C | 0% | 0hPa | 0V | 00:00:00 | 00:00:00 | 00:00:00 | |
| SQ6EMJ | 2026-09-02 12:18:36 | 51.10879 | 17.55029 | 89° | 24km/h | 19766m | 5.4m/s | 0°C | 0% | 0hPa | 0V | 00:00:00 | 00:00:00 | 00:00:00 | |
| POL1PZ | 2026-09-02 12:18:33 | 51.10875 | 17.55008 | 69° | 9km/h | 19751m | 4.2m/s | 0°C | 0% | 0hPa | 0V | 00:00:00 | 00:00:00 | 00:00:00 | |
| KRY50SP | 2026-09-02 12:18:32 | 51.10875 | 17.55006 | 79° | 7km/h | 19747m | 5.9m/s | 0°C | 0% | 0hPa | 0V | 00:00:00 | 00:00:00 | 00:00:00 | |
| SQ6EMJ | 2026-09-02 12:18:31 | 51.10875 | 17.55003 | 80° | 5km/h | 19743m | 3.8m/s | 0°C | 0% | 0hPa | 0V | 00:00:00 | 00:00:00 | 00:00:00 | |
| PETON7-10 | 2026-09-02 12:18:30 | 51.10874 | 17.55000 | 80° | 18km/h | 19739m | 4.9m/s | 0°C | 0% | 0hPa | 0V | 00:00:00 | 00:00:00 | 00:00:00 | |
| SQ6EMJ | 2026-09-02 12:18:26 | 51.10873 | 17.54974 | 101° | 16km/h | 19718m | 5.4m/s | 0°C | 0% | 0hPa | 0V | 00:00:00 | 00:00:00 | 00:00:00 | |
| OE5DRO-10 | 2026-09-02 12:18:22 | 51.10872 | 17.54946 | 75° | 20km/h | 19696m | 6.6m/s | 0°C | 0% | 0hPa | 0V | 00:00:00 | 00:00:00 | 00:00:00 | |
| KRY50SP | 2026-09-02 12:18:21 | 51.10871 | 17.54940 | 78° | 16km/h | 19691m | 3.6m/s | 0°C | 0% | 0hPa | 0V | 00:00:00 | 00:00:00 | 00:00:00 | |
| SQ6EMJ | 2026-09-02 12:18:20 | 51.10870 | 17.54932 | 68° | 18km/h | 19687m | 5.1m/s | 0°C | 0% | 0hPa | 0V | 00:00:00 | 00:00:00 | 00:00:00 | |
| PETON7-10 | 2026-09-02 12:18:15 | 51.10862 | 17.54894 | 56° | 24km/h | 19664m | 4.9m/s | 0°C | 0% | 0hPa | 0V | 00:00:00 | 00:00:00 | 00:00:00 | |
| SQ6EMJ | 2026-09-02 12:18:14 | 51.10860 | 17.54888 | 67° | 16km/h | 19659m | 6.6m/s | 0°C | 0% | 0hPa | 0V | 00:00:00 | 00:00:00 | 00:00:00 | |
| POL1PZ | 2026-09-02 12:18:13 | 51.10858 | 17.54882 | 59° | 20km/h | 19655m | 4.5m/s | 0°C | 0% | 0hPa | 0V | 00:00:00 | 00:00:00 | 00:00:00 | |
| SQ6EMJ | 2026-09-02 12:18:09 | 51.10848 | 17.54844 | 62° | 33km/h | 19630m | 5.6m/s | 0°C | 0% | 0hPa | 0V | 00:00:00 | 00:00:00 | 00:00:00 | |
| KRY50SP | 2026-09-02 12:18:03 | 51.10829 | 17.54797 | 57° | 26km/h | 19608m | 6.6m/s | 0°C | 0% | 0hPa | 0V | 00:00:00 | 00:00:00 | 00:00:00 | |
| OE5DRO-10 | 2026-09-02 12:18:02 | 51.10826 | 17.54788 | 67° | 22km/h | 19601m | 8.1m/s | 0°C | 0% | 0hPa | 0V | 00:00:00 | 00:00:00 | 00:00:00 | |
| PETON7-10 | 2026-09-02 12:18:00 | 51.10821 | 17.54772 | 69° | 22km/h | 19589m | 5.9m/s | 0°C | 0% | 0hPa | 0V | 00:00:00 | 00:00:00 | 00:00:00 | |
| SQ6EMJ | 2026-09-02 12:17:58 | 51.10817 | 17.54758 | 63° | 20km/h | 19580m | 5.7m/s | 0°C | 0% | 0hPa | 0V | 00:00:00 | 00:00:00 | 00:00:00 | |
| POL1PZ | 2026-09-02 12:17:52 | 51.10793 | 17.54713 | 71° | 29km/h | 19551m | 4.8m/s | 0°C | 0% | 0hPa | 0V | 00:00:00 | 00:00:00 | 00:00:00 | |
| KRY50SP | 2026-09-02 12:17:47 | 51.10784 | 17.54667 | 54° | 22km/h | 19522m | 6.1m/s | 0°C | 0% | 0hPa | 0V | 00:00:00 | 00:00:00 | 00:00:00 | |
| PETON7-10 | 2026-09-02 12:17:43 | 51.10773 | 17.54640 | 63° | 27km/h | 19508m | 6.0m/s | 0°C | 0% | 0hPa | 0V | 00:00:00 | 00:00:00 | 00:00:00 | |
| SQ6EMJ | 2026-09-02 12:17:41 | 51.10768 | 17.54620 | 78° | 26km/h | 19498m | 5.9m/s | 0°C | 0% | 0hPa | 0V | 00:00:00 | 00:00:00 | 00:00:00 | |
| KRY50SP | 2026-09-02 12:17:35 | 51.10755 | 17.54576 | 60° | 24km/h | 19469m | 6.1m/s | 0°C | 0% | 0hPa | 0V | 00:00:00 | 00:00:00 | 00:00:00 | |
| KRY50SP | 2026-09-02 12:17:30 | 51.10747 | 17.54509 | 77° | 31km/h | 19439m | 5.1m/s | 0°C | 0% | 0hPa | 0V | 00:00:00 | 00:00:00 | 00:00:00 | |
| PETON7-10 | 2026-09-02 12:17:28 | 51.10745 | 17.54497 | 74° | 20km/h | 19435m | 4.7m/s | 0°C | 0% | 0hPa | 0V | 00:00:00 | 00:00:00 | 00:00:00 | |
| KRY50SP | 2026-09-02 12:17:25 | 51.10734 | 17.54474 | 48° | 22km/h | 19416m | 5.4m/s | 0°C | 0% | 0hPa | 0V | 00:00:00 | 00:00:00 | 00:00:00 | |
| SQ6EMJ | 2026-09-02 12:17:19 | 51.10722 | 17.54426 | 81° | 18km/h | 19391m | 5.9m/s | 0°C | 0% | 0hPa | 0V | 00:00:00 | 00:00:00 | 00:00:00 | |
| KRY50SP | 2026-09-02 12:17:18 | 51.10721 | 17.54419 | 86° | 16km/h | 19386m | 4.2m/s | 0°C | 0% | 0hPa | 0V | 00:00:00 | 00:00:00 | 00:00:00 | |
| PETON7-10 | 2026-09-02 12:17:14 | 51.10715 | 17.54384 | 70° | 15km/h | 19362m | 4.0m/s | 0°C | 0% | 0hPa | 0V | 00:00:00 | 00:00:00 | 00:00:00 | |
| POL1PZ | 2026-09-02 12:17:10 | 51.10709 | 17.54362 | 66° | 22km/h | 19347m | 3.7m/s | 0°C | 0% | 0hPa | 0V | 00:00:00 | 00:00:00 | 00:00:00 | |
| SQ6EMJ | 2026-09-02 12:17:08 | 51.10707 | 17.54348 | 90° | 13km/h | 19337m | 6.3m/s | 0°C | 0% | 0hPa | 0V | 00:00:00 | 00:00:00 | 00:00:00 | |
| KRY50SP | 2026-09-02 12:17:07 | 51.10707 | 17.54343 | 113° | 13km/h | 19332m | 5.4m/s | 0°C | 0% | 0hPa | 0V | 00:00:00 | 00:00:00 | 00:00:00 | |
| SQ6EMJ | 2026-09-02 12:17:02 | 51.10709 | 17.54320 | 49° | 9km/h | 19307m | 4.0m/s | 0°C | 0% | 0hPa | 0V | 00:00:00 | 00:00:00 | 00:00:00 | |
| KRY50SP | 2026-09-02 12:16:58 | 51.10697 | 17.54294 | 54° | 9km/h | 19283m | 6.4m/s | 0°C | 0% | 0hPa | 0V | 00:00:00 | 00:00:00 | 00:00:00 | |
| SQ6EMJ | 2026-09-02 12:16:56 | 51.10696 | 17.54292 | 76° | 7km/h | 19278m | 3.9m/s | 0°C | 0% | 0hPa | 0V | 00:00:00 | 00:00:00 | 00:00:00 | |
| KRY50SP | 2026-09-02 12:16:52 | 51.10700 | 17.54275 | 72° | 7km/h | 19252m | 4.8m/s | 0°C | 0% | 0hPa | 0V | 00:00:00 | 00:00:00 | 00:00:00 | |
| SQ6EMJ | 2026-09-02 12:16:50 | 51.10698 | 17.54272 | 51° | 9km/h | 19247m | 5.3m/s | 0°C | 0% | 0hPa | 0V | 00:00:00 | 00:00:00 | 00:00:00 | |
| KRY50SP | 2026-09-02 12:16:45 | 51.10694 | 17.54247 | 100° | 9km/h | 19220m | 4.7m/s | 0°C | 0% | 0hPa | 0V | 00:00:00 | 00:00:00 | 00:00:00 | |
| SQ6EMJ | 2026-09-02 12:16:44 | 51.10694 | 17.54244 | 93° | 5km/h | 19215m | 5.6m/s | 0°C | 0% | 0hPa | 0V | 00:00:00 | 00:00:00 | 00:00:00 | |
| PETON7-10 | 2026-09-02 12:16:42 | 51.10694 | 17.54236 | 86° | 13km/h | 19206m | 2.8m/s | 0°C | 0% | 0hPa | 0V | 00:00:00 | 00:00:00 | 00:00:00 | |
| SQ6EMJ | 2026-09-02 12:16:41 | 51.10693 | 17.54227 | 60° | 5km/h | 19191m | 4.6m/s | 0°C | 0% | 0hPa | 0V | 00:00:00 | 00:00:00 | 00:00:00 | |
| POL1PZ | 2026-09-02 12:16:40 | 51.10692 | 17.54221 | 102° | 13km/h | 19180m | 5.3m/s | 0°C | 0% | 0hPa | 0V | 00:00:00 | 00:00:00 | 00:00:00 | |
| KRY50SP | 2026-09-02 12:16:34 | 51.10692 | 17.54203 | 91° | 11km/h | 19166m | 4.2m/s | 0°C | 0% | 0hPa | 0V | 00:00:00 | 00:00:00 | 00:00:00 | |
| SQ6EMJ | 2026-09-02 12:16:33 | 51.10693 | 17.54198 | 109° | 13km/h | 19162m | 4.3m/s | 0°C | 0% | 0hPa | 0V | 00:00:00 | 00:00:00 | 00:00:00 | |
| KRY50SP | 2026-09-02 12:16:28 | 51.10706 | 17.54177 | 118° | 4km/h | 19136m | 3.0m/s | 0°C | 0% | 0hPa | 0V | 00:00:00 | 00:00:00 | 00:00:00 | |
| PETON7-10 | 2026-09-02 12:16:27 | 51.10706 | 17.54176 | 136° | 16km/h | 19133m | 2.8m/s | 0°C | 0% | 0hPa | 0V | 00:00:00 | 00:00:00 | 00:00:00 | |
| KRY50SP | 2026-09-02 12:16:22 | 51.10717 | 17.54156 | 143° | 11km/h | 19108m | 4.9m/s | 0°C | 0% | 0hPa | 0V | 00:00:00 | 00:00:00 | 00:00:00 | |
| SQ6EMJ | 2026-09-02 12:16:21 | 51.10720 | 17.54153 | 144° | 11km/h | 19103m | 4.8m/s | 0°C | 0% | 0hPa | 0V | 00:00:00 | 00:00:00 | 00:00:00 | |
| KRY50SP | 2026-09-02 12:16:18 | 51.10730 | 17.54133 | 124° | 15km/h | 19083m | 5.7m/s | 0°C | 0% | 0hPa | 0V | 00:00:00 | 00:00:00 | 00:00:00 | |
| SQ6EMJ | 2026-09-02 12:16:16 | 51.10732 | 17.54128 | 113° | 18km/h | 19078m | 3.0m/s | 0°C | 0% | 0hPa | 0V | 00:00:00 | 00:00:00 | 00:00:00 | |
| SP3BTT-10 | 2026-09-02 12:16:15 | 51.10734 | 17.54121 | 117° | 31km/h | 19074m | 6.2m/s | 0°C | 0% | 0hPa | 0V | 00:00:00 | 00:00:00 | 00:00:00 | |
| POL1PZ | 2026-09-02 12:16:14 | 51.10737 | 17.54114 | 125° | 26km/h | 19068m | 5.1m/s | 0°C | 0% | 0hPa | 0V | 00:00:00 | 00:00:00 | 00:00:00 | |
| PETON7-10 | 2026-09-02 12:16:12 | 51.10744 | 17.54096 | 124° | 20km/h | 19058m | 6.6m/s | 0°C | 0% | 0hPa | 0V | 00:00:00 | 00:00:00 | 00:00:00 | |
| SQ6EMJ | 2026-09-02 12:16:11 | 51.10747 | 17.54090 | 128° | 16km/h | 19053m | 4.5m/s | 0°C | 0% | 0hPa | 0V | 00:00:00 | 00:00:00 | 00:00:00 | |
| KRY50SP | 2026-09-02 12:16:05 | 51.10764 | 17.54060 | 133° | 15km/h | 19025m | 4.5m/s | 0°C | 0% | 0hPa | 0V | 00:00:00 | 00:00:00 | 00:00:00 | |
| SQ6EMJ | 2026-09-02 12:16:00 | 51.10782 | 17.54023 | 111° | 20km/h | 18999m | 5.4m/s | 0°C | 0% | 0hPa | 0V | 00:00:00 | 00:00:00 | 00:00:00 | |
| PETON7-10 | 2026-09-02 12:15:57 | 51.10788 | 17.54002 | 121° | 26km/h | 18988m | 4.8m/s | 0°C | 0% | 0hPa | 0V | 00:00:00 | 00:00:00 | 00:00:00 | |
| KRY50SP | 2026-09-02 12:15:54 | 51.10800 | 17.53980 | 123° | 26km/h | 18974m | 5.0m/s | 0°C | 0% | 0hPa | 0V | 00:00:00 | 00:00:00 | 00:00:00 | |
| SQ6EMJ | 2026-09-02 12:15:49 | 51.10814 | 17.53927 | 126° | 29km/h | 18950m | 7.1m/s | 0°C | 0% | 0hPa | 0V | 00:00:00 | 00:00:00 | 00:00:00 | |
| POL1PZ | 2026-09-02 12:15:48 | 51.10818 | 17.53918 | 130° | 27km/h | 18944m | 4.6m/s | 0°C | 0% | 0hPa | 0V | 00:00:00 | 00:00:00 | 00:00:00 | |
| SQ6EMJ | 2026-09-02 12:15:44 | 51.10834 | 17.53875 | 128° | 31km/h | 18917m | 5.3m/s | 0°C | 0% | 0hPa | 0V | 00:00:00 | 00:00:00 | 00:00:00 | |
| KRY50SP | 2026-09-02 12:15:43 | 51.10834 | 17.53875 | 128° | 31km/h | 18917m | 5.3m/s | 0°C | 0% | 0hPa | 0V | 00:00:00 | 00:00:00 | 00:00:00 | |
| PETON7-10 | 2026-09-02 12:15:42 | 51.10839 | 17.53864 | 127° | 31km/h | 18912m | 3.8m/s | 0°C | 0% | 0hPa | 0V | 00:00:00 | 00:00:00 | 00:00:00 | |
| KRY50SP | 2026-09-02 12:15:37 | 51.10862 | 17.53801 | 124° | 27km/h | 18888m | 3.8m/s | 0°C | 0% | 0hPa | 0V | 00:00:00 | 00:00:00 | 00:00:00 | |
| KRY50SP | 2026-09-02 12:15:32 | 51.10880 | 17.53749 | 131° | 29km/h | 18861m | 4.6m/s | 0°C | 0% | 0hPa | 0V | 00:00:00 | 00:00:00 | 00:00:00 | |
| POL1PZ | 2026-09-02 12:15:28 | 51.10896 | 17.53696 | 107° | 40km/h | 18842m | 2.9m/s | 0°C | 0% | 0hPa | 0V | 00:00:00 | 00:00:00 | 00:00:00 | |
| SQ6EMJ | 2026-09-02 12:15:27 | 51.10901 | 17.53669 | 111° | 27km/h | 18833m | 5.0m/s | 0°C | 0% | 0hPa | 0V | 00:00:00 | 00:00:00 | 00:00:00 | |
| PETON7-10 | 2026-09-02 12:15:24 | 51.10907 | 17.53649 | 112° | 35km/h | 18824m | 5.0m/s | 0°C | 0% | 0hPa | 0V | 00:00:00 | 00:00:00 | 00:00:00 | |
| KRY50SP | 2026-09-02 12:15:21 | 51.10913 | 17.53613 | 107° | 33km/h | 18810m | 5.5m/s | 0°C | 0% | 0hPa | 0V | 00:00:00 | 00:00:00 | 00:00:00 | |
| SQ6EMJ | 2026-09-02 12:15:20 | 51.10915 | 17.53600 | 104° | 31km/h | 18804m | 5.3m/s | 0°C | 0% | 0hPa | 0V | 00:00:00 | 00:00:00 | 00:00:00 | |
| KRY50SP | 2026-09-02 12:15:17 | 51.10925 | 17.53541 | 111° | 40km/h | 18785m | 4.0m/s | 0°C | 0% | 0hPa | 0V | 00:00:00 | 00:00:00 | 00:00:00 | |
| SQ6EMJ | 2026-09-02 12:15:14 | 51.10933 | 17.53515 | 121° | 31km/h | 18776m | 5.8m/s | 0°C | 0% | 0hPa | 0V | 00:00:00 | 00:00:00 | 00:00:00 | |
| KRY50SP | 2026-09-02 12:15:10 | 51.10951 | 17.53468 | 111° | 38km/h | 18756m | 4.5m/s | 0°C | 0% | 0hPa | 0V | 00:00:00 | 00:00:00 | 00:00:00 | |
| SP3BTT-10 | 2026-09-02 12:15:09 | 51.10954 | 17.53453 | 103° | 35km/h | 18751m | 5.2m/s | 0°C | 0% | 0hPa | 0V | 00:00:00 | 00:00:00 | 00:00:00 | |
| SQ6EMJ | 2026-09-02 12:15:08 | 51.10955 | 17.53438 | 95° | 37km/h | 18745m | 5.4m/s | 0°C | 0% | 0hPa | 0V | 00:00:00 | 00:00:00 | 00:00:00 | |
| PETON7-10 | 2026-09-02 12:15:07 | 51.10956 | 17.53424 | 93° | 31km/h | 18740m | 4.1m/s | 0°C | 0% | 0hPa | 0V | 00:00:00 | 00:00:00 | 00:00:00 | |
| KRY50SP | 2026-09-02 12:15:04 | 51.10962 | 17.53382 | 111° | 37km/h | 18726m | 3.1m/s | 0°C | 0% | 0hPa | 0V | 00:00:00 | 00:00:00 | 00:00:00 | |
| KRY50SP | 2026-09-02 12:14:59 | 51.10966 | 17.53319 | 99° | 24km/h | 18700m | 5.6m/s | 0°C | 0% | 0hPa | 0V | 00:00:00 | 00:00:00 | 00:00:00 | |
| SQ6EMJ | 2026-09-02 12:14:57 | 51.10970 | 17.53298 | 107° | 31km/h | 18691m | 4.3m/s | 0°C | 0% | 0hPa | 0V | 00:00:00 | 00:00:00 | 00:00:00 | |
| KRY50SP | 2026-09-02 12:14:54 | 51.10971 | 17.53259 | 89° | 31km/h | 18676m | 4.2m/s | 0°C | 0% | 0hPa | 0V | 00:00:00 | 00:00:00 | 00:00:00 | |
| SQ6EMJ | 2026-09-02 12:14:51 | 51.10970 | 17.53224 | 85° | 27km/h | 18663m | 3.4m/s | 0°C | 0% | 0hPa | 0V | 00:00:00 | 00:00:00 | 00:00:00 | |
| PETON7-10 | 2026-09-02 12:14:50 | 51.10969 | 17.53211 | 85° | 33km/h | 18658m | 6.1m/s | 0°C | 0% | 0hPa | 0V | 00:00:00 | 00:00:00 | 00:00:00 | |
| KRY50SP | 2026-09-02 12:14:48 | 51.10967 | 17.53183 | 87° | 35km/h | 18648m | 4.2m/s | 0°C | 0% | 0hPa | 0V | 00:00:00 | 00:00:00 | 00:00:00 | |
| POL1PZ | 2026-09-02 12:14:46 | 51.10968 | 17.53157 | 100° | 29km/h | 18639m | 4.1m/s | 0°C | 0% | 0hPa | 0V | 00:00:00 | 00:00:00 | 00:00:00 | |
| KRY50SP | 2026-09-02 12:14:43 | 51.10969 | 17.53119 | 82° | 35km/h | 18624m | 4.3m/s | 0°C | 0% | 0hPa | 0V | 00:00:00 | 00:00:00 | 00:00:00 | |
| SQ6EMJ | 2026-09-02 12:14:40 | 51.10961 | 17.53084 | 56° | 29km/h | 18608m | 4.8m/s | 0°C | 0% | 0hPa | 0V | 00:00:00 | 00:00:00 | 00:00:00 | |
| KRY50SP | 2026-09-02 12:14:37 | 51.10948 | 17.53052 | 72° | 27km/h | 18593m | 5.3m/s | 0°C | 0% | 0hPa | 0V | 00:00:00 | 00:00:00 | 00:00:00 | |
| SQ6EMJ | 2026-09-02 12:14:35 | 51.10948 | 17.53018 | 103° | 33km/h | 18581m | 4.0m/s | 0°C | 0% | 0hPa | 0V | 00:00:00 | 00:00:00 | 00:00:00 | |
| SQ6EMJ | 2026-09-02 12:14:29 | 51.10934 | 17.52952 | 50° | 29km/h | 18557m | 4.4m/s | 0°C | 0% | 0hPa | 0V | 00:00:00 | 00:00:00 | 00:00:00 | |
| KRY50SP | 2026-09-02 12:14:27 | 51.10925 | 17.52934 | 54° | 33km/h | 18547m | 4.9m/s | 0°C | 0% | 0hPa | 0V | 00:00:00 | 00:00:00 | 00:00:00 | |
| POL1PZ | 2026-09-02 12:14:26 | 51.10920 | 17.52922 | 60° | 35km/h | 18542m | 5.3m/s | 0°C | 0% | 0hPa | 0V | 00:00:00 | 00:00:00 | 00:00:00 | |
| SP3BTT-10 | 2026-09-02 12:14:24 | 51.10912 | 17.52897 | 65° | 31km/h | 18532m | 5.0m/s | 0°C | 0% | 0hPa | 0V | 00:00:00 | 00:00:00 | 00:00:00 | |
| KRY50SP | 2026-09-02 12:14:22 | 51.10906 | 17.52875 | 75° | 27km/h | 18523m | 3.5m/s | 0°C | 0% | 0hPa | 0V | 00:00:00 | 00:00:00 | 00:00:00 | |
| PETON7-10 | 2026-09-02 12:14:20 | 51.10901 | 17.52850 | 71° | 42km/h | 18513m | 5.6m/s | 0°C | 0% | 0hPa | 0V | 00:00:00 | 00:00:00 | 00:00:00 | |
| SQ6EMJ | 2026-09-02 12:14:18 | 51.10892 | 17.52823 | 58° | 40km/h | 18503m | 6.1m/s | 0°C | 0% | 0hPa | 0V | 00:00:00 | 00:00:00 | 00:00:00 | |
| KRY50SP | 2026-09-02 12:14:17 | 51.10886 | 17.52810 | 54° | 42km/h | 18499m | 3.9m/s | 0°C | 0% | 0hPa | 0V | 00:00:00 | 00:00:00 | 00:00:00 | |
| SQ6EMJ | 2026-09-02 12:14:13 | 51.10858 | 17.52754 | 55° | 38km/h | 18479m | 5.3m/s | 0°C | 0% | 0hPa | 0V | 00:00:00 | 00:00:00 | 00:00:00 | |
| KRY50SP | 2026-09-02 12:14:11 | 51.10847 | 17.52730 | 57° | 35km/h | 18469m | 5.1m/s | 0°C | 0% | 0hPa | 0V | 00:00:00 | 00:00:00 | 00:00:00 | |
| SQ6EMJ | 2026-09-02 12:14:07 | 51.10829 | 17.52683 | 58° | 29km/h | 18448m | 5.3m/s | 0°C | 0% | 0hPa | 0V | 00:00:00 | 00:00:00 | 00:00:00 | |
| POL1PZ | 2026-09-02 12:14:06 | 51.10825 | 17.52673 | 55° | 29km/h | 18443m | 4.3m/s | 0°C | 0% | 0hPa | 0V | 00:00:00 | 00:00:00 | 00:00:00 | |
| PETON7-10 | 2026-09-02 12:14:05 | 51.10821 | 17.52663 | 58° | 33km/h | 18439m | 4.6m/s | 0°C | 0% | 0hPa | 0V | 00:00:00 | 00:00:00 | 00:00:00 | |
| SQ6EMJ | 2026-09-02 12:14:02 | 51.10805 | 17.52627 | 57° | 37km/h | 18423m | 4.9m/s | 0°C | 0% | 0hPa | 0V | 00:00:00 | 00:00:00 | 00:00:00 | |
| KRY50SP | 2026-09-02 12:13:59 | 51.10791 | 17.52595 | 57° | 31km/h | 18409m | 5.2m/s | 0°C | 0% | 0hPa | 0V | 00:00:00 | 00:00:00 | 00:00:00 | |
| SQ6EMJ | 2026-09-02 12:13:56 | 51.10776 | 17.52565 | 48° | 29km/h | 18394m | 6.8m/s | 0°C | 0% | 0hPa | 0V | 00:00:00 | 00:00:00 | 00:00:00 | |
| KRY50SP | 2026-09-02 12:13:53 | 51.10760 | 17.52537 | 58° | 33km/h | 18379m | 5.0m/s | 0°C | 0% | 0hPa | 0V | 00:00:00 | 00:00:00 | 00:00:00 | |
| SQ6EMJ | 2026-09-02 12:13:51 | 51.10752 | 17.52516 | 60° | 29km/h | 18370m | 5.6m/s | 0°C | 0% | 0hPa | 0V | 00:00:00 | 00:00:00 | 00:00:00 | |
| PETON7-10 | 2026-09-02 12:13:49 | 51.10744 | 17.52498 | 48° | 27km/h | 18361m | 3.5m/s | 0°C | 0% | 0hPa | 0V | 00:00:00 | 00:00:00 | 00:00:00 | |
| KRY50SP | 2026-09-02 12:13:47 | 51.10735 | 17.52479 | 55° | 35km/h | 18351m | 4.7m/s | 0°C | 0% | 0hPa | 0V | 00:00:00 | 00:00:00 | 00:00:00 | |
| SQ6EMJ | 2026-09-02 12:13:45 | 51.10725 | 17.52457 | 45° | 29km/h | 18341m | 5.9m/s | 0°C | 0% | 0hPa | 0V | 00:00:00 | 00:00:00 | 00:00:00 | |
| POL1PZ | 2026-09-02 12:13:43 | 51.10715 | 17.52443 | 50° | 24km/h | 18330m | 4.8m/s | 0°C | 0% | 0hPa | 0V | 00:00:00 | 00:00:00 | 00:00:00 | |
| KRY50SP | 2026-09-02 12:13:41 | 51.10708 | 17.52424 | 63° | 27km/h | 18320m | 3.0m/s | 0°C | 0% | 0hPa | 0V | 00:00:00 | 00:00:00 | 00:00:00 | |
| SQ6EMJ | 2026-09-02 12:13:39 | 51.10703 | 17.52406 | 60° | 24km/h | 18310m | 5.0m/s | 0°C | 0% | 0hPa | 0V | 00:00:00 | 00:00:00 | 00:00:00 | |
| KRY50SP | 2026-09-02 12:13:35 | 51.10687 | 17.52367 | 53° | 26km/h | 18290m | 5.6m/s | 0°C | 0% | 0hPa | 0V | 00:00:00 | 00:00:00 | 00:00:00 | |
| SQ6EMJ | 2026-09-02 12:13:33 | 51.10678 | 17.52353 | 49° | 22km/h | 18280m | 4.6m/s | 0°C | 0% | 0hPa | 0V | 00:00:00 | 00:00:00 | 00:00:00 | |
| PETON7-10 | 2026-09-02 12:13:32 | 51.10675 | 17.52346 | 63° | 24km/h | 18275m | 4.5m/s | 0°C | 0% | 0hPa | 0V | 00:00:00 | 00:00:00 | 00:00:00 | |
| KRY50SP | 2026-09-02 12:13:30 | 51.10671 | 17.52328 | 73° | 26km/h | 18265m | 4.5m/s | 0°C | 0% | 0hPa | 0V | 00:00:00 | 00:00:00 | 00:00:00 | |
| SQ6EMJ | 2026-09-02 12:13:27 | 51.10662 | 17.52298 | 66° | 31km/h | 18253m | 6.3m/s | 0°C | 0% | 0hPa | 0V | 00:00:00 | 00:00:00 | 00:00:00 | |
| KRY50SP | 2026-09-02 12:13:24 | 51.10651 | 17.52269 | 40° | 22km/h | 18238m | 6.6m/s | 0°C | 0% | 0hPa | 0V | 00:00:00 | 00:00:00 | 00:00:00 | |
| POL1PZ | 2026-09-02 12:13:21 | 51.10642 | 17.52255 | 59° | 22km/h | 18222m | 5.1m/s | 0°C | 0% | 0hPa | 0V | 00:00:00 | 00:00:00 | 00:00:00 | |
| KRY50SP | 2026-09-02 12:13:18 | 51.10633 | 17.52229 | 59° | 26km/h | 18209m | 5.4m/s | 0°C | 0% | 0hPa | 0V | 00:00:00 | 00:00:00 | 00:00:00 | |
| PETON7-10 | 2026-09-02 12:13:17 | 51.10629 | 17.52220 | 58° | 22km/h | 18204m | 4.6m/s | 0°C | 0% | 0hPa | 0V | 00:00:00 | 00:00:00 | 00:00:00 | |
| SQ6EMJ | 2026-09-02 12:13:16 | 51.10626 | 17.52210 | 64° | 27km/h | 18199m | 4.4m/s | 0°C | 0% | 0hPa | 0V | 00:00:00 | 00:00:00 | 00:00:00 | |
| KRY50SP | 2026-09-02 12:13:14 | 51.10621 | 17.52180 | 82° | 26km/h | 18185m | 5.0m/s | 0°C | 0% | 0hPa | 0V | 00:00:00 | 00:00:00 | 00:00:00 | |
| SQ6EMJ | 2026-09-02 12:13:10 | 51.10614 | 17.52159 | 51° | 18km/h | 18166m | 5.9m/s | 0°C | 0% | 0hPa | 0V | 00:00:00 | 00:00:00 | 00:00:00 | |
| OM5KV | 2026-09-02 12:13:08 | 51.10610 | 17.52149 | 72° | 13km/h | 18155m | 5.0m/s | 0°C | 0% | 0hPa | 0V | 00:00:00 | 00:00:00 | 00:00:00 | |
| SQ6EMJ | 2026-09-02 12:13:04 | 51.10606 | 17.52119 | 90° | 26km/h | 18135m | 6.7m/s | 0°C | 0% | 0hPa | 0V | 00:00:00 | 00:00:00 | 00:00:00 | |
| KRY50SP | 2026-09-02 12:13:03 | 51.10606 | 17.52108 | 93° | 29km/h | 18129m | 5.0m/s | 0°C | 0% | 0hPa | 0V | 00:00:00 | 00:00:00 | 00:00:00 | |
| PETON7-10 | 2026-09-02 12:13:02 | 51.10606 | 17.52097 | 85° | 24km/h | 18125m | 3.6m/s | 0°C | 0% | 0hPa | 0V | 00:00:00 | 00:00:00 | 00:00:00 | |
| SQ6EMJ | 2026-09-02 12:12:59 | 51.10599 | 17.52075 | 45° | 15km/h | 18109m | 5.9m/s | 0°C | 0% | 0hPa | 0V | 00:00:00 | 00:00:00 | 00:00:00 | |
| POL1PZ | 2026-09-02 12:12:58 | 51.10597 | 17.52071 | 83° | 11km/h | 18103m | 5.3m/s | 0°C | 0% | 0hPa | 0V | 00:00:00 | 00:00:00 | 00:00:00 | |
| SQ6EMJ | 2026-09-02 12:12:53 | 51.10595 | 17.52026 | 87° | 31km/h | 18079m | 5.8m/s | 0°C | 0% | 0hPa | 0V | 00:00:00 | 00:00:00 | 00:00:00 | |
| OM5KV | 2026-09-02 12:12:52 | 51.10595 | 17.52014 | 102° | 29km/h | 18073m | 5.9m/s | 0°C | 0% | 0hPa | 0V | 00:00:00 | 00:00:00 | 00:00:00 | |
| SQ6EMJ | 2026-09-02 12:12:47 | 51.10597 | 17.51964 | 90° | 22km/h | 18050m | 4.4m/s | 0°C | 0% | 0hPa | 0V | 00:00:00 | 00:00:00 | 00:00:00 | |
| PETON7-10 | 2026-09-02 12:12:46 | 51.10597 | 17.51954 | 95° | 29km/h | 18047m | 3.8m/s | 0°C | 0% | 0hPa | 0V | 00:00:00 | 00:00:00 | 00:00:00 | |
| OM5KV | 2026-09-02 12:12:45 | 51.10597 | 17.51943 | 87° | 31km/h | 18042m | 3.8m/s | 0°C | 0% | 0hPa | 0V | 00:00:00 | 00:00:00 | 00:00:00 | |
| SQ6EMJ | 2026-09-02 12:12:41 | 51.10594 | 17.51896 | 106° | 24km/h | 18023m | 6.6m/s | 0°C | 0% | 0hPa | 0V | 00:00:00 | 00:00:00 | 00:00:00 | |
| KRY50SP | 2026-09-02 12:12:38 | 51.10600 | 17.51871 | 110° | 22km/h | 18007m | 5.2m/s | 0°C | 0% | 0hPa | 0V | 00:00:00 | 00:00:00 | 00:00:00 | |
| POL1PZ | 2026-09-02 12:12:37 | 51.10602 | 17.51849 | 100° | 33km/h | 17998m | 6.1m/s | 0°C | 0% | 0hPa | 0V | 00:00:00 | 00:00:00 | 00:00:00 | |
| SQ6EMJ | 2026-09-02 12:12:35 | 51.10603 | 17.51835 | 97° | 40km/h | 17993m | 3.6m/s | 0°C | 0% | 0hPa | 0V | 00:00:00 | 00:00:00 | 00:00:00 | |
| OM5KV | 2026-09-02 12:12:34 | 51.10604 | 17.51819 | 97° | 38km/h | 17988m | 5.5m/s | 0°C | 0% | 0hPa | 0V | 00:00:00 | 00:00:00 | 00:00:00 | |
| OM5KV | 2026-09-02 12:12:33 | 51.10606 | 17.51804 | 95° | 33km/h | 17983m | 4.5m/s | 0°C | 0% | 0hPa | 0V | 00:00:00 | 00:00:00 | 00:00:00 | |
| KRY50SP | 2026-09-02 12:12:32 | 51.10606 | 17.51790 | 90° | 35km/h | 17979m | 3.8m/s | 0°C | 0% | 0hPa | 0V | 00:00:00 | 00:00:00 | 00:00:00 | |
| PETON7-10 | 2026-09-02 12:12:31 | 51.10606 | 17.51776 | 93° | 38km/h | 17975m | 4.8m/s | 0°C | 0% | 0hPa | 0V | 00:00:00 | 00:00:00 | 00:00:00 | |
| SQ6EMJ | 2026-09-02 12:12:29 | 51.10606 | 17.51742 | 89° | 46km/h | 17966m | 3.5m/s | 0°C | 0% | 0hPa | 0V | 00:00:00 | 00:00:00 | 00:00:00 | |
| OM5KV | 2026-09-02 12:12:28 | 51.10605 | 17.51725 | 86° | 38km/h | 17961m | 5.8m/s | 0°C | 0% | 0hPa | 0V | 00:00:00 | 00:00:00 | 00:00:00 | |
| KRY50SP | 2026-09-02 12:12:27 | 51.10604 | 17.51711 | 76° | 31km/h | 17955m | 5.1m/s | 0°C | 0% | 0hPa | 0V | 00:00:00 | 00:00:00 | 00:00:00 | |
| SQ6EMJ | 2026-09-02 12:12:23 | 51.10596 | 17.51657 | 79° | 40km/h | 17937m | 3.7m/s | 0°C | 0% | 0hPa | 0V | 00:00:00 | 00:00:00 | 00:00:00 | |
| OM5KV | 2026-09-02 12:12:22 | 51.10594 | 17.51642 | 76° | 37km/h | 17933m | 5.3m/s | 0°C | 0% | 0hPa | 0V | 00:00:00 | 00:00:00 | 00:00:00 | |
| KRY50SP | 2026-09-02 12:12:21 | 51.10592 | 17.51628 | 80° | 35km/h | 17928m | 4.3m/s | 0°C | 0% | 0hPa | 0V | 00:00:00 | 00:00:00 | 00:00:00 | |
| OM5KV | 2026-09-02 12:12:20 | 51.10590 | 17.51613 | 86° | 40km/h | 17923m | 4.7m/s | 0°C | 0% | 0hPa | 0V | 00:00:00 | 00:00:00 | 00:00:00 | |
| SQ6EMJ | 2026-09-02 12:12:17 | 51.10586 | 17.51560 | 79° | 42km/h | 17909m | 5.3m/s | 0°C | 0% | 0hPa | 0V | 00:00:00 | 00:00:00 | 00:00:00 | |
| PETON7-10 | 2026-09-02 12:12:15 | 51.10581 | 17.51530 | 78° | 44km/h | 17900m | 4.7m/s | 0°C | 0% | 0hPa | 0V | 00:00:00 | 00:00:00 | 00:00:00 | |
| OM5KV | 2026-09-02 12:12:14 | 51.10579 | 17.51514 | 78° | 42km/h | 17895m | 4.7m/s | 0°C | 0% | 0hPa | 0V | 00:00:00 | 00:00:00 | 00:00:00 | |
| SQ6EMJ | 2026-09-02 12:12:12 | 51.10573 | 17.51482 | 73° | 40km/h | 17887m | 5.4m/s | 0°C | 0% | 0hPa | 0V | 00:00:00 | 00:00:00 | 00:00:00 | |
| KRY50SP | 2026-09-02 12:12:09 | 51.10566 | 17.51433 | 78° | 49km/h | 17871m | 5.7m/s | 0°C | 0% | 0hPa | 0V | 00:00:00 | 00:00:00 | 00:00:00 | |
| OM5KV | 2026-09-02 12:12:08 | 51.10564 | 17.51412 | 77° | 53km/h | 17866m | 3.1m/s | 0°C | 0% | 0hPa | 0V | 00:00:00 | 00:00:00 | 00:00:00 | |
| SQ6EMJ | 2026-09-02 12:12:07 | 51.10560 | 17.51392 | 73° | 49km/h | 17862m | 4.0m/s | 0°C | 0% | 0hPa | 0V | 00:00:00 | 00:00:00 | 00:00:00 | |
| KRY50SP | 2026-09-02 12:12:04 | 51.10547 | 17.51340 | 68° | 46km/h | 17848m | 5.5m/s | 0°C | 0% | 0hPa | 0V | 00:00:00 | 00:00:00 | 00:00:00 | |
| OM5KV | 2026-09-02 12:12:03 | 51.10543 | 17.51323 | 76° | 42km/h | 17844m | 4.0m/s | 0°C | 0% | 0hPa | 0V | 00:00:00 | 00:00:00 | 00:00:00 | |
| OM5KV | 2026-09-02 12:12:01 | 51.10540 | 17.51291 | 87° | 38km/h | 17835m | 5.0m/s | 0°C | 0% | 0hPa | 0V | 00:00:00 | 00:00:00 | 00:00:00 | |
| PETON7-10 | 2026-09-02 12:12:00 | 51.10539 | 17.51276 | 79° | 38km/h | 17830m | 4.5m/s | 0°C | 0% | 0hPa | 0V | 00:00:00 | 00:00:00 | 00:00:00 | |
| KRY50SP | 2026-09-02 12:11:58 | 51.10535 | 17.51242 | 80° | 44km/h | 17822m | 5.6m/s | 0°C | 0% | 0hPa | 0V | 00:00:00 | 00:00:00 | 00:00:00 | |
| SQ6EMJ | 2026-09-02 12:11:56 | 51.10532 | 17.51206 | 79° | 47km/h | 17813m | 3.6m/s | 0°C | 0% | 0hPa | 0V | 00:00:00 | 00:00:00 | 00:00:00 | |
| OM5KV | 2026-09-02 12:11:55 | 51.10529 | 17.51188 | 74° | 44km/h | 17809m | 6.0m/s | 0°C | 0% | 0hPa | 0V | 00:00:00 | 00:00:00 | 00:00:00 | |
| KRY50SP | 2026-09-02 12:11:52 | 51.10521 | 17.51144 | 86° | 35km/h | 17794m | 6.5m/s | 0°C | 0% | 0hPa | 0V | 00:00:00 | 00:00:00 | 00:00:00 | |
| OM5KV | 2026-09-02 12:11:50 | 51.10520 | 17.51118 | 88° | 31km/h | 17783m | 5.2m/s | 0°C | 0% | 0hPa | 0V | 00:00:00 | 00:00:00 | 00:00:00 | |
| OM5KV | 2026-09-02 12:11:49 | 51.10519 | 17.51105 | 86° | 33km/h | 17779m | 3.5m/s | 0°C | 0% | 0hPa | 0V | 00:00:00 | 00:00:00 | 00:00:00 | |
| KRY50SP | 2026-09-02 12:11:47 | 51.10520 | 17.51076 | 99° | 42km/h | 17771m | 5.7m/s | 0°C | 0% | 0hPa | 0V | 00:00:00 | 00:00:00 | 00:00:00 | |
| PETON7-10 | 2026-09-02 12:11:45 | 51.10521 | 17.51042 | 87° | 35km/h | 17761m | 4.9m/s | 0°C | 0% | 0hPa | 0V | 00:00:00 | 00:00:00 | 00:00:00 | |
| OM5KV | 2026-09-02 12:11:42 | 51.10516 | 17.51003 | 91° | 27km/h | 17747m | 3.7m/s | 0°C | 0% | 0hPa | 0V | 00:00:00 | 00:00:00 | 00:00:00 | |
| SQ6EMJ | 2026-09-02 12:11:41 | 51.10517 | 17.50976 | 96° | 42km/h | 17737m | 4.1m/s | 0°C | 0% | 0hPa | 0V | 00:00:00 | 00:00:00 | 00:00:00 | |
| OM5KV | 2026-09-02 12:11:40 | 51.10518 | 17.50958 | 92° | 47km/h | 17733m | 4.0m/s | 0°C | 0% | 0hPa | 0V | 00:00:00 | 00:00:00 | 00:00:00 | |
| OM5KV | 2026-09-02 12:11:37 | 51.10518 | 17.50924 | 94° | 40km/h | 17724m | 5.9m/s | 0°C | 0% | 0hPa | 0V | 00:00:00 | 00:00:00 | 00:00:00 | |
| KRY50SP | 2026-09-02 12:11:36 | 51.10519 | 17.50908 | 103° | 38km/h | 17718m | 5.2m/s | 0°C | 0% | 0hPa | 0V | 00:00:00 | 00:00:00 | 00:00:00 | |
| SQ6EMJ | 2026-09-02 12:11:34 | 51.10522 | 17.50880 | 98° | 33km/h | 17708m | 6.0m/s | 0°C | 0% | 0hPa | 0V | 00:00:00 | 00:00:00 | 00:00:00 | |
| KRY50SP | 2026-09-02 12:11:31 | 51.10520 | 17.50842 | 91° | 31km/h | 17695m | 5.8m/s | 0°C | 0% | 0hPa | 0V | 00:00:00 | 00:00:00 | 00:00:00 | |
| PETON7-10 | 2026-09-02 12:11:29 | 51.10521 | 17.50813 | 95° | 40km/h | 17686m | 2.5m/s | 0°C | 0% | 0hPa | 0V | 00:00:00 | 00:00:00 | 00:00:00 | |
| SQ6EMJ | 2026-09-02 12:11:28 | 51.10522 | 17.50796 | 92° | 44km/h | 17682m | 5.9m/s | 0°C | 0% | 0hPa | 0V | 00:00:00 | 00:00:00 | 00:00:00 | |
| OM5KV | 2026-09-02 12:11:27 | 51.10522 | 17.50779 | 89° | 44km/h | 17677m | 4.4m/s | 0°C | 0% | 0hPa | 0V | 00:00:00 | 00:00:00 | 00:00:00 | |
| OM5KV | 2026-09-02 12:11:26 | 51.10521 | 17.50761 | 89° | 40km/h | 17673m | 3.6m/s | 0°C | 0% | 0hPa | 0V | 00:00:00 | 00:00:00 | 00:00:00 | |
| KRY50SP | 2026-09-02 12:11:25 | 51.10522 | 17.50746 | 98° | 38km/h | 17669m | 6.0m/s | 0°C | 0% | 0hPa | 0V | 00:00:00 | 00:00:00 | 00:00:00 | |
| OM5KV | 2026-09-02 12:11:22 | 51.10526 | 17.50699 | 95° | 40km/h | 17655m | 5.9m/s | 0°C | 0% | 0hPa | 0V | 00:00:00 | 00:00:00 | 00:00:00 | |
| OM5KV | 2026-09-02 12:11:20 | 51.10525 | 17.50669 | 79° | 35km/h | 17645m | 5.9m/s | 0°C | 0% | 0hPa | 0V | 00:00:00 | 00:00:00 | 00:00:00 | |
| OM5KV | 2026-09-02 12:11:16 | 51.10515 | 17.50601 | 82° | 46km/h | 17625m | 3.4m/s | 0°C | 0% | 0hPa | 0V | 00:00:00 | 00:00:00 | 00:00:00 | |
| KRY50SP | 2026-09-02 12:11:14 | 51.10514 | 17.50569 | 99° | 35km/h | 17616m | 4.5m/s | 0°C | 0% | 0hPa | 0V | 00:00:00 | 00:00:00 | 00:00:00 | |
| PETON7-10 | 2026-09-02 12:11:13 | 51.10515 | 17.50555 | 100° | 37km/h | 17612m | 2.5m/s | 0°C | 0% | 0hPa | 0V | 00:00:00 | 00:00:00 | 00:00:00 | |
| SQ6EMJ | 2026-09-02 12:11:11 | 51.10517 | 17.50523 | 92° | 46km/h | 17604m | 4.5m/s | 0°C | 0% | 0hPa | 0V | 00:00:00 | 00:00:00 | 00:00:00 | |
| OM5KV | 2026-09-02 12:11:10 | 51.10516 | 17.50504 | 87° | 47km/h | 17600m | 3.6m/s | 0°C | 0% | 0hPa | 0V | 00:00:00 | 00:00:00 | 00:00:00 | |
| OM5KV | 2026-09-02 12:11:09 | 51.10516 | 17.50487 | 91° | 42km/h | 17595m | 7.1m/s | 0°C | 0% | 0hPa | 0V | 00:00:00 | 00:00:00 | 00:00:00 | |
| SQ6EMJ | 2026-09-02 12:11:06 | 51.10515 | 17.50445 | 91° | 33km/h | 17579m | 6.3m/s | 0°C | 0% | 0hPa | 0V | 00:00:00 | 00:00:00 | 00:00:00 | |
| KRY50SP | 2026-09-02 12:11:03 | 51.10514 | 17.50404 | 87° | 35km/h | 17566m | 5.3m/s | 0°C | 0% | 0hPa | 0V | 00:00:00 | 00:00:00 | 00:00:00 | |
| SQ6EMJ | 2026-09-02 12:11:00 | 51.10512 | 17.50365 | 90° | 37km/h | 17552m | 6.0m/s | 0°C | 0% | 0hPa | 0V | 00:00:00 | 00:00:00 | 00:00:00 | |
| OM5KV | 2026-09-02 12:10:59 | 51.10512 | 17.50350 | 87° | 35km/h | 17547m | 5.1m/s | 0°C | 0% | 0hPa | 0V | 00:00:00 | 00:00:00 | 00:00:00 | |
| PETON7-10 | 2026-09-02 12:10:58 | 51.10511 | 17.50336 | 87° | 29km/h | 17541m | 6.3m/s | 0°C | 0% | 0hPa | 0V | 00:00:00 | 00:00:00 | 00:00:00 | |
| OM5KV | 2026-09-02 12:10:56 | 51.10510 | 17.50311 | 85° | 27km/h | 17531m | 4.4m/s | 0°C | 0% | 0hPa | 0V | 00:00:00 | 00:00:00 | 00:00:00 | |
| SQ6EMJ | 2026-09-02 12:10:54 | 51.10510 | 17.50288 | 92° | 29km/h | 17522m | 4.5m/s | 0°C | 0% | 0hPa | 0V | 00:00:00 | 00:00:00 | 00:00:00 | |
| OM5KV | 2026-09-02 12:10:52 | 51.10509 | 17.50266 | 86° | 26km/h | 17513m | 4.9m/s | 0°C | 0% | 0hPa | 0V | 00:00:00 | 00:00:00 | 00:00:00 | |
| SP3BTT-10 | 2026-09-02 12:10:51 | 51.10509 | 17.50255 | 84° | 40km/h | 17509m | 2.6m/s | 0°C | 0% | 0hPa | 0V | 00:00:00 | 00:00:00 | 00:00:00 | |
| OM5KV | 2026-09-02 12:10:50 | 51.10508 | 17.50243 | 90° | 33km/h | 17505m | 6.1m/s | 0°C | 0% | 0hPa | 0V | 00:00:00 | 00:00:00 | 00:00:00 | |
| POL1PZ | 2026-09-02 12:10:48 | 51.10509 | 17.50216 | 95° | 35km/h | 17495m | 6.5m/s | 0°C | 0% | 0hPa | 0V | 00:00:00 | 00:00:00 | 00:00:00 | |
| OM5KV | 2026-09-02 12:10:47 | 51.10510 | 17.50203 | 100° | 31km/h | 17489m | 5.5m/s | 0°C | 0% | 0hPa | 0V | 00:00:00 | 00:00:00 | 00:00:00 | |
| KRY50SP | 2026-09-02 12:10:46 | 51.10511 | 17.50191 | 99° | 29km/h | 17484m | 3.4m/s | 0°C | 0% | 0hPa | 0V | 00:00:00 | 00:00:00 | 00:00:00 | |
| OM5KV | 2026-09-02 12:10:44 | 51.10515 | 17.50169 | 103° | 31km/h | 17474m | 5.2m/s | 0°C | 0% | 0hPa | 0V | 00:00:00 | 00:00:00 | 00:00:00 | |
| PETON7-10 | 2026-09-02 12:10:43 | 51.10517 | 17.50157 | 113° | 29km/h | 17469m | 4.1m/s | 0°C | 0% | 0hPa | 0V | 00:00:00 | 00:00:00 | 00:00:00 | |
| SQ6EMJ | 2026-09-02 12:10:42 | 51.10519 | 17.50145 | 104° | 29km/h | 17465m | 3.9m/s | 0°C | 0% | 0hPa | 0V | 00:00:00 | 00:00:00 | 00:00:00 | |
| KRY50SP | 2026-09-02 12:10:41 | 51.10521 | 17.50133 | 96° | 31km/h | 17461m | 3.5m/s | 0°C | 0% | 0hPa | 0V | 00:00:00 | 00:00:00 | 00:00:00 | |
| SQ6EMJ | 2026-09-02 12:10:37 | 51.10525 | 17.50081 | 95° | 29km/h | 17445m | 5.1m/s | 0°C | 0% | 0hPa | 0V | 00:00:00 | 00:00:00 | 00:00:00 | |
| KRY50SP | 2026-09-02 12:10:35 | 51.10528 | 17.50063 | 122° | 22km/h | 17435m | 4.8m/s | 0°C | 0% | 0hPa | 0V | 00:00:00 | 00:00:00 | 00:00:00 | |
| OM5KV | 2026-09-02 12:10:32 | 51.10541 | 17.50038 | 129° | 26km/h | 17422m | 5.8m/s | 0°C | 0% | 0hPa | 0V | 00:00:00 | 00:00:00 | 00:00:00 | |
| KRY50SP | 2026-09-02 12:10:29 | 51.10549 | 17.50009 | 113° | 31km/h | 17407m | 5.0m/s | 0°C | 0% | 0hPa | 0V | 00:00:00 | 00:00:00 | 00:00:00 | |
| PETON7-10 | 2026-09-02 12:10:28 | 51.10552 | 17.49996 | 104° | 35km/h | 17402m | 3.5m/s | 0°C | 0% | 0hPa | 0V | 00:00:00 | 00:00:00 | 00:00:00 | |
| POL1PZ | 2026-09-02 12:10:26 | 51.10555 | 17.49971 | 96° | 29km/h | 17392m | 4.8m/s | 0°C | 0% | 0hPa | 0V | 00:00:00 | 00:00:00 | 00:00:00 | |
| KRY50SP | 2026-09-02 12:10:24 | 51.10559 | 17.49949 | 116° | 31km/h | 17382m | 5.9m/s | 0°C | 0% | 0hPa | 0V | 00:00:00 | 00:00:00 | 00:00:00 | |
| SQ6EMJ | 2026-09-02 12:10:20 | 51.10572 | 17.49910 | 102° | 29km/h | 17362m | 5.4m/s | 0°C | 0% | 0hPa | 0V | 00:00:00 | 00:00:00 | 00:00:00 | |
| KRY50SP | 2026-09-02 12:10:18 | 51.10574 | 17.49884 | 95° | 42km/h | 17352m | 2.9m/s | 0°C | 0% | 0hPa | 0V | 00:00:00 | 00:00:00 | 00:00:00 | |
| SQ6EMJ | 2026-09-02 12:10:15 | 51.10577 | 17.49840 | 104° | 37km/h | 17337m | 5.0m/s | 0°C | 0% | 0hPa | 0V | 00:00:00 | 00:00:00 | 00:00:00 | |
| OM5KV | 2026-09-02 12:10:12 | 51.10586 | 17.49800 | 115° | 33km/h | 17324m | 4.1m/s | 0°C | 0% | 0hPa | 0V | 00:00:00 | 00:00:00 | 00:00:00 | |
| SQ6EMJ | 2026-09-02 12:10:09 | 51.10592 | 17.49765 | 92° | 33km/h | 17311m | 4.2m/s | 0°C | 0% | 0hPa | 0V | 00:00:00 | 00:00:00 | 00:00:00 | |
| KRY50SP | 2026-09-02 12:10:07 | 51.10592 | 17.49734 | 90° | 46km/h | 17302m | 3.4m/s | 0°C | 0% | 0hPa | 0V | 00:00:00 | 00:00:00 | 00:00:00 | |
| POL1PZ | 2026-09-02 12:10:06 | 51.10592 | 17.49699 | 91° | 40km/h | 17294m | 4.6m/s | 0°C | 0% | 0hPa | 0V | 00:00:00 | 00:00:00 | 00:00:00 | |
| SQ6EMJ | 2026-09-02 12:10:03 | 51.10594 | 17.49669 | 101° | 38km/h | 17285m | 4.6m/s | 0°C | 0% | 0hPa | 0V | 00:00:00 | 00:00:00 | 00:00:00 | |
| KRY50SP | 2026-09-02 12:10:01 | 51.10599 | 17.49638 | 106° | 38km/h | 17277m | 3.6m/s | 0°C | 0% | 0hPa | 0V | 00:00:00 | 00:00:00 | 00:00:00 | |
| SQ6EMJ | 2026-09-02 12:09:57 | 51.10604 | 17.49580 | 94° | 42km/h | 17259m | 7.4m/s | 0°C | 0% | 0hPa | 0V | 00:00:00 | 00:00:00 | 00:00:00 | |
| KRY50SP | 2026-09-02 12:09:55 | 51.10605 | 17.49544 | 91° | 46km/h | 17249m | 3.9m/s | 0°C | 0% | 0hPa | 0V | 00:00:00 | 00:00:00 | 00:00:00 | |
| SQ6EMJ | 2026-09-02 12:09:51 | 51.10607 | 17.49477 | 101° | 42km/h | 17229m | 5.8m/s | 0°C | 0% | 0hPa | 0V | 00:00:00 | 00:00:00 | 00:00:00 | |
| KRY50SP | 2026-09-02 12:09:50 | 51.10609 | 17.49462 | 100° | 37km/h | 17225m | 4.3m/s | 0°C | 0% | 0hPa | 0V | 00:00:00 | 00:00:00 | 00:00:00 | |
| KRY50SP | 2026-09-02 12:09:45 | 51.10612 | 17.49384 | 99° | 49km/h | 17200m | 3.7m/s | 0°C | 0% | 0hPa | 0V | 00:00:00 | 00:00:00 | 00:00:00 | |
| POL1PZ | 2026-09-02 12:09:43 | 51.10614 | 17.49346 | 88° | 44km/h | 17191m | 4.8m/s | 0°C | 0% | 0hPa | 0V | 00:00:00 | 00:00:00 | 00:00:00 | |
| KRY50SP | 2026-09-02 12:09:39 | 51.10612 | 17.49280 | 96° | 42km/h | 17175m | 5.3m/s | 0°C | 0% | 0hPa | 0V | 00:00:00 | 00:00:00 | 00:00:00 | |
| KRY50SP | 2026-09-02 12:09:34 | 51.10617 | 17.49166 | 95° | 53km/h | 17148m | 4.7m/s | 0°C | 0% | 0hPa | 0V | 00:00:00 | 00:00:00 | 00:00:00 | |
| KRY50SP | 2026-09-02 12:09:28 | 51.10621 | 17.49067 | 100° | 46km/h | 17125m | 4.0m/s | 0°C | 0% | 0hPa | 0V | 00:00:00 | 00:00:00 | 00:00:00 | |
| POL1PZ | 2026-09-02 12:09:23 | 51.10620 | 17.48977 | 92° | 40km/h | 17102m | 5.4m/s | 0°C | 0% | 0hPa | 0V | 00:00:00 | 00:00:00 | 00:00:00 | |
| SQ6EMJ | 2026-09-02 12:09:22 | 51.10620 | 17.48961 | 90° | 40km/h | 17097m | 6.0m/s | 0°C | 0% | 0hPa | 0V | 00:00:00 | 00:00:00 | 00:00:00 | |
| SQ6EMJ | 2026-09-02 12:09:17 | 51.10623 | 17.48871 | 99° | 47km/h | 17072m | 5.3m/s | 0°C | 0% | 0hPa | 0V | 00:00:00 | 00:00:00 | 00:00:00 | |
| KRY50SP | 2026-09-02 12:09:12 | 51.10625 | 17.48786 | 97° | 40km/h | 17047m | 4.6m/s | 0°C | 0% | 0hPa | 0V | 00:00:00 | 00:00:00 | 00:00:00 | |
| SQ6EMJ | 2026-09-02 12:09:11 | 51.10627 | 17.48770 | 98° | 40km/h | 17042m | 4.7m/s | 0°C | 0% | 0hPa | 0V | 00:00:00 | 00:00:00 | 00:00:00 | |
| KRY50SP | 2026-09-02 12:09:06 | 51.10634 | 17.48698 | 106° | 42km/h | 17020m | 3.2m/s | 0°C | 0% | 0hPa | 0V | 00:00:00 | 00:00:00 | 00:00:00 | |
| POL1PZ | 2026-09-02 12:09:02 | 51.10636 | 17.48628 | 90° | 42km/h | 17004m | 5.6m/s | 0°C | 0% | 0hPa | 0V | 00:00:00 | 00:00:00 | 00:00:00 | |
| KRY50SP | 2026-09-02 12:09:00 | 51.10636 | 17.48597 | 93° | 38km/h | 16993m | 4.7m/s | 0°C | 0% | 0hPa | 0V | 00:00:00 | 00:00:00 | 00:00:00 | |
| SQ6EMJ | 2026-09-02 12:08:49 | 51.10633 | 17.48399 | 86° | 44km/h | 16942m | 5.1m/s | 0°C | 0% | 0hPa | 0V | 00:00:00 | 00:00:00 | 00:00:00 | |
| KRY50SP | 2026-09-02 12:08:48 | 51.10632 | 17.48381 | 86° | 46km/h | 16937m | 5.7m/s | 0°C | 0% | 0hPa | 0V | 00:00:00 | 00:00:00 | 00:00:00 | |
| SQ6EMJ | 2026-09-02 12:08:43 | 51.10636 | 17.48286 | 96° | 42km/h | 16918m | 5.1m/s | 0°C | 0% | 0hPa | 0V | 00:00:00 | 00:00:00 | 00:00:00 | |
| POL1PZ | 2026-09-02 12:08:41 | 51.10635 | 17.48252 | 80° | 42km/h | 16909m | 6.5m/s | 0°C | 0% | 0hPa | 0V | 00:00:00 | 00:00:00 | 00:00:00 | |
| SQ6EMJ | 2026-09-02 12:08:38 | 51.10633 | 17.48206 | 92° | 42km/h | 16890m | 6.3m/s | 0°C | 0% | 0hPa | 0V | 00:00:00 | 00:00:00 | 00:00:00 | |
| KRY50SP | 2026-09-02 12:08:37 | 51.10632 | 17.48190 | 87° | 42km/h | 16885m | 5.5m/s | 0°C | 0% | 0hPa | 0V | 00:00:00 | 00:00:00 | 00:00:00 | |
| SP3BTT-10 | 2026-09-02 12:08:34 | 51.10632 | 17.48140 | 99° | 46km/h | 16870m | 5.3m/s | 0°C | 0% | 0hPa | 0V | 00:00:00 | 00:00:00 | 00:00:00 | |
| KRY50SP | 2026-09-02 12:08:32 | 51.10632 | 17.48110 | 84° | 38km/h | 16860m | 5.9m/s | 0°C | 0% | 0hPa | 0V | 00:00:00 | 00:00:00 | 00:00:00 | |
| SQ6EMJ | 2026-09-02 12:08:26 | 51.10617 | 17.48027 | 77° | 40km/h | 16834m | 3.9m/s | 0°C | 0% | 0hPa | 0V | 00:00:00 | 00:00:00 | 00:00:00 | |
| KRY50SP | 2026-09-02 12:08:25 | 51.10616 | 17.48012 | 84° | 37km/h | 16831m | 5.4m/s | 0°C | 0% | 0hPa | 0V | 00:00:00 | 00:00:00 | 00:00:00 | |
| POL1PZ | 2026-09-02 12:08:20 | 51.10619 | 17.47942 | 92° | 42km/h | 16805m | 5.0m/s | 0°C | 0% | 0hPa | 0V | 00:00:00 | 00:00:00 | 00:00:00 | |
| KRY50SP | 2026-09-02 12:08:18 | 51.10618 | 17.47910 | 89° | 40km/h | 16794m | 6.0m/s | 0°C | 0% | 0hPa | 0V | 00:00:00 | 00:00:00 | 00:00:00 | |
| SQ6EMJ | 2026-09-02 12:08:15 | 51.10619 | 17.47861 | 98° | 44km/h | 16780m | 4.9m/s | 0°C | 0% | 0hPa | 0V | 00:00:00 | 00:00:00 | 00:00:00 | |
| KRY50SP | 2026-09-02 12:08:13 | 51.10622 | 17.47830 | 105° | 37km/h | 16770m | 3.4m/s | 0°C | 0% | 0hPa | 0V | 00:00:00 | 00:00:00 | 00:00:00 | |
| SQ6EMJ | 2026-09-02 12:08:10 | 51.10624 | 17.47764 | 88° | 49km/h | 16754m | 6.2m/s | 0°C | 0% | 0hPa | 0V | 00:00:00 | 00:00:00 | 00:00:00 | |
| KRY50SP | 2026-09-02 12:08:07 | 51.10622 | 17.47727 | 84° | 46km/h | 16742m | 4.2m/s | 0°C | 0% | 0hPa | 0V | 00:00:00 | 00:00:00 | 00:00:00 | |
| SQ6EMJ | 2026-09-02 12:08:04 | 51.10619 | 17.47667 | 91° | 53km/h | 16724m | 3.4m/s | 0°C | 0% | 0hPa | 0V | 00:00:00 | 00:00:00 | 00:00:00 | |
| KRY50SP | 2026-09-02 12:08:00 | 51.10616 | 17.47591 | 81° | 47km/h | 16705m | 5.5m/s | 0°C | 0% | 0hPa | 0V | 00:00:00 | 00:00:00 | 00:00:00 | |
| POL1PZ | 2026-09-02 12:07:59 | 51.10614 | 17.47571 | 83° | 51km/h | 16701m | 3.6m/s | 0°C | 0% | 0hPa | 0V | 00:00:00 | 00:00:00 | 00:00:00 | |
| SQ6EMJ | 2026-09-02 12:07:53 | 51.10609 | 17.47442 | 90° | 49km/h | 16673m | 6.4m/s | 0°C | 0% | 0hPa | 0V | 00:00:00 | 00:00:00 | 00:00:00 | |
| KRY50SP | 2026-09-02 12:07:51 | 51.10607 | 17.47405 | 83° | 47km/h | 16662m | 5.4m/s | 0°C | 0% | 0hPa | 0V | 00:00:00 | 00:00:00 | 00:00:00 | |
| SQ6EMJ | 2026-09-02 12:07:48 | 51.10601 | 17.47347 | 84° | 47km/h | 16648m | 5.9m/s | 0°C | 0% | 0hPa | 0V | 00:00:00 | 00:00:00 | 00:00:00 | |
| SQ6EMJ | 2026-09-02 12:07:42 | 51.10595 | 17.47226 | 88° | 49km/h | 16618m | 4.9m/s | 0°C | 0% | 0hPa | 0V | 00:00:00 | 00:00:00 | 00:00:00 | |
| SQ6EMJ | 2026-09-02 12:07:37 | 51.10595 | 17.47132 | 97° | 46km/h | 16594m | 4.3m/s | 0°C | 0% | 0hPa | 0V | 00:00:00 | 00:00:00 | 00:00:00 | |
| SQ6EMJ | 2026-09-02 12:07:32 | 51.10596 | 17.47030 | 90° | 47km/h | 16568m | 5.5m/s | 0°C | 0% | 0hPa | 0V | 00:00:00 | 00:00:00 | 00:00:00 | |
| SQ6EMJ | 2026-09-02 12:07:27 | 51.10595 | 17.46935 | 91° | 47km/h | 16541m | 3.7m/s | 0°C | 0% | 0hPa | 0V | 00:00:00 | 00:00:00 | 00:00:00 | |
| SQ6EMJ | 2026-09-02 12:07:22 | 51.10592 | 17.46833 | 87° | 49km/h | 16518m | 5.6m/s | 0°C | 0% | 0hPa | 0V | 00:00:00 | 00:00:00 | 00:00:00 | |
| SP3BTT-10 | 2026-09-02 12:07:18 | 51.10587 | 17.46750 | 91° | 46km/h | 16499m | 6.5m/s | 0°C | 0% | 0hPa | 0V | 00:00:00 | 00:00:00 | 00:00:00 | |
| KRY50SP | 2026-09-02 12:07:17 | 51.10588 | 17.46730 | 97° | 49km/h | 16494m | 4.5m/s | 0°C | 0% | 0hPa | 0V | 00:00:00 | 00:00:00 | 00:00:00 | |
| SQ6EMJ | 2026-09-02 12:07:11 | 51.10590 | 17.46600 | 85° | 53km/h | 16466m | 5.6m/s | 0°C | 0% | 0hPa | 0V | 00:00:00 | 00:00:00 | 00:00:00 | |
| KRY50SP | 2026-09-02 12:07:07 | 51.10581 | 17.46520 | 86° | 44km/h | 16445m | 6.2m/s | 0°C | 0% | 0hPa | 0V | 00:00:00 | 00:00:00 | 00:00:00 | |
| SQ6EMJ | 2026-09-02 12:07:05 | 51.10580 | 17.46482 | 94° | 49km/h | 16437m | 5.6m/s | 0°C | 0% | 0hPa | 0V | 00:00:00 | 00:00:00 | 00:00:00 | |
| SQ6EMJ | 2026-09-02 12:06:59 | 51.10577 | 17.46361 | 79° | 38km/h | 16409m | 3.0m/s | 0°C | 0% | 0hPa | 0V | 00:00:00 | 00:00:00 | 00:00:00 | |
| KRY50SP | 2026-09-02 12:06:54 | 51.10571 | 17.46264 | 91° | 51km/h | 16387m | 5.1m/s | 0°C | 0% | 0hPa | 0V | 00:00:00 | 00:00:00 | 00:00:00 | |
| SQ6EMJ | 2026-09-02 12:06:53 | 51.10571 | 17.46243 | 90° | 53km/h | 16382m | 5.6m/s | 0°C | 0% | 0hPa | 0V | 00:00:00 | 00:00:00 | 00:00:00 | |
| SQ6EMJ | 2026-09-02 12:06:47 | 51.10572 | 17.46127 | 91° | 49km/h | 16351m | 5.8m/s | 0°C | 0% | 0hPa | 0V | 00:00:00 | 00:00:00 | 00:00:00 | |
| SQ6EMJ | 2026-09-02 12:06:42 | 51.10573 | 17.46025 | 90° | 49km/h | 16325m | 4.5m/s | 0°C | 0% | 0hPa | 0V | 00:00:00 | 00:00:00 | 00:00:00 | |
| SQ6EMJ | 2026-09-02 12:06:36 | 51.10575 | 17.45910 | 86° | 49km/h | 16297m | 5.2m/s | 0°C | 0% | 0hPa | 0V | 00:00:00 | 00:00:00 | 00:00:00 | |
| KRY50SP | 2026-09-02 12:06:32 | 51.10575 | 17.45833 | 88° | 46km/h | 16278m | 5.5m/s | 0°C | 0% | 0hPa | 0V | 00:00:00 | 00:00:00 | 00:00:00 | |
| SQ6EMJ | 2026-09-02 12:06:31 | 51.10574 | 17.45815 | 83° | 46km/h | 16273m | 4.7m/s | 0°C | 0% | 0hPa | 0V | 00:00:00 | 00:00:00 | 00:00:00 | |
| KRY50SP | 2026-09-02 12:06:27 | 51.10572 | 17.45741 | 87° | 47km/h | 16253m | 6.4m/s | 0°C | 0% | 0hPa | 0V | 00:00:00 | 00:00:00 | 00:00:00 | |
| SQ6EMJ | 2026-09-02 12:06:26 | 51.10571 | 17.45722 | 84° | 47km/h | 16248m | 4.6m/s | 0°C | 0% | 0hPa | 0V | 00:00:00 | 00:00:00 | 00:00:00 | |
| SP3BTT-10 | 2026-09-02 12:06:19 | 51.10557 | 17.45607 | 81° | 46km/h | 16214m | 4.1m/s | 0°C | 0% | 0hPa | 0V | 00:00:00 | 00:00:00 | 00:00:00 | |
| KRY50SP | 2026-09-02 12:06:16 | 51.10552 | 17.45556 | 86° | 46km/h | 16201m | 4.8m/s | 0°C | 0% | 0hPa | 0V | 00:00:00 | 00:00:00 | 00:00:00 | |
| KRY50SP | 2026-09-02 12:06:09 | 51.10545 | 17.45436 | 85° | 42km/h | 16166m | 5.3m/s | 0°C | 0% | 0hPa | 0V | 00:00:00 | 00:00:00 | 00:00:00 | |
| KRY50SP | 2026-09-02 12:06:04 | 51.10544 | 17.45351 | 101° | 40km/h | 16141m | 5.7m/s | 0°C | 0% | 0hPa | 0V | 00:00:00 | 00:00:00 | 00:00:00 | |
| KRY50SP | 2026-09-02 12:05:59 | 51.10542 | 17.45263 | 89° | 49km/h | 16118m | 5.1m/s | 0°C | 0% | 0hPa | 0V | 00:00:00 | 00:00:00 | 00:00:00 | |
| SQ6EMJ | 2026-09-02 12:05:53 | 51.10545 | 17.45153 | 103° | 46km/h | 16091m | 5.2m/s | 0°C | 0% | 0hPa | 0V | 00:00:00 | 00:00:00 | 00:00:00 | |
| KRY50SP | 2026-09-02 12:05:48 | 51.10550 | 17.45051 | 95° | 51km/h | 16068m | 6.4m/s | 0°C | 0% | 0hPa | 0V | 00:00:00 | 00:00:00 | 00:00:00 | |
| SQ6EMJ | 2026-09-02 12:05:43 | 51.10555 | 17.44953 | 102° | 46km/h | 16043m | 3.8m/s | 0°C | 0% | 0hPa | 0V | 00:00:00 | 00:00:00 | 00:00:00 | |
| KRY50SP | 2026-09-02 12:05:41 | 51.10558 | 17.44916 | 92° | 44km/h | 16036m | 6.2m/s | 0°C | 0% | 0hPa | 0V | 00:00:00 | 00:00:00 | 00:00:00 | |
| SQ6EMJ | 2026-09-02 12:05:38 | 51.10557 | 17.44864 | 93° | 46km/h | 16024m | 4.5m/s | 0°C | 0% | 0hPa | 0V | 00:00:00 | 00:00:00 | 00:00:00 | |
| KRY50SP | 2026-09-02 12:05:35 | 51.10556 | 17.44807 | 85° | 47km/h | 16009m | 5.4m/s | 0°C | 0% | 0hPa | 0V | 00:00:00 | 00:00:00 | 00:00:00 | |
| SP3BTT-10 | 2026-09-02 12:05:33 | 51.10554 | 17.44767 | 85° | 47km/h | 16000m | 4.7m/s | 0°C | 0% | 0hPa | 0V | 00:00:00 | 00:00:00 | 00:00:00 | |
| SQ6EMJ | 2026-09-02 12:05:32 | 51.10553 | 17.44747 | 89° | 51km/h | 15996m | 4.6m/s | 0°C | 0% | 0hPa | 0V | 00:00:00 | 00:00:00 | 00:00:00 | |
| KRY50SP | 2026-09-02 12:05:30 | 51.10552 | 17.44708 | 84° | 46km/h | 15986m | 5.9m/s | 0°C | 0% | 0hPa | 0V | 00:00:00 | 00:00:00 | 00:00:00 | |
| SQ6EMJ | 2026-09-02 12:05:27 | 51.10549 | 17.44656 | 92° | 44km/h | 15974m | 4.3m/s | 0°C | 0% | 0hPa | 0V | 00:00:00 | 00:00:00 | 00:00:00 | |
| KRY50SP | 2026-09-02 12:05:24 | 51.10549 | 17.44601 | 88° | 46km/h | 15959m | 5.1m/s | 0°C | 0% | 0hPa | 0V | 00:00:00 | 00:00:00 | 00:00:00 | |
| SQ6EMJ | 2026-09-02 12:05:21 | 51.10547 | 17.44549 | 82° | 44km/h | 15945m | 5.0m/s | 0°C | 0% | 0hPa | 0V | 00:00:00 | 00:00:00 | 00:00:00 | |
| SQ6EMJ | 2026-09-02 12:05:15 | 51.10533 | 17.44445 | 87° | 49km/h | 15917m | 4.5m/s | 0°C | 0% | 0hPa | 0V | 00:00:00 | 00:00:00 | 00:00:00 | |
| KRY50SP | 2026-09-02 12:05:13 | 51.10533 | 17.44407 | 91° | 44km/h | 15910m | 6.2m/s | 0°C | 0% | 0hPa | 0V | 00:00:00 | 00:00:00 | 00:00:00 | |
| SQ6EMJ | 2026-09-02 12:05:09 | 51.10525 | 17.44337 | 66° | 46km/h | 15893m | 3.7m/s | 0°C | 0% | 0hPa | 0V | 00:00:00 | 00:00:00 | 00:00:00 | |
| SQ6EMJ | 2026-09-02 12:05:03 | 51.10513 | 17.44228 | 82° | 42km/h | 15864m | 5.5m/s | 0°C | 0% | 0hPa | 0V | 00:00:00 | 00:00:00 | 00:00:00 | |
| SQ6EMJ | 2026-09-02 12:04:57 | 51.10508 | 17.44123 | 81° | 46km/h | 15839m | 6.5m/s | 0°C | 0% | 0hPa | 0V | 00:00:00 | 00:00:00 | 00:00:00 | |
| KRY50SP | 2026-09-02 12:04:55 | 51.10504 | 17.44090 | 86° | 40km/h | 15829m | 5.3m/s | 0°C | 0% | 0hPa | 0V | 00:00:00 | 00:00:00 | 00:00:00 | |
| POL1PZ | 2026-09-02 12:04:53 | 51.10505 | 17.44058 | 102° | 42km/h | 15819m | 6.1m/s | 0°C | 0% | 0hPa | 0V | 00:00:00 | 00:00:00 | 00:00:00 | |
| SQ6EMJ | 2026-09-02 12:04:51 | 51.10508 | 17.44026 | 94° | 42km/h | 15809m | 5.0m/s | 0°C | 0% | 0hPa | 0V | 00:00:00 | 00:00:00 | 00:00:00 | |
| KRY50SP | 2026-09-02 12:04:46 | 51.10509 | 17.43931 | 85° | 42km/h | 15785m | 4.0m/s | 0°C | 0% | 0hPa | 0V | 00:00:00 | 00:00:00 | 00:00:00 | |
| SQ6EMJ | 2026-09-02 12:04:40 | 51.10520 | 17.43831 | 102° | 46km/h | 15760m | 2.4m/s | 0°C | 0% | 0hPa | 0V | 00:00:00 | 00:00:00 | 00:00:00 | |
| KRY50SP | 2026-09-02 12:04:38 | 51.10525 | 17.43792 | 105° | 53km/h | 15751m | 5.4m/s | 0°C | 0% | 0hPa | 0V | 00:00:00 | 00:00:00 | 00:00:00 | |
| SQ6EMJ | 2026-09-02 12:04:35 | 51.10531 | 17.43730 | 95° | 47km/h | 15736m | 5.7m/s | 0°C | 0% | 0hPa | 0V | 00:00:00 | 00:00:00 | 00:00:00 | |
| SP3BTT-10 | 2026-09-02 12:04:32 | 51.10535 | 17.43670 | 100° | 46km/h | 15720m | 3.6m/s | 0°C | 0% | 0hPa | 0V | 00:00:00 | 00:00:00 | 00:00:00 | |
| KRY50SP | 2026-09-02 12:04:30 | 51.10539 | 17.43632 | 99° | 47km/h | 15711m | 4.0m/s | 0°C | 0% | 0hPa | 0V | 00:00:00 | 00:00:00 | 00:00:00 | |
| SQ6EMJ | 2026-09-02 12:04:29 | 51.10541 | 17.43613 | 101° | 46km/h | 15706m | 5.1m/s | 0°C | 0% | 0hPa | 0V | 00:00:00 | 00:00:00 | 00:00:00 | |
| KRY50SP | 2026-09-02 12:04:23 | 51.10551 | 17.43494 | 99° | 53km/h | 15680m | 4.4m/s | 0°C | 0% | 0hPa | 0V | 00:00:00 | 00:00:00 | 00:00:00 | |
| POL1PZ | 2026-09-02 12:04:18 | 51.10558 | 17.43392 | 102° | 53km/h | 15658m | 5.1m/s | 0°C | 0% | 0hPa | 0V | 00:00:00 | 00:00:00 | 00:00:00 | |
| KRY50SP | 2026-09-02 12:04:17 | 51.10560 | 17.43371 | 101° | 53km/h | 15654m | 4.1m/s | 0°C | 0% | 0hPa | 0V | 00:00:00 | 00:00:00 | 00:00:00 | |
| KRY50SP | 2026-09-02 12:04:11 | 51.10562 | 17.43248 | 91° | 57km/h | 15627m | 4.6m/s | 0°C | 0% | 0hPa | 0V | 00:00:00 | 00:00:00 | 00:00:00 | |
| SQ6EMJ | 2026-09-02 12:04:06 | 51.10563 | 17.43147 | 99° | 44km/h | 15604m | 4.2m/s | 0°C | 0% | 0hPa | 0V | 00:00:00 | 00:00:00 | 00:00:00 | |
| KRY50SP | 2026-09-02 12:04:05 | 51.10564 | 17.43130 | 97° | 40km/h | 15600m | 5.3m/s | 0°C | 0% | 0hPa | 0V | 00:00:00 | 00:00:00 | 00:00:00 | |
| SQ6EMJ | 2026-09-02 12:04:00 | 51.10557 | 17.43037 | 85° | 53km/h | 15579m | 4.3m/s | 0°C | 0% | 0hPa | 0V | 00:00:00 | 00:00:00 | 00:00:00 | |
| KRY50SP | 2026-09-02 12:03:55 | 51.10553 | 17.42939 | 87° | 46km/h | 15558m | 4.6m/s | 0°C | 0% | 0hPa | 0V | 00:00:00 | 00:00:00 | 00:00:00 | |
| SQ6EMJ | 2026-09-02 12:03:49 | 51.10535 | 17.42805 | 86° | 47km/h | 15529m | 4.1m/s | 0°C | 0% | 0hPa | 0V | 00:00:00 | 00:00:00 | 00:00:00 | |
| KRY50SP | 2026-09-02 12:03:47 | 51.10535 | 17.42786 | 87° | 44km/h | 15525m | 5.9m/s | 0°C | 0% | 0hPa | 0V | 00:00:00 | 00:00:00 | 00:00:00 | |
| SQ6EMJ | 2026-09-02 12:03:42 | 51.10532 | 17.42705 | 89° | 44km/h | 15502m | 7.8m/s | 0°C | 0% | 0hPa | 0V | 00:00:00 | 00:00:00 | 00:00:00 | |
| KRY50SP | 2026-09-02 12:03:37 | 51.10530 | 17.42612 | 94° | 51km/h | 15477m | 5.2m/s | 0°C | 0% | 0hPa | 0V | 00:00:00 | 00:00:00 | 00:00:00 | |
| SQ6EMJ | 2026-09-02 12:03:36 | 51.10531 | 17.42591 | 94° | 51km/h | 15473m | 4.1m/s | 0°C | 0% | 0hPa | 0V | 00:00:00 | 00:00:00 | 00:00:00 | |
| SP3BTT-10 | 2026-09-02 12:03:32 | 51.10528 | 17.42524 | 87° | 53km/h | 15457m | 5.9m/s | 0°C | 0% | 0hPa | 0V | 00:00:00 | 00:00:00 | 00:00:00 | |
| SQ6EMJ | 2026-09-02 12:03:31 | 51.10529 | 17.42508 | 96° | 44km/h | 15452m | 5.4m/s | 0°C | 0% | 0hPa | 0V | 00:00:00 | 00:00:00 | 00:00:00 | |
| KRY50SP | 2026-09-02 12:03:28 | 51.10532 | 17.42449 | 94° | 49km/h | 15439m | 4.8m/s | 0°C | 0% | 0hPa | 0V | 00:00:00 | 00:00:00 | 00:00:00 | |
| SQ6EMJ | 2026-09-02 12:03:26 | 51.10534 | 17.42410 | 104° | 51km/h | 15430m | 7.4m/s | 0°C | 0% | 0hPa | 0V | 00:00:00 | 00:00:00 | 00:00:00 | |
| KRY50SP | 2026-09-02 12:03:22 | 51.10541 | 17.42334 | 86° | 42km/h | 15410m | 3.2m/s | 0°C | 0% | 0hPa | 0V | 00:00:00 | 00:00:00 | 00:00:00 | |
| SQ6EMJ | 2026-09-02 12:03:20 | 51.10540 | 17.42301 | 96° | 40km/h | 15402m | 5.7m/s | 0°C | 0% | 0hPa | 0V | 00:00:00 | 00:00:00 | 00:00:00 | |
| KRY50SP | 2026-09-02 12:03:16 | 51.10550 | 17.42230 | 100° | 49km/h | 15383m | 3.9m/s | 0°C | 0% | 0hPa | 0V | 00:00:00 | 00:00:00 | 00:00:00 | |
| SQ6EMJ | 2026-09-02 12:03:15 | 51.10552 | 17.42210 | 101° | 49km/h | 15378m | 5.8m/s | 0°C | 0% | 0hPa | 0V | 00:00:00 | 00:00:00 | 00:00:00 | |
| KRY50SP | 2026-09-02 12:03:11 | 51.10558 | 17.42131 | 91° | 47km/h | 15361m | 4.1m/s | 0°C | 0% | 0hPa | 0V | 00:00:00 | 00:00:00 | 00:00:00 | |
| SQ6EMJ | 2026-09-02 12:03:09 | 51.10561 | 17.42094 | 107° | 44km/h | 15352m | 6.0m/s | 0°C | 0% | 0hPa | 0V | 00:00:00 | 00:00:00 | 00:00:00 | |
| KRY50SP | 2026-09-02 12:03:05 | 51.10578 | 17.42024 | 103° | 46km/h | 15334m | 4.0m/s | 0°C | 0% | 0hPa | 0V | 00:00:00 | 00:00:00 | 00:00:00 | |
| SQ6EMJ | 2026-09-02 12:03:03 | 51.10582 | 17.41988 | 104° | 49km/h | 15323m | 6.9m/s | 0°C | 0% | 0hPa | 0V | 00:00:00 | 00:00:00 | 00:00:00 | |
| KRY50SP | 2026-09-02 12:03:00 | 51.10589 | 17.41925 | 98° | 55km/h | 15308m | 3.8m/s | 0°C | 0% | 0hPa | 0V | 00:00:00 | 00:00:00 | 00:00:00 | |
| SQ6EMJ | 2026-09-02 12:02:57 | 51.10602 | 17.41864 | 118° | 55km/h | 15295m | 4.5m/s | 0°C | 0% | 0hPa | 0V | 00:00:00 | 00:00:00 | 00:00:00 | |
| KRY50SP | 2026-09-02 12:02:55 | 51.10612 | 17.41824 | 107° | 53km/h | 15285m | 5.7m/s | 0°C | 0% | 0hPa | 0V | 00:00:00 | 00:00:00 | 00:00:00 | |
| SQ6EMJ | 2026-09-02 12:02:51 | 51.10623 | 17.41742 | 100° | 58km/h | 15265m | 5.3m/s | 0°C | 0% | 0hPa | 0V | 00:00:00 | 00:00:00 | 00:00:00 | |
| KRY50SP | 2026-09-02 12:02:49 | 51.10634 | 17.41669 | 113° | 60km/h | 15251m | 5.9m/s | 0°C | 0% | 0hPa | 0V | 00:00:00 | 00:00:00 | 00:00:00 | |
| SP3BTT-10 | 2026-09-02 12:02:47 | 51.10640 | 17.41648 | 116° | 73km/h | 15246m | 4.8m/s | 0°C | 0% | 0hPa | 0V | 00:00:00 | 00:00:00 | 00:00:00 | |
| SQ6EMJ | 2026-09-02 12:02:45 | 51.10651 | 17.41607 | 103° | 51km/h | 15238m | 6.2m/s | 0°C | 0% | 0hPa | 0V | 00:00:00 | 00:00:00 | 00:00:00 | |
| KRY50SP | 2026-09-02 12:02:41 | 51.10662 | 17.41516 | 106° | 66km/h | 15220m | 4.5m/s | 0°C | 0% | 0hPa | 0V | 00:00:00 | 00:00:00 | 00:00:00 | |
| SQ6EMJ | 2026-09-02 12:02:40 | 51.10666 | 17.41491 | 104° | 66km/h | 15215m | 5.4m/s | 0°C | 0% | 0hPa | 0V | 00:00:00 | 00:00:00 | 00:00:00 | |
| POL1PZ | 2026-09-02 12:02:39 | 51.10670 | 17.41466 | 103° | 62km/h | 15210m | 6.9m/s | 0°C | 0% | 0hPa | 0V | 00:00:00 | 00:00:00 | 00:00:00 | |
| KRY50SP | 2026-09-02 12:02:36 | 51.10684 | 17.41391 | 112° | 68km/h | 15192m | 4.4m/s | 0°C | 0% | 0hPa | 0V | 00:00:00 | 00:00:00 | 00:00:00 | |
| SQ6EMJ | 2026-09-02 12:02:35 | 51.10690 | 17.41365 | 108° | 68km/h | 15188m | 5.5m/s | 0°C | 0% | 0hPa | 0V | 00:00:00 | 00:00:00 | 00:00:00 | |
| SQ6EMJ | 2026-09-02 12:02:30 | 51.10715 | 17.41208 | 106° | 71km/h | 15158m | 5.8m/s | 0°C | 0% | 0hPa | 0V | 00:00:00 | 00:00:00 | 00:00:00 | |
| KRY50SP | 2026-09-02 12:02:24 | 51.10738 | 17.41071 | 108° | 69km/h | 15133m | 3.9m/s | 0°C | 0% | 0hPa | 0V | 00:00:00 | 00:00:00 | 00:00:00 | |
| SQ6EMJ | 2026-09-02 12:02:23 | 51.10743 | 17.41043 | 105° | 71km/h | 15128m | 5.8m/s | 0°C | 0% | 0hPa | 0V | 00:00:00 | 00:00:00 | 00:00:00 | |
| SQ6EMJ | 2026-09-02 12:02:19 | 51.10765 | 17.40896 | 103° | 73km/h | 15102m | 6.4m/s | 0°C | 0% | 0hPa | 0V | 00:00:00 | 00:00:00 | 00:00:00 | |
| KRY50SP | 2026-09-02 12:02:18 | 51.10765 | 17.40896 | 103° | 73km/h | 15102m | 6.4m/s | 0°C | 0% | 0hPa | 0V | 00:00:00 | 00:00:00 | 00:00:00 | |
| POL1PZ | 2026-09-02 12:02:17 | 51.10769 | 17.40867 | 98° | 71km/h | 15097m | 5.3m/s | 0°C | 0% | 0hPa | 0V | 00:00:00 | 00:00:00 | 00:00:00 | |
| SQ6EMJ | 2026-09-02 12:02:14 | 51.10779 | 17.40751 | 101° | 75km/h | 15079m | 6.2m/s | 0°C | 0% | 0hPa | 0V | 00:00:00 | 00:00:00 | 00:00:00 | |
| KRY50SP | 2026-09-02 12:02:12 | 51.10782 | 17.40722 | 103° | 75km/h | 15073m | 6.5m/s | 0°C | 0% | 0hPa | 0V | 00:00:00 | 00:00:00 | 00:00:00 | |
| SQ6EMJ | 2026-09-02 12:02:08 | 51.10801 | 17.40569 | 96° | 77km/h | 15048m | 5.9m/s | 0°C | 0% | 0hPa | 0V | 00:00:00 | 00:00:00 | 00:00:00 | |
| KRY50SP | 2026-09-02 12:02:01 | 51.10813 | 17.40383 | 102° | 78km/h | 15016m | 6.1m/s | 0°C | 0% | 0hPa | 0V | 00:00:00 | 00:00:00 | 00:00:00 | |
| POL1PZ | 2026-09-02 12:01:57 | 51.10825 | 17.40262 | 94° | 77km/h | 14996m | 4.4m/s | 0°C | 0% | 0hPa | 0V | 00:00:00 | 00:00:00 | 00:00:00 | |
| SQ6EMJ | 2026-09-02 12:01:56 | 51.10827 | 17.40199 | 96° | 78km/h | 14986m | 5.6m/s | 0°C | 0% | 0hPa | 0V | 00:00:00 | 00:00:00 | 00:00:00 | |
| KRY50SP | 2026-09-02 12:01:55 | 51.10827 | 17.40199 | 96° | 78km/h | 14986m | 5.6m/s | 0°C | 0% | 0hPa | 0V | 00:00:00 | 00:00:00 | 00:00:00 | |
| SQ6EMJ | 2026-09-02 12:01:49 | 51.10845 | 17.40013 | 102° | 86km/h | 14957m | 5.4m/s | 0°C | 0% | 0hPa | 0V | 00:00:00 | 00:00:00 | 00:00:00 | |
| KRY50SP | 2026-09-02 12:01:46 | 51.10853 | 17.39875 | 93° | 84km/h | 14936m | 6.1m/s | 0°C | 0% | 0hPa | 0V | 00:00:00 | 00:00:00 | 00:00:00 | |
| SQ6EMJ | 2026-09-02 12:01:44 | 51.10855 | 17.39810 | 94° | 77km/h | 14926m | 5.5m/s | 0°C | 0% | 0hPa | 0V | 00:00:00 | 00:00:00 | 00:00:00 | |
| KRY50SP | 2026-09-02 12:01:39 | 51.10862 | 17.39683 | 98° | 88km/h | 14905m | 6.6m/s | 0°C | 0% | 0hPa | 0V | 00:00:00 | 00:00:00 | 00:00:00 | |
| SQ6EMJ | 2026-09-02 12:01:38 | 51.10864 | 17.39648 | 96° | 89km/h | 14900m | 4.7m/s | 0°C | 0% | 0hPa | 0V | 00:00:00 | 00:00:00 | 00:00:00 | |
| POL1PZ | 2026-09-02 12:01:36 | 51.10867 | 17.39544 | 90° | 78km/h | 14886m | 5.1m/s | 0°C | 0% | 0hPa | 0V | 00:00:00 | 00:00:00 | 00:00:00 | |
| KRY50SP | 2026-09-02 12:01:34 | 51.10866 | 17.39514 | 90° | 75km/h | 14881m | 4.2m/s | 0°C | 0% | 0hPa | 0V | 00:00:00 | 00:00:00 | 00:00:00 | |
| SQ6EMJ | 2026-09-02 12:01:32 | 51.10866 | 17.39454 | 94° | 75km/h | 14874m | 5.5m/s | 0°C | 0% | 0hPa | 0V | 00:00:00 | 00:00:00 | 00:00:00 | |
| SP3BTT-10 | 2026-09-02 12:01:31 | 51.10866 | 17.39424 | 93° | 69km/h | 14869m | 6.5m/s | 0°C | 0% | 0hPa | 0V | 00:00:00 | 00:00:00 | 00:00:00 | |
| KRY50SP | 2026-09-02 12:01:28 | 51.10871 | 17.39332 | 97° | 73km/h | 14851m | 5.4m/s | 0°C | 0% | 0hPa | 0V | 00:00:00 | 00:00:00 | 00:00:00 | |
| SQ6EMJ | 2026-09-02 12:01:26 | 51.10873 | 17.39272 | 91° | 77km/h | 14842m | 5.4m/s | 0°C | 0% | 0hPa | 0V | 00:00:00 | 00:00:00 | 00:00:00 | |
| KRY50SP | 2026-09-02 12:01:23 | 51.10873 | 17.39175 | 94° | 75km/h | 14828m | 5.5m/s | 0°C | 0% | 0hPa | 0V | 00:00:00 | 00:00:00 | 00:00:00 | |
| SQ6EMJ | 2026-09-02 12:01:20 | 51.10876 | 17.39085 | 95° | 73km/h | 14811m | 4.7m/s | 0°C | 0% | 0hPa | 0V | 00:00:00 | 00:00:00 | 00:00:00 | |
| SQ6EMJ | 2026-09-02 12:01:15 | 51.10880 | 17.38944 | 88° | 69km/h | 14786m | 3.8m/s | 0°C | 0% | 0hPa | 0V | 00:00:00 | 00:00:00 | 00:00:00 | |
| KRY50SP | 2026-09-02 12:01:14 | 51.10880 | 17.38888 | 95° | 68km/h | 14777m | 4.4m/s | 0°C | 0% | 0hPa | 0V | 00:00:00 | 00:00:00 | 00:00:00 | |
| SQ6EMJ | 2026-09-02 12:01:10 | 51.10882 | 17.38803 | 92° | 73km/h | 14764m | 5.9m/s | 0°C | 0% | 0hPa | 0V | 00:00:00 | 00:00:00 | 00:00:00 | |
| KRY50SP | 2026-09-02 12:01:08 | 51.10882 | 17.38743 | 91° | 73km/h | 14754m | 5.4m/s | 0°C | 0% | 0hPa | 0V | 00:00:00 | 00:00:00 | 00:00:00 | |
| SQ6EMJ | 2026-09-02 12:01:04 | 51.10879 | 17.38631 | 87° | 68km/h | 14734m | 5.1m/s | 0°C | 0% | 0hPa | 0V | 00:00:00 | 00:00:00 | 00:00:00 | |
| SQ6EMJ | 2026-09-02 12:00:58 | 51.10874 | 17.38466 | 86° | 71km/h | 14705m | 5.1m/s | 0°C | 0% | 0hPa | 0V | 00:00:00 | 00:00:00 | 00:00:00 | |
| KRY50SP | 2026-09-02 12:00:54 | 51.10866 | 17.38355 | 84° | 68km/h | 14686m | 4.3m/s | 0°C | 0% | 0hPa | 0V | 00:00:00 | 00:00:00 | 00:00:00 | |
| POL1PZ | 2026-09-02 12:00:53 | 51.10864 | 17.38328 | 86° | 64km/h | 14681m | 5.8m/s | 0°C | 0% | 0hPa | 0V | 00:00:00 | 00:00:00 | 00:00:00 | |
| SQ6EMJ | 2026-09-02 12:00:52 | 51.10863 | 17.38302 | 88° | 66km/h | 14677m | 3.7m/s | 0°C | 0% | 0hPa | 0V | 00:00:00 | 00:00:00 | 00:00:00 | |
| SQ6EMJ | 2026-09-02 12:00:47 | 51.10854 | 17.38140 | 83° | 71km/h | 14650m | 6.2m/s | 0°C | 0% | 0hPa | 0V | 00:00:00 | 00:00:00 | 00:00:00 | |
| KRY50SP | 2026-09-02 12:00:45 | 51.10851 | 17.38112 | 80° | 69km/h | 14646m | 4.3m/s | 0°C | 0% | 0hPa | 0V | 00:00:00 | 00:00:00 | 00:00:00 | |
| SQ6EMJ | 2026-09-02 12:00:40 | 51.10842 | 17.37983 | 85° | 68km/h | 14624m | 5.5m/s | 0°C | 0% | 0hPa | 0V | 00:00:00 | 00:00:00 | 00:00:00 | |
| KRY50SP | 2026-09-02 12:00:39 | 51.10840 | 17.37956 | 83° | 69km/h | 14619m | 6.0m/s | 0°C | 0% | 0hPa | 0V | 00:00:00 | 00:00:00 | 00:00:00 | |
| SQ6EMJ | 2026-09-02 12:00:36 | 51.10828 | 17.37853 | 75° | 64km/h | 14600m | 5.3m/s | 0°C | 0% | 0hPa | 0V | 00:00:00 | 00:00:00 | 00:00:00 | |
| POL1PZ | 2026-09-02 12:00:33 | 51.10821 | 17.37800 | 80° | 69km/h | 14590m | 5.0m/s | 0°C | 0% | 0hPa | 0V | 00:00:00 | 00:00:00 | 00:00:00 | |
| SQ6EMJ | 2026-09-02 12:00:29 | 51.10812 | 17.37696 | 82° | 64km/h | 14572m | 5.0m/s | 0°C | 0% | 0hPa | 0V | 00:00:00 | 00:00:00 | 00:00:00 | |
| KRY50SP | 2026-09-02 12:00:23 | 51.10792 | 17.37547 | 72° | 64km/h | 14545m | 4.3m/s | 0°C | 0% | 0hPa | 0V | 00:00:00 | 00:00:00 | 00:00:00 | |
| SQ6EMJ | 2026-09-02 12:00:17 | 51.10771 | 17.37407 | 85° | 57km/h | 14518m | 5.7m/s | 0°C | 0% | 0hPa | 0V | 00:00:00 | 00:00:00 | 00:00:00 | |
| KRY50SP | 2026-09-02 12:00:12 | 51.10755 | 17.37292 | 75° | 58km/h | 14494m | 5.1m/s | 0°C | 0% | 0hPa | 0V | 00:00:00 | 00:00:00 | 00:00:00 | |
| SQ6EMJ | 2026-09-02 12:00:11 | 51.10751 | 17.37270 | 77° | 58km/h | 14490m | 3.8m/s | 0°C | 0% | 0hPa | 0V | 00:00:00 | 00:00:00 | 00:00:00 | |
| SP3BTT-10 | 2026-09-02 12:00:09 | 51.10743 | 17.37222 | 77° | 55km/h | 14480m | 5.0m/s | 0°C | 0% | 0hPa | 0V | 00:00:00 | 00:00:00 | 00:00:00 | |
| SQ6EMJ | 2026-09-02 12:00:06 | 51.10733 | 17.37150 | 81° | 53km/h | 14466m | 4.2m/s | 0°C | 0% | 0hPa | 0V | 00:00:00 | 00:00:00 | 00:00:00 | |
| SQ6EMJ | 2026-09-02 12:00:00 | 51.10717 | 17.37021 | 77° | 51km/h | 14442m | 3.3m/s | 0°C | 0% | 0hPa | 0V | 00:00:00 | 00:00:00 | 00:00:00 | |
| KRY50SP | 2026-09-02 11:59:58 | 51.10710 | 17.36979 | 80° | 55km/h | 14434m | 3.8m/s | 0°C | 0% | 0hPa | 0V | 00:00:00 | 00:00:00 | 00:00:00 | |
| SQ6EMJ | 2026-09-02 11:59:55 | 51.10706 | 17.36901 | 89° | 47km/h | 14415m | 5.3m/s | 0°C | 0% | 0hPa | 0V | 00:00:00 | 00:00:00 | 00:00:00 | |
| POL1PZ | 2026-09-02 11:59:54 | 51.10705 | 17.36881 | 84° | 49km/h | 14411m | 4.1m/s | 0°C | 0% | 0hPa | 0V | 00:00:00 | 00:00:00 | 00:00:00 | |
| KRY50SP | 2026-09-02 11:59:51 | 51.10699 | 17.36844 | 69° | 49km/h | 14405m | 3.0m/s | 0°C | 0% | 0hPa | 0V | 00:00:00 | 00:00:00 | 00:00:00 | |
| SQ6EMJ | 2026-09-02 11:59:49 | 51.10690 | 17.36803 | 74° | 57km/h | 14399m | 6.3m/s | 0°C | 0% | 0hPa | 0V | 00:00:00 | 00:00:00 | 00:00:00 | |
| SQ6EMJ | 2026-09-02 11:59:43 | 51.10679 | 17.36679 | 77° | 55km/h | 14374m | 4.4m/s | 0°C | 0% | 0hPa | 0V | 00:00:00 | 00:00:00 | 00:00:00 | |
| SQ6EMJ | 2026-09-02 11:59:38 | 51.10657 | 17.36574 | 81° | 58km/h | 14351m | 4.3m/s | 0°C | 0% | 0hPa | 0V | 00:00:00 | 00:00:00 | 00:00:00 | |
| KRY50SP | 2026-09-02 11:59:35 | 51.10649 | 17.36486 | 83° | 55km/h | 14334m | 6.4m/s | 0°C | 0% | 0hPa | 0V | 00:00:00 | 00:00:00 | 00:00:00 | |
| SQ6EMJ | 2026-09-02 11:59:33 | 51.10648 | 17.36464 | 87° | 55km/h | 14329m | 4.1m/s | 0°C | 0% | 0hPa | 0V | 00:00:00 | 00:00:00 | 00:00:00 | |
| POL1PZ | 2026-09-02 11:59:30 | 51.10640 | 17.36401 | 78° | 55km/h | 14316m | 4.5m/s | 0°C | 0% | 0hPa | 0V | 00:00:00 | 00:00:00 | 00:00:00 | |
| SQ6EMJ | 2026-09-02 11:59:28 | 51.10633 | 17.36332 | 82° | 58km/h | 14303m | 5.1m/s | 0°C | 0% | 0hPa | 0V | 00:00:00 | 00:00:00 | 00:00:00 | |
| SQ6EMJ | 2026-09-02 11:59:23 | 51.10621 | 17.36215 | 84° | 53km/h | 14284m | 6.5m/s | 0°C | 0% | 0hPa | 0V | 00:00:00 | 00:00:00 | 00:00:00 | |
| KRY50SP | 2026-09-02 11:59:17 | 51.10607 | 17.36114 | 85° | 51km/h | 14262m | 4.8m/s | 0°C | 0% | 0hPa | 0V | 00:00:00 | 00:00:00 | 00:00:00 | |
| SQ6EMJ | 2026-09-02 11:59:16 | 51.10606 | 17.36093 | 83° | 53km/h | 14257m | 5.8m/s | 0°C | 0% | 0hPa | 0V | 00:00:00 | 00:00:00 | 00:00:00 | |
| POL1PZ | 2026-09-02 11:59:10 | 51.10588 | 17.35970 | 73° | 51km/h | 14229m | 3.3m/s | 0°C | 0% | 0hPa | 0V | 00:00:00 | 00:00:00 | 00:00:00 | |
| SP3BTT-10 | 2026-09-02 11:59:08 | 51.10584 | 17.35933 | 85° | 49km/h | 14220m | 4.3m/s | 0°C | 0% | 0hPa | 0V | 00:00:00 | 00:00:00 | 00:00:00 | |
| KRY50SP | 2026-09-02 11:59:07 | 51.10583 | 17.35915 | 86° | 46km/h | 14216m | 4.8m/s | 0°C | 0% | 0hPa | 0V | 00:00:00 | 00:00:00 | 00:00:00 | |
| SQ6EMJ | 2026-09-02 11:59:05 | 51.10580 | 17.35877 | 82° | 49km/h | 14206m | 4.1m/s | 0°C | 0% | 0hPa | 0V | 00:00:00 | 00:00:00 | 00:00:00 | |
| SQ6EMJ | 2026-09-02 11:59:00 | 51.10571 | 17.35787 | 81° | 47km/h | 14182m | 4.0m/s | 0°C | 0% | 0hPa | 0V | 00:00:00 | 00:00:00 | 00:00:00 | |
| SQ6EMJ | 2026-09-02 11:58:56 | 51.10562 | 17.35697 | 72° | 49km/h | 14157m | 5.6m/s | 0°C | 0% | 0hPa | 0V | 00:00:00 | 00:00:00 | 00:00:00 | |
| KRY50SP | 2026-09-02 11:58:52 | 51.10551 | 17.35647 | 85° | 38km/h | 14141m | 4.0m/s | 0°C | 0% | 0hPa | 0V | 00:00:00 | 00:00:00 | 00:00:00 | |
| POL1PZ | 2026-09-02 11:58:50 | 51.10551 | 17.35617 | 95° | 38km/h | 14128m | 4.5m/s | 0°C | 0% | 0hPa | 0V | 00:00:00 | 00:00:00 | 00:00:00 | |
| KRY50SP | 2026-09-02 11:58:44 | 51.10548 | 17.35535 | 80° | 40km/h | 14099m | 3.2m/s | 0°C | 0% | 0hPa | 0V | 00:00:00 | 00:00:00 | 00:00:00 | |
| SQ6EMJ | 2026-09-02 11:58:42 | 51.10546 | 17.35502 | 94° | 46km/h | 14084m | 6.4m/s | 0°C | 0% | 0hPa | 0V | 00:00:00 | 00:00:00 | 00:00:00 | |
| KRY50SP | 2026-09-02 11:58:37 | 51.10556 | 17.35425 | 104° | 35km/h | 14057m | 7.3m/s | 0°C | 0% | 0hPa | 0V | 00:00:00 | 00:00:00 | 00:00:00 | |
| SQ6EMJ | 2026-09-02 11:58:36 | 51.10558 | 17.35410 | 93° | 38km/h | 14051m | 3.4m/s | 0°C | 0% | 0hPa | 0V | 00:00:00 | 00:00:00 | 00:00:00 | |
| KRY50SP | 2026-09-02 11:58:32 | 51.10558 | 17.35355 | 101° | 35km/h | 14031m | 5.7m/s | 0°C | 0% | 0hPa | 0V | 00:00:00 | 00:00:00 | 00:00:00 | |
| SQ6EMJ | 2026-09-02 11:58:31 | 51.10560 | 17.35340 | 109° | 44km/h | 14026m | 5.7m/s | 0°C | 0% | 0hPa | 0V | 00:00:00 | 00:00:00 | 00:00:00 | |
| POL1PZ | 2026-09-02 11:58:26 | 51.10576 | 17.35257 | 101° | 38km/h | 13994m | 3.5m/s | 0°C | 0% | 0hPa | 0V | 00:00:00 | 00:00:00 | 00:00:00 | |
| SQ6EMJ | 2026-09-02 11:58:25 | 51.10577 | 17.35241 | 99° | 46km/h | 13990m | 3.6m/s | 0°C | 0% | 0hPa | 0V | 00:00:00 | 00:00:00 | 00:00:00 | |
| KRY50SP | 2026-09-02 11:58:24 | 51.10578 | 17.35223 | 95° | 44km/h | 13985m | 5.9m/s | 0°C | 0% | 0hPa | 0V | 00:00:00 | 00:00:00 | 00:00:00 | |
| SQ6EMJ | 2026-09-02 11:58:19 | 51.10580 | 17.35146 | 113° | 33km/h | 13959m | 7.9m/s | 0°C | 0% | 0hPa | 0V | 00:00:00 | 00:00:00 | 00:00:00 | |
| KRY50SP | 2026-09-02 11:58:18 | 51.10583 | 17.35132 | 114° | 42km/h | 13953m | 3.7m/s | 0°C | 0% | 0hPa | 0V | 00:00:00 | 00:00:00 | 00:00:00 | |
| SQ6EMJ | 2026-09-02 11:58:13 | 51.10595 | 17.35036 | 96° | 51km/h | 13923m | 5.1m/s | 0°C | 0% | 0hPa | 0V | 00:00:00 | 00:00:00 | 00:00:00 | |
| KRY50SP | 2026-09-02 11:58:10 | 51.10601 | 17.34986 | 106° | 37km/h | 13906m | 5.7m/s | 0°C | 0% | 0hPa | 0V | 00:00:00 | 00:00:00 | 00:00:00 | |
| SQ6EMJ | 2026-09-02 11:58:08 | 51.10608 | 17.34955 | 106° | 42km/h | 13893m | 6.7m/s | 0°C | 0% | 0hPa | 0V | 00:00:00 | 00:00:00 | 00:00:00 | |
| POL1PZ | 2026-09-02 11:58:05 | 51.10615 | 17.34902 | 107° | 44km/h | 13875m | 3.7m/s | 0°C | 0% | 0hPa | 0V | 00:00:00 | 00:00:00 | 00:00:00 | |
| KRY50SP | 2026-09-02 11:58:03 | 51.10619 | 17.34869 | 94° | 42km/h | 13865m | 2.3m/s | 0°C | 0% | 0hPa | 0V | 00:00:00 | 00:00:00 | 00:00:00 | |
| SQ6EMJ | 2026-09-02 11:58:02 | 51.10620 | 17.34851 | 94° | 44km/h | 13863m | 2.7m/s | 0°C | 0% | 0hPa | 0V | 00:00:00 | 00:00:00 | 00:00:00 | |
| KRY50SP | 2026-09-02 11:57:56 | 51.10638 | 17.34731 | 104° | 51km/h | 13825m | 2.2m/s | 0°C | 0% | 0hPa | 0V | 00:00:00 | 00:00:00 | 00:00:00 | |
| KRY50SP | 2026-09-02 11:57:50 | 51.10649 | 17.34599 | 111° | 60km/h | 13791m | 4.8m/s | 0°C | 0% | 0hPa | 0V | 00:00:00 | 00:00:00 | 00:00:00 | |
| SP3BTT-10 | 2026-09-02 11:57:49 | 51.10654 | 17.34576 | 109° | 62km/h | 13785m | 5.4m/s | 0°C | 0% | 0hPa | 0V | 00:00:00 | 00:00:00 | 00:00:00 | |
| POL1PZ | 2026-09-02 11:57:45 | 51.10665 | 17.34488 | 91° | 55km/h | 13765m | 3.2m/s | 0°C | 0% | 0hPa | 0V | 00:00:00 | 00:00:00 | 00:00:00 | |
| KRY50SP | 2026-09-02 11:57:41 | 51.10675 | 17.34400 | 104° | 62km/h | 13745m | 13.6m/s | 0°C | 0% | 0hPa | 0V | 00:00:00 | 00:00:00 | 00:00:00 | |
| SQ6EMJ | 2026-09-02 11:57:39 | 51.10682 | 17.34343 | 102° | 75km/h | 13727m | 13.2m/s | 0°C | 0% | 0hPa | 0V | 00:00:00 | 00:00:00 | 00:00:00 | |
| KRY50SP | 2026-09-02 11:57:33 | 51.10694 | 17.34186 | 102° | 64km/h | 13688m | 4.2m/s | 0°C | 0% | 0hPa | 0V | 00:00:00 | 00:00:00 | 00:00:00 | |
| SQ6EMJ | 2026-09-02 11:57:27 | 51.10696 | 17.34014 | 91° | 75km/h | 13653m | 3.8m/s | 0°C | 0% | 0hPa | 0V | 00:00:00 | 00:00:00 | 00:00:00 | |
| KRY50SP | 2026-09-02 11:57:25 | 51.10699 | 17.33956 | 102° | 73km/h | 13637m | 4.3m/s | 0°C | 0% | 0hPa | 0V | 00:00:00 | 00:00:00 | 00:00:00 | |
| POL1PZ | 2026-09-02 11:57:22 | 51.10708 | 17.33868 | 98° | 73km/h | 13616m | 6.7m/s | 0°C | 0% | 0hPa | 0V | 00:00:00 | 00:00:00 | 00:00:00 | |
| SQ6EMJ | 2026-09-02 11:57:21 | 51.10710 | 17.33840 | 93° | 71km/h | 13611m | 5.8m/s | 0°C | 0% | 0hPa | 0V | 00:00:00 | 00:00:00 | 00:00:00 | |
| SQ6EMJ | 2026-09-02 11:57:15 | 51.10719 | 17.33687 | 94° | 71km/h | 13577m | 5.2m/s | 0°C | 0% | 0hPa | 0V | 00:00:00 | 00:00:00 | 00:00:00 | |
| SQ6EMJ | 2026-09-02 11:57:09 | 51.10718 | 17.33519 | 93° | 62km/h | 13541m | 3.8m/s | 0°C | 0% | 0hPa | 0V | 00:00:00 | 00:00:00 | 00:00:00 | |
| KRY50SP | 2026-09-02 11:57:05 | 51.10727 | 17.33422 | 96° | 62km/h | 13518m | 6.6m/s | 0°C | 0% | 0hPa | 0V | 00:00:00 | 00:00:00 | 00:00:00 | |
| SQ6EMJ | 2026-09-02 11:57:03 | 51.10726 | 17.33368 | 85° | 68km/h | 13507m | 6.9m/s | 0°C | 0% | 0hPa | 0V | 00:00:00 | 00:00:00 | 00:00:00 | |
| POL1PZ | 2026-09-02 11:57:01 | 51.10723 | 17.33316 | 89° | 62km/h | 13493m | 4.0m/s | 0°C | 0% | 0hPa | 0V | 00:00:00 | 00:00:00 | 00:00:00 | |
| KRY50SP | 2026-09-02 11:56:55 | 51.10719 | 17.33164 | 84° | 64km/h | 13456m | 3.1m/s | 0°C | 0% | 0hPa | 0V | 00:00:00 | 00:00:00 | 00:00:00 | |
| SQ6EMJ | 2026-09-02 11:56:53 | 51.10714 | 17.33116 | 82° | 62km/h | 13442m | 5.7m/s | 0°C | 0% | 0hPa | 0V | 00:00:00 | 00:00:00 | 00:00:00 | |
| KRY50SP | 2026-09-02 11:56:50 | 51.10711 | 17.33039 | 94° | 62km/h | 13423m | 3.6m/s | 0°C | 0% | 0hPa | 0V | 00:00:00 | 00:00:00 | 00:00:00 | |
| SQ6EMJ | 2026-09-02 11:56:47 | 51.10712 | 17.32967 | 87° | 58km/h | 13405m | 4.5m/s | 0°C | 0% | 0hPa | 0V | 00:00:00 | 00:00:00 | 00:00:00 | |
| KRY50SP | 2026-09-02 11:56:45 | 51.10709 | 17.32920 | 86° | 66km/h | 13390m | 5.2m/s | 0°C | 0% | 0hPa | 0V | 00:00:00 | 00:00:00 | 00:00:00 | |
| SQ6EMJ | 2026-09-02 11:56:42 | 51.10698 | 17.32817 | 82° | 66km/h | 13367m | 3.3m/s | 0°C | 0% | 0hPa | 0V | 00:00:00 | 00:00:00 | 00:00:00 | |
| POL1PZ | 2026-09-02 11:56:39 | 51.10693 | 17.32767 | 83° | 60km/h | 13356m | 3.8m/s | 0°C | 0% | 0hPa | 0V | 00:00:00 | 00:00:00 | 00:00:00 | |
| SQ6EMJ | 2026-09-02 11:56:36 | 51.10686 | 17.32692 | 77° | 68km/h | 13343m | 2.4m/s | 0°C | 0% | 0hPa | 0V | 00:00:00 | 00:00:00 | 00:00:00 | |
| KRY50SP | 2026-09-02 11:56:33 | 51.10675 | 17.32611 | 84° | 64km/h | 13326m | 5.2m/s | 0°C | 0% | 0hPa | 0V | 00:00:00 | 00:00:00 | 00:00:00 | |
| SP3BTT-10 | 2026-09-02 11:56:31 | 51.10672 | 17.32559 | 84° | 64km/h | 13315m | 5.2m/s | 0°C | 0% | 0hPa | 0V | 00:00:00 | 00:00:00 | 00:00:00 | |
| KRY50SP | 2026-09-02 11:56:26 | 51.10663 | 17.32439 | 92° | 64km/h | 13281m | 12.7m/s | 0°C | 0% | 0hPa | 0V | 00:00:00 | 00:00:00 | 00:00:00 | |
| SQ6EMJ | 2026-09-02 11:56:25 | 51.10664 | 17.32413 | 94° | 66km/h | 13272m | 4.4m/s | 0°C | 0% | 0hPa | 0V | 00:00:00 | 00:00:00 | 00:00:00 | |
| KRY50SP | 2026-09-02 11:56:20 | 51.10653 | 17.32298 | 75° | 62km/h | 13246m | 4.8m/s | 0°C | 0% | 0hPa | 0V | 00:00:00 | 00:00:00 | 00:00:00 | |
| SQ6EMJ | 2026-09-02 11:56:19 | 51.10649 | 17.32274 | 77° | 60km/h | 13240m | 8.5m/s | 0°C | 0% | 0hPa | 0V | 00:00:00 | 00:00:00 | 00:00:00 | |
| POL1PZ | 2026-09-02 11:56:18 | 51.10646 | 17.32250 | 84° | 62km/h | 13233m | 5.6m/s | 0°C | 0% | 0hPa | 0V | 00:00:00 | 00:00:00 | 00:00:00 | |
| KRY50SP | 2026-09-02 11:56:14 | 51.10646 | 17.32165 | 93° | 46km/h | 13215m | 5.8m/s | 0°C | 0% | 0hPa | 0V | 00:00:00 | 00:00:00 | 00:00:00 | |
| SQ6EMJ | 2026-09-02 11:56:13 | 51.10647 | 17.32147 | 93° | 46km/h | 13208m | 8.1m/s | 0°C | 0% | 0hPa | 0V | 00:00:00 | 00:00:00 | 00:00:00 | |
| SQ6EMJ | 2026-09-02 11:56:09 | 51.10638 | 17.32038 | 89° | 51km/h | 13184m | 4.8m/s | 0°C | 0% | 0hPa | 0V | 00:00:00 | 00:00:00 | 00:00:00 | |
| KRY50SP | 2026-09-02 11:56:08 | 51.10638 | 17.32038 | 89° | 51km/h | 13184m | 4.8m/s | 0°C | 0% | 0hPa | 0V | 00:00:00 | 00:00:00 | 00:00:00 | |
| POL1PZ | 2026-09-02 11:55:57 | 51.10634 | 17.31812 | 79° | 46km/h | 13111m | 4.2m/s | 0°C | 0% | 0hPa | 0V | 00:00:00 | 00:00:00 | 00:00:00 | |
| SQ6EMJ | 2026-09-02 11:55:56 | 51.10633 | 17.31792 | 86° | 49km/h | 13107m | 4.6m/s | 0°C | 0% | 0hPa | 0V | 00:00:00 | 00:00:00 | 00:00:00 | |
| KRY50SP | 2026-09-02 11:55:52 | 51.10642 | 17.31713 | 108° | 51km/h | 13083m | 7.1m/s | 0°C | 0% | 0hPa | 0V | 00:00:00 | 00:00:00 | 00:00:00 | |
| SQ6EMJ | 2026-09-02 11:55:50 | 51.10648 | 17.31672 | 104° | 51km/h | 13073m | 4.5m/s | 0°C | 0% | 0hPa | 0V | 00:00:00 | 00:00:00 | 00:00:00 | |
| SQ6EMJ | 2026-09-02 11:55:45 | 51.10654 | 17.31569 | 95° | 51km/h | 13048m | 4.7m/s | 0°C | 0% | 0hPa | 0V | 00:00:00 | 00:00:00 | 00:00:00 | |
| KRY50SP | 2026-09-02 11:55:43 | 51.10655 | 17.31523 | 91° | 62km/h | 13038m | 5.9m/s | 0°C | 0% | 0hPa | 0V | 00:00:00 | 00:00:00 | 00:00:00 | |
| SQ6EMJ | 2026-09-02 11:55:40 | 51.10654 | 17.31449 | 95° | 57km/h | 13024m | 6.8m/s | 0°C | 0% | 0hPa | 0V | 00:00:00 | 00:00:00 | 00:00:00 | |
| POL1PZ | 2026-09-02 11:55:36 | 51.10670 | 17.31353 | 104° | 68km/h | 13006m | 5.0m/s | 0°C | 0% | 0hPa | 0V | 00:00:00 | 00:00:00 | 00:00:00 | |
| KRY50SP | 2026-09-02 11:55:34 | 51.10675 | 17.31299 | 98° | 68km/h | 12998m | 5.5m/s | 0°C | 0% | 0hPa | 0V | 00:00:00 | 00:00:00 | 00:00:00 | |
| SP3BTT-10 | 2026-09-02 11:55:30 | 51.10687 | 17.31194 | 106° | 64km/h | 12979m | 5.5m/s | 0°C | 0% | 0hPa | 0V | 00:00:00 | 00:00:00 | 00:00:00 | |
| SQ6EMJ | 2026-09-02 11:55:28 | 51.10695 | 17.31141 | 99° | 66km/h | 12970m | 4.2m/s | 0°C | 0% | 0hPa | 0V | 00:00:00 | 00:00:00 | 00:00:00 | |
| KRY50SP | 2026-09-02 11:55:23 | 51.10704 | 17.31006 | 95° | 71km/h | 12945m | 4.2m/s | 0°C | 0% | 0hPa | 0V | 00:00:00 | 00:00:00 | 00:00:00 | |
| SQ6EMJ | 2026-09-02 11:55:22 | 51.10706 | 17.30977 | 98° | 73km/h | 12940m | 6.0m/s | 0°C | 0% | 0hPa | 0V | 00:00:00 | 00:00:00 | 00:00:00 | |
| SQ6EMJ | 2026-09-02 11:55:17 | 51.10722 | 17.30811 | 95° | 71km/h | 12916m | 4.7m/s | 0°C | 0% | 0hPa | 0V | 00:00:00 | 00:00:00 | 00:00:00 | |
| POL1PZ | 2026-09-02 11:55:16 | 51.10722 | 17.30811 | 95° | 71km/h | 12916m | 4.7m/s | 0°C | 0% | 0hPa | 0V | 00:00:00 | 00:00:00 | 00:00:00 | |
| KRY50SP | 2026-09-02 11:55:11 | 51.10724 | 17.30661 | 89° | 69km/h | 12892m | 4.4m/s | 0°C | 0% | 0hPa | 0V | 00:00:00 | 00:00:00 | 00:00:00 | |
| SQ6EMJ | 2026-09-02 11:55:10 | 51.10723 | 17.30633 | 92° | 71km/h | 12887m | 5.9m/s | 0°C | 0% | 0hPa | 0V | 00:00:00 | 00:00:00 | 00:00:00 | |
| KRY50SP | 2026-09-02 11:55:05 | 51.10728 | 17.30494 | 96° | 71km/h | 12866m | 4.6m/s | 0°C | 0% | 0hPa | 0V | 00:00:00 | 00:00:00 | 00:00:00 | |
| KRY50SP | 2026-09-02 11:54:59 | 51.10724 | 17.30317 | 86° | 75km/h | 12839m | 6.0m/s | 0°C | 0% | 0hPa | 0V | 00:00:00 | 00:00:00 | 00:00:00 | |
| POL1PZ | 2026-09-02 11:54:54 | 51.10721 | 17.30180 | 86° | 62km/h | 12815m | 6.0m/s | 0°C | 0% | 0hPa | 0V | 00:00:00 | 00:00:00 | 00:00:00 | |
| KRY50SP | 2026-09-02 11:54:52 | 51.10716 | 17.30130 | 80° | 66km/h | 12806m | 6.7m/s | 0°C | 0% | 0hPa | 0V | 00:00:00 | 00:00:00 | 00:00:00 | |
| SQ6EMJ | 2026-09-02 11:54:48 | 51.10703 | 17.30021 | 83° | 62km/h | 12789m | 4.4m/s | 0°C | 0% | 0hPa | 0V | 00:00:00 | 00:00:00 | 00:00:00 | |
| SQ6EMJ | 2026-09-02 11:54:43 | 51.10697 | 17.29871 | 85° | 58km/h | 12762m | 4.5m/s | 0°C | 0% | 0hPa | 0V | 00:00:00 | 00:00:00 | 00:00:00 | |
| KRY50SP | 2026-09-02 11:54:39 | 51.10690 | 17.29794 | 82° | 66km/h | 12749m | 4.5m/s | 0°C | 0% | 0hPa | 0V | 00:00:00 | 00:00:00 | 00:00:00 | |
| SQ6EMJ | 2026-09-02 11:54:37 | 51.10687 | 17.29746 | 90° | 58km/h | 12740m | 4.0m/s | 0°C | 0% | 0hPa | 0V | 00:00:00 | 00:00:00 | 00:00:00 | |
| POL1PZ | 2026-09-02 11:54:34 | 51.10688 | 17.29673 | 91° | 62km/h | 12728m | 4.9m/s | 0°C | 0% | 0hPa | 0V | 00:00:00 | 00:00:00 | 00:00:00 | |
| KRY50SP | 2026-09-02 11:54:33 | 51.10688 | 17.29648 | 88° | 60km/h | 12724m | 4.2m/s | 0°C | 0% | 0hPa | 0V | 00:00:00 | 00:00:00 | 00:00:00 | |
| SQ6EMJ | 2026-09-02 11:54:32 | 51.10686 | 17.29624 | 81° | 62km/h | 12721m | 4.1m/s | 0°C | 0% | 0hPa | 0V | 00:00:00 | 00:00:00 | 00:00:00 | |
| SQ6EMJ | 2026-09-02 11:54:26 | 51.10681 | 17.29476 | 96° | 55km/h | 12696m | 5.1m/s | 0°C | 0% | 0hPa | 0V | 00:00:00 | 00:00:00 | 00:00:00 | |
| KRY50SP | 2026-09-02 11:54:25 | 51.10682 | 17.29453 | 91° | 58km/h | 12691m | 5.0m/s | 0°C | 0% | 0hPa | 0V | 00:00:00 | 00:00:00 | 00:00:00 | |
| SQ6EMJ | 2026-09-02 11:54:20 | 51.10671 | 17.29327 | 80° | 68km/h | 12669m | 5.8m/s | 0°C | 0% | 0hPa | 0V | 00:00:00 | 00:00:00 | 00:00:00 | |
| KRY50SP | 2026-09-02 11:54:17 | 51.10667 | 17.29249 | 90° | 58km/h | 12656m | 6.2m/s | 0°C | 0% | 0hPa | 0V | 00:00:00 | 00:00:00 | 00:00:00 | |
| SQ6EMJ | 2026-09-02 11:54:15 | 51.10665 | 17.29204 | 86° | 58km/h | 12647m | 5.4m/s | 0°C | 0% | 0hPa | 0V | 00:00:00 | 00:00:00 | 00:00:00 | |
| SP3BTT-10 | 2026-09-02 11:54:14 | 51.10663 | 17.29180 | 82° | 60km/h | 12642m | 5.4m/s | 0°C | 0% | 0hPa | 0V | 00:00:00 | 00:00:00 | 00:00:00 | |
| POL1PZ | 2026-09-02 11:54:13 | 51.10660 | 17.29154 | 82° | 69km/h | 12638m | 3.4m/s | 0°C | 0% | 0hPa | 0V | 00:00:00 | 00:00:00 | 00:00:00 | |
| KRY50SP | 2026-09-02 11:54:12 | 51.10658 | 17.29126 | 83° | 69km/h | 12635m | 4.9m/s | 0°C | 0% | 0hPa | 0V | 00:00:00 | 00:00:00 | 00:00:00 | |
| SQ6EMJ | 2026-09-02 11:54:10 | 51.10654 | 17.29052 | 89° | 57km/h | 12623m | 4.9m/s | 0°C | 0% | 0hPa | 0V | 00:00:00 | 00:00:00 | 00:00:00 | |
| SQ6EMJ | 2026-09-02 11:54:04 | 51.10653 | 17.28926 | 96° | 62km/h | 12597m | 5.3m/s | 0°C | 0% | 0hPa | 0V | 00:00:00 | 00:00:00 | 00:00:00 | |
| SQ6EMJ | 2026-09-02 11:53:58 | 51.10653 | 17.28778 | 86° | 55km/h | 12574m | 5.0m/s | 0°C | 0% | 0hPa | 0V | 00:00:00 | 00:00:00 | 00:00:00 | |
| KRY50SP | 2026-09-02 11:53:55 | 51.10651 | 17.28707 | 93° | 62km/h | 12561m | 4.7m/s | 0°C | 0% | 0hPa | 0V | 00:00:00 | 00:00:00 | 00:00:00 | |
| POL1PZ | 2026-09-02 11:53:52 | 51.10653 | 17.28624 | 91° | 73km/h | 12549m | 4.2m/s | 0°C | 0% | 0hPa | 0V | 00:00:00 | 00:00:00 | 00:00:00 | |
| KRY50SP | 2026-09-02 11:53:50 | 51.10653 | 17.28569 | 92° | 66km/h | 12541m | 4.2m/s | 0°C | 0% | 0hPa | 0V | 00:00:00 | 00:00:00 | 00:00:00 | |
| SQ6EMJ | 2026-09-02 11:53:47 | 51.10649 | 17.28466 | 90° | 62km/h | 12525m | 4.5m/s | 0°C | 0% | 0hPa | 0V | 00:00:00 | 00:00:00 | 00:00:00 | |
| KRY50SP | 2026-09-02 11:53:44 | 51.10650 | 17.28417 | 93° | 60km/h | 12516m | 3.4m/s | 0°C | 0% | 0hPa | 0V | 00:00:00 | 00:00:00 | 00:00:00 | |
| SQ6EMJ | 2026-09-02 11:53:40 | 51.10647 | 17.28306 | 88° | 78km/h | 12502m | 6.4m/s | 0°C | 0% | 0hPa | 0V | 00:00:00 | 00:00:00 | 00:00:00 | |
| KRY50SP | 2026-09-02 11:53:38 | 51.10647 | 17.28246 | 91° | 71km/h | 12494m | 3.9m/s | 0°C | 0% | 0hPa | 0V | 00:00:00 | 00:00:00 | 00:00:00 | |
| SQ6EMJ | 2026-09-02 11:53:34 | 51.10641 | 17.28138 | 88° | 62km/h | 12476m | 8.0m/s | 0°C | 0% | 0hPa | 0V | 00:00:00 | 00:00:00 | 00:00:00 | |
| POL1PZ | 2026-09-02 11:53:33 | 51.10639 | 17.28089 | 85° | 58km/h | 12464m | 6.3m/s | 0°C | 0% | 0hPa | 0V | 00:00:00 | 00:00:00 | 00:00:00 | |
| KRY50SP | 2026-09-02 11:53:25 | 51.10626 | 17.27908 | 82° | 64km/h | 12436m | 4.7m/s | 0°C | 0% | 0hPa | 0V | 00:00:00 | 00:00:00 | 00:00:00 | |
| SQ6EMJ | 2026-09-02 11:53:22 | 51.10620 | 17.27834 | 87° | 58km/h | 12421m | 7.6m/s | 0°C | 0% | 0hPa | 0V | 00:00:00 | 00:00:00 | 00:00:00 | |
| KRY50SP | 2026-09-02 11:53:19 | 51.10614 | 17.27760 | 90° | 62km/h | 12405m | 5.8m/s | 0°C | 0% | 0hPa | 0V | 00:00:00 | 00:00:00 | 00:00:00 | |
| SQ6EMJ | 2026-09-02 11:53:16 | 51.10611 | 17.27685 | 82° | 62km/h | 12392m | 4.1m/s | 0°C | 0% | 0hPa | 0V | 00:00:00 | 00:00:00 | 00:00:00 | |
| KRY50SP | 2026-09-02 11:53:14 | 51.10606 | 17.27636 | 81° | 57km/h | 12385m | 6.3m/s | 0°C | 0% | 0hPa | 0V | 00:00:00 | 00:00:00 | 00:00:00 | |
| POL1PZ | 2026-09-02 11:53:12 | 51.10602 | 17.27590 | 85° | 58km/h | 12376m | 5.5m/s | 0°C | 0% | 0hPa | 0V | 00:00:00 | 00:00:00 | 00:00:00 | |
| SQ6EMJ | 2026-09-02 11:53:11 | 51.10600 | 17.27566 | 84° | 64km/h | 12372m | 5.3m/s | 0°C | 0% | 0hPa | 0V | 00:00:00 | 00:00:00 | 00:00:00 | |
| KRY50SP | 2026-09-02 11:53:02 | 51.10586 | 17.27347 | 90° | 62km/h | 12331m | 5.9m/s | 0°C | 0% | 0hPa | 0V | 00:00:00 | 00:00:00 | 00:00:00 | |
| SQ6EMJ | 2026-09-02 11:52:59 | 51.10582 | 17.27268 | 85° | 66km/h | 12318m | 5.5m/s | 0°C | 0% | 0hPa | 0V | 00:00:00 | 00:00:00 | 00:00:00 | |
| SQ6EMJ | 2026-09-02 11:52:53 | 51.10567 | 17.27114 | 82° | 64km/h | 12291m | 4.3m/s | 0°C | 0% | 0hPa | 0V | 00:00:00 | 00:00:00 | 00:00:00 | |
| POL1PZ | 2026-09-02 11:52:51 | 51.10561 | 17.27059 | 79° | 77km/h | 12283m | 5.8m/s | 0°C | 0% | 0hPa | 0V | 00:00:00 | 00:00:00 | 00:00:00 | |
| SQ6EMJ | 2026-09-02 11:52:47 | 51.10551 | 17.26937 | 85° | 73km/h | 12266m | 3.9m/s | 0°C | 0% | 0hPa | 0V | 00:00:00 | 00:00:00 | 00:00:00 | |
| SQ6EMJ | 2026-09-02 11:52:41 | 51.10531 | 17.26782 | 78° | 66km/h | 12240m | 5.8m/s | 0°C | 0% | 0hPa | 0V | 00:00:00 | 00:00:00 | 00:00:00 | |
| KRY50SP | 2026-09-02 11:52:39 | 51.10522 | 17.26728 | 81° | 71km/h | 12230m | 6.9m/s | 0°C | 0% | 0hPa | 0V | 00:00:00 | 00:00:00 | 00:00:00 | |
| SQ6EMJ | 2026-09-02 11:52:35 | 51.10510 | 17.26619 | 76° | 64km/h | 12214m | 4.3m/s | 0°C | 0% | 0hPa | 0V | 00:00:00 | 00:00:00 | 00:00:00 | |
| SQ6EMJ | 2026-09-02 11:52:31 | 51.10494 | 17.26501 | 82° | 60km/h | 12192m | 5.4m/s | 0°C | 0% | 0hPa | 0V | 00:00:00 | 00:00:00 | 00:00:00 | |
| POL1PZ | 2026-09-02 11:52:30 | 51.10494 | 17.26501 | 82° | 60km/h | 12192m | 5.4m/s | 0°C | 0% | 0hPa | 0V | 00:00:00 | 00:00:00 | 00:00:00 | |
| KRY50SP | 2026-09-02 11:52:28 | 51.10490 | 17.26454 | 81° | 62km/h | 12182m | 6.1m/s | 0°C | 0% | 0hPa | 0V | 00:00:00 | 00:00:00 | 00:00:00 | |
| SQ6EMJ | 2026-09-02 11:52:25 | 51.10477 | 17.26361 | 75° | 55km/h | 12166m | 2.5m/s | 0°C | 0% | 0hPa | 0V | 00:00:00 | 00:00:00 | 00:00:00 | |
| KRY50SP | 2026-09-02 11:52:22 | 51.10470 | 17.26293 | 87° | 58km/h | 12153m | 4.7m/s | 0°C | 0% | 0hPa | 0V | 00:00:00 | 00:00:00 | 00:00:00 | |
| SQ6EMJ | 2026-09-02 11:52:19 | 51.10468 | 17.26248 | 84° | 55km/h | 12145m | 4.6m/s | 0°C | 0% | 0hPa | 0V | 00:00:00 | 00:00:00 | 00:00:00 | |
| SQ6EMJ | 2026-09-02 11:52:14 | 51.10460 | 17.26140 | 84° | 49km/h | 12123m | 3.5m/s | 0°C | 0% | 0hPa | 0V | 00:00:00 | 00:00:00 | 00:00:00 | |
| POL1PZ | 2026-09-02 11:52:09 | 51.10448 | 17.26033 | 84° | 53km/h | 12101m | 5.7m/s | 0°C | 0% | 0hPa | 0V | 00:00:00 | 00:00:00 | 00:00:00 | |
| SQ6EMJ | 2026-09-02 11:52:08 | 51.10446 | 17.26012 | 87° | 51km/h | 12096m | 5.2m/s | 0°C | 0% | 0hPa | 0V | 00:00:00 | 00:00:00 | 00:00:00 | |
| SQ6EMJ | 2026-09-02 11:52:03 | 51.10451 | 17.25902 | 94° | 55km/h | 12074m | 4.3m/s | 0°C | 0% | 0hPa | 0V | 00:00:00 | 00:00:00 | 00:00:00 | |
| KRY50SP | 2026-09-02 11:52:02 | 51.10451 | 17.25880 | 92° | 57km/h | 12070m | 4.4m/s | 0°C | 0% | 0hPa | 0V | 00:00:00 | 00:00:00 | 00:00:00 | |
| SP3BTT-10 | 2026-09-02 11:51:58 | 51.10454 | 17.25784 | 93° | 55km/h | 12051m | 4.8m/s | 0°C | 0% | 0hPa | 0V | 00:00:00 | 00:00:00 | 00:00:00 | |
| SQ6EMJ | 2026-09-02 11:51:55 | 51.10453 | 17.25720 | 85° | 53km/h | 12039m | 2.7m/s | 0°C | 0% | 0hPa | 0V | 00:00:00 | 00:00:00 | 00:00:00 | |
| POL1PZ | 2026-09-02 11:51:49 | 51.10450 | 17.25586 | 87° | 58km/h | 12014m | 5.9m/s | 0°C | 0% | 0hPa | 0V | 00:00:00 | 00:00:00 | 00:00:00 | |
| SQ6EMJ | 2026-09-02 11:51:44 | 51.10442 | 17.25469 | 89° | 57km/h | 11991m | 5.2m/s | 0°C | 0% | 0hPa | 0V | 00:00:00 | 00:00:00 | 00:00:00 | |
| KRY50SP | 2026-09-02 11:51:39 | 51.10434 | 17.25328 | 85° | 55km/h | 11964m | 3.7m/s | 0°C | 0% | 0hPa | 0V | 00:00:00 | 00:00:00 | 00:00:00 | |
| SQ6EMJ | 2026-09-02 11:51:34 | 51.10428 | 17.25221 | 86° | 51km/h | 11942m | 3.2m/s | 0°C | 0% | 0hPa | 0V | 00:00:00 | 00:00:00 | 00:00:00 | |
| POL1PZ | 2026-09-02 11:51:29 | 51.10426 | 17.25131 | 91° | 58km/h | 11925m | 5.3m/s | 0°C | 0% | 0hPa | 0V | 00:00:00 | 00:00:00 | 00:00:00 | |
| SQ6EMJ | 2026-09-02 11:51:28 | 51.10425 | 17.25108 | 89° | 58km/h | 11920m | 4.9m/s | 0°C | 0% | 0hPa | 0V | 00:00:00 | 00:00:00 | 00:00:00 | |
| SQ6EMJ | 2026-09-02 11:51:22 | 51.10423 | 17.24976 | 95° | 49km/h | 11893m | 3.7m/s | 0°C | 0% | 0hPa | 0V | 00:00:00 | 00:00:00 | 00:00:00 | |
| KRY50SP | 2026-09-02 11:51:21 | 51.10424 | 17.24955 | 92° | 55km/h | 11888m | 6.1m/s | 0°C | 0% | 0hPa | 0V | 00:00:00 | 00:00:00 | 00:00:00 | |
| SQ6EMJ | 2026-09-02 11:51:16 | 51.10433 | 17.24830 | 98° | 60km/h | 11865m | 5.6m/s | 0°C | 0% | 0hPa | 0V | 00:00:00 | 00:00:00 | 00:00:00 | |
| KRY50SP | 2026-09-02 11:51:14 | 51.10434 | 17.24783 | 89° | 57km/h | 11854m | 5.1m/s | 0°C | 0% | 0hPa | 0V | 00:00:00 | 00:00:00 | 00:00:00 | |
| SQ6EMJ | 2026-09-02 11:51:11 | 51.10434 | 17.24716 | 91° | 60km/h | 11843m | 3.4m/s | 0°C | 0% | 0hPa | 0V | 00:00:00 | 00:00:00 | 00:00:00 | |
| POL1PZ | 2026-09-02 11:51:08 | 51.10432 | 17.24625 | 86° | 86km/h | 11828m | 4.7m/s | 0°C | 0% | 0hPa | 0V | 00:00:00 | 00:00:00 | 00:00:00 | |
| SQ6EMJ | 2026-09-02 11:51:07 | 51.10427 | 17.24563 | 87° | 66km/h | 11822m | 3.2m/s | 0°C | 0% | 0hPa | 0V | 00:00:00 | 00:00:00 | 00:00:00 | |
| KRY50SP | 2026-09-02 11:51:06 | 51.10427 | 17.24563 | 87° | 66km/h | 11822m | 3.2m/s | 0°C | 0% | 0hPa | 0V | 00:00:00 | 00:00:00 | 00:00:00 | |
| SQ6EMJ | 2026-09-02 11:51:00 | 51.10428 | 17.24440 | 88° | 51km/h | 11777m | 7.0m/s | 0°C | 0% | 0hPa | 0V | 00:00:00 | 00:00:00 | 00:00:00 | |
| KRY50SP | 2026-09-02 11:50:59 | 51.10427 | 17.24418 | 88° | 57km/h | 11770m | 6.6m/s | 0°C | 0% | 0hPa | 0V | 00:00:00 | 00:00:00 | 00:00:00 | |
| SQ6EMJ | 2026-09-02 11:50:54 | 51.10430 | 17.24299 | 83° | 49km/h | 11740m | 7.1m/s | 0°C | 0% | 0hPa | 0V | 00:00:00 | 00:00:00 | 00:00:00 | |
| KRY50SP | 2026-09-02 11:50:53 | 51.10427 | 17.24279 | 79° | 53km/h | 11733m | 7.6m/s | 0°C | 0% | 0hPa | 0V | 00:00:00 | 00:00:00 | 00:00:00 | |
| SQ6EMJ | 2026-09-02 11:50:49 | 51.10407 | 17.24190 | 81° | 58km/h | 11711m | 5.1m/s | 0°C | 0% | 0hPa | 0V | 00:00:00 | 00:00:00 | 00:00:00 | |
| POL1PZ | 2026-09-02 11:50:48 | 51.10406 | 17.24166 | 93° | 58km/h | 11706m | 5.2m/s | 0°C | 0% | 0hPa | 0V | 00:00:00 | 00:00:00 | 00:00:00 | |
| KRY50SP | 2026-09-02 11:50:47 | 51.10407 | 17.24142 | 97° | 64km/h | 11702m | 3.3m/s | 0°C | 0% | 0hPa | 0V | 00:00:00 | 00:00:00 | 00:00:00 | |
| SQ6EMJ | 2026-09-02 11:50:43 | 51.10403 | 17.24053 | 70° | 47km/h | 11682m | 9.6m/s | 0°C | 0% | 0hPa | 0V | 00:00:00 | 00:00:00 | 00:00:00 | |
| KRY50SP | 2026-09-02 11:50:38 | 51.10390 | 17.23959 | 85° | 58km/h | 11655m | 5.3m/s | 0°C | 0% | 0hPa | 0V | 00:00:00 | 00:00:00 | 00:00:00 | |
| SQ6EMJ | 2026-09-02 11:50:32 | 51.10362 | 17.23807 | 86° | 64km/h | 11620m | 5.2m/s | 0°C | 0% | 0hPa | 0V | 00:00:00 | 00:00:00 | 00:00:00 | |
| KRY50SP | 2026-09-02 11:50:29 | 51.10364 | 17.23714 | 83° | 57km/h | 11597m | 6.4m/s | 0°C | 0% | 0hPa | 0V | 00:00:00 | 00:00:00 | 00:00:00 | |
| SQ6EMJ | 2026-09-02 11:50:27 | 51.10361 | 17.23691 | 73° | 62km/h | 11592m | 4.8m/s | 0°C | 0% | 0hPa | 0V | 00:00:00 | 00:00:00 | 00:00:00 | |
| SQ6EMJ | 2026-09-02 11:50:22 | 51.10352 | 17.23571 | 103° | 53km/h | 11565m | 5.0m/s | 0°C | 0% | 0hPa | 0V | 00:00:00 | 00:00:00 | 00:00:00 | |
| KRY50SP | 2026-09-02 11:50:20 | 51.10356 | 17.23529 | 93° | 49km/h | 11552m | 7.2m/s | 0°C | 0% | 0hPa | 0V | 00:00:00 | 00:00:00 | 00:00:00 | |
| SP3BTT-10 | 2026-09-02 11:50:18 | 51.10352 | 17.23490 | 80° | 60km/h | 11542m | 5.4m/s | 0°C | 0% | 0hPa | 0V | 00:00:00 | 00:00:00 | 00:00:00 | |
| SQ6EMJ | 2026-09-02 11:50:16 | 51.10347 | 17.23454 | 82° | 47km/h | 11530m | 4.5m/s | 0°C | 0% | 0hPa | 0V | 00:00:00 | 00:00:00 | 00:00:00 | |
| KRY50SP | 2026-09-02 11:50:15 | 51.10346 | 17.23433 | 92° | 55km/h | 11524m | 6.0m/s | 0°C | 0% | 0hPa | 0V | 00:00:00 | 00:00:00 | 00:00:00 | |
| SQ6EMJ | 2026-09-02 11:50:10 | 51.10343 | 17.23318 | 75° | 49km/h | 11500m | 6.2m/s | 0°C | 0% | 0hPa | 0V | 00:00:00 | 00:00:00 | 00:00:00 | |
| KRY50SP | 2026-09-02 11:50:09 | 51.10339 | 17.23299 | 71° | 49km/h | 11495m | 4.9m/s | 0°C | 0% | 0hPa | 0V | 00:00:00 | 00:00:00 | 00:00:00 | |
| SQ6EMJ | 2026-09-02 11:50:05 | 51.10334 | 17.23203 | 98° | 62km/h | 11475m | 6.7m/s | 0°C | 0% | 0hPa | 0V | 00:00:00 | 00:00:00 | 00:00:00 | |
| SQ6EMJ | 2026-09-02 11:49:59 | 51.10337 | 17.23062 | 82° | 55km/h | 11446m | 7.3m/s | 0°C | 0% | 0hPa | 0V | 00:00:00 | 00:00:00 | 00:00:00 | |
| POL1PZ | 2026-09-02 11:49:57 | 51.10330 | 17.23020 | 77° | 53km/h | 11435m | 5.4m/s | 0°C | 0% | 0hPa | 0V | 00:00:00 | 00:00:00 | 00:00:00 | |
| KRY50SP | 2026-09-02 11:49:55 | 51.10326 | 17.22974 | 88° | 60km/h | 11426m | 4.7m/s | 0°C | 0% | 0hPa | 0V | 00:00:00 | 00:00:00 | 00:00:00 | |
| SQ6EMJ | 2026-09-02 11:49:53 | 51.10324 | 17.22925 | 86° | 58km/h | 11415m | 6.6m/s | 0°C | 0% | 0hPa | 0V | 00:00:00 | 00:00:00 | 00:00:00 | |
| SQ6EMJ | 2026-09-02 11:49:47 | 51.10322 | 17.22775 | 100° | 71km/h | 11382m | 8.2m/s | 0°C | 0% | 0hPa | 0V | 00:00:00 | 00:00:00 | 00:00:00 | |
| KRY50SP | 2026-09-02 11:49:46 | 51.10324 | 17.22748 | 97° | 64km/h | 11374m | 8.3m/s | 0°C | 0% | 0hPa | 0V | 00:00:00 | 00:00:00 | 00:00:00 | |
| SQ6EMJ | 2026-09-02 11:49:42 | 51.10325 | 17.22651 | 91° | 68km/h | 11349m | 6.0m/s | 0°C | 0% | 0hPa | 0V | 00:00:00 | 00:00:00 | 00:00:00 | |
| SQ6EMJ | 2026-09-02 11:49:36 | 51.10338 | 17.22487 | 92° | 71km/h | 11304m | 6.8m/s | 0°C | 0% | 0hPa | 0V | 00:00:00 | 00:00:00 | 00:00:00 | |
| SQ6EMJ | 2026-09-02 11:49:30 | 51.10332 | 17.22325 | 92° | 60km/h | 11270m | 6.2m/s | 0°C | 0% | 0hPa | 0V | 00:00:00 | 00:00:00 | 00:00:00 | |
| SQ6EMJ | 2026-09-02 11:49:24 | 51.10334 | 17.22150 | 87° | 58km/h | 11241m | 7.1m/s | 0°C | 0% | 0hPa | 0V | 00:00:00 | 00:00:00 | 00:00:00 | |
| KRY50SP | 2026-09-02 11:49:23 | 51.10332 | 17.22129 | 78° | 49km/h | 11234m | 6.2m/s | 0°C | 0% | 0hPa | 0V | 00:00:00 | 00:00:00 | 00:00:00 | |
| SQ6EMJ | 2026-09-02 11:49:19 | 51.10322 | 17.22039 | 92° | 66km/h | 11214m | 6.1m/s | 0°C | 0% | 0hPa | 0V | 00:00:00 | 00:00:00 | 00:00:00 | |
| SQ6EMJ | 2026-09-02 11:49:13 | 51.10335 | 17.21875 | 95° | 55km/h | 11177m | 6.1m/s | 0°C | 0% | 0hPa | 0V | 00:00:00 | 00:00:00 | 00:00:00 | |
| SQ6EMJ | 2026-09-02 11:49:08 | 51.10329 | 17.21744 | 88° | 80km/h | 11154m | 7.0m/s | 0°C | 0% | 0hPa | 0V | 00:00:00 | 00:00:00 | 00:00:00 | |
| SQ6EMJ | 2026-09-02 11:49:02 | 51.10326 | 17.21581 | 87° | 49km/h | 11121m | 5.2m/s | 0°C | 0% | 0hPa | 0V | 00:00:00 | 00:00:00 | 00:00:00 | |
| SQ6EMJ | 2026-09-02 11:48:56 | 51.10321 | 17.21428 | 88° | 82km/h | 11085m | 6.8m/s | 0°C | 0% | 0hPa | 0V | 00:00:00 | 00:00:00 | 00:00:00 | |
| POL1PZ | 2026-09-02 11:48:55 | 51.10320 | 17.21396 | 89° | 80km/h | 11079m | 5.3m/s | 0°C | 0% | 0hPa | 0V | 00:00:00 | 00:00:00 | 00:00:00 | |
| SQ6EMJ | 2026-09-02 11:48:51 | 51.10312 | 17.21297 | 86° | 53km/h | 11054m | 3.9m/s | 0°C | 0% | 0hPa | 0V | 00:00:00 | 00:00:00 | 00:00:00 | |
| SQ6EMJ | 2026-09-02 11:48:45 | 51.10318 | 17.21112 | 94° | 78km/h | 11023m | 4.1m/s | 0°C | 0% | 0hPa | 0V | 00:00:00 | 00:00:00 | 00:00:00 | |
| KRY50SP | 2026-09-02 11:48:41 | 51.10321 | 17.21001 | 89° | 68km/h | 10997m | 7.7m/s | 0°C | 0% | 0hPa | 0V | 00:00:00 | 00:00:00 | 00:00:00 | |
| SQ6EMJ | 2026-09-02 11:48:39 | 51.10317 | 17.20947 | 82° | 66km/h | 10987m | 3.7m/s | 0°C | 0% | 0hPa | 0V | 00:00:00 | 00:00:00 | 00:00:00 | |
| POL1PZ | 2026-09-02 11:48:35 | 51.10318 | 17.20859 | 96° | 62km/h | 10970m | 6.7m/s | 0°C | 0% | 0hPa | 0V | 00:00:00 | 00:00:00 | 00:00:00 | |
| SQ6EMJ | 2026-09-02 11:48:34 | 51.10317 | 17.20799 | 86° | 82km/h | 10956m | 7.7m/s | 0°C | 0% | 0hPa | 0V | 00:00:00 | 00:00:00 | 00:00:00 | |
| SP3BTT-10 | 2026-09-02 11:48:28 | 51.10316 | 17.20648 | 91° | 68km/h | 10916m | 8.5m/s | 0°C | 0% | 0hPa | 0V | 00:00:00 | 00:00:00 | 00:00:00 | |
| SQ6EMJ | 2026-09-02 11:48:27 | 51.10316 | 17.20625 | 92° | 53km/h | 10908m | 8.1m/s | 0°C | 0% | 0hPa | 0V | 00:00:00 | 00:00:00 | 00:00:00 | |
| SQ6EMJ | 2026-09-02 11:48:21 | 51.10323 | 17.20459 | 92° | 82km/h | 10866m | 5.2m/s | 0°C | 0% | 0hPa | 0V | 00:00:00 | 00:00:00 | 00:00:00 | |
| SQ6EMJ | 2026-09-02 11:48:16 | 51.10330 | 17.20320 | 91° | 62km/h | 10836m | 8.0m/s | 0°C | 0% | 0hPa | 0V | 00:00:00 | 00:00:00 | 00:00:00 | |
| POL1PZ | 2026-09-02 11:48:13 | 51.10321 | 17.20246 | 77° | 69km/h | 10815m | 5.6m/s | 0°C | 0% | 0hPa | 0V | 00:00:00 | 00:00:00 | 00:00:00 | |
| KRY50SP | 2026-09-02 11:48:10 | 51.10314 | 17.20154 | 90° | 88km/h | 10794m | 7.2m/s | 0°C | 0% | 0hPa | 0V | 00:00:00 | 00:00:00 | 00:00:00 | |
| KRY50SP | 2026-09-02 11:48:04 | 51.10319 | 17.19979 | 93° | 60km/h | 10759m | 7.3m/s | 0°C | 0% | 0hPa | 0V | 00:00:00 | 00:00:00 | 00:00:00 | |
| SQ6EMJ | 2026-09-02 11:47:59 | 51.10324 | 17.19839 | 97° | 77km/h | 10727m | 8.6m/s | 0°C | 0% | 0hPa | 0V | 00:00:00 | 00:00:00 | 00:00:00 | |
| KRY50SP | 2026-09-02 11:47:58 | 51.10326 | 17.19808 | 99° | 78km/h | 10719m | 7.1m/s | 0°C | 0% | 0hPa | 0V | 00:00:00 | 00:00:00 | 00:00:00 | |
| SQ6EMJ | 2026-09-02 11:47:53 | 51.10324 | 17.19674 | 92° | 66km/h | 10688m | 8.4m/s | 0°C | 0% | 0hPa | 0V | 00:00:00 | 00:00:00 | 00:00:00 | |
| POL1PZ | 2026-09-02 11:47:52 | 51.10325 | 17.19646 | 92° | 73km/h | 10680m | 7.8m/s | 0°C | 0% | 0hPa | 0V | 00:00:00 | 00:00:00 | 00:00:00 | |
| SP3BTT-10 | 2026-09-02 11:47:47 | 51.10325 | 17.19487 | 89° | 64km/h | 10645m | 6.2m/s | 0°C | 0% | 0hPa | 0V | 00:00:00 | 00:00:00 | 00:00:00 | |
| SQ6EMJ | 2026-09-02 11:47:42 | 51.10325 | 17.19337 | 97° | 77km/h | 10613m | 7.7m/s | 0°C | 0% | 0hPa | 0V | 00:00:00 | 00:00:00 | 00:00:00 | |
| KRY50SP | 2026-09-02 11:47:37 | 51.10330 | 17.19179 | 85° | 75km/h | 10581m | 6.5m/s | 0°C | 0% | 0hPa | 0V | 00:00:00 | 00:00:00 | 00:00:00 | |
| SQ6EMJ | 2026-09-02 11:47:36 | 51.10328 | 17.19151 | 87° | 68km/h | 10574m | 8.0m/s | 0°C | 0% | 0hPa | 0V | 00:00:00 | 00:00:00 | 00:00:00 | |
| KRY50SP | 2026-09-02 11:47:32 | 51.10332 | 17.19053 | 89° | 69km/h | 10552m | 5.9m/s | 0°C | 0% | 0hPa | 0V | 00:00:00 | 00:00:00 | 00:00:00 | |
| POL1PZ | 2026-09-02 11:47:31 | 51.10330 | 17.19023 | 84° | 78km/h | 10545m | 6.8m/s | 0°C | 0% | 0hPa | 0V | 00:00:00 | 00:00:00 | 00:00:00 | |
| SQ6EMJ | 2026-09-02 11:47:30 | 51.10327 | 17.18991 | 82° | 84km/h | 10538m | 6.6m/s | 0°C | 0% | 0hPa | 0V | 00:00:00 | 00:00:00 | 00:00:00 | |
| SQ6EMJ | 2026-09-02 11:47:24 | 51.10331 | 17.18823 | 93° | 66km/h | 10501m | 2.8m/s | 0°C | 0% | 0hPa | 0V | 00:00:00 | 00:00:00 | 00:00:00 | |
| KRY50SP | 2026-09-02 11:47:21 | 51.10328 | 17.18737 | 84° | 78km/h | 10485m | 5.2m/s | 0°C | 0% | 0hPa | 0V | 00:00:00 | 00:00:00 | 00:00:00 | |
| SQ6EMJ | 2026-09-02 11:47:18 | 51.10322 | 17.18649 | 84° | 64km/h | 10466m | 3.5m/s | 0°C | 0% | 0hPa | 0V | 00:00:00 | 00:00:00 | 00:00:00 | |
| KRY50SP | 2026-09-02 11:47:16 | 51.10319 | 17.18598 | 88° | 66km/h | 10453m | 8.5m/s | 0°C | 0% | 0hPa | 0V | 00:00:00 | 00:00:00 | 00:00:00 | |
| SQ6EMJ | 2026-09-02 11:47:12 | 51.10321 | 17.18481 | 90° | 73km/h | 10431m | 5.1m/s | 0°C | 0% | 0hPa | 0V | 00:00:00 | 00:00:00 | 00:00:00 | |
| POL1PZ | 2026-09-02 11:47:10 | 51.10318 | 17.18420 | 86° | 80km/h | 10420m | 4.5m/s | 0°C | 0% | 0hPa | 0V | 00:00:00 | 00:00:00 | 00:00:00 | |
| KRY50SP | 2026-09-02 11:47:07 | 51.10315 | 17.18332 | 89° | 60km/h | 10404m | 6.2m/s | 0°C | 0% | 0hPa | 0V | 00:00:00 | 00:00:00 | 00:00:00 | |
| SQ6EMJ | 2026-09-02 11:47:06 | 51.10314 | 17.18310 | 89° | 49km/h | 10398m | 4.6m/s | 0°C | 0% | 0hPa | 0V | 00:00:00 | 00:00:00 | 00:00:00 | |
| SQ6EMJ | 2026-09-02 11:46:56 | 51.10325 | 17.18008 | 104° | 73km/h | 10344m | 5.9m/s | 0°C | 0% | 0hPa | 0V | 00:00:00 | 00:00:00 | 00:00:00 | |
| SQ6EMJ | 2026-09-02 11:46:50 | 51.10342 | 17.17890 | 90° | 58km/h | 10306m | 8.1m/s | 0°C | 0% | 0hPa | 0V | 00:00:00 | 00:00:00 | 00:00:00 | |
| POL1PZ | 2026-09-02 11:46:49 | 51.10341 | 17.17864 | 86° | 71km/h | 10298m | 7.5m/s | 0°C | 0% | 0hPa | 0V | 00:00:00 | 00:00:00 | 00:00:00 | |
| SQ6EMJ | 2026-09-02 11:46:43 | 51.10319 | 17.17682 | 80° | 66km/h | 10266m | 8.7m/s | 0°C | 0% | 0hPa | 0V | 00:00:00 | 00:00:00 | 00:00:00 | |
| KRY50SP | 2026-09-02 11:46:39 | 51.10326 | 17.17568 | 94° | 78km/h | 10235m | 6.3m/s | 0°C | 0% | 0hPa | 0V | 00:00:00 | 00:00:00 | 00:00:00 | |
| SQ6EMJ | 2026-09-02 11:46:38 | 51.10325 | 17.17537 | 83° | 78km/h | 10228m | 5.2m/s | 0°C | 0% | 0hPa | 0V | 00:00:00 | 00:00:00 | 00:00:00 | |
| SQ6EMJ | 2026-09-02 11:46:33 | 51.10319 | 17.17345 | 102° | 77km/h | 10189m | 5.1m/s | 0°C | 0% | 0hPa | 0V | 00:00:00 | 00:00:00 | 00:00:00 | |
| POL1PZ | 2026-09-02 11:46:29 | 51.10323 | 17.17260 | 91° | 62km/h | 10170m | 5.9m/s | 0°C | 0% | 0hPa | 0V | 00:00:00 | 00:00:00 | 00:00:00 | |
| SQ6EMJ | 2026-09-02 11:46:27 | 51.10325 | 17.17214 | 104° | 51km/h | 10156m | 6.9m/s | 0°C | 0% | 0hPa | 0V | 00:00:00 | 00:00:00 | 00:00:00 | |
| KRY50SP | 2026-09-02 11:46:25 | 51.10330 | 17.17176 | 101° | 49km/h | 10148m | 3.9m/s | 0°C | 0% | 0hPa | 0V | 00:00:00 | 00:00:00 | 00:00:00 | |
| KRY50SP | 2026-09-02 11:46:21 | 51.10327 | 17.17047 | 93° | 86km/h | 10113m | 8.7m/s | 0°C | 0% | 0hPa | 0V | 00:00:00 | 00:00:00 | 00:00:00 | |
| SQ6EMJ | 2026-09-02 11:46:17 | 51.10325 | 17.16937 | 80° | 53km/h | 10089m | 4.2m/s | 0°C | 0% | 0hPa | 0V | 00:00:00 | 00:00:00 | 00:00:00 | |
| KRY50SP | 2026-09-02 11:46:12 | 51.10324 | 17.16841 | 94° | 73km/h | 10068m | 6.9m/s | 0°C | 0% | 0hPa | 0V | 00:00:00 | 00:00:00 | 00:00:00 | |
| SQ6EMJ | 2026-09-02 11:46:11 | 51.10324 | 17.16810 | 89° | 82km/h | 10061m | 5.9m/s | 0°C | 0% | 0hPa | 0V | 00:00:00 | 00:00:00 | 00:00:00 | |
| POL1PZ | 2026-09-02 11:46:08 | 51.10324 | 17.16716 | 96° | 66km/h | 10048m | 6.5m/s | 0°C | 0% | 0hPa | 0V | 00:00:00 | 00:00:00 | 00:00:00 | |
| SQ6EMJ | 2026-09-02 11:46:05 | 51.10331 | 17.16648 | 102° | 57km/h | 10028m | 8.0m/s | 0°C | 0% | 0hPa | 0V | 00:00:00 | 00:00:00 | 00:00:00 | |
| SQ6EMJ | 2026-09-02 11:45:59 | 51.10340 | 17.16476 | 100° | 57km/h | 9996m | 8.0m/s | 0°C | 0% | 0hPa | 0V | 00:00:00 | 00:00:00 | 00:00:00 | |
| SQ6EMJ | 2026-09-02 11:45:52 | 51.10326 | 17.16317 | 91° | 57km/h | 9954m | 6.0m/s | 0°C | 0% | 0hPa | 0V | 00:00:00 | 00:00:00 | 00:00:00 | |
| KRY50SP | 2026-09-02 11:45:50 | 51.10331 | 17.16272 | 110° | 60km/h | 9946m | 4.0m/s | 0°C | 0% | 0hPa | 0V | 00:00:00 | 00:00:00 | 00:00:00 | |
| POL1PZ | 2026-09-02 11:45:48 | 51.10340 | 17.16221 | 100° | 68km/h | 9938m | 3.4m/s | 0°C | 0% | 0hPa | 0V | 00:00:00 | 00:00:00 | 00:00:00 | |
| SQ6EMJ | 2026-09-02 11:45:45 | 51.10341 | 17.16147 | 83° | 55km/h | 9919m | 7.2m/s | 0°C | 0% | 0hPa | 0V | 00:00:00 | 00:00:00 | 00:00:00 | |
| KRY50SP | 2026-09-02 11:45:40 | 51.10341 | 17.16010 | 92° | 53km/h | 9886m | 3.2m/s | 0°C | 0% | 0hPa | 0V | 00:00:00 | 00:00:00 | 00:00:00 | |
| SQ6EMJ | 2026-09-02 11:45:37 | 51.10340 | 17.15968 | 84° | 51km/h | 9874m | 4.0m/s | 0°C | 0% | 0hPa | 0V | 00:00:00 | 00:00:00 | 00:00:00 | |
| SQ6EMJ | 2026-09-02 11:45:32 | 51.10342 | 17.15822 | 95° | 58km/h | 9845m | 3.0m/s | 0°C | 0% | 0hPa | 0V | 00:00:00 | 00:00:00 | 00:00:00 | |
| SP3BTT-10 | 2026-09-02 11:45:27 | 51.10339 | 17.15733 | 90° | 49km/h | 9819m | 4.4m/s | 0°C | 0% | 0hPa | 0V | 00:00:00 | 00:00:00 | 00:00:00 | |
| SQ6EMJ | 2026-09-02 11:45:26 | 51.10341 | 17.15692 | 102° | 49km/h | 9808m | 3.7m/s | 0°C | 0% | 0hPa | 0V | 00:00:00 | 00:00:00 | 00:00:00 | |
| SQ6EMJ | 2026-09-02 11:45:19 | 51.10339 | 17.15529 | 81° | 53km/h | 9765m | 2.1m/s | 0°C | 0% | 0hPa | 0V | 00:00:00 | 00:00:00 | 00:00:00 | |
| KRY50SP | 2026-09-02 11:45:18 | 51.10336 | 17.15508 | 79° | 49km/h | 9761m | 7.3m/s | 0°C | 0% | 0hPa | 0V | 00:00:00 | 00:00:00 | 00:00:00 | |
| SQ6EMJ | 2026-09-02 11:45:12 | 51.10340 | 17.15401 | 98° | 58km/h | 9737m | 8.7m/s | 0°C | 0% | 0hPa | 0V | 00:00:00 | 00:00:00 | 00:00:00 | |
| SQ6EMJ | 2026-09-02 11:45:07 | 51.10342 | 17.15292 | 83° | 53km/h | 9711m | 3.8m/s | 0°C | 0% | 0hPa | 0V | 00:00:00 | 00:00:00 | 00:00:00 | |
| POL1PZ | 2026-09-02 11:45:06 | 51.10340 | 17.15270 | 79° | 58km/h | 9705m | 9.1m/s | 0°C | 0% | 0hPa | 0V | 00:00:00 | 00:00:00 | 00:00:00 | |
| KRY50SP | 2026-09-02 11:45:03 | 51.10342 | 17.15203 | 105° | 53km/h | 9688m | 6.6m/s | 0°C | 0% | 0hPa | 0V | 00:00:00 | 00:00:00 | 00:00:00 | |
| SQ6EMJ | 2026-09-02 11:45:01 | 51.10347 | 17.15162 | 97° | 51km/h | 9678m | 6.6m/s | 0°C | 0% | 0hPa | 0V | 00:00:00 | 00:00:00 | 00:00:00 | |
| KRY50SP | 2026-09-02 11:44:57 | 51.10344 | 17.15053 | 95° | 51km/h | 9650m | 5.7m/s | 0°C | 0% | 0hPa | 0V | 00:00:00 | 00:00:00 | 00:00:00 | |
| SQ6EMJ | 2026-09-02 11:44:55 | 51.10345 | 17.15034 | 97° | 46km/h | 9645m | 3.9m/s | 0°C | 0% | 0hPa | 0V | 00:00:00 | 00:00:00 | 00:00:00 | |
| SQ6EMJ | 2026-09-02 11:44:49 | 51.10343 | 17.14929 | 96° | 55km/h | 9616m | 2.4m/s | 0°C | 0% | 0hPa | 0V | 00:00:00 | 00:00:00 | 00:00:00 | |
| SQ6EMJ | 2026-09-02 11:44:46 | 51.10355 | 17.14830 | 91° | 42km/h | 9590m | 4.0m/s | 0°C | 0% | 0hPa | 0V | 00:00:00 | 00:00:00 | 00:00:00 | |
| KRY50SP | 2026-09-02 11:44:34 | 51.10358 | 17.14627 | 94° | 46km/h | 9533m | 7.2m/s | 0°C | 0% | 0hPa | 0V | 00:00:00 | 00:00:00 | 00:00:00 | |
| SQ6EMJ | 2026-09-02 11:44:26 | 51.10358 | 17.14464 | 93° | 44km/h | 9490m | 3.8m/s | 0°C | 0% | 0hPa | 0V | 00:00:00 | 00:00:00 | 00:00:00 | |
| POL1PZ | 2026-09-02 11:44:25 | 51.10358 | 17.14445 | 93° | 49km/h | 9484m | 7.5m/s | 0°C | 0% | 0hPa | 0V | 00:00:00 | 00:00:00 | 00:00:00 | |
| KRY50SP | 2026-09-02 11:44:22 | 51.10360 | 17.14386 | 94° | 51km/h | 9466m | 7.2m/s | 0°C | 0% | 0hPa | 0V | 00:00:00 | 00:00:00 | 00:00:00 | |
| SQ6EMJ | 2026-09-02 11:44:20 | 51.10360 | 17.14345 | 87° | 51km/h | 9456m | 6.5m/s | 0°C | 0% | 0hPa | 0V | 00:00:00 | 00:00:00 | 00:00:00 | |
| SP3BTT-10 | 2026-09-02 11:44:15 | 51.10357 | 17.14238 | 99° | 44km/h | 9426m | 4.6m/s | 0°C | 0% | 0hPa | 0V | 00:00:00 | 00:00:00 | 00:00:00 | |
| SQ6EMJ | 2026-09-02 11:44:09 | 51.10358 | 17.14160 | 73° | 35km/h | 9398m | 8.1m/s | 0°C | 0% | 0hPa | 0V | 00:00:00 | 00:00:00 | 00:00:00 | |
| POL1PZ | 2026-09-02 11:44:04 | 51.10360 | 17.14062 | 95° | 53km/h | 9368m | 2.3m/s | 0°C | 0% | 0hPa | 0V | 00:00:00 | 00:00:00 | 00:00:00 | |
| SQ6EMJ | 2026-09-02 11:44:03 | 51.10361 | 17.14041 | 92° | 49km/h | 9364m | 4.7m/s | 0°C | 0% | 0hPa | 0V | 00:00:00 | 00:00:00 | 00:00:00 | |
| KRY50SP | 2026-09-02 11:43:58 | 51.10355 | 17.13945 | 84° | 49km/h | 9338m | 3.5m/s | 0°C | 0% | 0hPa | 0V | 00:00:00 | 00:00:00 | 00:00:00 | |
| SQ6EMJ | 2026-09-02 11:43:57 | 51.10354 | 17.13926 | 95° | 46km/h | 9333m | 5.6m/s | 0°C | 0% | 0hPa | 0V | 00:00:00 | 00:00:00 | 00:00:00 | |
| SQ6EMJ | 2026-09-02 11:43:50 | 51.10342 | 17.13803 | 79° | 53km/h | 9301m | 7.0m/s | 0°C | 0% | 0hPa | 0V | 00:00:00 | 00:00:00 | 00:00:00 | |
| POL1PZ | 2026-09-02 11:43:44 | 51.10329 | 17.13688 | 72° | 49km/h | 9265m | 4.7m/s | 0°C | 0% | 0hPa | 0V | 00:00:00 | 00:00:00 | 00:00:00 | |
| SQ6EMJ | 2026-09-02 11:43:43 | 51.10324 | 17.13650 | 83° | 47km/h | 9256m | 6.4m/s | 0°C | 0% | 0hPa | 0V | 00:00:00 | 00:00:00 | 00:00:00 | |
| KRY50SP | 2026-09-02 11:43:41 | 51.10324 | 17.13630 | 89° | 51km/h | 9250m | 4.4m/s | 0°C | 0% | 0hPa | 0V | 00:00:00 | 00:00:00 | 00:00:00 | |
| KRY50SP | 2026-09-02 11:43:36 | 51.10312 | 17.13528 | 88° | 42km/h | 9225m | 7.3m/s | 0°C | 0% | 0hPa | 0V | 00:00:00 | 00:00:00 | 00:00:00 | |
| KRY50SP | 2026-09-02 11:43:30 | 51.10301 | 17.13414 | 66° | 55km/h | 9191m | 3.0m/s | 0°C | 0% | 0hPa | 0V | 00:00:00 | 00:00:00 | 00:00:00 | |
| KRY50SP | 2026-09-02 11:43:25 | 51.10287 | 17.13325 | 89° | 44km/h | 9168m | 5.0m/s | 0°C | 0% | 0hPa | 0V | 00:00:00 | 00:00:00 | 00:00:00 | |
| POL1PZ | 2026-09-02 11:43:23 | 51.10288 | 17.13285 | 89° | 57km/h | 9156m | 5.4m/s | 0°C | 0% | 0hPa | 0V | 00:00:00 | 00:00:00 | 00:00:00 | |
| SQ6EMJ | 2026-09-02 11:43:21 | 51.10287 | 17.13237 | 87° | 57km/h | 9145m | 7.4m/s | 0°C | 0% | 0hPa | 0V | 00:00:00 | 00:00:00 | 00:00:00 | |
| SQ6EMJ | 2026-09-02 11:43:16 | 51.10269 | 17.13118 | 85° | 55km/h | 9109m | 6.0m/s | 0°C | 0% | 0hPa | 0V | 00:00:00 | 00:00:00 | 00:00:00 | |
| SQ6EMJ | 2026-09-02 11:43:09 | 51.10262 | 17.12997 | 82° | 49km/h | 9075m | 6.5m/s | 0°C | 0% | 0hPa | 0V | 00:00:00 | 00:00:00 | 00:00:00 | |
| KRY50SP | 2026-09-02 11:43:08 | 51.10260 | 17.12978 | 81° | 49km/h | 9069m | 6.2m/s | 0°C | 0% | 0hPa | 0V | 00:00:00 | 00:00:00 | 00:00:00 | |
| SQ6EMJ | 2026-09-02 11:43:03 | 51.10247 | 17.12893 | 70° | 51km/h | 9044m | 3.2m/s | 0°C | 0% | 0hPa | 0V | 00:00:00 | 00:00:00 | 00:00:00 | |
| POL1PZ | 2026-09-02 11:43:02 | 51.10242 | 17.12873 | 73° | 53km/h | 9039m | 6.3m/s | 0°C | 0% | 0hPa | 0V | 00:00:00 | 00:00:00 | 00:00:00 | |
| POL1PZ | 2026-09-02 11:42:41 | 51.10188 | 17.12466 | 70° | 55km/h | 8926m | 2.0m/s | 0°C | 0% | 0hPa | 0V | 00:00:00 | 00:00:00 | 00:00:00 | |
| POL1PZ | 2026-09-02 11:42:21 | 51.10138 | 17.12085 | 96° | 49km/h | 8818m | 1.9m/s | 0°C | 0% | 0hPa | 0V | 00:00:00 | 00:00:00 | 00:00:00 | |
| KRY50SP | 2026-09-02 11:42:07 | 51.10114 | 17.11820 | 75° | 49km/h | 8738m | 6.1m/s | 0°C | 0% | 0hPa | 0V | 00:00:00 | 00:00:00 | 00:00:00 | |
| SQ6EMJ | 2026-09-02 11:42:00 | 51.10109 | 17.11702 | 81° | 57km/h | 8703m | 4.3m/s | 0°C | 0% | 0hPa | 0V | 00:00:00 | 00:00:00 | 00:00:00 | |
| POL1PZ | 2026-09-02 11:41:59 | 51.10106 | 17.11679 | 76° | 62km/h | 8698m | 5.8m/s | 0°C | 0% | 0hPa | 0V | 00:00:00 | 00:00:00 | 00:00:00 | |
| SQ6EMJ | 2026-09-02 11:41:52 | 51.10101 | 17.11563 | 77° | 35km/h | 8659m | 6.6m/s | 0°C | 0% | 0hPa | 0V | 00:00:00 | 00:00:00 | 00:00:00 | |
| KRY50SP | 2026-09-02 11:41:48 | 51.10086 | 17.11480 | 79° | 60km/h | 8636m | 1.9m/s | 0°C | 0% | 0hPa | 0V | 00:00:00 | 00:00:00 | 00:00:00 | |
| SQ6EMJ | 2026-09-02 11:41:45 | 51.10080 | 17.11413 | 83° | 44km/h | 8622m | 6.0m/s | 0°C | 0% | 0hPa | 0V | 00:00:00 | 00:00:00 | 00:00:00 | |
| SQ6EMJ | 2026-09-02 11:41:39 | 51.10060 | 17.11307 | 78° | 57km/h | 8581m | 8.2m/s | 0°C | 0% | 0hPa | 0V | 00:00:00 | 00:00:00 | 00:00:00 | |
| POL1PZ | 2026-09-02 11:41:38 | 51.10057 | 17.11284 | 81° | 58km/h | 8574m | 4.3m/s | 0°C | 0% | 0hPa | 0V | 00:00:00 | 00:00:00 | 00:00:00 | |
| SQ6EMJ | 2026-09-02 11:41:33 | 51.10055 | 17.11196 | 94° | 42km/h | 8549m | 2.0m/s | 0°C | 0% | 0hPa | 0V | 00:00:00 | 00:00:00 | 00:00:00 | |
| SQ6EMJ | 2026-09-02 11:41:22 | 51.10050 | 17.11006 | 70° | 55km/h | 8489m | 6.4m/s | 0°C | 0% | 0hPa | 0V | 00:00:00 | 00:00:00 | 00:00:00 | |
| KRY50SP | 2026-09-02 11:41:21 | 51.10045 | 17.10986 | 74° | 49km/h | 8482m | 6.3m/s | 0°C | 0% | 0hPa | 0V | 00:00:00 | 00:00:00 | 00:00:00 | |
| POL1PZ | 2026-09-02 11:41:16 | 51.10038 | 17.10899 | 81° | 47km/h | 8447m | 8.6m/s | 0°C | 0% | 0hPa | 0V | 00:00:00 | 00:00:00 | 00:00:00 | |
| SQ6EMJ | 2026-09-02 11:41:08 | 51.10022 | 17.10748 | 80° | 53km/h | 8400m | 5.1m/s | 0°C | 0% | 0hPa | 0V | 00:00:00 | 00:00:00 | 00:00:00 | |
| SQ6EMJ | 2026-09-02 11:41:02 | 51.10014 | 17.10644 | 77° | 42km/h | 8368m | 2.0m/s | 0°C | 0% | 0hPa | 0V | 00:00:00 | 00:00:00 | 00:00:00 | |
| POL1PZ | 2026-09-02 11:40:56 | 51.10006 | 17.10530 | 84° | 44km/h | 8338m | 2.6m/s | 0°C | 0% | 0hPa | 0V | 00:00:00 | 00:00:00 | 00:00:00 | |
| SQ6EMJ | 2026-09-02 11:40:50 | 51.09993 | 17.10435 | 79° | 40km/h | 8305m | 8.5m/s | 0°C | 0% | 0hPa | 0V | 00:00:00 | 00:00:00 | 00:00:00 | |
| SQ6EMJ | 2026-09-02 11:40:42 | 51.09979 | 17.10306 | 80° | 51km/h | 8254m | 7.4m/s | 0°C | 0% | 0hPa | 0V | 00:00:00 | 00:00:00 | 00:00:00 | |
| SQ6EMJ | 2026-09-02 11:40:36 | 51.09956 | 17.10190 | 66° | 40km/h | 8216m | 4.4m/s | 0°C | 0% | 0hPa | 0V | 00:00:00 | 00:00:00 | 00:00:00 | |
| SQ6EMJ | 2026-09-02 11:40:30 | 51.09948 | 17.10077 | 92° | 49km/h | 8182m | 7.5m/s | 0°C | 0% | 0hPa | 0V | 00:00:00 | 00:00:00 | 00:00:00 | |
| POL1PZ | 2026-09-02 11:40:27 | 51.09941 | 17.10022 | 72° | 42km/h | 8163m | 8.9m/s | 0°C | 0% | 0hPa | 0V | 00:00:00 | 00:00:00 | 00:00:00 | |
| SQ6EMJ | 2026-09-02 11:40:25 | 51.09936 | 17.09986 | 83° | 49km/h | 8150m | 5.6m/s | 0°C | 0% | 0hPa | 0V | 00:00:00 | 00:00:00 | 00:00:00 | |
| SQ6EMJ | 2026-09-02 11:40:20 | 51.09925 | 17.09884 | 73° | 46km/h | 8122m | 5.7m/s | 0°C | 0% | 0hPa | 0V | 00:00:00 | 00:00:00 | 00:00:00 | |
| SQ6EMJ | 2026-09-02 11:40:14 | 51.09913 | 17.09759 | 85° | 44km/h | 8085m | 4.2m/s | 0°C | 0% | 0hPa | 0V | 00:00:00 | 00:00:00 | 00:00:00 | |
| POL1PZ | 2026-09-02 11:40:06 | 51.09905 | 17.09608 | 76° | 51km/h | 8048m | 3.8m/s | 0°C | 0% | 0hPa | 0V | 00:00:00 | 00:00:00 | 00:00:00 | |
| SQ6EMJ | 2026-09-02 11:40:00 | 51.09894 | 17.09489 | 80° | 57km/h | 8009m | 4.0m/s | 0°C | 0% | 0hPa | 0V | 00:00:00 | 00:00:00 | 00:00:00 | |
| POL1PZ | 2026-09-02 11:39:46 | 51.09873 | 17.09201 | 93° | 40km/h | 7942m | 4.6m/s | 0°C | 0% | 0hPa | 0V | 00:00:00 | 00:00:00 | 00:00:00 | |
| POL1PZ | 2026-09-02 11:39:24 | 51.09849 | 17.08740 | 87° | 57km/h | 7808m | 7.2m/s | 0°C | 0% | 0hPa | 0V | 00:00:00 | 00:00:00 | 00:00:00 | |
| POL1PZ | 2026-09-02 11:39:03 | 51.09835 | 17.08265 | 89° | 51km/h | 7684m | 5.5m/s | 0°C | 0% | 0hPa | 0V | 00:00:00 | 00:00:00 | 00:00:00 | |
| SQ6EMJ | 2026-09-02 11:38:58 | 51.09836 | 17.08167 | 92° | 66km/h | 7651m | 7.2m/s | 0°C | 0% | 0hPa | 0V | 00:00:00 | 00:00:00 | 00:00:00 | |
| POL1PZ | 2026-09-02 11:38:43 | 51.09829 | 17.07849 | 97° | 47km/h | 7558m | 3.0m/s | 0°C | 0% | 0hPa | 0V | 00:00:00 | 00:00:00 | 00:00:00 | |
| SQ6EMJ | 2026-09-02 11:38:31 | 51.09815 | 17.07590 | 84° | 64km/h | 7490m | 3.7m/s | 0°C | 0% | 0hPa | 0V | 00:00:00 | 00:00:00 | 00:00:00 | |
| POL1PZ | 2026-09-02 11:38:23 | 51.09803 | 17.07408 | 94° | 77km/h | 7447m | 5.1m/s | 0°C | 0% | 0hPa | 0V | 00:00:00 | 00:00:00 | 00:00:00 | |
| POL1PZ | 2026-09-02 11:37:56 | 51.09812 | 17.06833 | 91° | 51km/h | 7262m | 7.7m/s | 0°C | 0% | 0hPa | 0V | 00:00:00 | 00:00:00 | 00:00:00 | |
| SQ6EMJ | 2026-09-02 11:37:50 | 51.09816 | 17.06684 | 87° | 53km/h | 7222m | 4.9m/s | 0°C | 0% | 0hPa | 0V | 00:00:00 | 00:00:00 | 00:00:00 | |
| POL1PZ | 2026-09-02 11:37:30 | 51.09828 | 17.06229 | 88° | 62km/h | 7100m | 4.2m/s | 0°C | 0% | 0hPa | 0V | 00:00:00 | 00:00:00 | 00:00:00 | |
| SQ6EMJ | 2026-09-02 11:37:10 | 51.09834 | 17.05741 | 99° | 53km/h | 6979m | 2.5m/s | 0°C | 0% | 0hPa | 0V | 00:00:00 | 00:00:00 | 00:00:00 | |
| POL1PZ | 2026-09-02 11:37:08 | 51.09836 | 17.05703 | 93° | 47km/h | 6969m | 4.2m/s | 0°C | 0% | 0hPa | 0V | 00:00:00 | 00:00:00 | 00:00:00 | |
| SQ6EMJ | 2026-09-02 11:37:05 | 51.09834 | 17.05642 | 84° | 58km/h | 6949m | 6.5m/s | 0°C | 0% | 0hPa | 0V | 00:00:00 | 00:00:00 | 00:00:00 | |
| SQ6EMJ | 2026-09-02 11:37:00 | 51.09822 | 17.05475 | 93° | 64km/h | 6916m | 5.2m/s | 0°C | 0% | 0hPa | 0V | 00:00:00 | 00:00:00 | 00:00:00 | |
| POL1PZ | 2026-09-02 11:36:46 | 51.09832 | 17.05139 | 87° | 64km/h | 6830m | 6.8m/s | 0°C | 0% | 0hPa | 0V | 00:00:00 | 00:00:00 | 00:00:00 | |
| SQ6EMJ | 2026-09-02 11:36:44 | 51.09827 | 17.05093 | 85° | 49km/h | 6815m | 7.2m/s | 0°C | 0% | 0hPa | 0V | 00:00:00 | 00:00:00 | 00:00:00 | |
| SQ6EMJ | 2026-09-02 11:36:36 | 51.09825 | 17.04919 | 103° | 53km/h | 6762m | 5.8m/s | 0°C | 0% | 0hPa | 0V | 00:00:00 | 00:00:00 | 00:00:00 | |
| SQ6EMJ | 2026-09-02 11:36:31 | 51.09818 | 17.04806 | 83° | 47km/h | 6732m | 4.1m/s | 0°C | 0% | 0hPa | 0V | 00:00:00 | 00:00:00 | 00:00:00 | |
| SQ6EMJ | 2026-09-02 11:36:26 | 51.09822 | 17.04696 | 87° | 58km/h | 6703m | 4.7m/s | 0°C | 0% | 0hPa | 0V | 00:00:00 | 00:00:00 | 00:00:00 | |
| SQ6EMJ | 2026-09-02 11:36:20 | 51.09824 | 17.04567 | 86° | 57km/h | 6666m | 3.1m/s | 0°C | 0% | 0hPa | 0V | 00:00:00 | 00:00:00 | 00:00:00 | |
| SQ6EMJ | 2026-09-02 11:36:14 | 51.09825 | 17.04453 | 84° | 57km/h | 6630m | 5.1m/s | 0°C | 0% | 0hPa | 0V | 00:00:00 | 00:00:00 | 00:00:00 | |
| SQ6EMJ | 2026-09-02 11:36:05 | 51.09820 | 17.04260 | 84° | 38km/h | 6573m | 4.9m/s | 0°C | 0% | 0hPa | 0V | 00:00:00 | 00:00:00 | 00:00:00 | |
| POL1PZ | 2026-09-02 11:36:02 | 51.09824 | 17.04210 | 106° | 46km/h | 6561m | 5.2m/s | 0°C | 0% | 0hPa | 0V | 00:00:00 | 00:00:00 | 00:00:00 | |
| SQ6EMJ | 2026-09-02 11:35:54 | 51.09842 | 17.04066 | 97° | 62km/h | 6513m | 2.2m/s | 0°C | 0% | 0hPa | 0V | 00:00:00 | 00:00:00 | 00:00:00 | |
| SQ6EMJ | 2026-09-02 11:35:49 | 51.09845 | 17.03963 | 112° | 26km/h | 6477m | 2.4m/s | 0°C | 0% | 0hPa | 0V | 00:00:00 | 00:00:00 | 00:00:00 | |
| SQ6EMJ | 2026-09-02 11:35:42 | 51.09850 | 17.03857 | 97° | 57km/h | 6449m | 4.8m/s | 0°C | 0% | 0hPa | 0V | 00:00:00 | 00:00:00 | 00:00:00 | |
| POL1PZ | 2026-09-02 11:35:33 | 51.09862 | 17.03704 | 102° | 42km/h | 6401m | 6.2m/s | 0°C | 0% | 0hPa | 0V | 00:00:00 | 00:00:00 | 00:00:00 | |
| POL1PZ | 2026-09-02 11:35:13 | 51.09835 | 17.03400 | 113° | 31km/h | 6292m | 4.2m/s | 0°C | 0% | 0hPa | 0V | 00:00:00 | 00:00:00 | 00:00:00 | |
| SQ6EMJ | 2026-09-02 11:35:11 | 51.09843 | 17.03378 | 116° | 31km/h | 6287m | -1.2m/s | 0°C | 0% | 0hPa | 0V | 00:00:00 | 00:00:00 | 00:00:00 | |
| SQ6EMJ | 2026-09-02 11:34:55 | 51.09847 | 17.03147 | 104° | 49km/h | 6206m | 3.8m/s | 0°C | 0% | 0hPa | 0V | 00:00:00 | 00:00:00 | 00:00:00 | |
| POL1PZ | 2026-09-02 11:34:43 | 51.09855 | 17.02969 | 86° | 20km/h | 6147m | 4.1m/s | 0°C | 0% | 0hPa | 0V | 00:00:00 | 00:00:00 | 00:00:00 | |
| SQ6EMJ | 2026-09-02 11:34:29 | 51.09830 | 17.02754 | 102° | 24km/h | 6065m | 5.8m/s | 0°C | 0% | 0hPa | 0V | 00:00:00 | 00:00:00 | 00:00:00 | |
| SQ6EMJ | 2026-09-02 11:34:21 | 51.09835 | 17.02652 | 74° | 44km/h | 6029m | 4.4m/s | 0°C | 0% | 0hPa | 0V | 00:00:00 | 00:00:00 | 00:00:00 | |
| SQ6EMJ | 2026-09-02 11:34:16 | 51.09827 | 17.02597 | 61° | 35km/h | 6006m | 5.0m/s | 0°C | 0% | 0hPa | 0V | 00:00:00 | 00:00:00 | 00:00:00 | |
| SQ6EMJ | 2026-09-02 11:34:10 | 51.09816 | 17.02501 | 93° | 35km/h | 5965m | 3.0m/s | 0°C | 0% | 0hPa | 0V | 00:00:00 | 00:00:00 | 00:00:00 | |
| SQ6EMJ | 2026-09-02 11:34:02 | 51.09801 | 17.02389 | 86° | 47km/h | 5924m | 5.5m/s | 0°C | 0% | 0hPa | 0V | 00:00:00 | 00:00:00 | 00:00:00 | |
| SQ6EMJ | 2026-09-02 11:33:53 | 51.09761 | 17.02223 | 79° | 40km/h | 5870m | 4.0m/s | 0°C | 0% | 0hPa | 0V | 00:00:00 | 00:00:00 | 00:00:00 | |
| POL1PZ | 2026-09-02 11:33:41 | 51.09719 | 17.02047 | 69° | 51km/h | 5811m | 4.6m/s | 0°C | 0% | 0hPa | 0V | 00:00:00 | 00:00:00 | 00:00:00 | |
| SQ6EMJ | 2026-09-02 11:33:35 | 51.09699 | 17.01971 | 60° | 42km/h | 5782m | 4.9m/s | 0°C | 0% | 0hPa | 0V | 00:00:00 | 00:00:00 | 00:00:00 | |
| SQ6EMJ | 2026-09-02 11:33:30 | 51.09689 | 17.01893 | 81° | 29km/h | 5757m | 5.9m/s | 0°C | 0% | 0hPa | 0V | 00:00:00 | 00:00:00 | 00:00:00 | |
| POL1PZ | 2026-09-02 11:33:18 | 51.09657 | 17.01714 | 69° | 31km/h | 5684m | 6.0m/s | 0°C | 0% | 0hPa | 0V | 00:00:00 | 00:00:00 | 00:00:00 | |
| SQ6EMJ | 2026-09-02 11:32:29 | 51.09555 | 17.00936 | 109° | 33km/h | 5412m | 6.3m/s | 0°C | 0% | 0hPa | 0V | 00:00:00 | 00:00:00 | 00:00:00 | |
| SQ6EMJ | 2026-09-02 11:32:21 | 51.09558 | 17.00811 | 107° | 37km/h | 5363m | 5.5m/s | 0°C | 0% | 0hPa | 0V | 00:00:00 | 00:00:00 | 00:00:00 | |
| POL1PZ | 2026-09-02 11:32:18 | 51.09558 | 17.00779 | 70° | 33km/h | 5343m | 5.0m/s | 0°C | 0% | 0hPa | 0V | 00:00:00 | 00:00:00 | 00:00:00 | |
| SQ6EMJ | 2026-09-02 11:32:15 | 51.09554 | 17.00733 | 95° | 49km/h | 5324m | 5.9m/s | 0°C | 0% | 0hPa | 0V | 00:00:00 | 00:00:00 | 00:00:00 | |
| SQ6EMJ | 2026-09-02 11:32:02 | 51.09547 | 17.00481 | 86° | 58km/h | 5242m | 1.8m/s | 0°C | 0% | 0hPa | 0V | 00:00:00 | 00:00:00 | 00:00:00 | |
| SQ6EMJ | 2026-09-02 11:31:56 | 51.09550 | 17.00367 | 103° | 37km/h | 5209m | 3.9m/s | 0°C | 0% | 0hPa | 0V | 00:00:00 | 00:00:00 | 00:00:00 | |
| POL1PZ | 2026-09-02 11:31:51 | 51.09559 | 17.00295 | 107° | 49km/h | 5179m | 5.3m/s | 0°C | 0% | 0hPa | 0V | 00:00:00 | 00:00:00 | 00:00:00 | |
| SQ6EMJ | 2026-09-02 11:31:49 | 51.09565 | 17.00259 | 98° | 40km/h | 5170m | 4.6m/s | 0°C | 0% | 0hPa | 0V | 00:00:00 | 00:00:00 | 00:00:00 | |
| POL1PZ | 2026-09-02 11:31:30 | 51.09572 | 16.99918 | 104° | 55km/h | 5060m | 4.0m/s | 0°C | 0% | 0hPa | 0V | 00:00:00 | 00:00:00 | 00:00:00 | |
| SQ6EMJ | 2026-09-02 11:31:21 | 51.09576 | 16.99730 | 89° | 46km/h | 5008m | 5.1m/s | 0°C | 0% | 0hPa | 0V | 00:00:00 | 00:00:00 | 00:00:00 | |
| SQ6EMJ | 2026-09-02 11:31:14 | 51.09581 | 16.99587 | 105° | 57km/h | 4965m | 5.2m/s | 0°C | 0% | 0hPa | 0V | 00:00:00 | 00:00:00 | 00:00:00 | |
| POL1PZ | 2026-09-02 11:31:05 | 51.09610 | 16.99408 | 102° | 37km/h | 4914m | 2.9m/s | 0°C | 0% | 0hPa | 0V | 00:00:00 | 00:00:00 | 00:00:00 | |
| POL1PZ | 2026-09-02 11:30:38 | 51.09721 | 16.98942 | 130° | 55km/h | 4752m | 5.4m/s | 0°C | 0% | 0hPa | 0V | 00:00:00 | 00:00:00 | 00:00:00 | |
| SQ6EMJ | 2026-09-02 11:30:07 | 51.09890 | 16.98474 | 140° | 38km/h | 4578m | 3.4m/s | 0°C | 0% | 0hPa | 0V | 00:00:00 | 00:00:00 | 00:00:00 | |
| SQ6EMJ | 2026-09-02 11:29:53 | 51.09967 | 16.98290 | 130° | 55km/h | 4502m | 4.6m/s | 0°C | 0% | 0hPa | 0V | 00:00:00 | 00:00:00 | 00:00:00 | |
| POL1PZ | 2026-09-02 11:29:51 | 51.09983 | 16.98257 | 130° | 44km/h | 4494m | 3.1m/s | 0°C | 0% | 0hPa | 0V | 00:00:00 | 00:00:00 | 00:00:00 |